<?xml version="1.0" encoding="UTF-8" standalone="no" ?>
<gpx xmlns="http://www.topografix.com/GPX/1/1" xmlns:xsi="http://www.w3.org/2001/XMLSchema-instance" xsi:schemaLocation="http://www.topografix.com/GPX/1/1 http://www.topografix.com/GPX/1/1/gpx.xsd" version="1.1" creator="VisuGPX - https://www.visugpx.com">
  <metadata>
    <name>73 CCC Flémalle - Les Waleffes - Flémalle</name>
    <desc><![CDATA[Randonnée au départ de l'Auto5 de Flémalle.
Flémalle - Engis - Amay - Ampsin - Fize Fontaine - Villers le Bouillet - Warnant-Dreye - Vieux Waleffe - Les Waleffes - Celles - Haneffe - Jeneffe - Velroux - Bierset - Hollogne - Jemeppe - Flémalle.]]></desc>
  </metadata>
  <trk>
    <name><![CDATA[73 CCC]]></name>
    <extensions>
      <line xmlns="http://www.topografix.com/GPX/gpx_style/0/2">
        <color>0000FF</color>
        <width>4</width>
      </line>
    </extensions>
    <trkseg>
      <trkpt lat="50.60419" lon="5.48423">
        <ele>65.1</ele>
        <time>2019-11-09T08:05:30.000Z</time>
      </trkpt>
      <trkpt lat="50.60406" lon="5.48439">
        <ele>62</ele>
        <time>2019-11-09T08:05:58.000Z</time>
        <extensions>
          <gpxtpx:TrackPointExtension xmlns:gpxtpx="http://www.garmin.com/xmlschemas/TrackPointExtension/v1">
            <gpxtpx:hr>93</gpxtpx:hr>
          </gpxtpx:TrackPointExtension>
        </extensions>
      </trkpt>
      <trkpt lat="50.60383" lon="5.48471">
        <ele>64.4</ele>
        <time>2019-11-09T08:06:22.000Z</time>
      </trkpt>
      <trkpt lat="50.60365" lon="5.48494">
        <ele>64.3</ele>
        <time>2019-11-09T08:06:30.000Z</time>
      </trkpt>
      <trkpt lat="50.6035" lon="5.48516">
        <ele>63.7</ele>
        <time>2019-11-09T08:06:31.000Z</time>
      </trkpt>
      <trkpt lat="50.60368" lon="5.48549">
        <ele>63.5</ele>
        <time>2019-11-09T08:08:22.000Z</time>
      </trkpt>
      <trkpt lat="50.60377" lon="5.48534">
        <ele>64</ele>
        <time>2019-11-09T08:13:57.000Z</time>
      </trkpt>
      <trkpt lat="50.60393" lon="5.48512">
        <ele>63.7</ele>
        <time>2019-11-09T08:13:59.000Z</time>
      </trkpt>
      <trkpt lat="50.6042" lon="5.48477">
        <ele>64.9</ele>
        <time>2019-11-09T08:22:07.000Z</time>
      </trkpt>
      <trkpt lat="50.6046" lon="5.48427">
        <ele>65.7</ele>
        <time>2019-11-09T08:22:08.000Z</time>
      </trkpt>
      <trkpt lat="50.60487" lon="5.48396">
        <ele>66.7</ele>
        <time>2019-11-09T08:22:17.000Z</time>
      </trkpt>
      <trkpt lat="50.60498" lon="5.48397">
        <ele>66.8</ele>
        <time>2019-11-09T08:22:22.000Z</time>
      </trkpt>
      <trkpt lat="50.60504" lon="5.48388">
        <ele>67.4</ele>
        <time>2019-11-09T08:22:25.000Z</time>
      </trkpt>
      <trkpt lat="50.60504" lon="5.48374">
        <ele>67.5</ele>
        <time>2019-11-09T08:22:26.000Z</time>
      </trkpt>
      <trkpt lat="50.60494" lon="5.48363">
        <ele>67</ele>
        <time>2019-11-09T08:22:35.000Z</time>
      </trkpt>
      <trkpt lat="50.60483" lon="5.48326">
        <ele>67.7</ele>
        <time>2019-11-09T08:22:37.000Z</time>
      </trkpt>
      <trkpt lat="50.60471" lon="5.48281">
        <ele>67.7</ele>
        <time>2019-11-09T08:22:41.000Z</time>
      </trkpt>
      <trkpt lat="50.60456" lon="5.4823">
        <ele>68.2</ele>
        <time>2019-11-09T08:22:45.000Z</time>
      </trkpt>
      <trkpt lat="50.60438" lon="5.48176">
        <ele>68.2</ele>
        <time>2019-11-09T08:22:47.000Z</time>
      </trkpt>
      <trkpt lat="50.60412" lon="5.48111">
        <ele>66.5</ele>
        <time>2019-11-09T08:22:56.000Z</time>
      </trkpt>
      <trkpt lat="50.60385" lon="5.48046">
        <ele>66.8</ele>
        <time>2019-11-09T08:22:58.000Z</time>
      </trkpt>
      <trkpt lat="50.60359" lon="5.47989">
        <ele>67.4</ele>
        <time>2019-11-09T08:23:25.000Z</time>
      </trkpt>
      <trkpt lat="50.60331" lon="5.47939">
        <ele>66.6</ele>
        <time>2019-11-09T08:23:31.000Z</time>
      </trkpt>
      <trkpt lat="50.60308" lon="5.47898">
        <ele>66.9</ele>
        <time>2019-11-09T08:24:14.000Z</time>
      </trkpt>
      <trkpt lat="50.60298" lon="5.47881">
        <ele>66.8</ele>
        <time>2019-11-09T08:24:28.000Z</time>
      </trkpt>
      <trkpt lat="50.60274" lon="5.47841">
        <ele>66.2</ele>
        <time>2019-11-09T08:24:29.000Z</time>
      </trkpt>
      <trkpt lat="50.60263" lon="5.4782">
        <ele>65.5</ele>
        <time>2019-11-09T08:25:42.000Z</time>
      </trkpt>
      <trkpt lat="50.60246" lon="5.47793">
        <ele>64.7</ele>
        <time>2019-11-09T08:41:26.000Z</time>
      </trkpt>
      <trkpt lat="50.60228" lon="5.47759">
        <ele>64.5</ele>
        <time>2019-11-09T08:42:52.000Z</time>
      </trkpt>
      <trkpt lat="50.60198" lon="5.47707">
        <ele>64.8</ele>
        <time>2019-11-09T08:42:59.000Z</time>
      </trkpt>
      <trkpt lat="50.60172" lon="5.47662">
        <ele>65.1</ele>
        <time>2019-11-09T08:47:51.000Z</time>
      </trkpt>
      <trkpt lat="50.60153" lon="5.47631">
        <ele>60.200000762939</ele>
        <time>2019-11-09T08:47:53.000Z</time>
        <extensions>
          <gpxtpx:TrackPointExtension xmlns:gpxtpx="http://www.garmin.com/xmlschemas/TrackPointExtension/v1">
            <gpxtpx:hr>99</gpxtpx:hr>
          </gpxtpx:TrackPointExtension>
        </extensions>
      </trkpt>
      <trkpt lat="50.60137" lon="5.476">
        <ele>66.3</ele>
        <time>2019-11-09T08:47:55.000Z</time>
      </trkpt>
      <trkpt lat="50.6011" lon="5.47553">
        <ele>67.1</ele>
        <time>2019-11-09T08:47:58.000Z</time>
      </trkpt>
      <trkpt lat="50.60094" lon="5.47525">
        <ele>67.1</ele>
        <time>2019-11-09T08:47:59.000Z</time>
      </trkpt>
      <trkpt lat="50.60061" lon="5.47466">
        <ele>65.7</ele>
        <time>2019-11-09T08:48:00.000Z</time>
      </trkpt>
      <trkpt lat="50.60028" lon="5.47408">
        <ele>65.6</ele>
        <time>2019-11-09T08:48:03.000Z</time>
      </trkpt>
      <trkpt lat="50.59981" lon="5.47323">
        <ele>65.8</ele>
        <time>2019-11-09T08:48:05.000Z</time>
      </trkpt>
      <trkpt lat="50.59956" lon="5.47281">
        <ele>65.4</ele>
        <time>2019-11-09T08:48:09.000Z</time>
      </trkpt>
      <trkpt lat="50.59944" lon="5.4725">
        <ele>65</ele>
        <time>2019-11-09T08:48:14.000Z</time>
      </trkpt>
      <trkpt lat="50.59926" lon="5.47189">
        <ele>64.6</ele>
        <time>2019-11-09T08:48:15.000Z</time>
      </trkpt>
      <trkpt lat="50.59916" lon="5.47138">
        <ele>63.7</ele>
        <time>2019-11-09T08:48:20.000Z</time>
      </trkpt>
      <trkpt lat="50.59901" lon="5.47046">
        <ele>64.1</ele>
        <time>2019-11-09T08:48:23.000Z</time>
      </trkpt>
      <trkpt lat="50.59878" lon="5.46904">
        <ele>67.2</ele>
        <time>2019-11-09T08:48:29.000Z</time>
      </trkpt>
      <trkpt lat="50.59859" lon="5.46827">
        <ele>68.5</ele>
        <time>2019-11-09T08:48:33.000Z</time>
      </trkpt>
      <trkpt lat="50.59847" lon="5.46783">
        <ele>68.5</ele>
        <time>2019-11-09T08:48:35.000Z</time>
      </trkpt>
      <trkpt lat="50.59815" lon="5.46705">
        <ele>67.3</ele>
        <time>2019-11-09T08:48:40.000Z</time>
      </trkpt>
      <trkpt lat="50.59801" lon="5.46673">
        <ele>67.2</ele>
        <time>2019-11-09T08:48:44.000Z</time>
      </trkpt>
      <trkpt lat="50.59785" lon="5.46641">
        <ele>67.1</ele>
        <time>2019-11-09T08:48:54.000Z</time>
      </trkpt>
      <trkpt lat="50.59772" lon="5.46616">
        <ele>67.2</ele>
        <time>2019-11-09T08:48:57.000Z</time>
      </trkpt>
      <trkpt lat="50.59761" lon="5.46598">
        <ele>67</ele>
        <time>2019-11-09T08:49:00.000Z</time>
      </trkpt>
      <trkpt lat="50.59751" lon="5.46573">
        <ele>67.6</ele>
        <time>2019-11-09T08:49:01.000Z</time>
      </trkpt>
      <trkpt lat="50.59737" lon="5.46538">
        <ele>67.3</ele>
        <time>2019-11-09T08:49:02.000Z</time>
      </trkpt>
      <trkpt lat="50.5972" lon="5.46495">
        <ele>66.7</ele>
        <time>2019-11-09T08:49:05.000Z</time>
      </trkpt>
      <trkpt lat="50.59705" lon="5.46459">
        <ele>66.5</ele>
        <time>2019-11-09T08:49:07.000Z</time>
      </trkpt>
      <trkpt lat="50.59697" lon="5.46436">
        <ele>66.4</ele>
        <time>2019-11-09T08:49:10.000Z</time>
      </trkpt>
      <trkpt lat="50.59686" lon="5.46409">
        <ele>66</ele>
        <time>2019-11-09T08:49:19.000Z</time>
      </trkpt>
      <trkpt lat="50.5967" lon="5.46365">
        <ele>65.7</ele>
        <time>2019-11-09T08:49:26.000Z</time>
      </trkpt>
      <trkpt lat="50.59648" lon="5.46309">
        <ele>66.5</ele>
        <time>2019-11-09T08:49:27.000Z</time>
      </trkpt>
      <trkpt lat="50.59621" lon="5.46239">
        <ele>67.2</ele>
        <time>2019-11-09T08:49:32.000Z</time>
      </trkpt>
      <trkpt lat="50.59602" lon="5.46186">
        <ele>67.5</ele>
        <time>2019-11-09T08:49:33.000Z</time>
      </trkpt>
      <trkpt lat="50.59587" lon="5.46145">
        <ele>67.7</ele>
        <time>2019-11-09T08:49:42.000Z</time>
      </trkpt>
      <trkpt lat="50.59568" lon="5.46096">
        <ele>68.7</ele>
        <time>2019-11-09T08:49:43.000Z</time>
      </trkpt>
      <trkpt lat="50.59551" lon="5.46056">
        <ele>68</ele>
        <time>2019-11-09T08:49:49.000Z</time>
      </trkpt>
      <trkpt lat="50.5954" lon="5.46024">
        <ele>68</ele>
        <time>2019-11-09T08:49:52.000Z</time>
      </trkpt>
      <trkpt lat="50.59517" lon="5.45967">
        <ele>68.6</ele>
        <time>2019-11-09T08:49:56.000Z</time>
      </trkpt>
      <trkpt lat="50.59494" lon="5.45907">
        <ele>68.3</ele>
        <time>2019-11-09T08:49:59.000Z</time>
      </trkpt>
      <trkpt lat="50.59475" lon="5.45861">
        <ele>67</ele>
        <time>2019-11-09T08:50:04.000Z</time>
      </trkpt>
      <trkpt lat="50.59461" lon="5.45825">
        <ele>66.4</ele>
        <time>2019-11-09T08:50:06.000Z</time>
      </trkpt>
      <trkpt lat="50.5944" lon="5.45771">
        <ele>66.4</ele>
        <time>2019-11-09T08:50:07.000Z</time>
      </trkpt>
      <trkpt lat="50.59424" lon="5.45729">
        <ele>67.4</ele>
        <time>2019-11-09T08:50:09.000Z</time>
      </trkpt>
      <trkpt lat="50.59404" lon="5.45675">
        <ele>67.5</ele>
        <time>2019-11-09T08:50:10.000Z</time>
      </trkpt>
      <trkpt lat="50.59392" lon="5.45644">
        <ele>67.6</ele>
        <time>2019-11-09T08:50:12.000Z</time>
      </trkpt>
      <trkpt lat="50.5938" lon="5.45607">
        <ele>67.5</ele>
        <time>2019-11-09T08:50:15.000Z</time>
      </trkpt>
      <trkpt lat="50.59367" lon="5.45585">
        <ele>61.200000762939</ele>
        <time>2019-11-09T08:50:17.000Z</time>
        <extensions>
          <gpxtpx:TrackPointExtension xmlns:gpxtpx="http://www.garmin.com/xmlschemas/TrackPointExtension/v1">
            <gpxtpx:hr>103</gpxtpx:hr>
          </gpxtpx:TrackPointExtension>
        </extensions>
      </trkpt>
      <trkpt lat="50.59352" lon="5.45557">
        <ele>61.400001525879</ele>
        <time>2019-11-09T08:50:23.000Z</time>
        <extensions>
          <gpxtpx:TrackPointExtension xmlns:gpxtpx="http://www.garmin.com/xmlschemas/TrackPointExtension/v1">
            <gpxtpx:hr>106</gpxtpx:hr>
          </gpxtpx:TrackPointExtension>
        </extensions>
      </trkpt>
      <trkpt lat="50.59331" lon="5.45521">
        <ele>61.599998474121</ele>
        <time>2019-11-09T08:50:25.000Z</time>
        <extensions>
          <gpxtpx:TrackPointExtension xmlns:gpxtpx="http://www.garmin.com/xmlschemas/TrackPointExtension/v1">
            <gpxtpx:hr>107</gpxtpx:hr>
          </gpxtpx:TrackPointExtension>
        </extensions>
      </trkpt>
      <trkpt lat="50.59296" lon="5.45459">
        <ele>62</ele>
        <time>2019-11-09T08:50:26.000Z</time>
        <extensions>
          <gpxtpx:TrackPointExtension xmlns:gpxtpx="http://www.garmin.com/xmlschemas/TrackPointExtension/v1">
            <gpxtpx:hr>106</gpxtpx:hr>
          </gpxtpx:TrackPointExtension>
        </extensions>
      </trkpt>
      <trkpt lat="50.59288" lon="5.45436">
        <ele>61.799999237061</ele>
        <time>2019-11-09T08:50:31.000Z</time>
        <extensions>
          <gpxtpx:TrackPointExtension xmlns:gpxtpx="http://www.garmin.com/xmlschemas/TrackPointExtension/v1">
            <gpxtpx:hr>105</gpxtpx:hr>
          </gpxtpx:TrackPointExtension>
        </extensions>
      </trkpt>
      <trkpt lat="50.59283" lon="5.45421">
        <ele>62</ele>
        <time>2019-11-09T08:50:37.000Z</time>
        <extensions>
          <gpxtpx:TrackPointExtension xmlns:gpxtpx="http://www.garmin.com/xmlschemas/TrackPointExtension/v1">
            <gpxtpx:hr>106</gpxtpx:hr>
          </gpxtpx:TrackPointExtension>
        </extensions>
      </trkpt>
      <trkpt lat="50.59279" lon="5.45403">
        <ele>62</ele>
        <time>2019-11-09T08:50:38.000Z</time>
        <extensions>
          <gpxtpx:TrackPointExtension xmlns:gpxtpx="http://www.garmin.com/xmlschemas/TrackPointExtension/v1">
            <gpxtpx:hr>106</gpxtpx:hr>
          </gpxtpx:TrackPointExtension>
        </extensions>
      </trkpt>
      <trkpt lat="50.59273" lon="5.45379">
        <ele>65.8</ele>
        <time>2019-11-09T08:50:40.000Z</time>
      </trkpt>
      <trkpt lat="50.59259" lon="5.45311">
        <ele>61.799999237061</ele>
        <time>2019-11-09T08:50:42.000Z</time>
        <extensions>
          <gpxtpx:TrackPointExtension xmlns:gpxtpx="http://www.garmin.com/xmlschemas/TrackPointExtension/v1">
            <gpxtpx:hr>106</gpxtpx:hr>
          </gpxtpx:TrackPointExtension>
        </extensions>
      </trkpt>
      <trkpt lat="50.59255" lon="5.45296">
        <ele>64.8</ele>
        <time>2019-11-09T08:50:43.000Z</time>
      </trkpt>
      <trkpt lat="50.59241" lon="5.45285">
        <ele>63.8</ele>
        <time>2019-11-09T08:50:48.000Z</time>
      </trkpt>
      <trkpt lat="50.59242" lon="5.45264">
        <ele>63.9</ele>
        <time>2019-11-09T08:50:49.000Z</time>
      </trkpt>
      <trkpt lat="50.59242" lon="5.4523">
        <ele>64.7</ele>
        <time>2019-11-09T08:50:55.000Z</time>
      </trkpt>
      <trkpt lat="50.59235" lon="5.45174">
        <ele>66</ele>
        <time>2019-11-09T08:50:56.000Z</time>
      </trkpt>
      <trkpt lat="50.59224" lon="5.45106">
        <ele>65.8</ele>
        <time>2019-11-09T08:51:02.000Z</time>
      </trkpt>
      <trkpt lat="50.59212" lon="5.45032">
        <ele>65.5</ele>
        <time>2019-11-09T08:51:03.000Z</time>
      </trkpt>
      <trkpt lat="50.59204" lon="5.44984">
        <ele>65.6</ele>
        <time>2019-11-09T08:51:04.000Z</time>
      </trkpt>
      <trkpt lat="50.59197" lon="5.44944">
        <ele>65.4</ele>
        <time>2019-11-09T08:51:08.000Z</time>
      </trkpt>
      <trkpt lat="50.59188" lon="5.44896">
        <ele>66.2</ele>
        <time>2019-11-09T08:51:11.000Z</time>
      </trkpt>
      <trkpt lat="50.59178" lon="5.44864">
        <ele>66.2</ele>
        <time>2019-11-09T08:51:16.000Z</time>
      </trkpt>
      <trkpt lat="50.59172" lon="5.44847">
        <ele>65.1</ele>
        <time>2019-11-09T08:51:22.000Z</time>
      </trkpt>
      <trkpt lat="50.59159" lon="5.44821">
        <ele>63.4</ele>
        <time>2019-11-09T08:51:23.000Z</time>
      </trkpt>
      <trkpt lat="50.59134" lon="5.44766">
        <ele>64</ele>
        <time>2019-11-09T08:51:25.000Z</time>
      </trkpt>
      <trkpt lat="50.59117" lon="5.4473">
        <ele>65.2</ele>
        <time>2019-11-09T08:51:26.000Z</time>
      </trkpt>
      <trkpt lat="50.59086" lon="5.44664">
        <ele>66.1</ele>
        <time>2019-11-09T08:51:30.000Z</time>
      </trkpt>
      <trkpt lat="50.59072" lon="5.44637">
        <ele>66.6</ele>
        <time>2019-11-09T08:51:31.000Z</time>
      </trkpt>
      <trkpt lat="50.59045" lon="5.44565">
        <ele>66.5</ele>
        <time>2019-11-09T08:51:34.000Z</time>
      </trkpt>
      <trkpt lat="50.59033" lon="5.44508">
        <ele>66.7</ele>
        <time>2019-11-09T08:51:36.000Z</time>
      </trkpt>
      <trkpt lat="50.59015" lon="5.44419">
        <ele>67.4</ele>
        <time>2019-11-09T08:51:40.000Z</time>
      </trkpt>
      <trkpt lat="50.58999" lon="5.4433">
        <ele>70.3</ele>
        <time>2019-11-09T08:51:45.000Z</time>
      </trkpt>
      <trkpt lat="50.58984" lon="5.44246">
        <ele>71.1</ele>
        <time>2019-11-09T08:51:46.000Z</time>
      </trkpt>
      <trkpt lat="50.5897" lon="5.44156">
        <ele>70</ele>
        <time>2019-11-09T08:51:50.000Z</time>
      </trkpt>
      <trkpt lat="50.58964" lon="5.44119">
        <ele>70.2</ele>
        <time>2019-11-09T08:51:53.000Z</time>
      </trkpt>
      <trkpt lat="50.58954" lon="5.44043">
        <ele>68.2</ele>
        <time>2019-11-09T08:51:54.000Z</time>
      </trkpt>
      <trkpt lat="50.58943" lon="5.43964">
        <ele>65.7</ele>
        <time>2019-11-09T08:51:56.000Z</time>
      </trkpt>
      <trkpt lat="50.58932" lon="5.43879">
        <ele>68.2</ele>
        <time>2019-11-09T08:51:58.000Z</time>
      </trkpt>
      <trkpt lat="50.58927" lon="5.43843">
        <ele>66.9</ele>
        <time>2019-11-09T08:52:01.000Z</time>
      </trkpt>
      <trkpt lat="50.58916" lon="5.4377">
        <ele>65.3</ele>
        <time>2019-11-09T08:52:06.000Z</time>
      </trkpt>
      <trkpt lat="50.58907" lon="5.43684">
        <ele>66.8</ele>
        <time>2019-11-09T08:52:08.000Z</time>
      </trkpt>
      <trkpt lat="50.58902" lon="5.43647">
        <ele>67.5</ele>
        <time>2019-11-09T08:52:16.000Z</time>
      </trkpt>
      <trkpt lat="50.58896" lon="5.43572">
        <ele>69.4</ele>
        <time>2019-11-09T08:52:24.000Z</time>
      </trkpt>
      <trkpt lat="50.5889" lon="5.43496">
        <ele>69.1</ele>
        <time>2019-11-09T08:52:25.000Z</time>
      </trkpt>
      <trkpt lat="50.58885" lon="5.43425">
        <ele>69.8</ele>
        <time>2019-11-09T08:52:29.000Z</time>
      </trkpt>
      <trkpt lat="50.58882" lon="5.43378">
        <ele>71.7</ele>
        <time>2019-11-09T08:52:30.000Z</time>
      </trkpt>
      <trkpt lat="50.58875" lon="5.43325">
        <ele>73.7</ele>
        <time>2019-11-09T08:52:32.000Z</time>
      </trkpt>
      <trkpt lat="50.58868" lon="5.43276">
        <ele>73.8</ele>
        <time>2019-11-09T08:52:34.000Z</time>
      </trkpt>
      <trkpt lat="50.58852" lon="5.43213">
        <ele>74.3</ele>
        <time>2019-11-09T08:52:37.000Z</time>
      </trkpt>
      <trkpt lat="50.58831" lon="5.43129">
        <ele>64.6</ele>
        <time>2019-11-09T08:52:38.000Z</time>
      </trkpt>
      <trkpt lat="50.58806" lon="5.43036">
        <ele>65.6</ele>
        <time>2019-11-09T08:52:40.000Z</time>
      </trkpt>
      <trkpt lat="50.58783" lon="5.42937">
        <ele>65.8</ele>
        <time>2019-11-09T08:52:43.000Z</time>
      </trkpt>
      <trkpt lat="50.58775" lon="5.42905">
        <ele>66.5</ele>
        <time>2019-11-09T08:52:48.000Z</time>
      </trkpt>
      <trkpt lat="50.58759" lon="5.42842">
        <ele>65.1</ele>
        <time>2019-11-09T08:52:50.000Z</time>
      </trkpt>
      <trkpt lat="50.58743" lon="5.42777">
        <ele>63.9</ele>
        <time>2019-11-09T08:52:54.000Z</time>
      </trkpt>
      <trkpt lat="50.58732" lon="5.42733">
        <ele>63.9</ele>
        <time>2019-11-09T08:52:58.000Z</time>
      </trkpt>
      <trkpt lat="50.58715" lon="5.42664">
        <ele>63.6</ele>
        <time>2019-11-09T08:52:59.000Z</time>
      </trkpt>
      <trkpt lat="50.587" lon="5.42589">
        <ele>63.4</ele>
        <time>2019-11-09T08:53:03.000Z</time>
      </trkpt>
      <trkpt lat="50.58693" lon="5.4255">
        <ele>63.9</ele>
        <time>2019-11-09T08:53:05.000Z</time>
      </trkpt>
      <trkpt lat="50.58686" lon="5.42479">
        <ele>64.7</ele>
        <time>2019-11-09T08:53:08.000Z</time>
      </trkpt>
      <trkpt lat="50.58677" lon="5.42399">
        <ele>65.2</ele>
        <time>2019-11-09T08:53:10.000Z</time>
      </trkpt>
      <trkpt lat="50.58672" lon="5.42338">
        <ele>65.1</ele>
        <time>2019-11-09T08:53:13.000Z</time>
      </trkpt>
      <trkpt lat="50.58667" lon="5.42294">
        <ele>64.7</ele>
        <time>2019-11-09T08:53:14.000Z</time>
      </trkpt>
      <trkpt lat="50.58658" lon="5.42207">
        <ele>64.7</ele>
        <time>2019-11-09T08:53:18.000Z</time>
      </trkpt>
      <trkpt lat="50.58647" lon="5.42114">
        <ele>64.6</ele>
        <time>2019-11-09T08:53:19.000Z</time>
      </trkpt>
      <trkpt lat="50.58638" lon="5.42023">
        <ele>65.2</ele>
        <time>2019-11-09T08:53:21.000Z</time>
      </trkpt>
      <trkpt lat="50.58628" lon="5.41926">
        <ele>65.8</ele>
        <time>2019-11-09T08:53:22.000Z</time>
      </trkpt>
      <trkpt lat="50.58619" lon="5.41837">
        <ele>66.3</ele>
        <time>2019-11-09T08:53:24.000Z</time>
      </trkpt>
      <trkpt lat="50.5861" lon="5.41749">
        <ele>65.7</ele>
        <time>2019-11-09T08:53:26.000Z</time>
      </trkpt>
      <trkpt lat="50.5861" lon="5.41687">
        <ele>66.2</ele>
        <time>2019-11-09T08:53:27.000Z</time>
      </trkpt>
      <trkpt lat="50.58612" lon="5.41627">
        <ele>67.1</ele>
        <time>2019-11-09T08:53:28.000Z</time>
      </trkpt>
      <trkpt lat="50.58613" lon="5.41596">
        <ele>67.4</ele>
        <time>2019-11-09T08:53:32.000Z</time>
      </trkpt>
      <trkpt lat="50.58613" lon="5.4154">
        <ele>67.6</ele>
        <time>2019-11-09T08:53:38.000Z</time>
      </trkpt>
      <trkpt lat="50.5861" lon="5.41523">
        <ele>67.6</ele>
        <time>2019-11-09T08:53:46.000Z</time>
      </trkpt>
      <trkpt lat="50.58605" lon="5.41499">
        <ele>67.8</ele>
        <time>2019-11-09T08:53:53.000Z</time>
      </trkpt>
      <trkpt lat="50.58597" lon="5.41484">
        <ele>67.8</ele>
        <time>2019-11-09T08:53:54.000Z</time>
      </trkpt>
      <trkpt lat="50.58573" lon="5.41441">
        <ele>67.4</ele>
        <time>2019-11-09T08:53:57.000Z</time>
      </trkpt>
      <trkpt lat="50.58558" lon="5.41413">
        <ele>67.9</ele>
        <time>2019-11-09T08:53:59.000Z</time>
      </trkpt>
      <trkpt lat="50.5853" lon="5.4137">
        <ele>67.9</ele>
        <time>2019-11-09T08:54:00.000Z</time>
      </trkpt>
      <trkpt lat="50.58494" lon="5.41313">
        <ele>68.6</ele>
        <time>2019-11-09T08:54:03.000Z</time>
      </trkpt>
      <trkpt lat="50.58458" lon="5.41248">
        <ele>70.8</ele>
        <time>2019-11-09T08:54:04.000Z</time>
      </trkpt>
      <trkpt lat="50.58417" lon="5.41175">
        <ele>71.1</ele>
        <time>2019-11-09T08:54:05.000Z</time>
      </trkpt>
      <trkpt lat="50.58403" lon="5.41147">
        <ele>70.3</ele>
        <time>2019-11-09T08:54:08.000Z</time>
      </trkpt>
      <trkpt lat="50.58376" lon="5.4109">
        <ele>69.7</ele>
        <time>2019-11-09T08:54:11.000Z</time>
      </trkpt>
      <trkpt lat="50.58342" lon="5.41017">
        <ele>68.5</ele>
        <time>2019-11-09T08:54:12.000Z</time>
      </trkpt>
      <trkpt lat="50.58329" lon="5.4099">
        <ele>67</ele>
        <time>2019-11-09T08:54:20.000Z</time>
      </trkpt>
      <trkpt lat="50.58302" lon="5.40922">
        <ele>63.599998474121</ele>
        <time>2019-11-09T08:54:23.000Z</time>
        <extensions>
          <gpxtpx:TrackPointExtension xmlns:gpxtpx="http://www.garmin.com/xmlschemas/TrackPointExtension/v1">
            <gpxtpx:hr>109</gpxtpx:hr>
          </gpxtpx:TrackPointExtension>
        </extensions>
      </trkpt>
      <trkpt lat="50.58299" lon="5.40913">
        <ele>63.599998474121</ele>
        <time>2019-11-09T08:54:24.000Z</time>
        <extensions>
          <gpxtpx:TrackPointExtension xmlns:gpxtpx="http://www.garmin.com/xmlschemas/TrackPointExtension/v1">
            <gpxtpx:hr>108</gpxtpx:hr>
          </gpxtpx:TrackPointExtension>
        </extensions>
      </trkpt>
      <trkpt lat="50.5827" lon="5.40837">
        <ele>63.200000762939</ele>
        <time>2019-11-09T08:54:26.000Z</time>
        <extensions>
          <gpxtpx:TrackPointExtension xmlns:gpxtpx="http://www.garmin.com/xmlschemas/TrackPointExtension/v1">
            <gpxtpx:hr>106</gpxtpx:hr>
          </gpxtpx:TrackPointExtension>
        </extensions>
      </trkpt>
      <trkpt lat="50.58254" lon="5.40793">
        <ele>62.799999237061</ele>
        <time>2019-11-09T08:54:27.000Z</time>
        <extensions>
          <gpxtpx:TrackPointExtension xmlns:gpxtpx="http://www.garmin.com/xmlschemas/TrackPointExtension/v1">
            <gpxtpx:hr>103</gpxtpx:hr>
          </gpxtpx:TrackPointExtension>
        </extensions>
      </trkpt>
      <trkpt lat="50.58245" lon="5.40767">
        <ele>62.599998474121</ele>
        <time>2019-11-09T08:54:32.000Z</time>
        <extensions>
          <gpxtpx:TrackPointExtension xmlns:gpxtpx="http://www.garmin.com/xmlschemas/TrackPointExtension/v1">
            <gpxtpx:hr>103</gpxtpx:hr>
          </gpxtpx:TrackPointExtension>
        </extensions>
      </trkpt>
      <trkpt lat="50.58242" lon="5.40758">
        <ele>62.400001525879</ele>
        <time>2019-11-09T08:54:33.000Z</time>
        <extensions>
          <gpxtpx:TrackPointExtension xmlns:gpxtpx="http://www.garmin.com/xmlschemas/TrackPointExtension/v1">
            <gpxtpx:hr>102</gpxtpx:hr>
          </gpxtpx:TrackPointExtension>
        </extensions>
      </trkpt>
      <trkpt lat="50.58213" lon="5.40681">
        <ele>62</ele>
        <time>2019-11-09T08:54:37.000Z</time>
        <extensions>
          <gpxtpx:TrackPointExtension xmlns:gpxtpx="http://www.garmin.com/xmlschemas/TrackPointExtension/v1">
            <gpxtpx:hr>101</gpxtpx:hr>
          </gpxtpx:TrackPointExtension>
        </extensions>
      </trkpt>
      <trkpt lat="50.58207" lon="5.40663">
        <ele>62</ele>
        <time>2019-11-09T08:54:41.000Z</time>
        <extensions>
          <gpxtpx:TrackPointExtension xmlns:gpxtpx="http://www.garmin.com/xmlschemas/TrackPointExtension/v1">
            <gpxtpx:hr>102</gpxtpx:hr>
          </gpxtpx:TrackPointExtension>
        </extensions>
      </trkpt>
      <trkpt lat="50.58194" lon="5.40628">
        <ele>62</ele>
        <time>2019-11-09T08:54:45.000Z</time>
        <extensions>
          <gpxtpx:TrackPointExtension xmlns:gpxtpx="http://www.garmin.com/xmlschemas/TrackPointExtension/v1">
            <gpxtpx:hr>105</gpxtpx:hr>
          </gpxtpx:TrackPointExtension>
        </extensions>
      </trkpt>
      <trkpt lat="50.58181" lon="5.40594">
        <ele>62</ele>
        <time>2019-11-09T08:54:46.000Z</time>
        <extensions>
          <gpxtpx:TrackPointExtension xmlns:gpxtpx="http://www.garmin.com/xmlschemas/TrackPointExtension/v1">
            <gpxtpx:hr>102</gpxtpx:hr>
          </gpxtpx:TrackPointExtension>
        </extensions>
      </trkpt>
      <trkpt lat="50.58175" lon="5.40577">
        <ele>61.799999237061</ele>
        <time>2019-11-09T08:54:48.000Z</time>
        <extensions>
          <gpxtpx:TrackPointExtension xmlns:gpxtpx="http://www.garmin.com/xmlschemas/TrackPointExtension/v1">
            <gpxtpx:hr>102</gpxtpx:hr>
          </gpxtpx:TrackPointExtension>
        </extensions>
      </trkpt>
      <trkpt lat="50.58144" lon="5.405">
        <ele>61.599998474121</ele>
        <time>2019-11-09T08:54:50.000Z</time>
        <extensions>
          <gpxtpx:TrackPointExtension xmlns:gpxtpx="http://www.garmin.com/xmlschemas/TrackPointExtension/v1">
            <gpxtpx:hr>103</gpxtpx:hr>
          </gpxtpx:TrackPointExtension>
        </extensions>
      </trkpt>
      <trkpt lat="50.58138" lon="5.40483">
        <ele>61.599998474121</ele>
        <time>2019-11-09T08:54:52.000Z</time>
        <extensions>
          <gpxtpx:TrackPointExtension xmlns:gpxtpx="http://www.garmin.com/xmlschemas/TrackPointExtension/v1">
            <gpxtpx:hr>104</gpxtpx:hr>
          </gpxtpx:TrackPointExtension>
        </extensions>
      </trkpt>
      <trkpt lat="50.58122" lon="5.40446">
        <ele>66.9</ele>
        <time>2019-11-09T08:54:53.000Z</time>
      </trkpt>
      <trkpt lat="50.58107" lon="5.40406">
        <ele>66.2</ele>
        <time>2019-11-09T08:54:59.000Z</time>
      </trkpt>
      <trkpt lat="50.58084" lon="5.40347">
        <ele>66.3</ele>
        <time>2019-11-09T08:55:06.000Z</time>
      </trkpt>
      <trkpt lat="50.58074" lon="5.40322">
        <ele>66</ele>
        <time>2019-11-09T08:55:08.000Z</time>
      </trkpt>
      <trkpt lat="50.58049" lon="5.40259">
        <ele>61.400001525879</ele>
        <time>2019-11-09T08:55:15.000Z</time>
        <extensions>
          <gpxtpx:TrackPointExtension xmlns:gpxtpx="http://www.garmin.com/xmlschemas/TrackPointExtension/v1">
            <gpxtpx:hr>107</gpxtpx:hr>
          </gpxtpx:TrackPointExtension>
        </extensions>
      </trkpt>
      <trkpt lat="50.58031" lon="5.40206">
        <ele>61.599998474121</ele>
        <time>2019-11-09T08:55:17.000Z</time>
        <extensions>
          <gpxtpx:TrackPointExtension xmlns:gpxtpx="http://www.garmin.com/xmlschemas/TrackPointExtension/v1">
            <gpxtpx:hr>107</gpxtpx:hr>
          </gpxtpx:TrackPointExtension>
        </extensions>
      </trkpt>
      <trkpt lat="50.58012" lon="5.40154">
        <ele>66.2</ele>
        <time>2019-11-09T08:55:23.000Z</time>
      </trkpt>
      <trkpt lat="50.57982" lon="5.40065">
        <ele>66.3</ele>
        <time>2019-11-09T08:55:28.000Z</time>
      </trkpt>
      <trkpt lat="50.57958" lon="5.39997">
        <ele>66.1</ele>
        <time>2019-11-09T08:55:30.000Z</time>
      </trkpt>
      <trkpt lat="50.57947" lon="5.39965">
        <ele>66.1</ele>
        <time>2019-11-09T08:55:35.000Z</time>
      </trkpt>
      <trkpt lat="50.57929" lon="5.39912">
        <ele>66.6</ele>
        <time>2019-11-09T08:55:38.000Z</time>
      </trkpt>
      <trkpt lat="50.57907" lon="5.39844">
        <ele>62.200000762939</ele>
        <time>2019-11-09T08:55:44.000Z</time>
        <extensions>
          <gpxtpx:TrackPointExtension xmlns:gpxtpx="http://www.garmin.com/xmlschemas/TrackPointExtension/v1">
            <gpxtpx:hr>105</gpxtpx:hr>
          </gpxtpx:TrackPointExtension>
        </extensions>
      </trkpt>
      <trkpt lat="50.57893" lon="5.39799">
        <ele>66.3</ele>
        <time>2019-11-09T08:55:45.000Z</time>
      </trkpt>
      <trkpt lat="50.57887" lon="5.39779">
        <ele>66</ele>
        <time>2019-11-09T08:55:46.000Z</time>
      </trkpt>
      <trkpt lat="50.57892" lon="5.39766">
        <ele>66</ele>
        <time>2019-11-09T08:55:48.000Z</time>
      </trkpt>
      <trkpt lat="50.57892" lon="5.39749">
        <ele>65.5</ele>
        <time>2019-11-09T08:55:56.000Z</time>
      </trkpt>
      <trkpt lat="50.57908" lon="5.39723">
        <ele>62.200000762939</ele>
        <time>2019-11-09T08:55:59.000Z</time>
        <extensions>
          <gpxtpx:TrackPointExtension xmlns:gpxtpx="http://www.garmin.com/xmlschemas/TrackPointExtension/v1">
            <gpxtpx:hr>108</gpxtpx:hr>
          </gpxtpx:TrackPointExtension>
        </extensions>
      </trkpt>
      <trkpt lat="50.57913" lon="5.39717">
        <ele>62.400001525879</ele>
        <time>2019-11-09T08:56:04.000Z</time>
        <extensions>
          <gpxtpx:TrackPointExtension xmlns:gpxtpx="http://www.garmin.com/xmlschemas/TrackPointExtension/v1">
            <gpxtpx:hr>108</gpxtpx:hr>
          </gpxtpx:TrackPointExtension>
        </extensions>
      </trkpt>
      <trkpt lat="50.57928" lon="5.39693">
        <ele>67.6</ele>
        <time>2019-11-09T08:56:13.000Z</time>
      </trkpt>
      <trkpt lat="50.57939" lon="5.39672">
        <ele>67.7</ele>
        <time>2019-11-09T08:56:14.000Z</time>
      </trkpt>
      <trkpt lat="50.57947" lon="5.39653">
        <ele>68.9</ele>
        <time>2019-11-09T08:56:20.000Z</time>
      </trkpt>
      <trkpt lat="50.57952" lon="5.39629">
        <ele>69.5</ele>
        <time>2019-11-09T08:56:24.000Z</time>
      </trkpt>
      <trkpt lat="50.57956" lon="5.39601">
        <ele>69.8</ele>
        <time>2019-11-09T08:56:25.000Z</time>
      </trkpt>
      <trkpt lat="50.57955" lon="5.3958">
        <ele>71.4</ele>
        <time>2019-11-09T08:56:28.000Z</time>
      </trkpt>
      <trkpt lat="50.57951" lon="5.39556">
        <ele>71.6</ele>
        <time>2019-11-09T08:56:33.000Z</time>
      </trkpt>
      <trkpt lat="50.57947" lon="5.39538">
        <ele>71.7</ele>
        <time>2019-11-09T08:56:34.000Z</time>
      </trkpt>
      <trkpt lat="50.57939" lon="5.39515">
        <ele>71.4</ele>
        <time>2019-11-09T08:56:42.000Z</time>
      </trkpt>
      <trkpt lat="50.57929" lon="5.3949">
        <ele>72.5</ele>
        <time>2019-11-09T08:56:43.000Z</time>
      </trkpt>
      <trkpt lat="50.57913" lon="5.39454">
        <ele>69.3</ele>
        <time>2019-11-09T08:56:52.000Z</time>
      </trkpt>
      <trkpt lat="50.57899" lon="5.39422">
        <ele>70.1</ele>
        <time>2019-11-09T08:56:56.000Z</time>
      </trkpt>
      <trkpt lat="50.57888" lon="5.39397">
        <ele>71.4</ele>
        <time>2019-11-09T08:57:00.000Z</time>
      </trkpt>
      <trkpt lat="50.57881" lon="5.39381">
        <ele>71.5</ele>
        <time>2019-11-09T08:57:09.000Z</time>
      </trkpt>
      <trkpt lat="50.57875" lon="5.39359">
        <ele>71.9</ele>
        <time>2019-11-09T08:57:13.000Z</time>
      </trkpt>
      <trkpt lat="50.57873" lon="5.39343">
        <ele>72.1</ele>
        <time>2019-11-09T08:57:17.000Z</time>
      </trkpt>
      <trkpt lat="50.57871" lon="5.39328">
        <ele>75.4</ele>
        <time>2019-11-09T08:57:21.000Z</time>
      </trkpt>
      <trkpt lat="50.57871" lon="5.39294">
        <ele>76.4</ele>
        <time>2019-11-09T08:57:26.000Z</time>
      </trkpt>
      <trkpt lat="50.57872" lon="5.39266">
        <ele>77.3</ele>
        <time>2019-11-09T08:57:31.000Z</time>
      </trkpt>
      <trkpt lat="50.57872" lon="5.39221">
        <ele>76.199996948242</ele>
        <time>2019-11-09T08:57:34.000Z</time>
        <extensions>
          <gpxtpx:TrackPointExtension xmlns:gpxtpx="http://www.garmin.com/xmlschemas/TrackPointExtension/v1">
            <gpxtpx:hr>135</gpxtpx:hr>
          </gpxtpx:TrackPointExtension>
        </extensions>
      </trkpt>
      <trkpt lat="50.57868" lon="5.39201">
        <ele>84.4</ele>
        <time>2019-11-09T08:57:41.000Z</time>
      </trkpt>
      <trkpt lat="50.57864" lon="5.39185">
        <ele>84.3</ele>
        <time>2019-11-09T08:57:46.000Z</time>
      </trkpt>
      <trkpt lat="50.57857" lon="5.3917">
        <ele>83.1</ele>
        <time>2019-11-09T08:57:52.000Z</time>
      </trkpt>
      <trkpt lat="50.57851" lon="5.39155">
        <ele>87.5</ele>
        <time>2019-11-09T08:58:01.000Z</time>
      </trkpt>
      <trkpt lat="50.57838" lon="5.39134">
        <ele>89.6</ele>
        <time>2019-11-09T08:58:04.000Z</time>
      </trkpt>
      <trkpt lat="50.57807" lon="5.39082">
        <ele>85.1</ele>
        <time>2019-11-09T08:58:05.000Z</time>
      </trkpt>
      <trkpt lat="50.57781" lon="5.39035">
        <ele>84</ele>
        <time>2019-11-09T08:58:14.000Z</time>
      </trkpt>
      <trkpt lat="50.57764" lon="5.39009">
        <ele>81.7</ele>
        <time>2019-11-09T08:58:16.000Z</time>
      </trkpt>
      <trkpt lat="50.57744" lon="5.38974">
        <ele>78.1</ele>
        <time>2019-11-09T08:58:20.000Z</time>
      </trkpt>
      <trkpt lat="50.57724" lon="5.3894">
        <ele>79.1</ele>
        <time>2019-11-09T08:58:28.000Z</time>
      </trkpt>
      <trkpt lat="50.57709" lon="5.38916">
        <ele>82.6</ele>
        <time>2019-11-09T08:58:33.000Z</time>
      </trkpt>
      <trkpt lat="50.57693" lon="5.38888">
        <ele>81.8</ele>
        <time>2019-11-09T08:58:34.000Z</time>
      </trkpt>
      <trkpt lat="50.57667" lon="5.38841">
        <ele>80.2</ele>
        <time>2019-11-09T08:58:41.000Z</time>
      </trkpt>
      <trkpt lat="50.57649" lon="5.38805">
        <ele>79.6</ele>
        <time>2019-11-09T08:58:42.000Z</time>
      </trkpt>
      <trkpt lat="50.57624" lon="5.38755">
        <ele>80.1</ele>
        <time>2019-11-09T08:58:46.000Z</time>
      </trkpt>
      <trkpt lat="50.57589" lon="5.38685">
        <ele>86.2</ele>
        <time>2019-11-09T08:58:47.000Z</time>
      </trkpt>
      <trkpt lat="50.57565" lon="5.38643">
        <ele>83.2</ele>
        <time>2019-11-09T08:58:49.000Z</time>
      </trkpt>
      <trkpt lat="50.57549" lon="5.38616">
        <ele>83.9</ele>
        <time>2019-11-09T08:58:51.000Z</time>
      </trkpt>
      <trkpt lat="50.57541" lon="5.38603">
        <ele>83.7</ele>
        <time>2019-11-09T08:58:55.000Z</time>
      </trkpt>
      <trkpt lat="50.57508" lon="5.38548">
        <ele>91.8</ele>
        <time>2019-11-09T08:58:56.000Z</time>
      </trkpt>
      <trkpt lat="50.57492" lon="5.38523">
        <ele>84.2</ele>
        <time>2019-11-09T08:58:57.000Z</time>
      </trkpt>
      <trkpt lat="50.57465" lon="5.38478">
        <ele>88</ele>
        <time>2019-11-09T08:58:58.000Z</time>
      </trkpt>
      <trkpt lat="50.57446" lon="5.38448">
        <ele>86.7</ele>
        <time>2019-11-09T08:58:59.000Z</time>
      </trkpt>
      <trkpt lat="50.57409" lon="5.38383">
        <ele>79.7</ele>
        <time>2019-11-09T08:59:02.000Z</time>
      </trkpt>
      <trkpt lat="50.57386" lon="5.38345">
        <ele>80.9</ele>
        <time>2019-11-09T08:59:05.000Z</time>
      </trkpt>
      <trkpt lat="50.57373" lon="5.38319">
        <ele>86.6</ele>
        <time>2019-11-09T08:59:10.000Z</time>
      </trkpt>
      <trkpt lat="50.57362" lon="5.38298">
        <ele>86.6</ele>
        <time>2019-11-09T08:59:11.000Z</time>
      </trkpt>
      <trkpt lat="50.57345" lon="5.38265">
        <ele>85.4</ele>
        <time>2019-11-09T08:59:13.000Z</time>
      </trkpt>
      <trkpt lat="50.5733" lon="5.38238">
        <ele>80.7</ele>
        <time>2019-11-09T08:59:15.000Z</time>
      </trkpt>
      <trkpt lat="50.57316" lon="5.38209">
        <ele>81.2</ele>
        <time>2019-11-09T08:59:17.000Z</time>
      </trkpt>
      <trkpt lat="50.57305" lon="5.38184">
        <ele>82.2</ele>
        <time>2019-11-09T08:59:20.000Z</time>
      </trkpt>
      <trkpt lat="50.57292" lon="5.38156">
        <ele>83.6</ele>
        <time>2019-11-09T08:59:23.000Z</time>
      </trkpt>
      <trkpt lat="50.57277" lon="5.38113">
        <ele>82.1</ele>
        <time>2019-11-09T08:59:32.000Z</time>
      </trkpt>
      <trkpt lat="50.57263" lon="5.38073">
        <ele>79.2</ele>
        <time>2019-11-09T08:59:39.000Z</time>
      </trkpt>
      <trkpt lat="50.57239" lon="5.38008">
        <ele>74.8</ele>
        <time>2019-11-09T08:59:41.000Z</time>
      </trkpt>
      <trkpt lat="50.57214" lon="5.37956">
        <ele>76.2</ele>
        <time>2019-11-09T08:59:48.000Z</time>
      </trkpt>
      <trkpt lat="50.57193" lon="5.37917">
        <ele>74.6</ele>
        <time>2019-11-09T08:59:49.000Z</time>
      </trkpt>
      <trkpt lat="50.57179" lon="5.37888">
        <ele>78.8</ele>
        <time>2019-11-09T08:59:52.000Z</time>
      </trkpt>
      <trkpt lat="50.57158" lon="5.37845">
        <ele>74.4</ele>
        <time>2019-11-09T09:00:00.000Z</time>
      </trkpt>
      <trkpt lat="50.5714" lon="5.37812">
        <ele>77.7</ele>
        <time>2019-11-09T09:00:07.000Z</time>
      </trkpt>
      <trkpt lat="50.57126" lon="5.37776">
        <ele>78.5</ele>
        <time>2019-11-09T09:00:10.000Z</time>
      </trkpt>
      <trkpt lat="50.5711" lon="5.37727">
        <ele>83.3</ele>
        <time>2019-11-09T09:00:20.000Z</time>
      </trkpt>
      <trkpt lat="50.57087" lon="5.37659">
        <ele>81.1</ele>
        <time>2019-11-09T09:00:21.000Z</time>
      </trkpt>
      <trkpt lat="50.57063" lon="5.3759">
        <ele>77.7</ele>
        <time>2019-11-09T09:00:22.000Z</time>
      </trkpt>
      <trkpt lat="50.57046" lon="5.37538">
        <ele>81.1</ele>
        <time>2019-11-09T09:00:29.000Z</time>
      </trkpt>
      <trkpt lat="50.57027" lon="5.37482">
        <ele>84.6</ele>
        <time>2019-11-09T09:00:30.000Z</time>
      </trkpt>
      <trkpt lat="50.57006" lon="5.37419">
        <ele>80.5</ele>
        <time>2019-11-09T09:00:34.000Z</time>
      </trkpt>
      <trkpt lat="50.56982" lon="5.37346">
        <ele>77.7</ele>
        <time>2019-11-09T09:00:36.000Z</time>
      </trkpt>
      <trkpt lat="50.56959" lon="5.37277">
        <ele>78.6</ele>
        <time>2019-11-09T09:00:43.000Z</time>
      </trkpt>
      <trkpt lat="50.56931" lon="5.37194">
        <ele>80.2</ele>
        <time>2019-11-09T09:00:48.000Z</time>
      </trkpt>
      <trkpt lat="50.5691" lon="5.37128">
        <ele>74.1</ele>
        <time>2019-11-09T09:00:52.000Z</time>
      </trkpt>
      <trkpt lat="50.56902" lon="5.37093">
        <ele>76.8</ele>
        <time>2019-11-09T09:00:54.000Z</time>
      </trkpt>
      <trkpt lat="50.56887" lon="5.37031">
        <ele>78.7</ele>
        <time>2019-11-09T09:00:58.000Z</time>
      </trkpt>
      <trkpt lat="50.5688" lon="5.36999">
        <ele>82.8</ele>
        <time>2019-11-09T09:01:01.000Z</time>
      </trkpt>
      <trkpt lat="50.56862" lon="5.36927">
        <ele>81.3</ele>
        <time>2019-11-09T09:01:04.000Z</time>
      </trkpt>
      <trkpt lat="50.56841" lon="5.36839">
        <ele>82.2</ele>
        <time>2019-11-09T09:01:07.000Z</time>
      </trkpt>
      <trkpt lat="50.56827" lon="5.36784">
        <ele>76.1</ele>
        <time>2019-11-09T09:01:13.000Z</time>
      </trkpt>
      <trkpt lat="50.56812" lon="5.36727">
        <ele>77.7</ele>
        <time>2019-11-09T09:01:20.000Z</time>
      </trkpt>
      <trkpt lat="50.56794" lon="5.36661">
        <ele>79.6</ele>
        <time>2019-11-09T09:01:30.000Z</time>
      </trkpt>
      <trkpt lat="50.56788" lon="5.36635">
        <ele>79.3</ele>
        <time>2019-11-09T09:01:31.000Z</time>
      </trkpt>
      <trkpt lat="50.5678" lon="5.36605">
        <ele>78.6</ele>
        <time>2019-11-09T09:01:33.000Z</time>
      </trkpt>
      <trkpt lat="50.56762" lon="5.36546">
        <ele>79.9</ele>
        <time>2019-11-09T09:01:39.000Z</time>
      </trkpt>
      <trkpt lat="50.5675" lon="5.36484">
        <ele>73.8</ele>
        <time>2019-11-09T09:01:42.000Z</time>
      </trkpt>
      <trkpt lat="50.56746" lon="5.36467">
        <ele>74</ele>
        <time>2019-11-09T09:01:45.000Z</time>
      </trkpt>
      <trkpt lat="50.56733" lon="5.36393">
        <ele>77.8</ele>
        <time>2019-11-09T09:01:49.000Z</time>
      </trkpt>
      <trkpt lat="50.56716" lon="5.36305">
        <ele>81</ele>
        <time>2019-11-09T09:01:52.000Z</time>
      </trkpt>
      <trkpt lat="50.56709" lon="5.36271">
        <ele>80.7</ele>
        <time>2019-11-09T09:01:55.000Z</time>
      </trkpt>
      <trkpt lat="50.56695" lon="5.36195">
        <ele>80.2</ele>
        <time>2019-11-09T09:01:57.000Z</time>
      </trkpt>
      <trkpt lat="50.56678" lon="5.36116">
        <ele>78.2</ele>
        <time>2019-11-09T09:01:59.000Z</time>
      </trkpt>
      <trkpt lat="50.56661" lon="5.36054">
        <ele>72.3</ele>
        <time>2019-11-09T09:02:00.000Z</time>
      </trkpt>
      <trkpt lat="50.56647" lon="5.36008">
        <ele>73.5</ele>
        <time>2019-11-09T09:02:02.000Z</time>
      </trkpt>
      <trkpt lat="50.56629" lon="5.35944">
        <ele>72.9</ele>
        <time>2019-11-09T09:02:06.000Z</time>
      </trkpt>
      <trkpt lat="50.56619" lon="5.35906">
        <ele>72.9</ele>
        <time>2019-11-09T09:02:09.000Z</time>
      </trkpt>
      <trkpt lat="50.56601" lon="5.35843">
        <ele>73.6</ele>
        <time>2019-11-09T09:02:11.000Z</time>
      </trkpt>
      <trkpt lat="50.56592" lon="5.35813">
        <ele>75.1</ele>
        <time>2019-11-09T09:02:15.000Z</time>
      </trkpt>
      <trkpt lat="50.5657" lon="5.35734">
        <ele>76.8</ele>
        <time>2019-11-09T09:02:16.000Z</time>
      </trkpt>
      <trkpt lat="50.56553" lon="5.35675">
        <ele>75.6</ele>
        <time>2019-11-09T09:02:24.000Z</time>
      </trkpt>
      <trkpt lat="50.56531" lon="5.35605">
        <ele>72.8</ele>
        <time>2019-11-09T09:02:25.000Z</time>
      </trkpt>
      <trkpt lat="50.56512" lon="5.35534">
        <ele>70.1</ele>
        <time>2019-11-09T09:02:30.000Z</time>
      </trkpt>
      <trkpt lat="50.56484" lon="5.3544">
        <ele>67</ele>
        <time>2019-11-09T09:02:36.000Z</time>
      </trkpt>
      <trkpt lat="50.56467" lon="5.35383">
        <ele>65.6</ele>
        <time>2019-11-09T09:02:40.000Z</time>
      </trkpt>
      <trkpt lat="50.56451" lon="5.35324">
        <ele>65.2</ele>
        <time>2019-11-09T09:02:47.000Z</time>
      </trkpt>
      <trkpt lat="50.56437" lon="5.35279">
        <ele>65.8</ele>
        <time>2019-11-09T09:02:48.000Z</time>
      </trkpt>
      <trkpt lat="50.56429" lon="5.35247">
        <ele>67</ele>
        <time>2019-11-09T09:02:52.000Z</time>
      </trkpt>
      <trkpt lat="50.5642" lon="5.35215">
        <ele>66.7</ele>
        <time>2019-11-09T09:02:53.000Z</time>
      </trkpt>
      <trkpt lat="50.56398" lon="5.35139">
        <ele>70.2</ele>
        <time>2019-11-09T09:02:54.000Z</time>
      </trkpt>
      <trkpt lat="50.56388" lon="5.35104">
        <ele>70.5</ele>
        <time>2019-11-09T09:02:55.000Z</time>
      </trkpt>
      <trkpt lat="50.56366" lon="5.35036">
        <ele>72.7</ele>
        <time>2019-11-09T09:02:59.000Z</time>
      </trkpt>
      <trkpt lat="50.56339" lon="5.34956">
        <ele>72.3</ele>
        <time>2019-11-09T09:03:00.000Z</time>
      </trkpt>
      <trkpt lat="50.5631" lon="5.34873">
        <ele>71.5</ele>
        <time>2019-11-09T09:03:04.000Z</time>
      </trkpt>
      <trkpt lat="50.56302" lon="5.34849">
        <ele>71.7</ele>
        <time>2019-11-09T09:03:05.000Z</time>
      </trkpt>
      <trkpt lat="50.56279" lon="5.34783">
        <ele>72.4</ele>
        <time>2019-11-09T09:03:06.000Z</time>
      </trkpt>
      <trkpt lat="50.56266" lon="5.34744">
        <ele>73.9</ele>
        <time>2019-11-09T09:03:09.000Z</time>
      </trkpt>
      <trkpt lat="50.56241" lon="5.3468">
        <ele>75.4</ele>
        <time>2019-11-09T09:03:11.000Z</time>
      </trkpt>
      <trkpt lat="50.56223" lon="5.34631">
        <ele>76.1</ele>
        <time>2019-11-09T09:03:20.000Z</time>
      </trkpt>
      <trkpt lat="50.56195" lon="5.34559">
        <ele>77.4</ele>
        <time>2019-11-09T09:03:21.000Z</time>
      </trkpt>
      <trkpt lat="50.56177" lon="5.34509">
        <ele>77.7</ele>
        <time>2019-11-09T09:03:24.000Z</time>
      </trkpt>
      <trkpt lat="50.56153" lon="5.34442">
        <ele>76.1</ele>
        <time>2019-11-09T09:03:28.000Z</time>
      </trkpt>
      <trkpt lat="50.56142" lon="5.34412">
        <ele>78.3</ele>
        <time>2019-11-09T09:03:29.000Z</time>
      </trkpt>
      <trkpt lat="50.56119" lon="5.34349">
        <ele>77</ele>
        <time>2019-11-09T09:03:35.000Z</time>
      </trkpt>
      <trkpt lat="50.56093" lon="5.34275">
        <ele>80.1</ele>
        <time>2019-11-09T09:03:37.000Z</time>
      </trkpt>
      <trkpt lat="50.5608" lon="5.34236">
        <ele>77.7</ele>
        <time>2019-11-09T09:03:41.000Z</time>
      </trkpt>
      <trkpt lat="50.56052" lon="5.34157">
        <ele>87.1</ele>
        <time>2019-11-09T09:03:45.000Z</time>
      </trkpt>
      <trkpt lat="50.56028" lon="5.34094">
        <ele>85.1</ele>
        <time>2019-11-09T09:03:50.000Z</time>
      </trkpt>
      <trkpt lat="50.56018" lon="5.34066">
        <ele>89.2</ele>
        <time>2019-11-09T09:03:54.000Z</time>
      </trkpt>
      <trkpt lat="50.56001" lon="5.34019">
        <ele>90.1</ele>
        <time>2019-11-09T09:03:59.000Z</time>
      </trkpt>
      <trkpt lat="50.55988" lon="5.33995">
        <ele>82.7</ele>
        <time>2019-11-09T09:04:01.000Z</time>
      </trkpt>
      <trkpt lat="50.55976" lon="5.33981">
        <ele>81</ele>
        <time>2019-11-09T09:04:07.000Z</time>
      </trkpt>
      <trkpt lat="50.55948" lon="5.33958">
        <ele>78.2</ele>
        <time>2019-11-09T09:04:08.000Z</time>
      </trkpt>
      <trkpt lat="50.55923" lon="5.33936">
        <ele>75.3</ele>
        <time>2019-11-09T09:04:13.000Z</time>
      </trkpt>
      <trkpt lat="50.55898" lon="5.3389">
        <ele>73.1</ele>
        <time>2019-11-09T09:04:17.000Z</time>
      </trkpt>
      <trkpt lat="50.55877" lon="5.33844">
        <ele>74</ele>
        <time>2019-11-09T09:04:23.000Z</time>
      </trkpt>
      <trkpt lat="50.55861" lon="5.33811">
        <ele>76.6</ele>
        <time>2019-11-09T09:04:26.000Z</time>
      </trkpt>
      <trkpt lat="50.55829" lon="5.33743">
        <ele>68.8</ele>
        <time>2019-11-09T09:04:29.000Z</time>
      </trkpt>
      <trkpt lat="50.55794" lon="5.3367">
        <ele>71</ele>
        <time>2019-11-09T09:04:34.000Z</time>
      </trkpt>
      <trkpt lat="50.55765" lon="5.33608">
        <ele>71.5</ele>
        <time>2019-11-09T09:04:36.000Z</time>
      </trkpt>
      <trkpt lat="50.5573" lon="5.33538">
        <ele>70.9</ele>
        <time>2019-11-09T09:04:41.000Z</time>
      </trkpt>
      <trkpt lat="50.55698" lon="5.33474">
        <ele>78.9</ele>
        <time>2019-11-09T09:04:44.000Z</time>
      </trkpt>
      <trkpt lat="50.55683" lon="5.33441">
        <ele>80.2</ele>
        <time>2019-11-09T09:04:50.000Z</time>
      </trkpt>
      <trkpt lat="50.55658" lon="5.3339">
        <ele>78.7</ele>
        <time>2019-11-09T09:04:55.000Z</time>
      </trkpt>
      <trkpt lat="50.55639" lon="5.33352">
        <ele>82.2</ele>
        <time>2019-11-09T09:04:56.000Z</time>
      </trkpt>
      <trkpt lat="50.55628" lon="5.3333">
        <ele>90.8</ele>
        <time>2019-11-09T09:05:02.000Z</time>
      </trkpt>
      <trkpt lat="50.55612" lon="5.33303">
        <ele>89.2</ele>
        <time>2019-11-09T09:05:05.000Z</time>
      </trkpt>
      <trkpt lat="50.55595" lon="5.33283">
        <ele>88.5</ele>
        <time>2019-11-09T09:05:07.000Z</time>
      </trkpt>
      <trkpt lat="50.55553" lon="5.33234">
        <ele>83.2</ele>
        <time>2019-11-09T09:05:09.000Z</time>
      </trkpt>
      <trkpt lat="50.55522" lon="5.33193">
        <ele>82.2</ele>
        <time>2019-11-09T09:05:14.000Z</time>
      </trkpt>
      <trkpt lat="50.55494" lon="5.33142">
        <ele>77.9</ele>
        <time>2019-11-09T09:05:17.000Z</time>
      </trkpt>
      <trkpt lat="50.55478" lon="5.33115">
        <ele>80</ele>
        <time>2019-11-09T09:05:19.000Z</time>
      </trkpt>
      <trkpt lat="50.55448" lon="5.33057">
        <ele>84.3</ele>
        <time>2019-11-09T09:05:20.000Z</time>
      </trkpt>
      <trkpt lat="50.55434" lon="5.33033">
        <ele>83.6</ele>
        <time>2019-11-09T09:05:21.000Z</time>
      </trkpt>
      <trkpt lat="50.55402" lon="5.32978">
        <ele>78</ele>
        <time>2019-11-09T09:05:22.000Z</time>
      </trkpt>
      <trkpt lat="50.55385" lon="5.32947">
        <ele>79.7</ele>
        <time>2019-11-09T09:05:24.000Z</time>
      </trkpt>
      <trkpt lat="50.55352" lon="5.32877">
        <ele>85.2</ele>
        <time>2019-11-09T09:05:27.000Z</time>
      </trkpt>
      <trkpt lat="50.55331" lon="5.3282">
        <ele>78.4</ele>
        <time>2019-11-09T09:05:28.000Z</time>
      </trkpt>
      <trkpt lat="50.55311" lon="5.32761">
        <ele>81.2</ele>
        <time>2019-11-09T09:05:29.000Z</time>
      </trkpt>
      <trkpt lat="50.55298" lon="5.32726">
        <ele>82.1</ele>
        <time>2019-11-09T09:05:34.000Z</time>
      </trkpt>
      <trkpt lat="50.55277" lon="5.32673">
        <ele>79.5</ele>
        <time>2019-11-09T09:05:36.000Z</time>
      </trkpt>
      <trkpt lat="50.55246" lon="5.32619">
        <ele>73</ele>
        <time>2019-11-09T09:05:38.000Z</time>
      </trkpt>
      <trkpt lat="50.55207" lon="5.32551">
        <ele>75.1</ele>
        <time>2019-11-09T09:05:41.000Z</time>
      </trkpt>
      <trkpt lat="50.55194" lon="5.32529">
        <ele>74.8</ele>
        <time>2019-11-09T09:05:43.000Z</time>
      </trkpt>
      <trkpt lat="50.5518" lon="5.32505">
        <ele>73.2</ele>
        <time>2019-11-09T09:05:46.000Z</time>
      </trkpt>
      <trkpt lat="50.55165" lon="5.32479">
        <ele>71.8</ele>
        <time>2019-11-09T09:05:48.000Z</time>
      </trkpt>
      <trkpt lat="50.55151" lon="5.32452">
        <ele>72.7</ele>
        <time>2019-11-09T09:05:55.000Z</time>
      </trkpt>
      <trkpt lat="50.55119" lon="5.32395">
        <ele>75.1</ele>
        <time>2019-11-09T09:05:58.000Z</time>
      </trkpt>
      <trkpt lat="50.55104" lon="5.32371">
        <ele>74.9</ele>
        <time>2019-11-09T09:06:05.000Z</time>
      </trkpt>
      <trkpt lat="50.5507" lon="5.32312">
        <ele>71</ele>
        <time>2019-11-09T09:06:06.000Z</time>
      </trkpt>
      <trkpt lat="50.5504" lon="5.32263">
        <ele>71.1</ele>
        <time>2019-11-09T09:06:10.000Z</time>
      </trkpt>
      <trkpt lat="50.55022" lon="5.32228">
        <ele>73.1</ele>
        <time>2019-11-09T09:06:13.000Z</time>
      </trkpt>
      <trkpt lat="50.54997" lon="5.32185">
        <ele>70.4</ele>
        <time>2019-11-09T09:06:16.000Z</time>
      </trkpt>
      <trkpt lat="50.5496" lon="5.3212">
        <ele>71.6</ele>
        <time>2019-11-09T09:06:23.000Z</time>
      </trkpt>
      <trkpt lat="50.54928" lon="5.32066">
        <ele>73.2</ele>
        <time>2019-11-09T09:06:29.000Z</time>
      </trkpt>
      <trkpt lat="50.54918" lon="5.32047">
        <ele>73.9</ele>
        <time>2019-11-09T09:06:31.000Z</time>
      </trkpt>
      <trkpt lat="50.549" lon="5.32015">
        <ele>72.1</ele>
        <time>2019-11-09T09:06:33.000Z</time>
      </trkpt>
      <trkpt lat="50.54888" lon="5.31993">
        <ele>73.9</ele>
        <time>2019-11-09T09:06:36.000Z</time>
      </trkpt>
      <trkpt lat="50.54867" lon="5.31956">
        <ele>74.5</ele>
        <time>2019-11-09T09:06:37.000Z</time>
      </trkpt>
      <trkpt lat="50.54855" lon="5.31933">
        <ele>74.8</ele>
        <time>2019-11-09T09:06:39.000Z</time>
      </trkpt>
      <trkpt lat="50.54844" lon="5.31917">
        <ele>74.9</ele>
        <time>2019-11-09T09:06:42.000Z</time>
      </trkpt>
      <trkpt lat="50.54845" lon="5.31908">
        <ele>76.3</ele>
        <time>2019-11-09T09:06:46.000Z</time>
      </trkpt>
      <trkpt lat="50.54841" lon="5.31899">
        <ele>76.5</ele>
        <time>2019-11-09T09:06:50.000Z</time>
      </trkpt>
      <trkpt lat="50.54831" lon="5.31892">
        <ele>74.4</ele>
        <time>2019-11-09T09:06:52.000Z</time>
      </trkpt>
      <trkpt lat="50.54821" lon="5.31872">
        <ele>74.3</ele>
        <time>2019-11-09T09:06:54.000Z</time>
      </trkpt>
      <trkpt lat="50.54808" lon="5.31846">
        <ele>74.4</ele>
        <time>2019-11-09T09:06:57.000Z</time>
      </trkpt>
      <trkpt lat="50.54795" lon="5.3182">
        <ele>74.4</ele>
        <time>2019-11-09T09:07:00.000Z</time>
      </trkpt>
      <trkpt lat="50.54783" lon="5.31797">
        <ele>74.2</ele>
        <time>2019-11-09T09:07:04.000Z</time>
      </trkpt>
      <trkpt lat="50.54767" lon="5.31757">
        <ele>73.8</ele>
        <time>2019-11-09T09:07:05.000Z</time>
      </trkpt>
      <trkpt lat="50.54753" lon="5.31724">
        <ele>75.2</ele>
        <time>2019-11-09T09:07:14.000Z</time>
      </trkpt>
      <trkpt lat="50.54759" lon="5.31703">
        <ele>75.7</ele>
        <time>2019-11-09T09:07:17.000Z</time>
      </trkpt>
      <trkpt lat="50.54755" lon="5.31689">
        <ele>75.5</ele>
        <time>2019-11-09T09:07:20.000Z</time>
      </trkpt>
      <trkpt lat="50.54749" lon="5.31688">
        <ele>64.599998474121</ele>
        <time>2019-11-09T09:07:23.000Z</time>
        <extensions>
          <gpxtpx:TrackPointExtension xmlns:gpxtpx="http://www.garmin.com/xmlschemas/TrackPointExtension/v1">
            <gpxtpx:hr>97</gpxtpx:hr>
          </gpxtpx:TrackPointExtension>
        </extensions>
      </trkpt>
      <trkpt lat="50.5474" lon="5.31691">
        <ele>72.9</ele>
        <time>2019-11-09T09:07:26.000Z</time>
      </trkpt>
      <trkpt lat="50.54735" lon="5.31683">
        <ele>72.9</ele>
        <time>2019-11-09T09:07:27.000Z</time>
      </trkpt>
      <trkpt lat="50.54724" lon="5.31667">
        <ele>73.1</ele>
        <time>2019-11-09T09:07:29.000Z</time>
      </trkpt>
      <trkpt lat="50.54712" lon="5.31638">
        <ele>72.8</ele>
        <time>2019-11-09T09:07:32.000Z</time>
      </trkpt>
      <trkpt lat="50.547" lon="5.31612">
        <ele>72.6</ele>
        <time>2019-11-09T09:07:36.000Z</time>
      </trkpt>
      <trkpt lat="50.54681" lon="5.31568">
        <ele>72.9</ele>
        <time>2019-11-09T09:07:38.000Z</time>
      </trkpt>
      <trkpt lat="50.5467" lon="5.31544">
        <ele>73.4</ele>
        <time>2019-11-09T09:07:39.000Z</time>
      </trkpt>
      <trkpt lat="50.54656" lon="5.31514">
        <ele>71</ele>
        <time>2019-11-09T09:09:44.000Z</time>
      </trkpt>
      <trkpt lat="50.54638" lon="5.31472">
        <ele>71.7</ele>
        <time>2019-11-09T09:09:45.000Z</time>
      </trkpt>
      <trkpt lat="50.54627" lon="5.31446">
        <ele>71.7</ele>
        <time>2019-11-09T09:09:48.000Z</time>
      </trkpt>
      <trkpt lat="50.54609" lon="5.31402">
        <ele>73.2</ele>
        <time>2019-11-09T09:09:56.000Z</time>
      </trkpt>
      <trkpt lat="50.54597" lon="5.31372">
        <ele>73.7</ele>
        <time>2019-11-09T09:10:01.000Z</time>
      </trkpt>
      <trkpt lat="50.54585" lon="5.31347">
        <ele>73.2</ele>
        <time>2019-11-09T09:10:04.000Z</time>
      </trkpt>
      <trkpt lat="50.54575" lon="5.31323">
        <ele>63.400001525879</ele>
        <time>2019-11-09T09:10:12.000Z</time>
        <extensions>
          <gpxtpx:TrackPointExtension xmlns:gpxtpx="http://www.garmin.com/xmlschemas/TrackPointExtension/v1">
            <gpxtpx:hr>94</gpxtpx:hr>
          </gpxtpx:TrackPointExtension>
        </extensions>
      </trkpt>
      <trkpt lat="50.54561" lon="5.3129">
        <ele>63.200000762939</ele>
        <time>2019-11-09T09:10:21.000Z</time>
        <extensions>
          <gpxtpx:TrackPointExtension xmlns:gpxtpx="http://www.garmin.com/xmlschemas/TrackPointExtension/v1">
            <gpxtpx:hr>95</gpxtpx:hr>
          </gpxtpx:TrackPointExtension>
        </extensions>
      </trkpt>
      <trkpt lat="50.54542" lon="5.31251">
        <ele>71</ele>
        <time>2019-11-09T09:10:26.000Z</time>
      </trkpt>
      <trkpt lat="50.54513" lon="5.31181">
        <ele>72.7</ele>
        <time>2019-11-09T09:10:30.000Z</time>
      </trkpt>
      <trkpt lat="50.54486" lon="5.3112">
        <ele>71.2</ele>
        <time>2019-11-09T09:10:39.000Z</time>
      </trkpt>
      <trkpt lat="50.54476" lon="5.31102">
        <ele>71.4</ele>
        <time>2019-11-09T09:10:45.000Z</time>
      </trkpt>
      <trkpt lat="50.54465" lon="5.31078">
        <ele>72.7</ele>
        <time>2019-11-09T09:10:47.000Z</time>
      </trkpt>
      <trkpt lat="50.54451" lon="5.31044">
        <ele>72.7</ele>
        <time>2019-11-09T09:10:49.000Z</time>
      </trkpt>
      <trkpt lat="50.54419" lon="5.30972">
        <ele>73.7</ele>
        <time>2019-11-09T09:10:53.000Z</time>
      </trkpt>
      <trkpt lat="50.54393" lon="5.30911">
        <ele>70</ele>
        <time>2019-11-09T09:10:56.000Z</time>
      </trkpt>
      <trkpt lat="50.54381" lon="5.30885">
        <ele>70</ele>
        <time>2019-11-09T09:10:58.000Z</time>
      </trkpt>
      <trkpt lat="50.54352" lon="5.3082">
        <ele>69.8</ele>
        <time>2019-11-09T09:11:01.000Z</time>
      </trkpt>
      <trkpt lat="50.54338" lon="5.30786">
        <ele>69.8</ele>
        <time>2019-11-09T09:11:03.000Z</time>
      </trkpt>
      <trkpt lat="50.54309" lon="5.30721">
        <ele>68.8</ele>
        <time>2019-11-09T09:11:04.000Z</time>
      </trkpt>
      <trkpt lat="50.543" lon="5.30698">
        <ele>68.8</ele>
        <time>2019-11-09T09:11:09.000Z</time>
      </trkpt>
      <trkpt lat="50.54272" lon="5.30638">
        <ele>69.2</ele>
        <time>2019-11-09T09:11:12.000Z</time>
      </trkpt>
      <trkpt lat="50.54258" lon="5.30606">
        <ele>69.2</ele>
        <time>2019-11-09T09:11:14.000Z</time>
      </trkpt>
      <trkpt lat="50.54234" lon="5.30546">
        <ele>68.5</ele>
        <time>2019-11-09T09:11:18.000Z</time>
      </trkpt>
      <trkpt lat="50.54219" lon="5.30506">
        <ele>68.3</ele>
        <time>2019-11-09T09:11:22.000Z</time>
      </trkpt>
      <trkpt lat="50.54196" lon="5.30436">
        <ele>68.2</ele>
        <time>2019-11-09T09:11:27.000Z</time>
      </trkpt>
      <trkpt lat="50.54188" lon="5.30408">
        <ele>68.6</ele>
        <time>2019-11-09T09:11:28.000Z</time>
      </trkpt>
      <trkpt lat="50.54171" lon="5.30335">
        <ele>68.1</ele>
        <time>2019-11-09T09:11:30.000Z</time>
      </trkpt>
      <trkpt lat="50.54156" lon="5.30237">
        <ele>68</ele>
        <time>2019-11-09T09:11:32.000Z</time>
      </trkpt>
      <trkpt lat="50.54153" lon="5.30211">
        <ele>68</ele>
        <time>2019-11-09T09:11:33.000Z</time>
      </trkpt>
      <trkpt lat="50.54145" lon="5.30152">
        <ele>68.5</ele>
        <time>2019-11-09T09:11:35.000Z</time>
      </trkpt>
      <trkpt lat="50.54138" lon="5.30102">
        <ele>69</ele>
        <time>2019-11-09T09:11:36.000Z</time>
      </trkpt>
      <trkpt lat="50.5413" lon="5.30047">
        <ele>69.8</ele>
        <time>2019-11-09T09:11:37.000Z</time>
      </trkpt>
      <trkpt lat="50.54121" lon="5.29973">
        <ele>69.7</ele>
        <time>2019-11-09T09:11:39.000Z</time>
      </trkpt>
      <trkpt lat="50.5411" lon="5.2989">
        <ele>69.4</ele>
        <time>2019-11-09T09:11:41.000Z</time>
      </trkpt>
      <trkpt lat="50.54101" lon="5.29822">
        <ele>69.8</ele>
        <time>2019-11-09T09:11:44.000Z</time>
      </trkpt>
      <trkpt lat="50.54091" lon="5.29745">
        <ele>69.7</ele>
        <time>2019-11-09T09:11:51.000Z</time>
      </trkpt>
      <trkpt lat="50.54084" lon="5.29683">
        <ele>70.5</ele>
        <time>2019-11-09T09:11:54.000Z</time>
      </trkpt>
      <trkpt lat="50.54079" lon="5.29641">
        <ele>69.6</ele>
        <time>2019-11-09T09:12:03.000Z</time>
      </trkpt>
      <trkpt lat="50.54068" lon="5.29564">
        <ele>69.7</ele>
        <time>2019-11-09T09:12:11.000Z</time>
      </trkpt>
      <trkpt lat="50.54059" lon="5.2949">
        <ele>69.8</ele>
        <time>2019-11-09T09:12:20.000Z</time>
      </trkpt>
      <trkpt lat="50.54054" lon="5.29449">
        <ele>69.7</ele>
        <time>2019-11-09T09:12:24.000Z</time>
      </trkpt>
      <trkpt lat="50.54043" lon="5.29365">
        <ele>69.8</ele>
        <time>2019-11-09T09:12:28.000Z</time>
      </trkpt>
      <trkpt lat="50.54038" lon="5.29329">
        <ele>70.2</ele>
        <time>2019-11-09T09:12:32.000Z</time>
      </trkpt>
      <trkpt lat="50.5403" lon="5.29274">
        <ele>70.2</ele>
        <time>2019-11-09T09:12:35.000Z</time>
      </trkpt>
      <trkpt lat="50.54025" lon="5.29244">
        <ele>70.8</ele>
        <time>2019-11-09T09:12:39.000Z</time>
      </trkpt>
      <trkpt lat="50.54018" lon="5.29188">
        <ele>71.4</ele>
        <time>2019-11-09T09:12:42.000Z</time>
      </trkpt>
      <trkpt lat="50.54016" lon="5.2916">
        <ele>71.8</ele>
        <time>2019-11-09T09:12:48.000Z</time>
      </trkpt>
      <trkpt lat="50.54008" lon="5.29095">
        <ele>71.8</ele>
        <time>2019-11-09T09:12:51.000Z</time>
      </trkpt>
      <trkpt lat="50.54003" lon="5.2905">
        <ele>71.4</ele>
        <time>2019-11-09T09:12:54.000Z</time>
      </trkpt>
      <trkpt lat="50.53992" lon="5.2897">
        <ele>71.4</ele>
        <time>2019-11-09T09:13:03.000Z</time>
      </trkpt>
      <trkpt lat="50.53987" lon="5.28931">
        <ele>71.2</ele>
        <time>2019-11-09T09:13:04.000Z</time>
      </trkpt>
      <trkpt lat="50.53979" lon="5.28876">
        <ele>70.7</ele>
        <time>2019-11-09T09:13:07.000Z</time>
      </trkpt>
      <trkpt lat="50.53975" lon="5.28842">
        <ele>70.5</ele>
        <time>2019-11-09T09:13:09.000Z</time>
      </trkpt>
      <trkpt lat="50.53967" lon="5.28787">
        <ele>70.5</ele>
        <time>2019-11-09T09:13:17.000Z</time>
      </trkpt>
      <trkpt lat="50.5396" lon="5.28745">
        <ele>71</ele>
        <time>2019-11-09T09:13:20.000Z</time>
      </trkpt>
      <trkpt lat="50.53972" lon="5.28734">
        <ele>62.799999237061</ele>
        <time>2019-11-09T09:13:23.000Z</time>
        <extensions>
          <gpxtpx:TrackPointExtension xmlns:gpxtpx="http://www.garmin.com/xmlschemas/TrackPointExtension/v1">
            <gpxtpx:hr>99</gpxtpx:hr>
          </gpxtpx:TrackPointExtension>
        </extensions>
      </trkpt>
      <trkpt lat="50.5398" lon="5.28725">
        <ele>62.799999237061</ele>
        <time>2019-11-09T09:13:26.000Z</time>
        <extensions>
          <gpxtpx:TrackPointExtension xmlns:gpxtpx="http://www.garmin.com/xmlschemas/TrackPointExtension/v1">
            <gpxtpx:hr>99</gpxtpx:hr>
          </gpxtpx:TrackPointExtension>
        </extensions>
      </trkpt>
      <trkpt lat="50.53993" lon="5.28711">
        <ele>62.799999237061</ele>
        <time>2019-11-09T09:13:27.000Z</time>
        <extensions>
          <gpxtpx:TrackPointExtension xmlns:gpxtpx="http://www.garmin.com/xmlschemas/TrackPointExtension/v1">
            <gpxtpx:hr>102</gpxtpx:hr>
          </gpxtpx:TrackPointExtension>
        </extensions>
      </trkpt>
      <trkpt lat="50.53998" lon="5.28707">
        <ele>62.799999237061</ele>
        <time>2019-11-09T09:13:29.000Z</time>
        <extensions>
          <gpxtpx:TrackPointExtension xmlns:gpxtpx="http://www.garmin.com/xmlschemas/TrackPointExtension/v1">
            <gpxtpx:hr>102</gpxtpx:hr>
          </gpxtpx:TrackPointExtension>
        </extensions>
      </trkpt>
      <trkpt lat="50.54003" lon="5.28705">
        <ele>62.799999237061</ele>
        <time>2019-11-09T09:13:31.000Z</time>
        <extensions>
          <gpxtpx:TrackPointExtension xmlns:gpxtpx="http://www.garmin.com/xmlschemas/TrackPointExtension/v1">
            <gpxtpx:hr>103</gpxtpx:hr>
          </gpxtpx:TrackPointExtension>
        </extensions>
      </trkpt>
      <trkpt lat="50.54019" lon="5.28703">
        <ele>63.200000762939</ele>
        <time>2019-11-09T09:13:33.000Z</time>
        <extensions>
          <gpxtpx:TrackPointExtension xmlns:gpxtpx="http://www.garmin.com/xmlschemas/TrackPointExtension/v1">
            <gpxtpx:hr>104</gpxtpx:hr>
          </gpxtpx:TrackPointExtension>
        </extensions>
      </trkpt>
      <trkpt lat="50.54029" lon="5.28703">
        <ele>63.200000762939</ele>
        <time>2019-11-09T09:13:35.000Z</time>
        <extensions>
          <gpxtpx:TrackPointExtension xmlns:gpxtpx="http://www.garmin.com/xmlschemas/TrackPointExtension/v1">
            <gpxtpx:hr>104</gpxtpx:hr>
          </gpxtpx:TrackPointExtension>
        </extensions>
      </trkpt>
      <trkpt lat="50.5405" lon="5.28705">
        <ele>64</ele>
        <time>2019-11-09T09:13:38.000Z</time>
        <extensions>
          <gpxtpx:TrackPointExtension xmlns:gpxtpx="http://www.garmin.com/xmlschemas/TrackPointExtension/v1">
            <gpxtpx:hr>107</gpxtpx:hr>
          </gpxtpx:TrackPointExtension>
        </extensions>
      </trkpt>
      <trkpt lat="50.54076" lon="5.28697">
        <ele>64.800003051758</ele>
        <time>2019-11-09T09:13:40.000Z</time>
        <extensions>
          <gpxtpx:TrackPointExtension xmlns:gpxtpx="http://www.garmin.com/xmlschemas/TrackPointExtension/v1">
            <gpxtpx:hr>109</gpxtpx:hr>
          </gpxtpx:TrackPointExtension>
        </extensions>
      </trkpt>
      <trkpt lat="50.54082" lon="5.28695">
        <ele>65</ele>
        <time>2019-11-09T09:13:44.000Z</time>
        <extensions>
          <gpxtpx:TrackPointExtension xmlns:gpxtpx="http://www.garmin.com/xmlschemas/TrackPointExtension/v1">
            <gpxtpx:hr>110</gpxtpx:hr>
          </gpxtpx:TrackPointExtension>
        </extensions>
      </trkpt>
      <trkpt lat="50.54107" lon="5.28684">
        <ele>65.800003051758</ele>
        <time>2019-11-09T09:13:45.000Z</time>
        <extensions>
          <gpxtpx:TrackPointExtension xmlns:gpxtpx="http://www.garmin.com/xmlschemas/TrackPointExtension/v1">
            <gpxtpx:hr>110</gpxtpx:hr>
          </gpxtpx:TrackPointExtension>
        </extensions>
      </trkpt>
      <trkpt lat="50.5412" lon="5.28673">
        <ele>66.199996948242</ele>
        <time>2019-11-09T09:13:46.000Z</time>
        <extensions>
          <gpxtpx:TrackPointExtension xmlns:gpxtpx="http://www.garmin.com/xmlschemas/TrackPointExtension/v1">
            <gpxtpx:hr>111</gpxtpx:hr>
          </gpxtpx:TrackPointExtension>
        </extensions>
      </trkpt>
      <trkpt lat="50.54143" lon="5.28639">
        <ele>66.599998474121</ele>
        <time>2019-11-09T09:13:49.000Z</time>
        <extensions>
          <gpxtpx:TrackPointExtension xmlns:gpxtpx="http://www.garmin.com/xmlschemas/TrackPointExtension/v1">
            <gpxtpx:hr>113</gpxtpx:hr>
          </gpxtpx:TrackPointExtension>
        </extensions>
      </trkpt>
      <trkpt lat="50.54153" lon="5.28612">
        <ele>66.800003051758</ele>
        <time>2019-11-09T09:13:53.000Z</time>
        <extensions>
          <gpxtpx:TrackPointExtension xmlns:gpxtpx="http://www.garmin.com/xmlschemas/TrackPointExtension/v1">
            <gpxtpx:hr>114</gpxtpx:hr>
          </gpxtpx:TrackPointExtension>
        </extensions>
      </trkpt>
      <trkpt lat="50.54156" lon="5.28596">
        <ele>67.199996948242</ele>
        <time>2019-11-09T09:13:58.000Z</time>
        <extensions>
          <gpxtpx:TrackPointExtension xmlns:gpxtpx="http://www.garmin.com/xmlschemas/TrackPointExtension/v1">
            <gpxtpx:hr>115</gpxtpx:hr>
          </gpxtpx:TrackPointExtension>
        </extensions>
      </trkpt>
      <trkpt lat="50.54164" lon="5.28557">
        <ele>68</ele>
        <time>2019-11-09T09:14:00.000Z</time>
        <extensions>
          <gpxtpx:TrackPointExtension xmlns:gpxtpx="http://www.garmin.com/xmlschemas/TrackPointExtension/v1">
            <gpxtpx:hr>116</gpxtpx:hr>
          </gpxtpx:TrackPointExtension>
        </extensions>
      </trkpt>
      <trkpt lat="50.5417" lon="5.28525">
        <ele>68.199996948242</ele>
        <time>2019-11-09T09:14:02.000Z</time>
        <extensions>
          <gpxtpx:TrackPointExtension xmlns:gpxtpx="http://www.garmin.com/xmlschemas/TrackPointExtension/v1">
            <gpxtpx:hr>117</gpxtpx:hr>
          </gpxtpx:TrackPointExtension>
        </extensions>
      </trkpt>
      <trkpt lat="50.54177" lon="5.28487">
        <ele>84</ele>
        <time>2019-11-09T09:14:07.000Z</time>
      </trkpt>
      <trkpt lat="50.54187" lon="5.28445">
        <ele>68.199996948242</ele>
        <time>2019-11-09T09:14:08.000Z</time>
        <extensions>
          <gpxtpx:TrackPointExtension xmlns:gpxtpx="http://www.garmin.com/xmlschemas/TrackPointExtension/v1">
            <gpxtpx:hr>119</gpxtpx:hr>
          </gpxtpx:TrackPointExtension>
        </extensions>
      </trkpt>
      <trkpt lat="50.54194" lon="5.28424">
        <ele>68.800003051758</ele>
        <time>2019-11-09T09:14:14.000Z</time>
        <extensions>
          <gpxtpx:TrackPointExtension xmlns:gpxtpx="http://www.garmin.com/xmlschemas/TrackPointExtension/v1">
            <gpxtpx:hr>120</gpxtpx:hr>
          </gpxtpx:TrackPointExtension>
        </extensions>
      </trkpt>
      <trkpt lat="50.54204" lon="5.28404">
        <ele>69.599998474121</ele>
        <time>2019-11-09T09:14:16.000Z</time>
        <extensions>
          <gpxtpx:TrackPointExtension xmlns:gpxtpx="http://www.garmin.com/xmlschemas/TrackPointExtension/v1">
            <gpxtpx:hr>119</gpxtpx:hr>
          </gpxtpx:TrackPointExtension>
        </extensions>
      </trkpt>
      <trkpt lat="50.54208" lon="5.28398">
        <ele>69.800003051758</ele>
        <time>2019-11-09T09:14:22.000Z</time>
        <extensions>
          <gpxtpx:TrackPointExtension xmlns:gpxtpx="http://www.garmin.com/xmlschemas/TrackPointExtension/v1">
            <gpxtpx:hr>119</gpxtpx:hr>
          </gpxtpx:TrackPointExtension>
        </extensions>
      </trkpt>
      <trkpt lat="50.54212" lon="5.28393">
        <ele>70.199996948242</ele>
        <time>2019-11-09T09:14:24.000Z</time>
        <extensions>
          <gpxtpx:TrackPointExtension xmlns:gpxtpx="http://www.garmin.com/xmlschemas/TrackPointExtension/v1">
            <gpxtpx:hr>119</gpxtpx:hr>
          </gpxtpx:TrackPointExtension>
        </extensions>
      </trkpt>
      <trkpt lat="50.54226" lon="5.2838">
        <ele>70.800003051758</ele>
        <time>2019-11-09T09:14:31.000Z</time>
        <extensions>
          <gpxtpx:TrackPointExtension xmlns:gpxtpx="http://www.garmin.com/xmlschemas/TrackPointExtension/v1">
            <gpxtpx:hr>119</gpxtpx:hr>
          </gpxtpx:TrackPointExtension>
        </extensions>
      </trkpt>
      <trkpt lat="50.54235" lon="5.28373">
        <ele>71</ele>
        <time>2019-11-09T09:14:34.000Z</time>
        <extensions>
          <gpxtpx:TrackPointExtension xmlns:gpxtpx="http://www.garmin.com/xmlschemas/TrackPointExtension/v1">
            <gpxtpx:hr>119</gpxtpx:hr>
          </gpxtpx:TrackPointExtension>
        </extensions>
      </trkpt>
      <trkpt lat="50.54251" lon="5.28367">
        <ele>71.199996948242</ele>
        <time>2019-11-09T09:14:39.000Z</time>
        <extensions>
          <gpxtpx:TrackPointExtension xmlns:gpxtpx="http://www.garmin.com/xmlschemas/TrackPointExtension/v1">
            <gpxtpx:hr>120</gpxtpx:hr>
          </gpxtpx:TrackPointExtension>
        </extensions>
      </trkpt>
      <trkpt lat="50.54301" lon="5.2836">
        <ele>72</ele>
        <time>2019-11-09T09:14:47.000Z</time>
        <extensions>
          <gpxtpx:TrackPointExtension xmlns:gpxtpx="http://www.garmin.com/xmlschemas/TrackPointExtension/v1">
            <gpxtpx:hr>119</gpxtpx:hr>
          </gpxtpx:TrackPointExtension>
        </extensions>
      </trkpt>
      <trkpt lat="50.54341" lon="5.28359">
        <ele>72.599998474121</ele>
        <time>2019-11-09T09:14:57.000Z</time>
        <extensions>
          <gpxtpx:TrackPointExtension xmlns:gpxtpx="http://www.garmin.com/xmlschemas/TrackPointExtension/v1">
            <gpxtpx:hr>119</gpxtpx:hr>
          </gpxtpx:TrackPointExtension>
        </extensions>
      </trkpt>
      <trkpt lat="50.54347" lon="5.2836">
        <ele>72.800003051758</ele>
        <time>2019-11-09T09:15:07.000Z</time>
        <extensions>
          <gpxtpx:TrackPointExtension xmlns:gpxtpx="http://www.garmin.com/xmlschemas/TrackPointExtension/v1">
            <gpxtpx:hr>119</gpxtpx:hr>
          </gpxtpx:TrackPointExtension>
        </extensions>
      </trkpt>
      <trkpt lat="50.54373" lon="5.28374">
        <ele>72.800003051758</ele>
        <time>2019-11-09T09:15:14.000Z</time>
        <extensions>
          <gpxtpx:TrackPointExtension xmlns:gpxtpx="http://www.garmin.com/xmlschemas/TrackPointExtension/v1">
            <gpxtpx:hr>119</gpxtpx:hr>
          </gpxtpx:TrackPointExtension>
        </extensions>
      </trkpt>
      <trkpt lat="50.54378" lon="5.28376">
        <ele>73</ele>
        <time>2019-11-09T09:15:16.000Z</time>
        <extensions>
          <gpxtpx:TrackPointExtension xmlns:gpxtpx="http://www.garmin.com/xmlschemas/TrackPointExtension/v1">
            <gpxtpx:hr>119</gpxtpx:hr>
          </gpxtpx:TrackPointExtension>
        </extensions>
      </trkpt>
      <trkpt lat="50.54423" lon="5.28397">
        <ele>73.800003051758</ele>
        <time>2019-11-09T09:15:19.000Z</time>
        <extensions>
          <gpxtpx:TrackPointExtension xmlns:gpxtpx="http://www.garmin.com/xmlschemas/TrackPointExtension/v1">
            <gpxtpx:hr>120</gpxtpx:hr>
          </gpxtpx:TrackPointExtension>
        </extensions>
      </trkpt>
      <trkpt lat="50.54428" lon="5.28399">
        <ele>73.800003051758</ele>
        <time>2019-11-09T09:15:27.000Z</time>
        <extensions>
          <gpxtpx:TrackPointExtension xmlns:gpxtpx="http://www.garmin.com/xmlschemas/TrackPointExtension/v1">
            <gpxtpx:hr>120</gpxtpx:hr>
          </gpxtpx:TrackPointExtension>
        </extensions>
      </trkpt>
      <trkpt lat="50.54457" lon="5.28414">
        <ele>74.800003051758</ele>
        <time>2019-11-09T09:15:30.000Z</time>
        <extensions>
          <gpxtpx:TrackPointExtension xmlns:gpxtpx="http://www.garmin.com/xmlschemas/TrackPointExtension/v1">
            <gpxtpx:hr>121</gpxtpx:hr>
          </gpxtpx:TrackPointExtension>
        </extensions>
      </trkpt>
      <trkpt lat="50.54471" lon="5.28423">
        <ele>75.400001525879</ele>
        <time>2019-11-09T09:15:41.000Z</time>
        <extensions>
          <gpxtpx:TrackPointExtension xmlns:gpxtpx="http://www.garmin.com/xmlschemas/TrackPointExtension/v1">
            <gpxtpx:hr>122</gpxtpx:hr>
          </gpxtpx:TrackPointExtension>
        </extensions>
      </trkpt>
      <trkpt lat="50.54489" lon="5.28436">
        <ele>76</ele>
        <time>2019-11-09T09:15:42.000Z</time>
        <extensions>
          <gpxtpx:TrackPointExtension xmlns:gpxtpx="http://www.garmin.com/xmlschemas/TrackPointExtension/v1">
            <gpxtpx:hr>123</gpxtpx:hr>
          </gpxtpx:TrackPointExtension>
        </extensions>
      </trkpt>
      <trkpt lat="50.54502" lon="5.28449">
        <ele>76.400001525879</ele>
        <time>2019-11-09T09:15:50.000Z</time>
        <extensions>
          <gpxtpx:TrackPointExtension xmlns:gpxtpx="http://www.garmin.com/xmlschemas/TrackPointExtension/v1">
            <gpxtpx:hr>123</gpxtpx:hr>
          </gpxtpx:TrackPointExtension>
        </extensions>
      </trkpt>
      <trkpt lat="50.54522" lon="5.28473">
        <ele>77</ele>
        <time>2019-11-09T09:15:54.000Z</time>
        <extensions>
          <gpxtpx:TrackPointExtension xmlns:gpxtpx="http://www.garmin.com/xmlschemas/TrackPointExtension/v1">
            <gpxtpx:hr>124</gpxtpx:hr>
          </gpxtpx:TrackPointExtension>
        </extensions>
      </trkpt>
      <trkpt lat="50.5453" lon="5.28483">
        <ele>77.199996948242</ele>
        <time>2019-11-09T09:15:57.000Z</time>
        <extensions>
          <gpxtpx:TrackPointExtension xmlns:gpxtpx="http://www.garmin.com/xmlschemas/TrackPointExtension/v1">
            <gpxtpx:hr>124</gpxtpx:hr>
          </gpxtpx:TrackPointExtension>
        </extensions>
      </trkpt>
      <trkpt lat="50.54533" lon="5.28488">
        <ele>77.400001525879</ele>
        <time>2019-11-09T09:15:58.000Z</time>
        <extensions>
          <gpxtpx:TrackPointExtension xmlns:gpxtpx="http://www.garmin.com/xmlschemas/TrackPointExtension/v1">
            <gpxtpx:hr>125</gpxtpx:hr>
          </gpxtpx:TrackPointExtension>
        </extensions>
      </trkpt>
      <trkpt lat="50.5454" lon="5.28498">
        <ele>78</ele>
        <time>2019-11-09T09:16:02.000Z</time>
        <extensions>
          <gpxtpx:TrackPointExtension xmlns:gpxtpx="http://www.garmin.com/xmlschemas/TrackPointExtension/v1">
            <gpxtpx:hr>125</gpxtpx:hr>
          </gpxtpx:TrackPointExtension>
        </extensions>
      </trkpt>
      <trkpt lat="50.54543" lon="5.28503">
        <ele>78</ele>
        <time>2019-11-09T09:16:06.000Z</time>
        <extensions>
          <gpxtpx:TrackPointExtension xmlns:gpxtpx="http://www.garmin.com/xmlschemas/TrackPointExtension/v1">
            <gpxtpx:hr>126</gpxtpx:hr>
          </gpxtpx:TrackPointExtension>
        </extensions>
      </trkpt>
      <trkpt lat="50.54552" lon="5.28512">
        <ele>78.400001525879</ele>
        <time>2019-11-09T09:16:08.000Z</time>
        <extensions>
          <gpxtpx:TrackPointExtension xmlns:gpxtpx="http://www.garmin.com/xmlschemas/TrackPointExtension/v1">
            <gpxtpx:hr>126</gpxtpx:hr>
          </gpxtpx:TrackPointExtension>
        </extensions>
      </trkpt>
      <trkpt lat="50.54565" lon="5.28524">
        <ele>79</ele>
        <time>2019-11-09T09:16:17.000Z</time>
        <extensions>
          <gpxtpx:TrackPointExtension xmlns:gpxtpx="http://www.garmin.com/xmlschemas/TrackPointExtension/v1">
            <gpxtpx:hr>127</gpxtpx:hr>
          </gpxtpx:TrackPointExtension>
        </extensions>
      </trkpt>
      <trkpt lat="50.54575" lon="5.2853">
        <ele>79.400001525879</ele>
        <time>2019-11-09T09:16:20.000Z</time>
        <extensions>
          <gpxtpx:TrackPointExtension xmlns:gpxtpx="http://www.garmin.com/xmlschemas/TrackPointExtension/v1">
            <gpxtpx:hr>128</gpxtpx:hr>
          </gpxtpx:TrackPointExtension>
        </extensions>
      </trkpt>
      <trkpt lat="50.54603" lon="5.2855">
        <ele>80.199996948242</ele>
        <time>2019-11-09T09:16:29.000Z</time>
        <extensions>
          <gpxtpx:TrackPointExtension xmlns:gpxtpx="http://www.garmin.com/xmlschemas/TrackPointExtension/v1">
            <gpxtpx:hr>128</gpxtpx:hr>
          </gpxtpx:TrackPointExtension>
        </extensions>
      </trkpt>
      <trkpt lat="50.54612" lon="5.28558">
        <ele>80.400001525879</ele>
        <time>2019-11-09T09:16:37.000Z</time>
        <extensions>
          <gpxtpx:TrackPointExtension xmlns:gpxtpx="http://www.garmin.com/xmlschemas/TrackPointExtension/v1">
            <gpxtpx:hr>128</gpxtpx:hr>
          </gpxtpx:TrackPointExtension>
        </extensions>
      </trkpt>
      <trkpt lat="50.54616" lon="5.28562">
        <ele>80.599998474121</ele>
        <time>2019-11-09T09:16:46.000Z</time>
        <extensions>
          <gpxtpx:TrackPointExtension xmlns:gpxtpx="http://www.garmin.com/xmlschemas/TrackPointExtension/v1">
            <gpxtpx:hr>128</gpxtpx:hr>
          </gpxtpx:TrackPointExtension>
        </extensions>
      </trkpt>
      <trkpt lat="50.54625" lon="5.28572">
        <ele>93</ele>
        <time>2019-11-09T09:16:48.000Z</time>
      </trkpt>
      <trkpt lat="50.54635" lon="5.28587">
        <ele>97</ele>
        <time>2019-11-09T09:16:52.000Z</time>
      </trkpt>
      <trkpt lat="50.54658" lon="5.2863">
        <ele>81.199996948242</ele>
        <time>2019-11-09T09:16:59.000Z</time>
        <extensions>
          <gpxtpx:TrackPointExtension xmlns:gpxtpx="http://www.garmin.com/xmlschemas/TrackPointExtension/v1">
            <gpxtpx:hr>125</gpxtpx:hr>
          </gpxtpx:TrackPointExtension>
        </extensions>
      </trkpt>
      <trkpt lat="50.54662" lon="5.28636">
        <ele>81.199996948242</ele>
        <time>2019-11-09T09:17:08.000Z</time>
        <extensions>
          <gpxtpx:TrackPointExtension xmlns:gpxtpx="http://www.garmin.com/xmlschemas/TrackPointExtension/v1">
            <gpxtpx:hr>125</gpxtpx:hr>
          </gpxtpx:TrackPointExtension>
        </extensions>
      </trkpt>
      <trkpt lat="50.5467" lon="5.28648">
        <ele>81.400001525879</ele>
        <time>2019-11-09T09:17:09.000Z</time>
        <extensions>
          <gpxtpx:TrackPointExtension xmlns:gpxtpx="http://www.garmin.com/xmlschemas/TrackPointExtension/v1">
            <gpxtpx:hr>124</gpxtpx:hr>
          </gpxtpx:TrackPointExtension>
        </extensions>
      </trkpt>
      <trkpt lat="50.5468" lon="5.28658">
        <ele>81.599998474121</ele>
        <time>2019-11-09T09:17:17.000Z</time>
        <extensions>
          <gpxtpx:TrackPointExtension xmlns:gpxtpx="http://www.garmin.com/xmlschemas/TrackPointExtension/v1">
            <gpxtpx:hr>123</gpxtpx:hr>
          </gpxtpx:TrackPointExtension>
        </extensions>
      </trkpt>
      <trkpt lat="50.54685" lon="5.28662">
        <ele>81.599998474121</ele>
        <time>2019-11-09T09:17:19.000Z</time>
        <extensions>
          <gpxtpx:TrackPointExtension xmlns:gpxtpx="http://www.garmin.com/xmlschemas/TrackPointExtension/v1">
            <gpxtpx:hr>122</gpxtpx:hr>
          </gpxtpx:TrackPointExtension>
        </extensions>
      </trkpt>
      <trkpt lat="50.54711" lon="5.28679">
        <ele>81.800003051758</ele>
        <time>2019-11-09T09:17:27.000Z</time>
        <extensions>
          <gpxtpx:TrackPointExtension xmlns:gpxtpx="http://www.garmin.com/xmlschemas/TrackPointExtension/v1">
            <gpxtpx:hr>120</gpxtpx:hr>
          </gpxtpx:TrackPointExtension>
        </extensions>
      </trkpt>
      <trkpt lat="50.54715" lon="5.28684">
        <ele>81.800003051758</ele>
        <time>2019-11-09T09:17:29.000Z</time>
        <extensions>
          <gpxtpx:TrackPointExtension xmlns:gpxtpx="http://www.garmin.com/xmlschemas/TrackPointExtension/v1">
            <gpxtpx:hr>120</gpxtpx:hr>
          </gpxtpx:TrackPointExtension>
        </extensions>
      </trkpt>
      <trkpt lat="50.54746" lon="5.28707">
        <ele>81.800003051758</ele>
        <time>2019-11-09T09:17:37.000Z</time>
        <extensions>
          <gpxtpx:TrackPointExtension xmlns:gpxtpx="http://www.garmin.com/xmlschemas/TrackPointExtension/v1">
            <gpxtpx:hr>120</gpxtpx:hr>
          </gpxtpx:TrackPointExtension>
        </extensions>
      </trkpt>
      <trkpt lat="50.54752" lon="5.28708">
        <ele>81.800003051758</ele>
        <time>2019-11-09T09:17:40.000Z</time>
        <extensions>
          <gpxtpx:TrackPointExtension xmlns:gpxtpx="http://www.garmin.com/xmlschemas/TrackPointExtension/v1">
            <gpxtpx:hr>119</gpxtpx:hr>
          </gpxtpx:TrackPointExtension>
        </extensions>
      </trkpt>
      <trkpt lat="50.54785" lon="5.28713">
        <ele>82.199996948242</ele>
        <time>2019-11-09T09:17:42.000Z</time>
        <extensions>
          <gpxtpx:TrackPointExtension xmlns:gpxtpx="http://www.garmin.com/xmlschemas/TrackPointExtension/v1">
            <gpxtpx:hr>118</gpxtpx:hr>
          </gpxtpx:TrackPointExtension>
        </extensions>
      </trkpt>
      <trkpt lat="50.54791" lon="5.28713">
        <ele>82.400001525879</ele>
        <time>2019-11-09T09:17:50.000Z</time>
        <extensions>
          <gpxtpx:TrackPointExtension xmlns:gpxtpx="http://www.garmin.com/xmlschemas/TrackPointExtension/v1">
            <gpxtpx:hr>118</gpxtpx:hr>
          </gpxtpx:TrackPointExtension>
        </extensions>
      </trkpt>
      <trkpt lat="50.54796" lon="5.28711">
        <ele>82.400001525879</ele>
        <time>2019-11-09T09:17:51.000Z</time>
        <extensions>
          <gpxtpx:TrackPointExtension xmlns:gpxtpx="http://www.garmin.com/xmlschemas/TrackPointExtension/v1">
            <gpxtpx:hr>117</gpxtpx:hr>
          </gpxtpx:TrackPointExtension>
        </extensions>
      </trkpt>
      <trkpt lat="50.54819" lon="5.28702">
        <ele>82.599998474121</ele>
        <time>2019-11-09T09:17:58.000Z</time>
        <extensions>
          <gpxtpx:TrackPointExtension xmlns:gpxtpx="http://www.garmin.com/xmlschemas/TrackPointExtension/v1">
            <gpxtpx:hr>117</gpxtpx:hr>
          </gpxtpx:TrackPointExtension>
        </extensions>
      </trkpt>
      <trkpt lat="50.54835" lon="5.28692">
        <ele>83.199996948242</ele>
        <time>2019-11-09T09:18:01.000Z</time>
        <extensions>
          <gpxtpx:TrackPointExtension xmlns:gpxtpx="http://www.garmin.com/xmlschemas/TrackPointExtension/v1">
            <gpxtpx:hr>117</gpxtpx:hr>
          </gpxtpx:TrackPointExtension>
        </extensions>
      </trkpt>
      <trkpt lat="50.5486" lon="5.28677">
        <ele>83.599998474121</ele>
        <time>2019-11-09T09:18:02.000Z</time>
        <extensions>
          <gpxtpx:TrackPointExtension xmlns:gpxtpx="http://www.garmin.com/xmlschemas/TrackPointExtension/v1">
            <gpxtpx:hr>119</gpxtpx:hr>
          </gpxtpx:TrackPointExtension>
        </extensions>
      </trkpt>
      <trkpt lat="50.5489" lon="5.28663">
        <ele>84.199996948242</ele>
        <time>2019-11-09T09:18:05.000Z</time>
        <extensions>
          <gpxtpx:TrackPointExtension xmlns:gpxtpx="http://www.garmin.com/xmlschemas/TrackPointExtension/v1">
            <gpxtpx:hr>119</gpxtpx:hr>
          </gpxtpx:TrackPointExtension>
        </extensions>
      </trkpt>
      <trkpt lat="50.54895" lon="5.28661">
        <ele>84.199996948242</ele>
        <time>2019-11-09T09:18:08.000Z</time>
        <extensions>
          <gpxtpx:TrackPointExtension xmlns:gpxtpx="http://www.garmin.com/xmlschemas/TrackPointExtension/v1">
            <gpxtpx:hr>119</gpxtpx:hr>
          </gpxtpx:TrackPointExtension>
        </extensions>
      </trkpt>
      <trkpt lat="50.54905" lon="5.28659">
        <ele>84.400001525879</ele>
        <time>2019-11-09T09:18:32.000Z</time>
        <extensions>
          <gpxtpx:TrackPointExtension xmlns:gpxtpx="http://www.garmin.com/xmlschemas/TrackPointExtension/v1">
            <gpxtpx:hr>119</gpxtpx:hr>
          </gpxtpx:TrackPointExtension>
        </extensions>
      </trkpt>
      <trkpt lat="50.54909" lon="5.28659">
        <ele>84.599998474121</ele>
        <time>2019-11-09T09:18:34.000Z</time>
        <extensions>
          <gpxtpx:TrackPointExtension xmlns:gpxtpx="http://www.garmin.com/xmlschemas/TrackPointExtension/v1">
            <gpxtpx:hr>119</gpxtpx:hr>
          </gpxtpx:TrackPointExtension>
        </extensions>
      </trkpt>
      <trkpt lat="50.54928" lon="5.28662">
        <ele>85.199996948242</ele>
        <time>2019-11-09T09:18:36.000Z</time>
        <extensions>
          <gpxtpx:TrackPointExtension xmlns:gpxtpx="http://www.garmin.com/xmlschemas/TrackPointExtension/v1">
            <gpxtpx:hr>119</gpxtpx:hr>
          </gpxtpx:TrackPointExtension>
        </extensions>
      </trkpt>
      <trkpt lat="50.54933" lon="5.28662">
        <ele>85.199996948242</ele>
        <time>2019-11-09T09:18:38.000Z</time>
        <extensions>
          <gpxtpx:TrackPointExtension xmlns:gpxtpx="http://www.garmin.com/xmlschemas/TrackPointExtension/v1">
            <gpxtpx:hr>119</gpxtpx:hr>
          </gpxtpx:TrackPointExtension>
        </extensions>
      </trkpt>
      <trkpt lat="50.5495" lon="5.28658">
        <ele>85.800003051758</ele>
        <time>2019-11-09T09:18:40.000Z</time>
        <extensions>
          <gpxtpx:TrackPointExtension xmlns:gpxtpx="http://www.garmin.com/xmlschemas/TrackPointExtension/v1">
            <gpxtpx:hr>118</gpxtpx:hr>
          </gpxtpx:TrackPointExtension>
        </extensions>
      </trkpt>
      <trkpt lat="50.54962" lon="5.28652">
        <ele>86</ele>
        <time>2019-11-09T09:18:43.000Z</time>
        <extensions>
          <gpxtpx:TrackPointExtension xmlns:gpxtpx="http://www.garmin.com/xmlschemas/TrackPointExtension/v1">
            <gpxtpx:hr>118</gpxtpx:hr>
          </gpxtpx:TrackPointExtension>
        </extensions>
      </trkpt>
      <trkpt lat="50.54985" lon="5.28642">
        <ele>86</ele>
        <time>2019-11-09T09:18:50.000Z</time>
        <extensions>
          <gpxtpx:TrackPointExtension xmlns:gpxtpx="http://www.garmin.com/xmlschemas/TrackPointExtension/v1">
            <gpxtpx:hr>117</gpxtpx:hr>
          </gpxtpx:TrackPointExtension>
        </extensions>
      </trkpt>
      <trkpt lat="50.54998" lon="5.28641">
        <ele>97.8</ele>
        <time>2019-11-09T09:18:57.000Z</time>
      </trkpt>
      <trkpt lat="50.55015" lon="5.28644">
        <ele>85.599998474121</ele>
        <time>2019-11-09T09:19:06.000Z</time>
        <extensions>
          <gpxtpx:TrackPointExtension xmlns:gpxtpx="http://www.garmin.com/xmlschemas/TrackPointExtension/v1">
            <gpxtpx:hr>116</gpxtpx:hr>
          </gpxtpx:TrackPointExtension>
        </extensions>
      </trkpt>
      <trkpt lat="50.5502" lon="5.28646">
        <ele>85.599998474121</ele>
        <time>2019-11-09T09:19:14.000Z</time>
        <extensions>
          <gpxtpx:TrackPointExtension xmlns:gpxtpx="http://www.garmin.com/xmlschemas/TrackPointExtension/v1">
            <gpxtpx:hr>116</gpxtpx:hr>
          </gpxtpx:TrackPointExtension>
        </extensions>
      </trkpt>
      <trkpt lat="50.55041" lon="5.28658">
        <ele>85.599998474121</ele>
        <time>2019-11-09T09:19:22.000Z</time>
        <extensions>
          <gpxtpx:TrackPointExtension xmlns:gpxtpx="http://www.garmin.com/xmlschemas/TrackPointExtension/v1">
            <gpxtpx:hr>113</gpxtpx:hr>
          </gpxtpx:TrackPointExtension>
        </extensions>
      </trkpt>
      <trkpt lat="50.55056" lon="5.28667">
        <ele>85.800003051758</ele>
        <time>2019-11-09T09:19:32.000Z</time>
        <extensions>
          <gpxtpx:TrackPointExtension xmlns:gpxtpx="http://www.garmin.com/xmlschemas/TrackPointExtension/v1">
            <gpxtpx:hr>110</gpxtpx:hr>
          </gpxtpx:TrackPointExtension>
        </extensions>
      </trkpt>
      <trkpt lat="50.55061" lon="5.2867">
        <ele>86</ele>
        <time>2019-11-09T09:19:33.000Z</time>
        <extensions>
          <gpxtpx:TrackPointExtension xmlns:gpxtpx="http://www.garmin.com/xmlschemas/TrackPointExtension/v1">
            <gpxtpx:hr>109</gpxtpx:hr>
          </gpxtpx:TrackPointExtension>
        </extensions>
      </trkpt>
      <trkpt lat="50.5507" lon="5.28676">
        <ele>86</ele>
        <time>2019-11-09T09:19:41.000Z</time>
        <extensions>
          <gpxtpx:TrackPointExtension xmlns:gpxtpx="http://www.garmin.com/xmlschemas/TrackPointExtension/v1">
            <gpxtpx:hr>107</gpxtpx:hr>
          </gpxtpx:TrackPointExtension>
        </extensions>
      </trkpt>
      <trkpt lat="50.5508" lon="5.28681">
        <ele>86.199996948242</ele>
        <time>2019-11-09T09:19:43.000Z</time>
        <extensions>
          <gpxtpx:TrackPointExtension xmlns:gpxtpx="http://www.garmin.com/xmlschemas/TrackPointExtension/v1">
            <gpxtpx:hr>106</gpxtpx:hr>
          </gpxtpx:TrackPointExtension>
        </extensions>
      </trkpt>
      <trkpt lat="50.55095" lon="5.2869">
        <ele>86.400001525879</ele>
        <time>2019-11-09T09:19:44.000Z</time>
        <extensions>
          <gpxtpx:TrackPointExtension xmlns:gpxtpx="http://www.garmin.com/xmlschemas/TrackPointExtension/v1">
            <gpxtpx:hr>107</gpxtpx:hr>
          </gpxtpx:TrackPointExtension>
        </extensions>
      </trkpt>
      <trkpt lat="50.55121" lon="5.28705">
        <ele>86.400001525879</ele>
        <time>2019-11-09T09:19:47.000Z</time>
        <extensions>
          <gpxtpx:TrackPointExtension xmlns:gpxtpx="http://www.garmin.com/xmlschemas/TrackPointExtension/v1">
            <gpxtpx:hr>104</gpxtpx:hr>
          </gpxtpx:TrackPointExtension>
        </extensions>
      </trkpt>
      <trkpt lat="50.55131" lon="5.28711">
        <ele>86.400001525879</ele>
        <time>2019-11-09T09:19:53.000Z</time>
        <extensions>
          <gpxtpx:TrackPointExtension xmlns:gpxtpx="http://www.garmin.com/xmlschemas/TrackPointExtension/v1">
            <gpxtpx:hr>104</gpxtpx:hr>
          </gpxtpx:TrackPointExtension>
        </extensions>
      </trkpt>
      <trkpt lat="50.55168" lon="5.28736">
        <ele>86.400001525879</ele>
        <time>2019-11-09T09:19:59.000Z</time>
        <extensions>
          <gpxtpx:TrackPointExtension xmlns:gpxtpx="http://www.garmin.com/xmlschemas/TrackPointExtension/v1">
            <gpxtpx:hr>104</gpxtpx:hr>
          </gpxtpx:TrackPointExtension>
        </extensions>
      </trkpt>
      <trkpt lat="50.55206" lon="5.28753">
        <ele>86.599998474121</ele>
        <time>2019-11-09T09:20:07.000Z</time>
        <extensions>
          <gpxtpx:TrackPointExtension xmlns:gpxtpx="http://www.garmin.com/xmlschemas/TrackPointExtension/v1">
            <gpxtpx:hr>104</gpxtpx:hr>
          </gpxtpx:TrackPointExtension>
        </extensions>
      </trkpt>
      <trkpt lat="50.5521" lon="5.28755">
        <ele>86.599998474121</ele>
        <time>2019-11-09T09:20:16.000Z</time>
        <extensions>
          <gpxtpx:TrackPointExtension xmlns:gpxtpx="http://www.garmin.com/xmlschemas/TrackPointExtension/v1">
            <gpxtpx:hr>105</gpxtpx:hr>
          </gpxtpx:TrackPointExtension>
        </extensions>
      </trkpt>
      <trkpt lat="50.55228" lon="5.2876">
        <ele>87</ele>
        <time>2019-11-09T09:20:21.000Z</time>
        <extensions>
          <gpxtpx:TrackPointExtension xmlns:gpxtpx="http://www.garmin.com/xmlschemas/TrackPointExtension/v1">
            <gpxtpx:hr>108</gpxtpx:hr>
          </gpxtpx:TrackPointExtension>
        </extensions>
      </trkpt>
      <trkpt lat="50.55232" lon="5.28761">
        <ele>87.199996948242</ele>
        <time>2019-11-09T09:20:24.000Z</time>
        <extensions>
          <gpxtpx:TrackPointExtension xmlns:gpxtpx="http://www.garmin.com/xmlschemas/TrackPointExtension/v1">
            <gpxtpx:hr>109</gpxtpx:hr>
          </gpxtpx:TrackPointExtension>
        </extensions>
      </trkpt>
      <trkpt lat="50.5524" lon="5.28764">
        <ele>87.800003051758</ele>
        <time>2019-11-09T09:20:28.000Z</time>
        <extensions>
          <gpxtpx:TrackPointExtension xmlns:gpxtpx="http://www.garmin.com/xmlschemas/TrackPointExtension/v1">
            <gpxtpx:hr>111</gpxtpx:hr>
          </gpxtpx:TrackPointExtension>
        </extensions>
      </trkpt>
      <trkpt lat="50.55247" lon="5.28766">
        <ele>88.400001525879</ele>
        <time>2019-11-09T09:20:29.000Z</time>
        <extensions>
          <gpxtpx:TrackPointExtension xmlns:gpxtpx="http://www.garmin.com/xmlschemas/TrackPointExtension/v1">
            <gpxtpx:hr>113</gpxtpx:hr>
          </gpxtpx:TrackPointExtension>
        </extensions>
      </trkpt>
      <trkpt lat="50.5526" lon="5.2877">
        <ele>89</ele>
        <time>2019-11-09T09:20:30.000Z</time>
        <extensions>
          <gpxtpx:TrackPointExtension xmlns:gpxtpx="http://www.garmin.com/xmlschemas/TrackPointExtension/v1">
            <gpxtpx:hr>116</gpxtpx:hr>
          </gpxtpx:TrackPointExtension>
        </extensions>
      </trkpt>
      <trkpt lat="50.55264" lon="5.28771">
        <ele>89.400001525879</ele>
        <time>2019-11-09T09:20:38.000Z</time>
        <extensions>
          <gpxtpx:TrackPointExtension xmlns:gpxtpx="http://www.garmin.com/xmlschemas/TrackPointExtension/v1">
            <gpxtpx:hr>117</gpxtpx:hr>
          </gpxtpx:TrackPointExtension>
        </extensions>
      </trkpt>
      <trkpt lat="50.55273" lon="5.28774">
        <ele>90</ele>
        <time>2019-11-09T09:20:44.000Z</time>
        <extensions>
          <gpxtpx:TrackPointExtension xmlns:gpxtpx="http://www.garmin.com/xmlschemas/TrackPointExtension/v1">
            <gpxtpx:hr>119</gpxtpx:hr>
          </gpxtpx:TrackPointExtension>
        </extensions>
      </trkpt>
      <trkpt lat="50.55285" lon="5.28777">
        <ele>90.599998474121</ele>
        <time>2019-11-09T09:20:45.000Z</time>
        <extensions>
          <gpxtpx:TrackPointExtension xmlns:gpxtpx="http://www.garmin.com/xmlschemas/TrackPointExtension/v1">
            <gpxtpx:hr>120</gpxtpx:hr>
          </gpxtpx:TrackPointExtension>
        </extensions>
      </trkpt>
      <trkpt lat="50.55304" lon="5.28782">
        <ele>91.599998474121</ele>
        <time>2019-11-09T09:20:46.000Z</time>
        <extensions>
          <gpxtpx:TrackPointExtension xmlns:gpxtpx="http://www.garmin.com/xmlschemas/TrackPointExtension/v1">
            <gpxtpx:hr>121</gpxtpx:hr>
          </gpxtpx:TrackPointExtension>
        </extensions>
      </trkpt>
      <trkpt lat="50.55311" lon="5.28783">
        <ele>92</ele>
        <time>2019-11-09T09:21:00.000Z</time>
        <extensions>
          <gpxtpx:TrackPointExtension xmlns:gpxtpx="http://www.garmin.com/xmlschemas/TrackPointExtension/v1">
            <gpxtpx:hr>122</gpxtpx:hr>
          </gpxtpx:TrackPointExtension>
        </extensions>
      </trkpt>
      <trkpt lat="50.55325" lon="5.28785">
        <ele>92.599998474121</ele>
        <time>2019-11-09T09:26:21.000Z</time>
        <extensions>
          <gpxtpx:TrackPointExtension xmlns:gpxtpx="http://www.garmin.com/xmlschemas/TrackPointExtension/v1">
            <gpxtpx:hr>123</gpxtpx:hr>
          </gpxtpx:TrackPointExtension>
        </extensions>
      </trkpt>
      <trkpt lat="50.55342" lon="5.28788">
        <ele>93.400001525879</ele>
        <time>2019-11-09T09:26:23.000Z</time>
        <extensions>
          <gpxtpx:TrackPointExtension xmlns:gpxtpx="http://www.garmin.com/xmlschemas/TrackPointExtension/v1">
            <gpxtpx:hr>125</gpxtpx:hr>
          </gpxtpx:TrackPointExtension>
        </extensions>
      </trkpt>
      <trkpt lat="50.55347" lon="5.28789">
        <ele>93.599998474121</ele>
        <time>2019-11-09T09:26:26.000Z</time>
        <extensions>
          <gpxtpx:TrackPointExtension xmlns:gpxtpx="http://www.garmin.com/xmlschemas/TrackPointExtension/v1">
            <gpxtpx:hr>125</gpxtpx:hr>
          </gpxtpx:TrackPointExtension>
        </extensions>
      </trkpt>
      <trkpt lat="50.55363" lon="5.28792">
        <ele>95</ele>
        <time>2019-11-09T09:26:30.000Z</time>
        <extensions>
          <gpxtpx:TrackPointExtension xmlns:gpxtpx="http://www.garmin.com/xmlschemas/TrackPointExtension/v1">
            <gpxtpx:hr>125</gpxtpx:hr>
          </gpxtpx:TrackPointExtension>
        </extensions>
      </trkpt>
      <trkpt lat="50.55372" lon="5.28794">
        <ele>95</ele>
        <time>2019-11-09T09:26:31.000Z</time>
        <extensions>
          <gpxtpx:TrackPointExtension xmlns:gpxtpx="http://www.garmin.com/xmlschemas/TrackPointExtension/v1">
            <gpxtpx:hr>125</gpxtpx:hr>
          </gpxtpx:TrackPointExtension>
        </extensions>
      </trkpt>
      <trkpt lat="50.55387" lon="5.28797">
        <ele>103.4</ele>
        <time>2019-11-09T09:26:32.000Z</time>
      </trkpt>
      <trkpt lat="50.55397" lon="5.28792">
        <ele>103.5</ele>
        <time>2019-11-09T09:26:34.000Z</time>
      </trkpt>
      <trkpt lat="50.55403" lon="5.28784">
        <ele>103.3</ele>
        <time>2019-11-09T09:26:37.000Z</time>
      </trkpt>
      <trkpt lat="50.55409" lon="5.28768">
        <ele>95</ele>
        <time>2019-11-09T09:26:38.000Z</time>
        <extensions>
          <gpxtpx:TrackPointExtension xmlns:gpxtpx="http://www.garmin.com/xmlschemas/TrackPointExtension/v1">
            <gpxtpx:hr>123</gpxtpx:hr>
          </gpxtpx:TrackPointExtension>
        </extensions>
      </trkpt>
      <trkpt lat="50.55411" lon="5.2876">
        <ele>94.800003051758</ele>
        <time>2019-11-09T09:26:39.000Z</time>
        <extensions>
          <gpxtpx:TrackPointExtension xmlns:gpxtpx="http://www.garmin.com/xmlschemas/TrackPointExtension/v1">
            <gpxtpx:hr>123</gpxtpx:hr>
          </gpxtpx:TrackPointExtension>
        </extensions>
      </trkpt>
      <trkpt lat="50.55423" lon="5.28723">
        <ele>94</ele>
        <time>2019-11-09T09:26:41.000Z</time>
        <extensions>
          <gpxtpx:TrackPointExtension xmlns:gpxtpx="http://www.garmin.com/xmlschemas/TrackPointExtension/v1">
            <gpxtpx:hr>123</gpxtpx:hr>
          </gpxtpx:TrackPointExtension>
        </extensions>
      </trkpt>
      <trkpt lat="50.55427" lon="5.28715">
        <ele>93.400001525879</ele>
        <time>2019-11-09T09:26:43.000Z</time>
        <extensions>
          <gpxtpx:TrackPointExtension xmlns:gpxtpx="http://www.garmin.com/xmlschemas/TrackPointExtension/v1">
            <gpxtpx:hr>122</gpxtpx:hr>
          </gpxtpx:TrackPointExtension>
        </extensions>
      </trkpt>
      <trkpt lat="50.55431" lon="5.28704">
        <ele>103.7</ele>
        <time>2019-11-09T09:26:48.000Z</time>
      </trkpt>
      <trkpt lat="50.55438" lon="5.287">
        <ele>103.9</ele>
        <time>2019-11-09T09:26:49.000Z</time>
      </trkpt>
      <trkpt lat="50.55446" lon="5.28698">
        <ele>104.3</ele>
        <time>2019-11-09T09:26:53.000Z</time>
      </trkpt>
      <trkpt lat="50.55457" lon="5.28698">
        <ele>91.599998474121</ele>
        <time>2019-11-09T09:26:56.000Z</time>
        <extensions>
          <gpxtpx:TrackPointExtension xmlns:gpxtpx="http://www.garmin.com/xmlschemas/TrackPointExtension/v1">
            <gpxtpx:hr>119</gpxtpx:hr>
          </gpxtpx:TrackPointExtension>
        </extensions>
      </trkpt>
      <trkpt lat="50.55468" lon="5.28693">
        <ele>105.4</ele>
        <time>2019-11-09T09:26:58.000Z</time>
      </trkpt>
      <trkpt lat="50.55476" lon="5.28689">
        <ele>105.5</ele>
        <time>2019-11-09T09:26:59.000Z</time>
      </trkpt>
      <trkpt lat="50.55485" lon="5.28682">
        <ele>105.2</ele>
        <time>2019-11-09T09:27:00.000Z</time>
      </trkpt>
      <trkpt lat="50.55503" lon="5.28652">
        <ele>106.1</ele>
        <time>2019-11-09T09:27:02.000Z</time>
      </trkpt>
      <trkpt lat="50.55527" lon="5.28608">
        <ele>107</ele>
        <time>2019-11-09T09:27:03.000Z</time>
      </trkpt>
      <trkpt lat="50.55551" lon="5.28551">
        <ele>105.6</ele>
        <time>2019-11-09T09:27:04.000Z</time>
      </trkpt>
      <trkpt lat="50.55568" lon="5.28496">
        <ele>104.6</ele>
        <time>2019-11-09T09:27:05.000Z</time>
      </trkpt>
      <trkpt lat="50.55577" lon="5.28472">
        <ele>104.4</ele>
        <time>2019-11-09T09:27:07.000Z</time>
      </trkpt>
      <trkpt lat="50.55587" lon="5.28456">
        <ele>107.4</ele>
        <time>2019-11-09T09:27:09.000Z</time>
      </trkpt>
      <trkpt lat="50.55597" lon="5.28446">
        <ele>107.3</ele>
        <time>2019-11-09T09:27:11.000Z</time>
      </trkpt>
      <trkpt lat="50.55608" lon="5.28437">
        <ele>107.6</ele>
        <time>2019-11-09T09:27:13.000Z</time>
      </trkpt>
      <trkpt lat="50.55623" lon="5.28437">
        <ele>109</ele>
        <time>2019-11-09T09:27:14.000Z</time>
      </trkpt>
      <trkpt lat="50.55635" lon="5.28436">
        <ele>110</ele>
        <time>2019-11-09T09:27:15.000Z</time>
      </trkpt>
      <trkpt lat="50.55649" lon="5.28427">
        <ele>111.1</ele>
        <time>2019-11-09T09:27:19.000Z</time>
      </trkpt>
      <trkpt lat="50.55659" lon="5.28413">
        <ele>111</ele>
        <time>2019-11-09T09:27:22.000Z</time>
      </trkpt>
      <trkpt lat="50.55668" lon="5.28395">
        <ele>118</ele>
        <time>2019-11-09T09:27:26.000Z</time>
      </trkpt>
      <trkpt lat="50.5568" lon="5.28373">
        <ele>119</ele>
        <time>2019-11-09T09:27:35.000Z</time>
      </trkpt>
      <trkpt lat="50.55696" lon="5.2835">
        <ele>119.6</ele>
        <time>2019-11-09T09:27:37.000Z</time>
      </trkpt>
      <trkpt lat="50.55704" lon="5.2833">
        <ele>117.4</ele>
        <time>2019-11-09T09:27:40.000Z</time>
      </trkpt>
      <trkpt lat="50.55712" lon="5.28307">
        <ele>118.5</ele>
        <time>2019-11-09T09:27:43.000Z</time>
      </trkpt>
      <trkpt lat="50.55715" lon="5.2829">
        <ele>118.4</ele>
        <time>2019-11-09T09:27:50.000Z</time>
      </trkpt>
      <trkpt lat="50.5572" lon="5.2826">
        <ele>118.5</ele>
        <time>2019-11-09T09:27:54.000Z</time>
      </trkpt>
      <trkpt lat="50.55722" lon="5.28242">
        <ele>115.8</ele>
        <time>2019-11-09T09:27:56.000Z</time>
      </trkpt>
      <trkpt lat="50.55722" lon="5.2821">
        <ele>114.1</ele>
        <time>2019-11-09T09:27:59.000Z</time>
      </trkpt>
      <trkpt lat="50.55718" lon="5.28178">
        <ele>113</ele>
        <time>2019-11-09T09:28:04.000Z</time>
      </trkpt>
      <trkpt lat="50.55708" lon="5.28142">
        <ele>110.4</ele>
        <time>2019-11-09T09:28:08.000Z</time>
      </trkpt>
      <trkpt lat="50.55715" lon="5.28136">
        <ele>110.6</ele>
        <time>2019-11-09T09:28:12.000Z</time>
      </trkpt>
      <trkpt lat="50.55726" lon="5.28127">
        <ele>110.8</ele>
        <time>2019-11-09T09:28:21.000Z</time>
      </trkpt>
      <trkpt lat="50.55738" lon="5.28124">
        <ele>111.1</ele>
        <time>2019-11-09T09:28:26.000Z</time>
      </trkpt>
      <trkpt lat="50.55769" lon="5.28126">
        <ele>115.7</ele>
        <time>2019-11-09T09:28:53.000Z</time>
      </trkpt>
      <trkpt lat="50.55786" lon="5.28123">
        <ele>116.2</ele>
        <time>2019-11-09T09:28:55.000Z</time>
      </trkpt>
      <trkpt lat="50.55805" lon="5.28118">
        <ele>116.4</ele>
        <time>2019-11-09T09:28:57.000Z</time>
      </trkpt>
      <trkpt lat="50.5583" lon="5.28107">
        <ele>115.6</ele>
        <time>2019-11-09T09:29:02.000Z</time>
      </trkpt>
      <trkpt lat="50.55854" lon="5.281">
        <ele>116.1</ele>
        <time>2019-11-09T09:29:07.000Z</time>
      </trkpt>
      <trkpt lat="50.55872" lon="5.28106">
        <ele>116.8</ele>
        <time>2019-11-09T09:29:09.000Z</time>
      </trkpt>
      <trkpt lat="50.55892" lon="5.28121">
        <ele>117.3</ele>
        <time>2019-11-09T09:29:11.000Z</time>
      </trkpt>
      <trkpt lat="50.55911" lon="5.28148">
        <ele>118.9</ele>
        <time>2019-11-09T09:29:14.000Z</time>
      </trkpt>
      <trkpt lat="50.5592" lon="5.2817">
        <ele>120.1</ele>
        <time>2019-11-09T09:29:16.000Z</time>
      </trkpt>
      <trkpt lat="50.55928" lon="5.28188">
        <ele>120.6</ele>
        <time>2019-11-09T09:29:17.000Z</time>
      </trkpt>
      <trkpt lat="50.55939" lon="5.28217">
        <ele>122.4</ele>
        <time>2019-11-09T09:29:18.000Z</time>
      </trkpt>
      <trkpt lat="50.55958" lon="5.28257">
        <ele>128.9</ele>
        <time>2019-11-09T09:29:19.000Z</time>
      </trkpt>
      <trkpt lat="50.55986" lon="5.28302">
        <ele>128.2</ele>
        <time>2019-11-09T09:29:21.000Z</time>
      </trkpt>
      <trkpt lat="50.56012" lon="5.2834">
        <ele>124.2</ele>
        <time>2019-11-09T09:29:24.000Z</time>
      </trkpt>
      <trkpt lat="50.56054" lon="5.28399">
        <ele>123.7</ele>
        <time>2019-11-09T09:29:25.000Z</time>
      </trkpt>
      <trkpt lat="50.56087" lon="5.2844">
        <ele>118.7</ele>
        <time>2019-11-09T09:29:27.000Z</time>
      </trkpt>
      <trkpt lat="50.56106" lon="5.28472">
        <ele>120</ele>
        <time>2019-11-09T09:29:28.000Z</time>
      </trkpt>
      <trkpt lat="50.56119" lon="5.28499">
        <ele>119.8</ele>
        <time>2019-11-09T09:29:29.000Z</time>
      </trkpt>
      <trkpt lat="50.56131" lon="5.28526">
        <ele>125.1</ele>
        <time>2019-11-09T09:29:30.000Z</time>
      </trkpt>
      <trkpt lat="50.56162" lon="5.28596">
        <ele>127.5</ele>
        <time>2019-11-09T09:29:34.000Z</time>
      </trkpt>
      <trkpt lat="50.56205" lon="5.28633">
        <ele>122.4</ele>
        <time>2019-11-09T09:29:35.000Z</time>
      </trkpt>
      <trkpt lat="50.56231" lon="5.28654">
        <ele>121.1</ele>
        <time>2019-11-09T09:29:42.000Z</time>
      </trkpt>
      <trkpt lat="50.56285" lon="5.28696">
        <ele>122.9</ele>
        <time>2019-11-09T09:29:43.000Z</time>
      </trkpt>
      <trkpt lat="50.56301" lon="5.28705">
        <ele>123.5</ele>
        <time>2019-11-09T09:29:46.000Z</time>
      </trkpt>
      <trkpt lat="50.56314" lon="5.28705">
        <ele>123.6</ele>
        <time>2019-11-09T09:29:47.000Z</time>
      </trkpt>
      <trkpt lat="50.56336" lon="5.2867">
        <ele>122.6</ele>
        <time>2019-11-09T09:29:50.000Z</time>
      </trkpt>
      <trkpt lat="50.56383" lon="5.28682">
        <ele>124.9</ele>
        <time>2019-11-09T09:29:53.000Z</time>
      </trkpt>
      <trkpt lat="50.56402" lon="5.28688">
        <ele>124.9</ele>
        <time>2019-11-09T09:29:56.000Z</time>
      </trkpt>
      <trkpt lat="50.56439" lon="5.28697">
        <ele>126.2</ele>
        <time>2019-11-09T09:29:57.000Z</time>
      </trkpt>
      <trkpt lat="50.56459" lon="5.28703">
        <ele>126.5</ele>
        <time>2019-11-09T09:30:00.000Z</time>
      </trkpt>
      <trkpt lat="50.56489" lon="5.28712">
        <ele>126.8</ele>
        <time>2019-11-09T09:30:02.000Z</time>
      </trkpt>
      <trkpt lat="50.56518" lon="5.28742">
        <ele>128.8</ele>
        <time>2019-11-09T09:30:05.000Z</time>
      </trkpt>
      <trkpt lat="50.56535" lon="5.28767">
        <ele>131</ele>
        <time>2019-11-09T09:30:08.000Z</time>
      </trkpt>
      <trkpt lat="50.56557" lon="5.28797">
        <ele>131.3</ele>
        <time>2019-11-09T09:30:11.000Z</time>
      </trkpt>
      <trkpt lat="50.56597" lon="5.2883">
        <ele>128.5</ele>
        <time>2019-11-09T09:30:14.000Z</time>
      </trkpt>
      <trkpt lat="50.56628" lon="5.28858">
        <ele>128.6</ele>
        <time>2019-11-09T09:30:15.000Z</time>
      </trkpt>
      <trkpt lat="50.56645" lon="5.28873">
        <ele>128.4</ele>
        <time>2019-11-09T09:30:16.000Z</time>
      </trkpt>
      <trkpt lat="50.56679" lon="5.28918">
        <ele>127.1</ele>
        <time>2019-11-09T09:30:56.000Z</time>
      </trkpt>
      <trkpt lat="50.56714" lon="5.2898">
        <ele>127.5</ele>
        <time>2019-11-09T09:31:02.000Z</time>
      </trkpt>
      <trkpt lat="50.56728" lon="5.29009">
        <ele>130</ele>
        <time>2019-11-09T09:31:05.000Z</time>
      </trkpt>
      <trkpt lat="50.56745" lon="5.29042">
        <ele>131.6</ele>
        <time>2019-11-09T09:31:08.000Z</time>
      </trkpt>
      <trkpt lat="50.56771" lon="5.29095">
        <ele>133.7</ele>
        <time>2019-11-09T09:31:12.000Z</time>
      </trkpt>
      <trkpt lat="50.56786" lon="5.29129">
        <ele>133.9</ele>
        <time>2019-11-09T09:31:14.000Z</time>
      </trkpt>
      <trkpt lat="50.56804" lon="5.29162">
        <ele>133.1</ele>
        <time>2019-11-09T09:31:16.000Z</time>
      </trkpt>
      <trkpt lat="50.56832" lon="5.29215">
        <ele>136.8</ele>
        <time>2019-11-09T09:31:18.000Z</time>
      </trkpt>
      <trkpt lat="50.56844" lon="5.2924">
        <ele>135.8</ele>
        <time>2019-11-09T09:31:24.000Z</time>
      </trkpt>
      <trkpt lat="50.5686" lon="5.2927">
        <ele>137.5</ele>
        <time>2019-11-09T09:31:26.000Z</time>
      </trkpt>
      <trkpt lat="50.56889" lon="5.29323">
        <ele>136.8</ele>
        <time>2019-11-09T09:31:27.000Z</time>
      </trkpt>
      <trkpt lat="50.56909" lon="5.29354">
        <ele>138</ele>
        <time>2019-11-09T09:31:28.000Z</time>
      </trkpt>
      <trkpt lat="50.56924" lon="5.29378">
        <ele>133.3</ele>
        <time>2019-11-09T09:31:30.000Z</time>
      </trkpt>
      <trkpt lat="50.56931" lon="5.29385">
        <ele>133.3</ele>
        <time>2019-11-09T09:31:32.000Z</time>
      </trkpt>
      <trkpt lat="50.56937" lon="5.29409">
        <ele>124.40000152588</ele>
        <time>2019-11-09T09:31:34.000Z</time>
        <extensions>
          <gpxtpx:TrackPointExtension xmlns:gpxtpx="http://www.garmin.com/xmlschemas/TrackPointExtension/v1">
            <gpxtpx:hr>125</gpxtpx:hr>
          </gpxtpx:TrackPointExtension>
        </extensions>
      </trkpt>
      <trkpt lat="50.56943" lon="5.29426">
        <ele>124.40000152588</ele>
        <time>2019-11-09T09:31:35.000Z</time>
        <extensions>
          <gpxtpx:TrackPointExtension xmlns:gpxtpx="http://www.garmin.com/xmlschemas/TrackPointExtension/v1">
            <gpxtpx:hr>123</gpxtpx:hr>
          </gpxtpx:TrackPointExtension>
        </extensions>
      </trkpt>
      <trkpt lat="50.56958" lon="5.29463">
        <ele>124.19999694824</ele>
        <time>2019-11-09T09:31:36.000Z</time>
        <extensions>
          <gpxtpx:TrackPointExtension xmlns:gpxtpx="http://www.garmin.com/xmlschemas/TrackPointExtension/v1">
            <gpxtpx:hr>119</gpxtpx:hr>
          </gpxtpx:TrackPointExtension>
        </extensions>
      </trkpt>
      <trkpt lat="50.5696" lon="5.2947">
        <ele>124</ele>
        <time>2019-11-09T09:31:38.000Z</time>
        <extensions>
          <gpxtpx:TrackPointExtension xmlns:gpxtpx="http://www.garmin.com/xmlschemas/TrackPointExtension/v1">
            <gpxtpx:hr>118</gpxtpx:hr>
          </gpxtpx:TrackPointExtension>
        </extensions>
      </trkpt>
      <trkpt lat="50.56966" lon="5.29483">
        <ele>123.59999847412</ele>
        <time>2019-11-09T09:31:46.000Z</time>
        <extensions>
          <gpxtpx:TrackPointExtension xmlns:gpxtpx="http://www.garmin.com/xmlschemas/TrackPointExtension/v1">
            <gpxtpx:hr>115</gpxtpx:hr>
          </gpxtpx:TrackPointExtension>
        </extensions>
      </trkpt>
      <trkpt lat="50.56971" lon="5.29495">
        <ele>123.19999694824</ele>
        <time>2019-11-09T09:31:47.000Z</time>
        <extensions>
          <gpxtpx:TrackPointExtension xmlns:gpxtpx="http://www.garmin.com/xmlschemas/TrackPointExtension/v1">
            <gpxtpx:hr>113</gpxtpx:hr>
          </gpxtpx:TrackPointExtension>
        </extensions>
      </trkpt>
      <trkpt lat="50.56975" lon="5.29506">
        <ele>123</ele>
        <time>2019-11-09T09:31:49.000Z</time>
        <extensions>
          <gpxtpx:TrackPointExtension xmlns:gpxtpx="http://www.garmin.com/xmlschemas/TrackPointExtension/v1">
            <gpxtpx:hr>111</gpxtpx:hr>
          </gpxtpx:TrackPointExtension>
        </extensions>
      </trkpt>
      <trkpt lat="50.56981" lon="5.29523">
        <ele>123</ele>
        <time>2019-11-09T09:31:50.000Z</time>
        <extensions>
          <gpxtpx:TrackPointExtension xmlns:gpxtpx="http://www.garmin.com/xmlschemas/TrackPointExtension/v1">
            <gpxtpx:hr>111</gpxtpx:hr>
          </gpxtpx:TrackPointExtension>
        </extensions>
      </trkpt>
      <trkpt lat="50.56988" lon="5.29542">
        <ele>122.80000305176</ele>
        <time>2019-11-09T09:31:51.000Z</time>
        <extensions>
          <gpxtpx:TrackPointExtension xmlns:gpxtpx="http://www.garmin.com/xmlschemas/TrackPointExtension/v1">
            <gpxtpx:hr>112</gpxtpx:hr>
          </gpxtpx:TrackPointExtension>
        </extensions>
      </trkpt>
      <trkpt lat="50.57012" lon="5.29603">
        <ele>123</ele>
        <time>2019-11-09T09:31:52.000Z</time>
        <extensions>
          <gpxtpx:TrackPointExtension xmlns:gpxtpx="http://www.garmin.com/xmlschemas/TrackPointExtension/v1">
            <gpxtpx:hr>112</gpxtpx:hr>
          </gpxtpx:TrackPointExtension>
        </extensions>
      </trkpt>
      <trkpt lat="50.57033" lon="5.29652">
        <ele>123.19999694824</ele>
        <time>2019-11-09T09:31:59.000Z</time>
        <extensions>
          <gpxtpx:TrackPointExtension xmlns:gpxtpx="http://www.garmin.com/xmlschemas/TrackPointExtension/v1">
            <gpxtpx:hr>115</gpxtpx:hr>
          </gpxtpx:TrackPointExtension>
        </extensions>
      </trkpt>
      <trkpt lat="50.5704" lon="5.29665">
        <ele>123.19999694824</ele>
        <time>2019-11-09T09:32:04.000Z</time>
        <extensions>
          <gpxtpx:TrackPointExtension xmlns:gpxtpx="http://www.garmin.com/xmlschemas/TrackPointExtension/v1">
            <gpxtpx:hr>116</gpxtpx:hr>
          </gpxtpx:TrackPointExtension>
        </extensions>
      </trkpt>
      <trkpt lat="50.57055" lon="5.2969">
        <ele>140.3</ele>
        <time>2019-11-09T09:32:06.000Z</time>
      </trkpt>
      <trkpt lat="50.5707" lon="5.29708">
        <ele>123.59999847412</ele>
        <time>2019-11-09T09:32:35.000Z</time>
        <extensions>
          <gpxtpx:TrackPointExtension xmlns:gpxtpx="http://www.garmin.com/xmlschemas/TrackPointExtension/v1">
            <gpxtpx:hr>119</gpxtpx:hr>
          </gpxtpx:TrackPointExtension>
        </extensions>
      </trkpt>
      <trkpt lat="50.57075" lon="5.29713">
        <ele>123.80000305176</ele>
        <time>2019-11-09T09:32:38.000Z</time>
        <extensions>
          <gpxtpx:TrackPointExtension xmlns:gpxtpx="http://www.garmin.com/xmlschemas/TrackPointExtension/v1">
            <gpxtpx:hr>119</gpxtpx:hr>
          </gpxtpx:TrackPointExtension>
        </extensions>
      </trkpt>
      <trkpt lat="50.57088" lon="5.2973">
        <ele>124.19999694824</ele>
        <time>2019-11-09T09:32:42.000Z</time>
        <extensions>
          <gpxtpx:TrackPointExtension xmlns:gpxtpx="http://www.garmin.com/xmlschemas/TrackPointExtension/v1">
            <gpxtpx:hr>120</gpxtpx:hr>
          </gpxtpx:TrackPointExtension>
        </extensions>
      </trkpt>
      <trkpt lat="50.57124" lon="5.29773">
        <ele>124.59999847412</ele>
        <time>2019-11-09T09:32:44.000Z</time>
        <extensions>
          <gpxtpx:TrackPointExtension xmlns:gpxtpx="http://www.garmin.com/xmlschemas/TrackPointExtension/v1">
            <gpxtpx:hr>122</gpxtpx:hr>
          </gpxtpx:TrackPointExtension>
        </extensions>
      </trkpt>
      <trkpt lat="50.57156" lon="5.29811">
        <ele>125.19999694824</ele>
        <time>2019-11-09T09:32:46.000Z</time>
        <extensions>
          <gpxtpx:TrackPointExtension xmlns:gpxtpx="http://www.garmin.com/xmlschemas/TrackPointExtension/v1">
            <gpxtpx:hr>123</gpxtpx:hr>
          </gpxtpx:TrackPointExtension>
        </extensions>
      </trkpt>
      <trkpt lat="50.5717" lon="5.29827">
        <ele>125.40000152588</ele>
        <time>2019-11-09T09:32:48.000Z</time>
        <extensions>
          <gpxtpx:TrackPointExtension xmlns:gpxtpx="http://www.garmin.com/xmlschemas/TrackPointExtension/v1">
            <gpxtpx:hr>124</gpxtpx:hr>
          </gpxtpx:TrackPointExtension>
        </extensions>
      </trkpt>
      <trkpt lat="50.57216" lon="5.29882">
        <ele>126</ele>
        <time>2019-11-09T09:32:50.000Z</time>
        <extensions>
          <gpxtpx:TrackPointExtension xmlns:gpxtpx="http://www.garmin.com/xmlschemas/TrackPointExtension/v1">
            <gpxtpx:hr>124</gpxtpx:hr>
          </gpxtpx:TrackPointExtension>
        </extensions>
      </trkpt>
      <trkpt lat="50.57221" lon="5.29888">
        <ele>126.19999694824</ele>
        <time>2019-11-09T09:32:52.000Z</time>
        <extensions>
          <gpxtpx:TrackPointExtension xmlns:gpxtpx="http://www.garmin.com/xmlschemas/TrackPointExtension/v1">
            <gpxtpx:hr>124</gpxtpx:hr>
          </gpxtpx:TrackPointExtension>
        </extensions>
      </trkpt>
      <trkpt lat="50.57226" lon="5.29893">
        <ele>126.19999694824</ele>
        <time>2019-11-09T09:32:53.000Z</time>
        <extensions>
          <gpxtpx:TrackPointExtension xmlns:gpxtpx="http://www.garmin.com/xmlschemas/TrackPointExtension/v1">
            <gpxtpx:hr>124</gpxtpx:hr>
          </gpxtpx:TrackPointExtension>
        </extensions>
      </trkpt>
      <trkpt lat="50.57258" lon="5.29932">
        <ele>126.80000305176</ele>
        <time>2019-11-09T09:32:54.000Z</time>
        <extensions>
          <gpxtpx:TrackPointExtension xmlns:gpxtpx="http://www.garmin.com/xmlschemas/TrackPointExtension/v1">
            <gpxtpx:hr>124</gpxtpx:hr>
          </gpxtpx:TrackPointExtension>
        </extensions>
      </trkpt>
      <trkpt lat="50.57262" lon="5.29937">
        <ele>127</ele>
        <time>2019-11-09T09:32:56.000Z</time>
        <extensions>
          <gpxtpx:TrackPointExtension xmlns:gpxtpx="http://www.garmin.com/xmlschemas/TrackPointExtension/v1">
            <gpxtpx:hr>124</gpxtpx:hr>
          </gpxtpx:TrackPointExtension>
        </extensions>
      </trkpt>
      <trkpt lat="50.57279" lon="5.29961">
        <ele>127.40000152588</ele>
        <time>2019-11-09T09:32:59.000Z</time>
        <extensions>
          <gpxtpx:TrackPointExtension xmlns:gpxtpx="http://www.garmin.com/xmlschemas/TrackPointExtension/v1">
            <gpxtpx:hr>123</gpxtpx:hr>
          </gpxtpx:TrackPointExtension>
        </extensions>
      </trkpt>
      <trkpt lat="50.57285" lon="5.29975">
        <ele>127.59999847412</ele>
        <time>2019-11-09T09:33:00.000Z</time>
        <extensions>
          <gpxtpx:TrackPointExtension xmlns:gpxtpx="http://www.garmin.com/xmlschemas/TrackPointExtension/v1">
            <gpxtpx:hr>124</gpxtpx:hr>
          </gpxtpx:TrackPointExtension>
        </extensions>
      </trkpt>
      <trkpt lat="50.57307" lon="5.30027">
        <ele>128.39999389648</ele>
        <time>2019-11-09T09:33:05.000Z</time>
        <extensions>
          <gpxtpx:TrackPointExtension xmlns:gpxtpx="http://www.garmin.com/xmlschemas/TrackPointExtension/v1">
            <gpxtpx:hr>125</gpxtpx:hr>
          </gpxtpx:TrackPointExtension>
        </extensions>
      </trkpt>
      <trkpt lat="50.57323" lon="5.30065">
        <ele>128.80000305176</ele>
        <time>2019-11-09T09:33:08.000Z</time>
        <extensions>
          <gpxtpx:TrackPointExtension xmlns:gpxtpx="http://www.garmin.com/xmlschemas/TrackPointExtension/v1">
            <gpxtpx:hr>125</gpxtpx:hr>
          </gpxtpx:TrackPointExtension>
        </extensions>
      </trkpt>
      <trkpt lat="50.57334" lon="5.30097">
        <ele>128.80000305176</ele>
        <time>2019-11-09T09:33:10.000Z</time>
        <extensions>
          <gpxtpx:TrackPointExtension xmlns:gpxtpx="http://www.garmin.com/xmlschemas/TrackPointExtension/v1">
            <gpxtpx:hr>126</gpxtpx:hr>
          </gpxtpx:TrackPointExtension>
        </extensions>
      </trkpt>
      <trkpt lat="50.57336" lon="5.30113">
        <ele>129</ele>
        <time>2019-11-09T09:33:11.000Z</time>
        <extensions>
          <gpxtpx:TrackPointExtension xmlns:gpxtpx="http://www.garmin.com/xmlschemas/TrackPointExtension/v1">
            <gpxtpx:hr>127</gpxtpx:hr>
          </gpxtpx:TrackPointExtension>
        </extensions>
      </trkpt>
      <trkpt lat="50.57336" lon="5.3013">
        <ele>139</ele>
        <time>2019-11-09T09:33:14.000Z</time>
      </trkpt>
      <trkpt lat="50.57332" lon="5.30139">
        <ele>140.5</ele>
        <time>2019-11-09T09:33:17.000Z</time>
      </trkpt>
      <trkpt lat="50.57341" lon="5.30155">
        <ele>129.60000610352</ele>
        <time>2019-11-09T09:33:21.000Z</time>
        <extensions>
          <gpxtpx:TrackPointExtension xmlns:gpxtpx="http://www.garmin.com/xmlschemas/TrackPointExtension/v1">
            <gpxtpx:hr>128</gpxtpx:hr>
          </gpxtpx:TrackPointExtension>
        </extensions>
      </trkpt>
      <trkpt lat="50.57351" lon="5.30169">
        <ele>130.80000305176</ele>
        <time>2019-11-09T09:33:24.000Z</time>
        <extensions>
          <gpxtpx:TrackPointExtension xmlns:gpxtpx="http://www.garmin.com/xmlschemas/TrackPointExtension/v1">
            <gpxtpx:hr>129</gpxtpx:hr>
          </gpxtpx:TrackPointExtension>
        </extensions>
      </trkpt>
      <trkpt lat="50.57363" lon="5.30184">
        <ele>132.19999694824</ele>
        <time>2019-11-09T09:33:26.000Z</time>
        <extensions>
          <gpxtpx:TrackPointExtension xmlns:gpxtpx="http://www.garmin.com/xmlschemas/TrackPointExtension/v1">
            <gpxtpx:hr>130</gpxtpx:hr>
          </gpxtpx:TrackPointExtension>
        </extensions>
      </trkpt>
      <trkpt lat="50.57377" lon="5.302">
        <ele>138.7</ele>
        <time>2019-11-09T09:33:30.000Z</time>
      </trkpt>
      <trkpt lat="50.57391" lon="5.30219">
        <ele>138.4</ele>
        <time>2019-11-09T09:33:34.000Z</time>
      </trkpt>
      <trkpt lat="50.5742" lon="5.30272">
        <ele>132.60000610352</ele>
        <time>2019-11-09T09:33:38.000Z</time>
        <extensions>
          <gpxtpx:TrackPointExtension xmlns:gpxtpx="http://www.garmin.com/xmlschemas/TrackPointExtension/v1">
            <gpxtpx:hr>131</gpxtpx:hr>
          </gpxtpx:TrackPointExtension>
        </extensions>
      </trkpt>
      <trkpt lat="50.57458" lon="5.30336">
        <ele>132.80000305176</ele>
        <time>2019-11-09T09:33:41.000Z</time>
        <extensions>
          <gpxtpx:TrackPointExtension xmlns:gpxtpx="http://www.garmin.com/xmlschemas/TrackPointExtension/v1">
            <gpxtpx:hr>129</gpxtpx:hr>
          </gpxtpx:TrackPointExtension>
        </extensions>
      </trkpt>
      <trkpt lat="50.57461" lon="5.30343">
        <ele>133</ele>
        <time>2019-11-09T09:33:47.000Z</time>
        <extensions>
          <gpxtpx:TrackPointExtension xmlns:gpxtpx="http://www.garmin.com/xmlschemas/TrackPointExtension/v1">
            <gpxtpx:hr>128</gpxtpx:hr>
          </gpxtpx:TrackPointExtension>
        </extensions>
      </trkpt>
      <trkpt lat="50.57469" lon="5.30355">
        <ele>133.39999389648</ele>
        <time>2019-11-09T09:33:48.000Z</time>
        <extensions>
          <gpxtpx:TrackPointExtension xmlns:gpxtpx="http://www.garmin.com/xmlschemas/TrackPointExtension/v1">
            <gpxtpx:hr>128</gpxtpx:hr>
          </gpxtpx:TrackPointExtension>
        </extensions>
      </trkpt>
      <trkpt lat="50.5749" lon="5.30389">
        <ele>142.6</ele>
        <time>2019-11-09T09:33:50.000Z</time>
      </trkpt>
      <trkpt lat="50.57502" lon="5.30415">
        <ele>143.3</ele>
        <time>2019-11-09T09:33:53.000Z</time>
      </trkpt>
      <trkpt lat="50.57511" lon="5.30439">
        <ele>144</ele>
        <time>2019-11-09T09:33:57.000Z</time>
      </trkpt>
      <trkpt lat="50.57517" lon="5.30467">
        <ele>136</ele>
        <time>2019-11-09T09:33:59.000Z</time>
        <extensions>
          <gpxtpx:TrackPointExtension xmlns:gpxtpx="http://www.garmin.com/xmlschemas/TrackPointExtension/v1">
            <gpxtpx:hr>128</gpxtpx:hr>
          </gpxtpx:TrackPointExtension>
        </extensions>
      </trkpt>
      <trkpt lat="50.57524" lon="5.3049">
        <ele>136.39999389648</ele>
        <time>2019-11-09T09:34:03.000Z</time>
        <extensions>
          <gpxtpx:TrackPointExtension xmlns:gpxtpx="http://www.garmin.com/xmlschemas/TrackPointExtension/v1">
            <gpxtpx:hr>129</gpxtpx:hr>
          </gpxtpx:TrackPointExtension>
        </extensions>
      </trkpt>
      <trkpt lat="50.57532" lon="5.30513">
        <ele>137</ele>
        <time>2019-11-09T09:34:05.000Z</time>
        <extensions>
          <gpxtpx:TrackPointExtension xmlns:gpxtpx="http://www.garmin.com/xmlschemas/TrackPointExtension/v1">
            <gpxtpx:hr>130</gpxtpx:hr>
          </gpxtpx:TrackPointExtension>
        </extensions>
      </trkpt>
      <trkpt lat="50.57539" lon="5.30525">
        <ele>137.39999389648</ele>
        <time>2019-11-09T09:34:07.000Z</time>
        <extensions>
          <gpxtpx:TrackPointExtension xmlns:gpxtpx="http://www.garmin.com/xmlschemas/TrackPointExtension/v1">
            <gpxtpx:hr>131</gpxtpx:hr>
          </gpxtpx:TrackPointExtension>
        </extensions>
      </trkpt>
      <trkpt lat="50.57547" lon="5.30536">
        <ele>137.39999389648</ele>
        <time>2019-11-09T09:34:09.000Z</time>
        <extensions>
          <gpxtpx:TrackPointExtension xmlns:gpxtpx="http://www.garmin.com/xmlschemas/TrackPointExtension/v1">
            <gpxtpx:hr>131</gpxtpx:hr>
          </gpxtpx:TrackPointExtension>
        </extensions>
      </trkpt>
      <trkpt lat="50.57551" lon="5.3054">
        <ele>137.60000610352</ele>
        <time>2019-11-09T09:34:11.000Z</time>
        <extensions>
          <gpxtpx:TrackPointExtension xmlns:gpxtpx="http://www.garmin.com/xmlschemas/TrackPointExtension/v1">
            <gpxtpx:hr>131</gpxtpx:hr>
          </gpxtpx:TrackPointExtension>
        </extensions>
      </trkpt>
      <trkpt lat="50.57561" lon="5.30547">
        <ele>137.60000610352</ele>
        <time>2019-11-09T09:34:14.000Z</time>
        <extensions>
          <gpxtpx:TrackPointExtension xmlns:gpxtpx="http://www.garmin.com/xmlschemas/TrackPointExtension/v1">
            <gpxtpx:hr>131</gpxtpx:hr>
          </gpxtpx:TrackPointExtension>
        </extensions>
      </trkpt>
      <trkpt lat="50.57582" lon="5.30545">
        <ele>138.19999694824</ele>
        <time>2019-11-09T09:34:18.000Z</time>
        <extensions>
          <gpxtpx:TrackPointExtension xmlns:gpxtpx="http://www.garmin.com/xmlschemas/TrackPointExtension/v1">
            <gpxtpx:hr>132</gpxtpx:hr>
          </gpxtpx:TrackPointExtension>
        </extensions>
      </trkpt>
      <trkpt lat="50.57597" lon="5.30534">
        <ele>138.60000610352</ele>
        <time>2019-11-09T09:34:20.000Z</time>
        <extensions>
          <gpxtpx:TrackPointExtension xmlns:gpxtpx="http://www.garmin.com/xmlschemas/TrackPointExtension/v1">
            <gpxtpx:hr>133</gpxtpx:hr>
          </gpxtpx:TrackPointExtension>
        </extensions>
      </trkpt>
      <trkpt lat="50.57605" lon="5.30521">
        <ele>149.2</ele>
        <time>2019-11-09T09:34:21.000Z</time>
      </trkpt>
      <trkpt lat="50.57615" lon="5.30496">
        <ele>150.1</ele>
        <time>2019-11-09T09:34:22.000Z</time>
      </trkpt>
      <trkpt lat="50.57618" lon="5.30471">
        <ele>150.7</ele>
        <time>2019-11-09T09:34:24.000Z</time>
      </trkpt>
      <trkpt lat="50.57626" lon="5.30424">
        <ele>151.6</ele>
        <time>2019-11-09T09:34:27.000Z</time>
      </trkpt>
      <trkpt lat="50.5763" lon="5.30401">
        <ele>153</ele>
        <time>2019-11-09T09:34:29.000Z</time>
      </trkpt>
      <trkpt lat="50.57636" lon="5.30363">
        <ele>153.6</ele>
        <time>2019-11-09T09:34:31.000Z</time>
      </trkpt>
      <trkpt lat="50.57643" lon="5.3032">
        <ele>155.1</ele>
        <time>2019-11-09T09:34:32.000Z</time>
      </trkpt>
      <trkpt lat="50.57649" lon="5.30278">
        <ele>155.1</ele>
        <time>2019-11-09T09:34:33.000Z</time>
      </trkpt>
      <trkpt lat="50.57657" lon="5.30224">
        <ele>155.8</ele>
        <time>2019-11-09T09:34:35.000Z</time>
      </trkpt>
      <trkpt lat="50.57663" lon="5.30204">
        <ele>155.9</ele>
        <time>2019-11-09T09:34:37.000Z</time>
      </trkpt>
      <trkpt lat="50.57668" lon="5.30193">
        <ele>144.60000610352</ele>
        <time>2019-11-09T09:34:38.000Z</time>
        <extensions>
          <gpxtpx:TrackPointExtension xmlns:gpxtpx="http://www.garmin.com/xmlschemas/TrackPointExtension/v1">
            <gpxtpx:hr>142</gpxtpx:hr>
          </gpxtpx:TrackPointExtension>
        </extensions>
      </trkpt>
      <trkpt lat="50.57672" lon="5.30187">
        <ele>145</ele>
        <time>2019-11-09T09:34:40.000Z</time>
        <extensions>
          <gpxtpx:TrackPointExtension xmlns:gpxtpx="http://www.garmin.com/xmlschemas/TrackPointExtension/v1">
            <gpxtpx:hr>143</gpxtpx:hr>
          </gpxtpx:TrackPointExtension>
        </extensions>
      </trkpt>
      <trkpt lat="50.57675" lon="5.30181">
        <ele>145.19999694824</ele>
        <time>2019-11-09T09:34:45.000Z</time>
        <extensions>
          <gpxtpx:TrackPointExtension xmlns:gpxtpx="http://www.garmin.com/xmlschemas/TrackPointExtension/v1">
            <gpxtpx:hr>142</gpxtpx:hr>
          </gpxtpx:TrackPointExtension>
        </extensions>
      </trkpt>
      <trkpt lat="50.57679" lon="5.30176">
        <ele>145.39999389648</ele>
        <time>2019-11-09T09:34:49.000Z</time>
        <extensions>
          <gpxtpx:TrackPointExtension xmlns:gpxtpx="http://www.garmin.com/xmlschemas/TrackPointExtension/v1">
            <gpxtpx:hr>143</gpxtpx:hr>
          </gpxtpx:TrackPointExtension>
        </extensions>
      </trkpt>
      <trkpt lat="50.57696" lon="5.30164">
        <ele>158.2</ele>
        <time>2019-11-09T09:34:50.000Z</time>
      </trkpt>
      <trkpt lat="50.57707" lon="5.30157">
        <ele>158.6</ele>
        <time>2019-11-09T09:34:51.000Z</time>
      </trkpt>
      <trkpt lat="50.57722" lon="5.30147">
        <ele>147.39999389648</ele>
        <time>2019-11-09T09:34:54.000Z</time>
        <extensions>
          <gpxtpx:TrackPointExtension xmlns:gpxtpx="http://www.garmin.com/xmlschemas/TrackPointExtension/v1">
            <gpxtpx:hr>144</gpxtpx:hr>
          </gpxtpx:TrackPointExtension>
        </extensions>
      </trkpt>
      <trkpt lat="50.57727" lon="5.30145">
        <ele>147.80000305176</ele>
        <time>2019-11-09T09:34:55.000Z</time>
        <extensions>
          <gpxtpx:TrackPointExtension xmlns:gpxtpx="http://www.garmin.com/xmlschemas/TrackPointExtension/v1">
            <gpxtpx:hr>144</gpxtpx:hr>
          </gpxtpx:TrackPointExtension>
        </extensions>
      </trkpt>
      <trkpt lat="50.57733" lon="5.30145">
        <ele>148</ele>
        <time>2019-11-09T09:34:56.000Z</time>
        <extensions>
          <gpxtpx:TrackPointExtension xmlns:gpxtpx="http://www.garmin.com/xmlschemas/TrackPointExtension/v1">
            <gpxtpx:hr>144</gpxtpx:hr>
          </gpxtpx:TrackPointExtension>
        </extensions>
      </trkpt>
      <trkpt lat="50.57749" lon="5.30148">
        <ele>148.60000610352</ele>
        <time>2019-11-09T09:34:58.000Z</time>
        <extensions>
          <gpxtpx:TrackPointExtension xmlns:gpxtpx="http://www.garmin.com/xmlschemas/TrackPointExtension/v1">
            <gpxtpx:hr>145</gpxtpx:hr>
          </gpxtpx:TrackPointExtension>
        </extensions>
      </trkpt>
      <trkpt lat="50.57759" lon="5.30152">
        <ele>149</ele>
        <time>2019-11-09T09:34:59.000Z</time>
        <extensions>
          <gpxtpx:TrackPointExtension xmlns:gpxtpx="http://www.garmin.com/xmlschemas/TrackPointExtension/v1">
            <gpxtpx:hr>145</gpxtpx:hr>
          </gpxtpx:TrackPointExtension>
        </extensions>
      </trkpt>
      <trkpt lat="50.57805" lon="5.30174">
        <ele>150</ele>
        <time>2019-11-09T09:35:01.000Z</time>
        <extensions>
          <gpxtpx:TrackPointExtension xmlns:gpxtpx="http://www.garmin.com/xmlschemas/TrackPointExtension/v1">
            <gpxtpx:hr>145</gpxtpx:hr>
          </gpxtpx:TrackPointExtension>
        </extensions>
      </trkpt>
      <trkpt lat="50.5781" lon="5.30177">
        <ele>150.19999694824</ele>
        <time>2019-11-09T09:35:02.000Z</time>
        <extensions>
          <gpxtpx:TrackPointExtension xmlns:gpxtpx="http://www.garmin.com/xmlschemas/TrackPointExtension/v1">
            <gpxtpx:hr>144</gpxtpx:hr>
          </gpxtpx:TrackPointExtension>
        </extensions>
      </trkpt>
      <trkpt lat="50.57823" lon="5.30184">
        <ele>151</ele>
        <time>2019-11-09T09:35:13.000Z</time>
        <extensions>
          <gpxtpx:TrackPointExtension xmlns:gpxtpx="http://www.garmin.com/xmlschemas/TrackPointExtension/v1">
            <gpxtpx:hr>144</gpxtpx:hr>
          </gpxtpx:TrackPointExtension>
        </extensions>
      </trkpt>
      <trkpt lat="50.5784" lon="5.30191">
        <ele>151.80000305176</ele>
        <time>2019-11-09T09:35:14.000Z</time>
        <extensions>
          <gpxtpx:TrackPointExtension xmlns:gpxtpx="http://www.garmin.com/xmlschemas/TrackPointExtension/v1">
            <gpxtpx:hr>143</gpxtpx:hr>
          </gpxtpx:TrackPointExtension>
        </extensions>
      </trkpt>
      <trkpt lat="50.57844" lon="5.30192">
        <ele>152.19999694824</ele>
        <time>2019-11-09T09:35:16.000Z</time>
        <extensions>
          <gpxtpx:TrackPointExtension xmlns:gpxtpx="http://www.garmin.com/xmlschemas/TrackPointExtension/v1">
            <gpxtpx:hr>143</gpxtpx:hr>
          </gpxtpx:TrackPointExtension>
        </extensions>
      </trkpt>
      <trkpt lat="50.57868" lon="5.30205">
        <ele>153.39999389648</ele>
        <time>2019-11-09T09:35:17.000Z</time>
        <extensions>
          <gpxtpx:TrackPointExtension xmlns:gpxtpx="http://www.garmin.com/xmlschemas/TrackPointExtension/v1">
            <gpxtpx:hr>142</gpxtpx:hr>
          </gpxtpx:TrackPointExtension>
        </extensions>
      </trkpt>
      <trkpt lat="50.57876" lon="5.30209">
        <ele>154</ele>
        <time>2019-11-09T09:35:20.000Z</time>
        <extensions>
          <gpxtpx:TrackPointExtension xmlns:gpxtpx="http://www.garmin.com/xmlschemas/TrackPointExtension/v1">
            <gpxtpx:hr>142</gpxtpx:hr>
          </gpxtpx:TrackPointExtension>
        </extensions>
      </trkpt>
      <trkpt lat="50.57893" lon="5.30214">
        <ele>154.60000610352</ele>
        <time>2019-11-09T09:35:21.000Z</time>
        <extensions>
          <gpxtpx:TrackPointExtension xmlns:gpxtpx="http://www.garmin.com/xmlschemas/TrackPointExtension/v1">
            <gpxtpx:hr>141</gpxtpx:hr>
          </gpxtpx:TrackPointExtension>
        </extensions>
      </trkpt>
      <trkpt lat="50.5791" lon="5.30215">
        <ele>155</ele>
        <time>2019-11-09T09:35:22.000Z</time>
        <extensions>
          <gpxtpx:TrackPointExtension xmlns:gpxtpx="http://www.garmin.com/xmlschemas/TrackPointExtension/v1">
            <gpxtpx:hr>140</gpxtpx:hr>
          </gpxtpx:TrackPointExtension>
        </extensions>
      </trkpt>
      <trkpt lat="50.57931" lon="5.30212">
        <ele>155.60000610352</ele>
        <time>2019-11-09T09:35:25.000Z</time>
        <extensions>
          <gpxtpx:TrackPointExtension xmlns:gpxtpx="http://www.garmin.com/xmlschemas/TrackPointExtension/v1">
            <gpxtpx:hr>140</gpxtpx:hr>
          </gpxtpx:TrackPointExtension>
        </extensions>
      </trkpt>
      <trkpt lat="50.57948" lon="5.30211">
        <ele>156.60000610352</ele>
        <time>2019-11-09T09:35:28.000Z</time>
        <extensions>
          <gpxtpx:TrackPointExtension xmlns:gpxtpx="http://www.garmin.com/xmlschemas/TrackPointExtension/v1">
            <gpxtpx:hr>140</gpxtpx:hr>
          </gpxtpx:TrackPointExtension>
        </extensions>
      </trkpt>
      <trkpt lat="50.57969" lon="5.30208">
        <ele>157.80000305176</ele>
        <time>2019-11-09T09:35:29.000Z</time>
        <extensions>
          <gpxtpx:TrackPointExtension xmlns:gpxtpx="http://www.garmin.com/xmlschemas/TrackPointExtension/v1">
            <gpxtpx:hr>140</gpxtpx:hr>
          </gpxtpx:TrackPointExtension>
        </extensions>
      </trkpt>
      <trkpt lat="50.57977" lon="5.30207">
        <ele>158</ele>
        <time>2019-11-09T09:35:32.000Z</time>
        <extensions>
          <gpxtpx:TrackPointExtension xmlns:gpxtpx="http://www.garmin.com/xmlschemas/TrackPointExtension/v1">
            <gpxtpx:hr>140</gpxtpx:hr>
          </gpxtpx:TrackPointExtension>
        </extensions>
      </trkpt>
      <trkpt lat="50.58002" lon="5.30208">
        <ele>158.80000305176</ele>
        <time>2019-11-09T09:35:35.000Z</time>
        <extensions>
          <gpxtpx:TrackPointExtension xmlns:gpxtpx="http://www.garmin.com/xmlschemas/TrackPointExtension/v1">
            <gpxtpx:hr>140</gpxtpx:hr>
          </gpxtpx:TrackPointExtension>
        </extensions>
      </trkpt>
      <trkpt lat="50.58006" lon="5.30209">
        <ele>159.19999694824</ele>
        <time>2019-11-09T09:35:39.000Z</time>
        <extensions>
          <gpxtpx:TrackPointExtension xmlns:gpxtpx="http://www.garmin.com/xmlschemas/TrackPointExtension/v1">
            <gpxtpx:hr>140</gpxtpx:hr>
          </gpxtpx:TrackPointExtension>
        </extensions>
      </trkpt>
      <trkpt lat="50.58026" lon="5.30216">
        <ele>160.19999694824</ele>
        <time>2019-11-09T09:35:42.000Z</time>
        <extensions>
          <gpxtpx:TrackPointExtension xmlns:gpxtpx="http://www.garmin.com/xmlschemas/TrackPointExtension/v1">
            <gpxtpx:hr>140</gpxtpx:hr>
          </gpxtpx:TrackPointExtension>
        </extensions>
      </trkpt>
      <trkpt lat="50.58043" lon="5.30223">
        <ele>161.19999694824</ele>
        <time>2019-11-09T09:35:43.000Z</time>
        <extensions>
          <gpxtpx:TrackPointExtension xmlns:gpxtpx="http://www.garmin.com/xmlschemas/TrackPointExtension/v1">
            <gpxtpx:hr>141</gpxtpx:hr>
          </gpxtpx:TrackPointExtension>
        </extensions>
      </trkpt>
      <trkpt lat="50.58068" lon="5.30235">
        <ele>162.39999389648</ele>
        <time>2019-11-09T09:35:46.000Z</time>
        <extensions>
          <gpxtpx:TrackPointExtension xmlns:gpxtpx="http://www.garmin.com/xmlschemas/TrackPointExtension/v1">
            <gpxtpx:hr>141</gpxtpx:hr>
          </gpxtpx:TrackPointExtension>
        </extensions>
      </trkpt>
      <trkpt lat="50.58081" lon="5.30241">
        <ele>163</ele>
        <time>2019-11-09T09:35:50.000Z</time>
        <extensions>
          <gpxtpx:TrackPointExtension xmlns:gpxtpx="http://www.garmin.com/xmlschemas/TrackPointExtension/v1">
            <gpxtpx:hr>141</gpxtpx:hr>
          </gpxtpx:TrackPointExtension>
        </extensions>
      </trkpt>
      <trkpt lat="50.58094" lon="5.30247">
        <ele>163.60000610352</ele>
        <time>2019-11-09T09:35:52.000Z</time>
        <extensions>
          <gpxtpx:TrackPointExtension xmlns:gpxtpx="http://www.garmin.com/xmlschemas/TrackPointExtension/v1">
            <gpxtpx:hr>141</gpxtpx:hr>
          </gpxtpx:TrackPointExtension>
        </extensions>
      </trkpt>
      <trkpt lat="50.58115" lon="5.30261">
        <ele>164.60000610352</ele>
        <time>2019-11-09T09:35:54.000Z</time>
        <extensions>
          <gpxtpx:TrackPointExtension xmlns:gpxtpx="http://www.garmin.com/xmlschemas/TrackPointExtension/v1">
            <gpxtpx:hr>140</gpxtpx:hr>
          </gpxtpx:TrackPointExtension>
        </extensions>
      </trkpt>
      <trkpt lat="50.58123" lon="5.30267">
        <ele>164.80000305176</ele>
        <time>2019-11-09T09:35:58.000Z</time>
        <extensions>
          <gpxtpx:TrackPointExtension xmlns:gpxtpx="http://www.garmin.com/xmlschemas/TrackPointExtension/v1">
            <gpxtpx:hr>140</gpxtpx:hr>
          </gpxtpx:TrackPointExtension>
        </extensions>
      </trkpt>
      <trkpt lat="50.58144" lon="5.30282">
        <ele>165.80000305176</ele>
        <time>2019-11-09T09:36:00.000Z</time>
        <extensions>
          <gpxtpx:TrackPointExtension xmlns:gpxtpx="http://www.garmin.com/xmlschemas/TrackPointExtension/v1">
            <gpxtpx:hr>140</gpxtpx:hr>
          </gpxtpx:TrackPointExtension>
        </extensions>
      </trkpt>
      <trkpt lat="50.58157" lon="5.3029">
        <ele>166.19999694824</ele>
        <time>2019-11-09T09:36:05.000Z</time>
        <extensions>
          <gpxtpx:TrackPointExtension xmlns:gpxtpx="http://www.garmin.com/xmlschemas/TrackPointExtension/v1">
            <gpxtpx:hr>139</gpxtpx:hr>
          </gpxtpx:TrackPointExtension>
        </extensions>
      </trkpt>
      <trkpt lat="50.58185" lon="5.30308">
        <ele>177.2</ele>
        <time>2019-11-09T09:36:06.000Z</time>
      </trkpt>
      <trkpt lat="50.58204" lon="5.30315">
        <ele>167.39999389648</ele>
        <time>2019-11-09T09:36:10.000Z</time>
        <extensions>
          <gpxtpx:TrackPointExtension xmlns:gpxtpx="http://www.garmin.com/xmlschemas/TrackPointExtension/v1">
            <gpxtpx:hr>136</gpxtpx:hr>
          </gpxtpx:TrackPointExtension>
        </extensions>
      </trkpt>
      <trkpt lat="50.58208" lon="5.30316">
        <ele>167.60000610352</ele>
        <time>2019-11-09T09:36:11.000Z</time>
        <extensions>
          <gpxtpx:TrackPointExtension xmlns:gpxtpx="http://www.garmin.com/xmlschemas/TrackPointExtension/v1">
            <gpxtpx:hr>136</gpxtpx:hr>
          </gpxtpx:TrackPointExtension>
        </extensions>
      </trkpt>
      <trkpt lat="50.58237" lon="5.30317">
        <ele>167.80000305176</ele>
        <time>2019-11-09T09:36:16.000Z</time>
        <extensions>
          <gpxtpx:TrackPointExtension xmlns:gpxtpx="http://www.garmin.com/xmlschemas/TrackPointExtension/v1">
            <gpxtpx:hr>134</gpxtpx:hr>
          </gpxtpx:TrackPointExtension>
        </extensions>
      </trkpt>
      <trkpt lat="50.58252" lon="5.30315">
        <ele>168</ele>
        <time>2019-11-09T09:36:37.000Z</time>
        <extensions>
          <gpxtpx:TrackPointExtension xmlns:gpxtpx="http://www.garmin.com/xmlschemas/TrackPointExtension/v1">
            <gpxtpx:hr>133</gpxtpx:hr>
          </gpxtpx:TrackPointExtension>
        </extensions>
      </trkpt>
      <trkpt lat="50.58262" lon="5.30306">
        <ele>177.6</ele>
        <time>2019-11-09T09:36:41.000Z</time>
      </trkpt>
      <trkpt lat="50.58271" lon="5.30298">
        <ele>177.5</ele>
        <time>2019-11-09T09:36:45.000Z</time>
      </trkpt>
      <trkpt lat="50.58288" lon="5.30284">
        <ele>177.3</ele>
        <time>2019-11-09T09:36:46.000Z</time>
      </trkpt>
      <trkpt lat="50.58296" lon="5.30277">
        <ele>177.3</ele>
        <time>2019-11-09T09:36:50.000Z</time>
      </trkpt>
      <trkpt lat="50.58288" lon="5.30265">
        <ele>177.1</ele>
        <time>2019-11-09T09:36:55.000Z</time>
      </trkpt>
      <trkpt lat="50.58278" lon="5.30252">
        <ele>176.8</ele>
        <time>2019-11-09T09:36:56.000Z</time>
      </trkpt>
      <trkpt lat="50.5827" lon="5.3024">
        <ele>176.4</ele>
        <time>2019-11-09T09:37:04.000Z</time>
      </trkpt>
      <trkpt lat="50.58272" lon="5.30227">
        <ele>176.6</ele>
        <time>2019-11-09T09:37:05.000Z</time>
      </trkpt>
      <trkpt lat="50.5828" lon="5.30213">
        <ele>176.7</ele>
        <time>2019-11-09T09:37:09.000Z</time>
      </trkpt>
      <trkpt lat="50.58287" lon="5.30204">
        <ele>176.8</ele>
        <time>2019-11-09T09:37:12.000Z</time>
      </trkpt>
      <trkpt lat="50.58299" lon="5.30191">
        <ele>170.39999389648</ele>
        <time>2019-11-09T09:37:15.000Z</time>
        <extensions>
          <gpxtpx:TrackPointExtension xmlns:gpxtpx="http://www.garmin.com/xmlschemas/TrackPointExtension/v1">
            <gpxtpx:hr>128</gpxtpx:hr>
          </gpxtpx:TrackPointExtension>
        </extensions>
      </trkpt>
      <trkpt lat="50.58305" lon="5.30184">
        <ele>171.19999694824</ele>
        <time>2019-11-09T09:37:17.000Z</time>
        <extensions>
          <gpxtpx:TrackPointExtension xmlns:gpxtpx="http://www.garmin.com/xmlschemas/TrackPointExtension/v1">
            <gpxtpx:hr>128</gpxtpx:hr>
          </gpxtpx:TrackPointExtension>
        </extensions>
      </trkpt>
      <trkpt lat="50.58311" lon="5.30175">
        <ele>171.60000610352</ele>
        <time>2019-11-09T09:37:18.000Z</time>
        <extensions>
          <gpxtpx:TrackPointExtension xmlns:gpxtpx="http://www.garmin.com/xmlschemas/TrackPointExtension/v1">
            <gpxtpx:hr>128</gpxtpx:hr>
          </gpxtpx:TrackPointExtension>
        </extensions>
      </trkpt>
      <trkpt lat="50.58319" lon="5.30161">
        <ele>172</ele>
        <time>2019-11-09T09:37:20.000Z</time>
        <extensions>
          <gpxtpx:TrackPointExtension xmlns:gpxtpx="http://www.garmin.com/xmlschemas/TrackPointExtension/v1">
            <gpxtpx:hr>129</gpxtpx:hr>
          </gpxtpx:TrackPointExtension>
        </extensions>
      </trkpt>
      <trkpt lat="50.58323" lon="5.30152">
        <ele>172.60000610352</ele>
        <time>2019-11-09T09:37:23.000Z</time>
        <extensions>
          <gpxtpx:TrackPointExtension xmlns:gpxtpx="http://www.garmin.com/xmlschemas/TrackPointExtension/v1">
            <gpxtpx:hr>130</gpxtpx:hr>
          </gpxtpx:TrackPointExtension>
        </extensions>
      </trkpt>
      <trkpt lat="50.5833" lon="5.30136">
        <ele>173.39999389648</ele>
        <time>2019-11-09T09:37:25.000Z</time>
        <extensions>
          <gpxtpx:TrackPointExtension xmlns:gpxtpx="http://www.garmin.com/xmlschemas/TrackPointExtension/v1">
            <gpxtpx:hr>131</gpxtpx:hr>
          </gpxtpx:TrackPointExtension>
        </extensions>
      </trkpt>
      <trkpt lat="50.58332" lon="5.30124">
        <ele>173.80000305176</ele>
        <time>2019-11-09T09:37:26.000Z</time>
        <extensions>
          <gpxtpx:TrackPointExtension xmlns:gpxtpx="http://www.garmin.com/xmlschemas/TrackPointExtension/v1">
            <gpxtpx:hr>131</gpxtpx:hr>
          </gpxtpx:TrackPointExtension>
        </extensions>
      </trkpt>
      <trkpt lat="50.5834" lon="5.30083">
        <ele>174.80000305176</ele>
        <time>2019-11-09T09:37:30.000Z</time>
        <extensions>
          <gpxtpx:TrackPointExtension xmlns:gpxtpx="http://www.garmin.com/xmlschemas/TrackPointExtension/v1">
            <gpxtpx:hr>132</gpxtpx:hr>
          </gpxtpx:TrackPointExtension>
        </extensions>
      </trkpt>
      <trkpt lat="50.58344" lon="5.30062">
        <ele>179.6</ele>
        <time>2019-11-09T09:37:59.000Z</time>
      </trkpt>
      <trkpt lat="50.58352" lon="5.30024">
        <ele>180.4</ele>
        <time>2019-11-09T09:38:04.000Z</time>
      </trkpt>
      <trkpt lat="50.58357" lon="5.29995">
        <ele>181.7</ele>
        <time>2019-11-09T09:38:07.000Z</time>
      </trkpt>
      <trkpt lat="50.58359" lon="5.2998">
        <ele>178.60000610352</ele>
        <time>2019-11-09T09:38:10.000Z</time>
        <extensions>
          <gpxtpx:TrackPointExtension xmlns:gpxtpx="http://www.garmin.com/xmlschemas/TrackPointExtension/v1">
            <gpxtpx:hr>135</gpxtpx:hr>
          </gpxtpx:TrackPointExtension>
        </extensions>
      </trkpt>
      <trkpt lat="50.5836" lon="5.29963">
        <ele>179</ele>
        <time>2019-11-09T09:38:15.000Z</time>
        <extensions>
          <gpxtpx:TrackPointExtension xmlns:gpxtpx="http://www.garmin.com/xmlschemas/TrackPointExtension/v1">
            <gpxtpx:hr>135</gpxtpx:hr>
          </gpxtpx:TrackPointExtension>
        </extensions>
      </trkpt>
      <trkpt lat="50.58359" lon="5.29919">
        <ele>179.19999694824</ele>
        <time>2019-11-09T09:38:18.000Z</time>
        <extensions>
          <gpxtpx:TrackPointExtension xmlns:gpxtpx="http://www.garmin.com/xmlschemas/TrackPointExtension/v1">
            <gpxtpx:hr>135</gpxtpx:hr>
          </gpxtpx:TrackPointExtension>
        </extensions>
      </trkpt>
      <trkpt lat="50.58356" lon="5.29878">
        <ele>179.60000610352</ele>
        <time>2019-11-09T09:38:19.000Z</time>
        <extensions>
          <gpxtpx:TrackPointExtension xmlns:gpxtpx="http://www.garmin.com/xmlschemas/TrackPointExtension/v1">
            <gpxtpx:hr>134</gpxtpx:hr>
          </gpxtpx:TrackPointExtension>
        </extensions>
      </trkpt>
      <trkpt lat="50.58356" lon="5.29864">
        <ele>179.60000610352</ele>
        <time>2019-11-09T09:38:23.000Z</time>
        <extensions>
          <gpxtpx:TrackPointExtension xmlns:gpxtpx="http://www.garmin.com/xmlschemas/TrackPointExtension/v1">
            <gpxtpx:hr>134</gpxtpx:hr>
          </gpxtpx:TrackPointExtension>
        </extensions>
      </trkpt>
      <trkpt lat="50.58357" lon="5.29849">
        <ele>179.60000610352</ele>
        <time>2019-11-09T09:38:25.000Z</time>
        <extensions>
          <gpxtpx:TrackPointExtension xmlns:gpxtpx="http://www.garmin.com/xmlschemas/TrackPointExtension/v1">
            <gpxtpx:hr>133</gpxtpx:hr>
          </gpxtpx:TrackPointExtension>
        </extensions>
      </trkpt>
      <trkpt lat="50.58353" lon="5.2983">
        <ele>179.60000610352</ele>
        <time>2019-11-09T09:38:47.000Z</time>
        <extensions>
          <gpxtpx:TrackPointExtension xmlns:gpxtpx="http://www.garmin.com/xmlschemas/TrackPointExtension/v1">
            <gpxtpx:hr>133</gpxtpx:hr>
          </gpxtpx:TrackPointExtension>
        </extensions>
      </trkpt>
      <trkpt lat="50.5835" lon="5.29824">
        <ele>179.60000610352</ele>
        <time>2019-11-09T09:38:49.000Z</time>
        <extensions>
          <gpxtpx:TrackPointExtension xmlns:gpxtpx="http://www.garmin.com/xmlschemas/TrackPointExtension/v1">
            <gpxtpx:hr>133</gpxtpx:hr>
          </gpxtpx:TrackPointExtension>
        </extensions>
      </trkpt>
      <trkpt lat="50.58345" lon="5.29814">
        <ele>179.60000610352</ele>
        <time>2019-11-09T09:38:52.000Z</time>
        <extensions>
          <gpxtpx:TrackPointExtension xmlns:gpxtpx="http://www.garmin.com/xmlschemas/TrackPointExtension/v1">
            <gpxtpx:hr>132</gpxtpx:hr>
          </gpxtpx:TrackPointExtension>
        </extensions>
      </trkpt>
      <trkpt lat="50.58338" lon="5.298">
        <ele>179.60000610352</ele>
        <time>2019-11-09T09:38:53.000Z</time>
        <extensions>
          <gpxtpx:TrackPointExtension xmlns:gpxtpx="http://www.garmin.com/xmlschemas/TrackPointExtension/v1">
            <gpxtpx:hr>131</gpxtpx:hr>
          </gpxtpx:TrackPointExtension>
        </extensions>
      </trkpt>
      <trkpt lat="50.58329" lon="5.29781">
        <ele>183</ele>
        <time>2019-11-09T09:38:57.000Z</time>
      </trkpt>
      <trkpt lat="50.58337" lon="5.29768">
        <ele>184.6</ele>
        <time>2019-11-09T09:39:04.000Z</time>
      </trkpt>
      <trkpt lat="50.58346" lon="5.29761">
        <ele>184.6</ele>
        <time>2019-11-09T09:39:05.000Z</time>
      </trkpt>
      <trkpt lat="50.58353" lon="5.29757">
        <ele>179.80000305176</ele>
        <time>2019-11-09T09:39:09.000Z</time>
        <extensions>
          <gpxtpx:TrackPointExtension xmlns:gpxtpx="http://www.garmin.com/xmlschemas/TrackPointExtension/v1">
            <gpxtpx:hr>125</gpxtpx:hr>
          </gpxtpx:TrackPointExtension>
        </extensions>
      </trkpt>
      <trkpt lat="50.5836" lon="5.29753">
        <ele>180</ele>
        <time>2019-11-09T09:39:10.000Z</time>
        <extensions>
          <gpxtpx:TrackPointExtension xmlns:gpxtpx="http://www.garmin.com/xmlschemas/TrackPointExtension/v1">
            <gpxtpx:hr>125</gpxtpx:hr>
          </gpxtpx:TrackPointExtension>
        </extensions>
      </trkpt>
      <trkpt lat="50.58373" lon="5.29747">
        <ele>180.39999389648</ele>
        <time>2019-11-09T09:39:19.000Z</time>
        <extensions>
          <gpxtpx:TrackPointExtension xmlns:gpxtpx="http://www.garmin.com/xmlschemas/TrackPointExtension/v1">
            <gpxtpx:hr>124</gpxtpx:hr>
          </gpxtpx:TrackPointExtension>
        </extensions>
      </trkpt>
      <trkpt lat="50.58386" lon="5.29742">
        <ele>180.60000610352</ele>
        <time>2019-11-09T09:39:24.000Z</time>
        <extensions>
          <gpxtpx:TrackPointExtension xmlns:gpxtpx="http://www.garmin.com/xmlschemas/TrackPointExtension/v1">
            <gpxtpx:hr>124</gpxtpx:hr>
          </gpxtpx:TrackPointExtension>
        </extensions>
      </trkpt>
      <trkpt lat="50.58403" lon="5.29736">
        <ele>180.80000305176</ele>
        <time>2019-11-09T09:39:25.000Z</time>
        <extensions>
          <gpxtpx:TrackPointExtension xmlns:gpxtpx="http://www.garmin.com/xmlschemas/TrackPointExtension/v1">
            <gpxtpx:hr>125</gpxtpx:hr>
          </gpxtpx:TrackPointExtension>
        </extensions>
      </trkpt>
      <trkpt lat="50.58407" lon="5.29734">
        <ele>180.80000305176</ele>
        <time>2019-11-09T09:39:32.000Z</time>
        <extensions>
          <gpxtpx:TrackPointExtension xmlns:gpxtpx="http://www.garmin.com/xmlschemas/TrackPointExtension/v1">
            <gpxtpx:hr>125</gpxtpx:hr>
          </gpxtpx:TrackPointExtension>
        </extensions>
      </trkpt>
      <trkpt lat="50.58445" lon="5.29717">
        <ele>185.4</ele>
        <time>2019-11-09T09:39:40.000Z</time>
      </trkpt>
      <trkpt lat="50.5846" lon="5.29707">
        <ele>185.5</ele>
        <time>2019-11-09T09:39:45.000Z</time>
      </trkpt>
      <trkpt lat="50.58475" lon="5.29687">
        <ele>185.6</ele>
        <time>2019-11-09T09:39:49.000Z</time>
      </trkpt>
      <trkpt lat="50.58485" lon="5.29677">
        <ele>183.19999694824</ele>
        <time>2019-11-09T09:39:52.000Z</time>
        <extensions>
          <gpxtpx:TrackPointExtension xmlns:gpxtpx="http://www.garmin.com/xmlschemas/TrackPointExtension/v1">
            <gpxtpx:hr>121</gpxtpx:hr>
          </gpxtpx:TrackPointExtension>
        </extensions>
      </trkpt>
      <trkpt lat="50.58494" lon="5.29664">
        <ele>184</ele>
        <time>2019-11-09T09:39:53.000Z</time>
        <extensions>
          <gpxtpx:TrackPointExtension xmlns:gpxtpx="http://www.garmin.com/xmlschemas/TrackPointExtension/v1">
            <gpxtpx:hr>120</gpxtpx:hr>
          </gpxtpx:TrackPointExtension>
        </extensions>
      </trkpt>
      <trkpt lat="50.58501" lon="5.29654">
        <ele>184.19999694824</ele>
        <time>2019-11-09T09:39:55.000Z</time>
        <extensions>
          <gpxtpx:TrackPointExtension xmlns:gpxtpx="http://www.garmin.com/xmlschemas/TrackPointExtension/v1">
            <gpxtpx:hr>118</gpxtpx:hr>
          </gpxtpx:TrackPointExtension>
        </extensions>
      </trkpt>
      <trkpt lat="50.58509" lon="5.29644">
        <ele>186.3</ele>
        <time>2019-11-09T09:39:58.000Z</time>
      </trkpt>
      <trkpt lat="50.58525" lon="5.29624">
        <ele>186.4</ele>
        <time>2019-11-09T09:40:01.000Z</time>
      </trkpt>
      <trkpt lat="50.58552" lon="5.29591">
        <ele>186.19999694824</ele>
        <time>2019-11-09T09:40:08.000Z</time>
        <extensions>
          <gpxtpx:TrackPointExtension xmlns:gpxtpx="http://www.garmin.com/xmlschemas/TrackPointExtension/v1">
            <gpxtpx:hr>109</gpxtpx:hr>
          </gpxtpx:TrackPointExtension>
        </extensions>
      </trkpt>
      <trkpt lat="50.58567" lon="5.29571">
        <ele>186.19999694824</ele>
        <time>2019-11-09T09:40:10.000Z</time>
        <extensions>
          <gpxtpx:TrackPointExtension xmlns:gpxtpx="http://www.garmin.com/xmlschemas/TrackPointExtension/v1">
            <gpxtpx:hr>106</gpxtpx:hr>
          </gpxtpx:TrackPointExtension>
        </extensions>
      </trkpt>
      <trkpt lat="50.58576" lon="5.29559">
        <ele>186.19999694824</ele>
        <time>2019-11-09T09:40:13.000Z</time>
        <extensions>
          <gpxtpx:TrackPointExtension xmlns:gpxtpx="http://www.garmin.com/xmlschemas/TrackPointExtension/v1">
            <gpxtpx:hr>106</gpxtpx:hr>
          </gpxtpx:TrackPointExtension>
        </extensions>
      </trkpt>
      <trkpt lat="50.58602" lon="5.29524">
        <ele>186.60000610352</ele>
        <time>2019-11-09T09:40:14.000Z</time>
        <extensions>
          <gpxtpx:TrackPointExtension xmlns:gpxtpx="http://www.garmin.com/xmlschemas/TrackPointExtension/v1">
            <gpxtpx:hr>105</gpxtpx:hr>
          </gpxtpx:TrackPointExtension>
        </extensions>
      </trkpt>
      <trkpt lat="50.58635" lon="5.29482">
        <ele>186.60000610352</ele>
        <time>2019-11-09T09:40:16.000Z</time>
        <extensions>
          <gpxtpx:TrackPointExtension xmlns:gpxtpx="http://www.garmin.com/xmlschemas/TrackPointExtension/v1">
            <gpxtpx:hr>104</gpxtpx:hr>
          </gpxtpx:TrackPointExtension>
        </extensions>
      </trkpt>
      <trkpt lat="50.58657" lon="5.29456">
        <ele>186.39999389648</ele>
        <time>2019-11-09T09:40:19.000Z</time>
        <extensions>
          <gpxtpx:TrackPointExtension xmlns:gpxtpx="http://www.garmin.com/xmlschemas/TrackPointExtension/v1">
            <gpxtpx:hr>107</gpxtpx:hr>
          </gpxtpx:TrackPointExtension>
        </extensions>
      </trkpt>
      <trkpt lat="50.58673" lon="5.29435">
        <ele>186.39999389648</ele>
        <time>2019-11-09T09:40:21.000Z</time>
        <extensions>
          <gpxtpx:TrackPointExtension xmlns:gpxtpx="http://www.garmin.com/xmlschemas/TrackPointExtension/v1">
            <gpxtpx:hr>107</gpxtpx:hr>
          </gpxtpx:TrackPointExtension>
        </extensions>
      </trkpt>
      <trkpt lat="50.58713" lon="5.29387">
        <ele>186.60000610352</ele>
        <time>2019-11-09T09:40:23.000Z</time>
        <extensions>
          <gpxtpx:TrackPointExtension xmlns:gpxtpx="http://www.garmin.com/xmlschemas/TrackPointExtension/v1">
            <gpxtpx:hr>108</gpxtpx:hr>
          </gpxtpx:TrackPointExtension>
        </extensions>
      </trkpt>
      <trkpt lat="50.58745" lon="5.29348">
        <ele>186.19999694824</ele>
        <time>2019-11-09T09:40:26.000Z</time>
        <extensions>
          <gpxtpx:TrackPointExtension xmlns:gpxtpx="http://www.garmin.com/xmlschemas/TrackPointExtension/v1">
            <gpxtpx:hr>105</gpxtpx:hr>
          </gpxtpx:TrackPointExtension>
        </extensions>
      </trkpt>
      <trkpt lat="50.58755" lon="5.29336">
        <ele>185.60000610352</ele>
        <time>2019-11-09T09:40:35.000Z</time>
        <extensions>
          <gpxtpx:TrackPointExtension xmlns:gpxtpx="http://www.garmin.com/xmlschemas/TrackPointExtension/v1">
            <gpxtpx:hr>103</gpxtpx:hr>
          </gpxtpx:TrackPointExtension>
        </extensions>
      </trkpt>
      <trkpt lat="50.58765" lon="5.29325">
        <ele>185</ele>
        <time>2019-11-09T09:40:38.000Z</time>
        <extensions>
          <gpxtpx:TrackPointExtension xmlns:gpxtpx="http://www.garmin.com/xmlschemas/TrackPointExtension/v1">
            <gpxtpx:hr>100</gpxtpx:hr>
          </gpxtpx:TrackPointExtension>
        </extensions>
      </trkpt>
      <trkpt lat="50.58785" lon="5.293">
        <ele>183.80000305176</ele>
        <time>2019-11-09T09:40:39.000Z</time>
        <extensions>
          <gpxtpx:TrackPointExtension xmlns:gpxtpx="http://www.garmin.com/xmlschemas/TrackPointExtension/v1">
            <gpxtpx:hr>97</gpxtpx:hr>
          </gpxtpx:TrackPointExtension>
        </extensions>
      </trkpt>
      <trkpt lat="50.58801" lon="5.29278">
        <ele>183.19999694824</ele>
        <time>2019-11-09T09:41:05.000Z</time>
        <extensions>
          <gpxtpx:TrackPointExtension xmlns:gpxtpx="http://www.garmin.com/xmlschemas/TrackPointExtension/v1">
            <gpxtpx:hr>96</gpxtpx:hr>
          </gpxtpx:TrackPointExtension>
        </extensions>
      </trkpt>
      <trkpt lat="50.58811" lon="5.29263">
        <ele>182.80000305176</ele>
        <time>2019-11-09T09:41:09.000Z</time>
        <extensions>
          <gpxtpx:TrackPointExtension xmlns:gpxtpx="http://www.garmin.com/xmlschemas/TrackPointExtension/v1">
            <gpxtpx:hr>95</gpxtpx:hr>
          </gpxtpx:TrackPointExtension>
        </extensions>
      </trkpt>
      <trkpt lat="50.58827" lon="5.29238">
        <ele>182.19999694824</ele>
        <time>2019-11-09T09:41:10.000Z</time>
        <extensions>
          <gpxtpx:TrackPointExtension xmlns:gpxtpx="http://www.garmin.com/xmlschemas/TrackPointExtension/v1">
            <gpxtpx:hr>92</gpxtpx:hr>
          </gpxtpx:TrackPointExtension>
        </extensions>
      </trkpt>
      <trkpt lat="50.58837" lon="5.29221">
        <ele>181.60000610352</ele>
        <time>2019-11-09T09:41:14.000Z</time>
        <extensions>
          <gpxtpx:TrackPointExtension xmlns:gpxtpx="http://www.garmin.com/xmlschemas/TrackPointExtension/v1">
            <gpxtpx:hr>91</gpxtpx:hr>
          </gpxtpx:TrackPointExtension>
        </extensions>
      </trkpt>
      <trkpt lat="50.58842" lon="5.29212">
        <ele>181.19999694824</ele>
        <time>2019-11-09T09:41:16.000Z</time>
        <extensions>
          <gpxtpx:TrackPointExtension xmlns:gpxtpx="http://www.garmin.com/xmlschemas/TrackPointExtension/v1">
            <gpxtpx:hr>91</gpxtpx:hr>
          </gpxtpx:TrackPointExtension>
        </extensions>
      </trkpt>
      <trkpt lat="50.58867" lon="5.2917">
        <ele>180</ele>
        <time>2019-11-09T09:41:22.000Z</time>
        <extensions>
          <gpxtpx:TrackPointExtension xmlns:gpxtpx="http://www.garmin.com/xmlschemas/TrackPointExtension/v1">
            <gpxtpx:hr>89</gpxtpx:hr>
          </gpxtpx:TrackPointExtension>
        </extensions>
      </trkpt>
      <trkpt lat="50.58882" lon="5.29146">
        <ele>179</ele>
        <time>2019-11-09T09:41:24.000Z</time>
        <extensions>
          <gpxtpx:TrackPointExtension xmlns:gpxtpx="http://www.garmin.com/xmlschemas/TrackPointExtension/v1">
            <gpxtpx:hr>89</gpxtpx:hr>
          </gpxtpx:TrackPointExtension>
        </extensions>
      </trkpt>
      <trkpt lat="50.58891" lon="5.29132">
        <ele>178.80000305176</ele>
        <time>2019-11-09T09:41:28.000Z</time>
        <extensions>
          <gpxtpx:TrackPointExtension xmlns:gpxtpx="http://www.garmin.com/xmlschemas/TrackPointExtension/v1">
            <gpxtpx:hr>88</gpxtpx:hr>
          </gpxtpx:TrackPointExtension>
        </extensions>
      </trkpt>
      <trkpt lat="50.58908" lon="5.29102">
        <ele>178</ele>
        <time>2019-11-09T09:41:29.000Z</time>
        <extensions>
          <gpxtpx:TrackPointExtension xmlns:gpxtpx="http://www.garmin.com/xmlschemas/TrackPointExtension/v1">
            <gpxtpx:hr>86</gpxtpx:hr>
          </gpxtpx:TrackPointExtension>
        </extensions>
      </trkpt>
      <trkpt lat="50.58923" lon="5.29077">
        <ele>177.80000305176</ele>
        <time>2019-11-09T09:41:31.000Z</time>
        <extensions>
          <gpxtpx:TrackPointExtension xmlns:gpxtpx="http://www.garmin.com/xmlschemas/TrackPointExtension/v1">
            <gpxtpx:hr>84</gpxtpx:hr>
          </gpxtpx:TrackPointExtension>
        </extensions>
      </trkpt>
      <trkpt lat="50.58933" lon="5.29057">
        <ele>180.4</ele>
        <time>2019-11-09T09:41:33.000Z</time>
      </trkpt>
      <trkpt lat="50.58924" lon="5.29031">
        <ele>180</ele>
        <time>2019-11-09T09:41:35.000Z</time>
      </trkpt>
      <trkpt lat="50.58911" lon="5.28998">
        <ele>179</ele>
        <time>2019-11-09T09:41:36.000Z</time>
      </trkpt>
      <trkpt lat="50.58902" lon="5.28975">
        <ele>177</ele>
        <time>2019-11-09T09:41:38.000Z</time>
        <extensions>
          <gpxtpx:TrackPointExtension xmlns:gpxtpx="http://www.garmin.com/xmlschemas/TrackPointExtension/v1">
            <gpxtpx:hr>105</gpxtpx:hr>
          </gpxtpx:TrackPointExtension>
        </extensions>
      </trkpt>
      <trkpt lat="50.58891" lon="5.28948">
        <ele>176.39999389648</ele>
        <time>2019-11-09T09:41:39.000Z</time>
        <extensions>
          <gpxtpx:TrackPointExtension xmlns:gpxtpx="http://www.garmin.com/xmlschemas/TrackPointExtension/v1">
            <gpxtpx:hr>108</gpxtpx:hr>
          </gpxtpx:TrackPointExtension>
        </extensions>
      </trkpt>
      <trkpt lat="50.58866" lon="5.28887">
        <ele>176</ele>
        <time>2019-11-09T09:41:41.000Z</time>
        <extensions>
          <gpxtpx:TrackPointExtension xmlns:gpxtpx="http://www.garmin.com/xmlschemas/TrackPointExtension/v1">
            <gpxtpx:hr>110</gpxtpx:hr>
          </gpxtpx:TrackPointExtension>
        </extensions>
      </trkpt>
      <trkpt lat="50.58855" lon="5.28862">
        <ele>176</ele>
        <time>2019-11-09T09:42:01.000Z</time>
        <extensions>
          <gpxtpx:TrackPointExtension xmlns:gpxtpx="http://www.garmin.com/xmlschemas/TrackPointExtension/v1">
            <gpxtpx:hr>109</gpxtpx:hr>
          </gpxtpx:TrackPointExtension>
        </extensions>
      </trkpt>
      <trkpt lat="50.58824" lon="5.28782">
        <ele>175.80000305176</ele>
        <time>2019-11-09T09:42:04.000Z</time>
        <extensions>
          <gpxtpx:TrackPointExtension xmlns:gpxtpx="http://www.garmin.com/xmlschemas/TrackPointExtension/v1">
            <gpxtpx:hr>111</gpxtpx:hr>
          </gpxtpx:TrackPointExtension>
        </extensions>
      </trkpt>
      <trkpt lat="50.58793" lon="5.28713">
        <ele>175.60000610352</ele>
        <time>2019-11-09T09:42:05.000Z</time>
        <extensions>
          <gpxtpx:TrackPointExtension xmlns:gpxtpx="http://www.garmin.com/xmlschemas/TrackPointExtension/v1">
            <gpxtpx:hr>111</gpxtpx:hr>
          </gpxtpx:TrackPointExtension>
        </extensions>
      </trkpt>
      <trkpt lat="50.58753" lon="5.28647">
        <ele>175.19999694824</ele>
        <time>2019-11-09T09:42:08.000Z</time>
        <extensions>
          <gpxtpx:TrackPointExtension xmlns:gpxtpx="http://www.garmin.com/xmlschemas/TrackPointExtension/v1">
            <gpxtpx:hr>108</gpxtpx:hr>
          </gpxtpx:TrackPointExtension>
        </extensions>
      </trkpt>
      <trkpt lat="50.58736" lon="5.28619">
        <ele>175.19999694824</ele>
        <time>2019-11-09T09:42:12.000Z</time>
        <extensions>
          <gpxtpx:TrackPointExtension xmlns:gpxtpx="http://www.garmin.com/xmlschemas/TrackPointExtension/v1">
            <gpxtpx:hr>104</gpxtpx:hr>
          </gpxtpx:TrackPointExtension>
        </extensions>
      </trkpt>
      <trkpt lat="50.58718" lon="5.2859">
        <ele>175.19999694824</ele>
        <time>2019-11-09T09:42:14.000Z</time>
        <extensions>
          <gpxtpx:TrackPointExtension xmlns:gpxtpx="http://www.garmin.com/xmlschemas/TrackPointExtension/v1">
            <gpxtpx:hr>101</gpxtpx:hr>
          </gpxtpx:TrackPointExtension>
        </extensions>
      </trkpt>
      <trkpt lat="50.58699" lon="5.28566">
        <ele>175</ele>
        <time>2019-11-09T09:42:17.000Z</time>
        <extensions>
          <gpxtpx:TrackPointExtension xmlns:gpxtpx="http://www.garmin.com/xmlschemas/TrackPointExtension/v1">
            <gpxtpx:hr>99</gpxtpx:hr>
          </gpxtpx:TrackPointExtension>
        </extensions>
      </trkpt>
      <trkpt lat="50.58683" lon="5.28551">
        <ele>174.80000305176</ele>
        <time>2019-11-09T09:42:18.000Z</time>
        <extensions>
          <gpxtpx:TrackPointExtension xmlns:gpxtpx="http://www.garmin.com/xmlschemas/TrackPointExtension/v1">
            <gpxtpx:hr>97</gpxtpx:hr>
          </gpxtpx:TrackPointExtension>
        </extensions>
      </trkpt>
      <trkpt lat="50.5866" lon="5.2853">
        <ele>174.19999694824</ele>
        <time>2019-11-09T09:42:19.000Z</time>
        <extensions>
          <gpxtpx:TrackPointExtension xmlns:gpxtpx="http://www.garmin.com/xmlschemas/TrackPointExtension/v1">
            <gpxtpx:hr>95</gpxtpx:hr>
          </gpxtpx:TrackPointExtension>
        </extensions>
      </trkpt>
      <trkpt lat="50.58642" lon="5.28511">
        <ele>173.80000305176</ele>
        <time>2019-11-09T09:42:22.000Z</time>
        <extensions>
          <gpxtpx:TrackPointExtension xmlns:gpxtpx="http://www.garmin.com/xmlschemas/TrackPointExtension/v1">
            <gpxtpx:hr>93</gpxtpx:hr>
          </gpxtpx:TrackPointExtension>
        </extensions>
      </trkpt>
      <trkpt lat="50.58607" lon="5.2847">
        <ele>172.80000305176</ele>
        <time>2019-11-09T09:42:24.000Z</time>
        <extensions>
          <gpxtpx:TrackPointExtension xmlns:gpxtpx="http://www.garmin.com/xmlschemas/TrackPointExtension/v1">
            <gpxtpx:hr>91</gpxtpx:hr>
          </gpxtpx:TrackPointExtension>
        </extensions>
      </trkpt>
      <trkpt lat="50.58591" lon="5.28447">
        <ele>171.39999389648</ele>
        <time>2019-11-09T09:42:27.000Z</time>
        <extensions>
          <gpxtpx:TrackPointExtension xmlns:gpxtpx="http://www.garmin.com/xmlschemas/TrackPointExtension/v1">
            <gpxtpx:hr>90</gpxtpx:hr>
          </gpxtpx:TrackPointExtension>
        </extensions>
      </trkpt>
      <trkpt lat="50.58576" lon="5.28423">
        <ele>170.60000610352</ele>
        <time>2019-11-09T09:42:31.000Z</time>
        <extensions>
          <gpxtpx:TrackPointExtension xmlns:gpxtpx="http://www.garmin.com/xmlschemas/TrackPointExtension/v1">
            <gpxtpx:hr>87</gpxtpx:hr>
          </gpxtpx:TrackPointExtension>
        </extensions>
      </trkpt>
      <trkpt lat="50.58572" lon="5.28415">
        <ele>170.39999389648</ele>
        <time>2019-11-09T09:42:33.000Z</time>
        <extensions>
          <gpxtpx:TrackPointExtension xmlns:gpxtpx="http://www.garmin.com/xmlschemas/TrackPointExtension/v1">
            <gpxtpx:hr>87</gpxtpx:hr>
          </gpxtpx:TrackPointExtension>
        </extensions>
      </trkpt>
      <trkpt lat="50.5854" lon="5.28345">
        <ele>169.80000305176</ele>
        <time>2019-11-09T09:42:36.000Z</time>
        <extensions>
          <gpxtpx:TrackPointExtension xmlns:gpxtpx="http://www.garmin.com/xmlschemas/TrackPointExtension/v1">
            <gpxtpx:hr>87</gpxtpx:hr>
          </gpxtpx:TrackPointExtension>
        </extensions>
      </trkpt>
      <trkpt lat="50.58536" lon="5.28337">
        <ele>169.80000305176</ele>
        <time>2019-11-09T09:42:39.000Z</time>
        <extensions>
          <gpxtpx:TrackPointExtension xmlns:gpxtpx="http://www.garmin.com/xmlschemas/TrackPointExtension/v1">
            <gpxtpx:hr>88</gpxtpx:hr>
          </gpxtpx:TrackPointExtension>
        </extensions>
      </trkpt>
      <trkpt lat="50.58522" lon="5.28313">
        <ele>169.39999389648</ele>
        <time>2019-11-09T09:42:40.000Z</time>
        <extensions>
          <gpxtpx:TrackPointExtension xmlns:gpxtpx="http://www.garmin.com/xmlschemas/TrackPointExtension/v1">
            <gpxtpx:hr>88</gpxtpx:hr>
          </gpxtpx:TrackPointExtension>
        </extensions>
      </trkpt>
      <trkpt lat="50.58511" lon="5.28301">
        <ele>169.19999694824</ele>
        <time>2019-11-09T09:42:45.000Z</time>
        <extensions>
          <gpxtpx:TrackPointExtension xmlns:gpxtpx="http://www.garmin.com/xmlschemas/TrackPointExtension/v1">
            <gpxtpx:hr>89</gpxtpx:hr>
          </gpxtpx:TrackPointExtension>
        </extensions>
      </trkpt>
      <trkpt lat="50.5849" lon="5.28278">
        <ele>172.3</ele>
        <time>2019-11-09T09:45:41.000Z</time>
      </trkpt>
      <trkpt lat="50.5847" lon="5.28254">
        <ele>172.3</ele>
        <time>2019-11-09T09:45:47.000Z</time>
      </trkpt>
      <trkpt lat="50.58455" lon="5.28219">
        <ele>167.80000305176</ele>
        <time>2019-11-09T09:45:54.000Z</time>
        <extensions>
          <gpxtpx:TrackPointExtension xmlns:gpxtpx="http://www.garmin.com/xmlschemas/TrackPointExtension/v1">
            <gpxtpx:hr>94</gpxtpx:hr>
          </gpxtpx:TrackPointExtension>
        </extensions>
      </trkpt>
      <trkpt lat="50.58445" lon="5.28191">
        <ele>167.80000305176</ele>
        <time>2019-11-09T09:45:55.000Z</time>
        <extensions>
          <gpxtpx:TrackPointExtension xmlns:gpxtpx="http://www.garmin.com/xmlschemas/TrackPointExtension/v1">
            <gpxtpx:hr>98</gpxtpx:hr>
          </gpxtpx:TrackPointExtension>
        </extensions>
      </trkpt>
      <trkpt lat="50.58434" lon="5.28166">
        <ele>167.80000305176</ele>
        <time>2019-11-09T09:45:58.000Z</time>
        <extensions>
          <gpxtpx:TrackPointExtension xmlns:gpxtpx="http://www.garmin.com/xmlschemas/TrackPointExtension/v1">
            <gpxtpx:hr>102</gpxtpx:hr>
          </gpxtpx:TrackPointExtension>
        </extensions>
      </trkpt>
      <trkpt lat="50.58431" lon="5.28157">
        <ele>167.80000305176</ele>
        <time>2019-11-09T09:46:05.000Z</time>
        <extensions>
          <gpxtpx:TrackPointExtension xmlns:gpxtpx="http://www.garmin.com/xmlschemas/TrackPointExtension/v1">
            <gpxtpx:hr>105</gpxtpx:hr>
          </gpxtpx:TrackPointExtension>
        </extensions>
      </trkpt>
      <trkpt lat="50.58424" lon="5.28142">
        <ele>167.80000305176</ele>
        <time>2019-11-09T09:46:14.000Z</time>
        <extensions>
          <gpxtpx:TrackPointExtension xmlns:gpxtpx="http://www.garmin.com/xmlschemas/TrackPointExtension/v1">
            <gpxtpx:hr>108</gpxtpx:hr>
          </gpxtpx:TrackPointExtension>
        </extensions>
      </trkpt>
      <trkpt lat="50.58418" lon="5.28127">
        <ele>168</ele>
        <time>2019-11-09T09:46:15.000Z</time>
        <extensions>
          <gpxtpx:TrackPointExtension xmlns:gpxtpx="http://www.garmin.com/xmlschemas/TrackPointExtension/v1">
            <gpxtpx:hr>112</gpxtpx:hr>
          </gpxtpx:TrackPointExtension>
        </extensions>
      </trkpt>
      <trkpt lat="50.58411" lon="5.28111">
        <ele>168.60000610352</ele>
        <time>2019-11-09T09:46:21.000Z</time>
        <extensions>
          <gpxtpx:TrackPointExtension xmlns:gpxtpx="http://www.garmin.com/xmlschemas/TrackPointExtension/v1">
            <gpxtpx:hr>115</gpxtpx:hr>
          </gpxtpx:TrackPointExtension>
        </extensions>
      </trkpt>
      <trkpt lat="50.58404" lon="5.28096">
        <ele>169.60000610352</ele>
        <time>2019-11-09T09:46:23.000Z</time>
        <extensions>
          <gpxtpx:TrackPointExtension xmlns:gpxtpx="http://www.garmin.com/xmlschemas/TrackPointExtension/v1">
            <gpxtpx:hr>117</gpxtpx:hr>
          </gpxtpx:TrackPointExtension>
        </extensions>
      </trkpt>
      <trkpt lat="50.58395" lon="5.28076">
        <ele>170.60000610352</ele>
        <time>2019-11-09T09:46:25.000Z</time>
        <extensions>
          <gpxtpx:TrackPointExtension xmlns:gpxtpx="http://www.garmin.com/xmlschemas/TrackPointExtension/v1">
            <gpxtpx:hr>120</gpxtpx:hr>
          </gpxtpx:TrackPointExtension>
        </extensions>
      </trkpt>
      <trkpt lat="50.5839" lon="5.28063">
        <ele>170.80000305176</ele>
        <time>2019-11-09T09:46:31.000Z</time>
        <extensions>
          <gpxtpx:TrackPointExtension xmlns:gpxtpx="http://www.garmin.com/xmlschemas/TrackPointExtension/v1">
            <gpxtpx:hr>122</gpxtpx:hr>
          </gpxtpx:TrackPointExtension>
        </extensions>
      </trkpt>
      <trkpt lat="50.58379" lon="5.2804">
        <ele>171.80000305176</ele>
        <time>2019-11-09T09:46:35.000Z</time>
        <extensions>
          <gpxtpx:TrackPointExtension xmlns:gpxtpx="http://www.garmin.com/xmlschemas/TrackPointExtension/v1">
            <gpxtpx:hr>125</gpxtpx:hr>
          </gpxtpx:TrackPointExtension>
        </extensions>
      </trkpt>
      <trkpt lat="50.58366" lon="5.28015">
        <ele>178.8</ele>
        <time>2019-11-09T09:46:38.000Z</time>
      </trkpt>
      <trkpt lat="50.58351" lon="5.27987">
        <ele>180</ele>
        <time>2019-11-09T09:46:44.000Z</time>
      </trkpt>
      <trkpt lat="50.58334" lon="5.27954">
        <ele>176.39999389648</ele>
        <time>2019-11-09T09:46:49.000Z</time>
        <extensions>
          <gpxtpx:TrackPointExtension xmlns:gpxtpx="http://www.garmin.com/xmlschemas/TrackPointExtension/v1">
            <gpxtpx:hr>134</gpxtpx:hr>
          </gpxtpx:TrackPointExtension>
        </extensions>
      </trkpt>
      <trkpt lat="50.58328" lon="5.27942">
        <ele>176.60000610352</ele>
        <time>2019-11-09T09:46:51.000Z</time>
        <extensions>
          <gpxtpx:TrackPointExtension xmlns:gpxtpx="http://www.garmin.com/xmlschemas/TrackPointExtension/v1">
            <gpxtpx:hr>135</gpxtpx:hr>
          </gpxtpx:TrackPointExtension>
        </extensions>
      </trkpt>
      <trkpt lat="50.58321" lon="5.27929">
        <ele>177.39999389648</ele>
        <time>2019-11-09T09:46:55.000Z</time>
        <extensions>
          <gpxtpx:TrackPointExtension xmlns:gpxtpx="http://www.garmin.com/xmlschemas/TrackPointExtension/v1">
            <gpxtpx:hr>135</gpxtpx:hr>
          </gpxtpx:TrackPointExtension>
        </extensions>
      </trkpt>
      <trkpt lat="50.58309" lon="5.27894">
        <ele>178.60000610352</ele>
        <time>2019-11-09T09:46:57.000Z</time>
        <extensions>
          <gpxtpx:TrackPointExtension xmlns:gpxtpx="http://www.garmin.com/xmlschemas/TrackPointExtension/v1">
            <gpxtpx:hr>136</gpxtpx:hr>
          </gpxtpx:TrackPointExtension>
        </extensions>
      </trkpt>
      <trkpt lat="50.58306" lon="5.27887">
        <ele>178.60000610352</ele>
        <time>2019-11-09T09:47:01.000Z</time>
        <extensions>
          <gpxtpx:TrackPointExtension xmlns:gpxtpx="http://www.garmin.com/xmlschemas/TrackPointExtension/v1">
            <gpxtpx:hr>136</gpxtpx:hr>
          </gpxtpx:TrackPointExtension>
        </extensions>
      </trkpt>
      <trkpt lat="50.58295" lon="5.27843">
        <ele>179.80000305176</ele>
        <time>2019-11-09T09:47:02.000Z</time>
        <extensions>
          <gpxtpx:TrackPointExtension xmlns:gpxtpx="http://www.garmin.com/xmlschemas/TrackPointExtension/v1">
            <gpxtpx:hr>136</gpxtpx:hr>
          </gpxtpx:TrackPointExtension>
        </extensions>
      </trkpt>
      <trkpt lat="50.58293" lon="5.27828">
        <ele>180</ele>
        <time>2019-11-09T09:47:05.000Z</time>
        <extensions>
          <gpxtpx:TrackPointExtension xmlns:gpxtpx="http://www.garmin.com/xmlschemas/TrackPointExtension/v1">
            <gpxtpx:hr>136</gpxtpx:hr>
          </gpxtpx:TrackPointExtension>
        </extensions>
      </trkpt>
      <trkpt lat="50.58289" lon="5.27782">
        <ele>180.60000610352</ele>
        <time>2019-11-09T09:47:07.000Z</time>
        <extensions>
          <gpxtpx:TrackPointExtension xmlns:gpxtpx="http://www.garmin.com/xmlschemas/TrackPointExtension/v1">
            <gpxtpx:hr>137</gpxtpx:hr>
          </gpxtpx:TrackPointExtension>
        </extensions>
      </trkpt>
      <trkpt lat="50.58288" lon="5.27767">
        <ele>181</ele>
        <time>2019-11-09T09:47:08.000Z</time>
        <extensions>
          <gpxtpx:TrackPointExtension xmlns:gpxtpx="http://www.garmin.com/xmlschemas/TrackPointExtension/v1">
            <gpxtpx:hr>137</gpxtpx:hr>
          </gpxtpx:TrackPointExtension>
        </extensions>
      </trkpt>
      <trkpt lat="50.58285" lon="5.27712">
        <ele>181.60000610352</ele>
        <time>2019-11-09T09:47:15.000Z</time>
        <extensions>
          <gpxtpx:TrackPointExtension xmlns:gpxtpx="http://www.garmin.com/xmlschemas/TrackPointExtension/v1">
            <gpxtpx:hr>137</gpxtpx:hr>
          </gpxtpx:TrackPointExtension>
        </extensions>
      </trkpt>
      <trkpt lat="50.58283" lon="5.27689">
        <ele>182</ele>
        <time>2019-11-09T09:47:20.000Z</time>
        <extensions>
          <gpxtpx:TrackPointExtension xmlns:gpxtpx="http://www.garmin.com/xmlschemas/TrackPointExtension/v1">
            <gpxtpx:hr>138</gpxtpx:hr>
          </gpxtpx:TrackPointExtension>
        </extensions>
      </trkpt>
      <trkpt lat="50.58276" lon="5.27651">
        <ele>183</ele>
        <time>2019-11-09T09:47:23.000Z</time>
        <extensions>
          <gpxtpx:TrackPointExtension xmlns:gpxtpx="http://www.garmin.com/xmlschemas/TrackPointExtension/v1">
            <gpxtpx:hr>137</gpxtpx:hr>
          </gpxtpx:TrackPointExtension>
        </extensions>
      </trkpt>
      <trkpt lat="50.58256" lon="5.27592">
        <ele>183.80000305176</ele>
        <time>2019-11-09T09:47:26.000Z</time>
        <extensions>
          <gpxtpx:TrackPointExtension xmlns:gpxtpx="http://www.garmin.com/xmlschemas/TrackPointExtension/v1">
            <gpxtpx:hr>137</gpxtpx:hr>
          </gpxtpx:TrackPointExtension>
        </extensions>
      </trkpt>
      <trkpt lat="50.58227" lon="5.27514">
        <ele>183.39999389648</ele>
        <time>2019-11-09T09:47:29.000Z</time>
        <extensions>
          <gpxtpx:TrackPointExtension xmlns:gpxtpx="http://www.garmin.com/xmlschemas/TrackPointExtension/v1">
            <gpxtpx:hr>137</gpxtpx:hr>
          </gpxtpx:TrackPointExtension>
        </extensions>
      </trkpt>
      <trkpt lat="50.58204" lon="5.27438">
        <ele>183.39999389648</ele>
        <time>2019-11-09T09:47:31.000Z</time>
        <extensions>
          <gpxtpx:TrackPointExtension xmlns:gpxtpx="http://www.garmin.com/xmlschemas/TrackPointExtension/v1">
            <gpxtpx:hr>136</gpxtpx:hr>
          </gpxtpx:TrackPointExtension>
        </extensions>
      </trkpt>
      <trkpt lat="50.58189" lon="5.2738">
        <ele>184.39999389648</ele>
        <time>2019-11-09T09:47:33.000Z</time>
        <extensions>
          <gpxtpx:TrackPointExtension xmlns:gpxtpx="http://www.garmin.com/xmlschemas/TrackPointExtension/v1">
            <gpxtpx:hr>135</gpxtpx:hr>
          </gpxtpx:TrackPointExtension>
        </extensions>
      </trkpt>
      <trkpt lat="50.58184" lon="5.27364">
        <ele>185.39999389648</ele>
        <time>2019-11-09T09:47:35.000Z</time>
        <extensions>
          <gpxtpx:TrackPointExtension xmlns:gpxtpx="http://www.garmin.com/xmlschemas/TrackPointExtension/v1">
            <gpxtpx:hr>134</gpxtpx:hr>
          </gpxtpx:TrackPointExtension>
        </extensions>
      </trkpt>
      <trkpt lat="50.58178" lon="5.2734">
        <ele>185.80000305176</ele>
        <time>2019-11-09T09:47:41.000Z</time>
        <extensions>
          <gpxtpx:TrackPointExtension xmlns:gpxtpx="http://www.garmin.com/xmlschemas/TrackPointExtension/v1">
            <gpxtpx:hr>134</gpxtpx:hr>
          </gpxtpx:TrackPointExtension>
        </extensions>
      </trkpt>
      <trkpt lat="50.58162" lon="5.2728">
        <ele>186.60000610352</ele>
        <time>2019-11-09T09:47:42.000Z</time>
        <extensions>
          <gpxtpx:TrackPointExtension xmlns:gpxtpx="http://www.garmin.com/xmlschemas/TrackPointExtension/v1">
            <gpxtpx:hr>134</gpxtpx:hr>
          </gpxtpx:TrackPointExtension>
        </extensions>
      </trkpt>
      <trkpt lat="50.58156" lon="5.27256">
        <ele>186.80000305176</ele>
        <time>2019-11-09T09:47:45.000Z</time>
        <extensions>
          <gpxtpx:TrackPointExtension xmlns:gpxtpx="http://www.garmin.com/xmlschemas/TrackPointExtension/v1">
            <gpxtpx:hr>133</gpxtpx:hr>
          </gpxtpx:TrackPointExtension>
        </extensions>
      </trkpt>
      <trkpt lat="50.58133" lon="5.2717">
        <ele>187.39999389648</ele>
        <time>2019-11-09T09:48:10.000Z</time>
        <extensions>
          <gpxtpx:TrackPointExtension xmlns:gpxtpx="http://www.garmin.com/xmlschemas/TrackPointExtension/v1">
            <gpxtpx:hr>134</gpxtpx:hr>
          </gpxtpx:TrackPointExtension>
        </extensions>
      </trkpt>
      <trkpt lat="50.58131" lon="5.27162">
        <ele>187.60000610352</ele>
        <time>2019-11-09T09:48:13.000Z</time>
        <extensions>
          <gpxtpx:TrackPointExtension xmlns:gpxtpx="http://www.garmin.com/xmlschemas/TrackPointExtension/v1">
            <gpxtpx:hr>134</gpxtpx:hr>
          </gpxtpx:TrackPointExtension>
        </extensions>
      </trkpt>
      <trkpt lat="50.5811" lon="5.27098">
        <ele>188.19999694824</ele>
        <time>2019-11-09T09:48:16.000Z</time>
        <extensions>
          <gpxtpx:TrackPointExtension xmlns:gpxtpx="http://www.garmin.com/xmlschemas/TrackPointExtension/v1">
            <gpxtpx:hr>135</gpxtpx:hr>
          </gpxtpx:TrackPointExtension>
        </extensions>
      </trkpt>
      <trkpt lat="50.581" lon="5.27066">
        <ele>188.60000610352</ele>
        <time>2019-11-09T09:48:19.000Z</time>
        <extensions>
          <gpxtpx:TrackPointExtension xmlns:gpxtpx="http://www.garmin.com/xmlschemas/TrackPointExtension/v1">
            <gpxtpx:hr>135</gpxtpx:hr>
          </gpxtpx:TrackPointExtension>
        </extensions>
      </trkpt>
      <trkpt lat="50.58093" lon="5.27043">
        <ele>188.80000305176</ele>
        <time>2019-11-09T09:48:21.000Z</time>
        <extensions>
          <gpxtpx:TrackPointExtension xmlns:gpxtpx="http://www.garmin.com/xmlschemas/TrackPointExtension/v1">
            <gpxtpx:hr>136</gpxtpx:hr>
          </gpxtpx:TrackPointExtension>
        </extensions>
      </trkpt>
      <trkpt lat="50.58089" lon="5.27036">
        <ele>188.80000305176</ele>
        <time>2019-11-09T09:48:26.000Z</time>
        <extensions>
          <gpxtpx:TrackPointExtension xmlns:gpxtpx="http://www.garmin.com/xmlschemas/TrackPointExtension/v1">
            <gpxtpx:hr>135</gpxtpx:hr>
          </gpxtpx:TrackPointExtension>
        </extensions>
      </trkpt>
      <trkpt lat="50.58068" lon="5.2702">
        <ele>193.4</ele>
        <time>2019-11-09T09:48:30.000Z</time>
      </trkpt>
      <trkpt lat="50.58056" lon="5.27004">
        <ele>193.5</ele>
        <time>2019-11-09T09:48:34.000Z</time>
      </trkpt>
      <trkpt lat="50.58042" lon="5.2698">
        <ele>193.6</ele>
        <time>2019-11-09T09:48:39.000Z</time>
      </trkpt>
      <trkpt lat="50.58005" lon="5.26918">
        <ele>193.9</ele>
        <time>2019-11-09T09:48:56.000Z</time>
      </trkpt>
      <trkpt lat="50.57992" lon="5.26894">
        <ele>194.7</ele>
        <time>2019-11-09T09:48:58.000Z</time>
      </trkpt>
      <trkpt lat="50.5796" lon="5.2682">
        <ele>190.19999694824</ele>
        <time>2019-11-09T09:49:02.000Z</time>
        <extensions>
          <gpxtpx:TrackPointExtension xmlns:gpxtpx="http://www.garmin.com/xmlschemas/TrackPointExtension/v1">
            <gpxtpx:hr>137</gpxtpx:hr>
          </gpxtpx:TrackPointExtension>
        </extensions>
      </trkpt>
      <trkpt lat="50.57934" lon="5.26756">
        <ele>190</ele>
        <time>2019-11-09T09:49:07.000Z</time>
        <extensions>
          <gpxtpx:TrackPointExtension xmlns:gpxtpx="http://www.garmin.com/xmlschemas/TrackPointExtension/v1">
            <gpxtpx:hr>136</gpxtpx:hr>
          </gpxtpx:TrackPointExtension>
        </extensions>
      </trkpt>
      <trkpt lat="50.57905" lon="5.26687">
        <ele>196</ele>
        <time>2019-11-09T09:49:08.000Z</time>
      </trkpt>
      <trkpt lat="50.57884" lon="5.26637">
        <ele>195.8</ele>
        <time>2019-11-09T09:49:09.000Z</time>
      </trkpt>
      <trkpt lat="50.57862" lon="5.26576">
        <ele>196</ele>
        <time>2019-11-09T09:49:12.000Z</time>
      </trkpt>
      <trkpt lat="50.57832" lon="5.26489">
        <ele>195.4</ele>
        <time>2019-11-09T09:49:16.000Z</time>
      </trkpt>
      <trkpt lat="50.57806" lon="5.26405">
        <ele>191.60000610352</ele>
        <time>2019-11-09T09:49:28.000Z</time>
        <extensions>
          <gpxtpx:TrackPointExtension xmlns:gpxtpx="http://www.garmin.com/xmlschemas/TrackPointExtension/v1">
            <gpxtpx:hr>137</gpxtpx:hr>
          </gpxtpx:TrackPointExtension>
        </extensions>
      </trkpt>
      <trkpt lat="50.57799" lon="5.26386">
        <ele>191.60000610352</ele>
        <time>2019-11-09T09:49:30.000Z</time>
        <extensions>
          <gpxtpx:TrackPointExtension xmlns:gpxtpx="http://www.garmin.com/xmlschemas/TrackPointExtension/v1">
            <gpxtpx:hr>138</gpxtpx:hr>
          </gpxtpx:TrackPointExtension>
        </extensions>
      </trkpt>
      <trkpt lat="50.57767" lon="5.26312">
        <ele>191.39999389648</ele>
        <time>2019-11-09T09:49:34.000Z</time>
        <extensions>
          <gpxtpx:TrackPointExtension xmlns:gpxtpx="http://www.garmin.com/xmlschemas/TrackPointExtension/v1">
            <gpxtpx:hr>139</gpxtpx:hr>
          </gpxtpx:TrackPointExtension>
        </extensions>
      </trkpt>
      <trkpt lat="50.57759" lon="5.26293">
        <ele>191.60000610352</ele>
        <time>2019-11-09T09:49:39.000Z</time>
        <extensions>
          <gpxtpx:TrackPointExtension xmlns:gpxtpx="http://www.garmin.com/xmlschemas/TrackPointExtension/v1">
            <gpxtpx:hr>139</gpxtpx:hr>
          </gpxtpx:TrackPointExtension>
        </extensions>
      </trkpt>
      <trkpt lat="50.57723" lon="5.26223">
        <ele>191.80000305176</ele>
        <time>2019-11-09T09:49:54.000Z</time>
        <extensions>
          <gpxtpx:TrackPointExtension xmlns:gpxtpx="http://www.garmin.com/xmlschemas/TrackPointExtension/v1">
            <gpxtpx:hr>139</gpxtpx:hr>
          </gpxtpx:TrackPointExtension>
        </extensions>
      </trkpt>
      <trkpt lat="50.5771" lon="5.26197">
        <ele>192</ele>
        <time>2019-11-09T09:49:56.000Z</time>
        <extensions>
          <gpxtpx:TrackPointExtension xmlns:gpxtpx="http://www.garmin.com/xmlschemas/TrackPointExtension/v1">
            <gpxtpx:hr>138</gpxtpx:hr>
          </gpxtpx:TrackPointExtension>
        </extensions>
      </trkpt>
      <trkpt lat="50.57701" lon="5.26179">
        <ele>192.19999694824</ele>
        <time>2019-11-09T09:50:03.000Z</time>
        <extensions>
          <gpxtpx:TrackPointExtension xmlns:gpxtpx="http://www.garmin.com/xmlschemas/TrackPointExtension/v1">
            <gpxtpx:hr>138</gpxtpx:hr>
          </gpxtpx:TrackPointExtension>
        </extensions>
      </trkpt>
      <trkpt lat="50.57668" lon="5.26111">
        <ele>192</ele>
        <time>2019-11-09T09:50:11.000Z</time>
        <extensions>
          <gpxtpx:TrackPointExtension xmlns:gpxtpx="http://www.garmin.com/xmlschemas/TrackPointExtension/v1">
            <gpxtpx:hr>136</gpxtpx:hr>
          </gpxtpx:TrackPointExtension>
        </extensions>
      </trkpt>
      <trkpt lat="50.57664" lon="5.26103">
        <ele>192</ele>
        <time>2019-11-09T09:50:18.000Z</time>
        <extensions>
          <gpxtpx:TrackPointExtension xmlns:gpxtpx="http://www.garmin.com/xmlschemas/TrackPointExtension/v1">
            <gpxtpx:hr>135</gpxtpx:hr>
          </gpxtpx:TrackPointExtension>
        </extensions>
      </trkpt>
      <trkpt lat="50.5764" lon="5.26048">
        <ele>192</ele>
        <time>2019-11-09T09:50:25.000Z</time>
        <extensions>
          <gpxtpx:TrackPointExtension xmlns:gpxtpx="http://www.garmin.com/xmlschemas/TrackPointExtension/v1">
            <gpxtpx:hr>132</gpxtpx:hr>
          </gpxtpx:TrackPointExtension>
        </extensions>
      </trkpt>
      <trkpt lat="50.57634" lon="5.26033">
        <ele>192</ele>
        <time>2019-11-09T09:50:39.000Z</time>
        <extensions>
          <gpxtpx:TrackPointExtension xmlns:gpxtpx="http://www.garmin.com/xmlschemas/TrackPointExtension/v1">
            <gpxtpx:hr>129</gpxtpx:hr>
          </gpxtpx:TrackPointExtension>
        </extensions>
      </trkpt>
      <trkpt lat="50.57614" lon="5.26009">
        <ele>194.8</ele>
        <time>2019-11-09T09:50:46.000Z</time>
      </trkpt>
      <trkpt lat="50.57603" lon="5.25986">
        <ele>194.5</ele>
        <time>2019-11-09T09:50:49.000Z</time>
      </trkpt>
      <trkpt lat="50.57582" lon="5.25938">
        <ele>195.2</ele>
        <time>2019-11-09T09:50:51.000Z</time>
      </trkpt>
      <trkpt lat="50.57561" lon="5.25891">
        <ele>196</ele>
        <time>2019-11-09T09:50:54.000Z</time>
      </trkpt>
      <trkpt lat="50.57532" lon="5.25821">
        <ele>194</ele>
        <time>2019-11-09T09:50:55.000Z</time>
        <extensions>
          <gpxtpx:TrackPointExtension xmlns:gpxtpx="http://www.garmin.com/xmlschemas/TrackPointExtension/v1">
            <gpxtpx:hr>121</gpxtpx:hr>
          </gpxtpx:TrackPointExtension>
        </extensions>
      </trkpt>
      <trkpt lat="50.57505" lon="5.2576">
        <ele>194.19999694824</ele>
        <time>2019-11-09T09:51:02.000Z</time>
        <extensions>
          <gpxtpx:TrackPointExtension xmlns:gpxtpx="http://www.garmin.com/xmlschemas/TrackPointExtension/v1">
            <gpxtpx:hr>121</gpxtpx:hr>
          </gpxtpx:TrackPointExtension>
        </extensions>
      </trkpt>
      <trkpt lat="50.57478" lon="5.25699">
        <ele>194.19999694824</ele>
        <time>2019-11-09T09:51:04.000Z</time>
        <extensions>
          <gpxtpx:TrackPointExtension xmlns:gpxtpx="http://www.garmin.com/xmlschemas/TrackPointExtension/v1">
            <gpxtpx:hr>122</gpxtpx:hr>
          </gpxtpx:TrackPointExtension>
        </extensions>
      </trkpt>
      <trkpt lat="50.57445" lon="5.25625">
        <ele>194.60000610352</ele>
        <time>2019-11-09T09:51:09.000Z</time>
        <extensions>
          <gpxtpx:TrackPointExtension xmlns:gpxtpx="http://www.garmin.com/xmlschemas/TrackPointExtension/v1">
            <gpxtpx:hr>119</gpxtpx:hr>
          </gpxtpx:TrackPointExtension>
        </extensions>
      </trkpt>
      <trkpt lat="50.57442" lon="5.25618">
        <ele>194.80000305176</ele>
        <time>2019-11-09T09:51:16.000Z</time>
        <extensions>
          <gpxtpx:TrackPointExtension xmlns:gpxtpx="http://www.garmin.com/xmlschemas/TrackPointExtension/v1">
            <gpxtpx:hr>119</gpxtpx:hr>
          </gpxtpx:TrackPointExtension>
        </extensions>
      </trkpt>
      <trkpt lat="50.57416" lon="5.2556">
        <ele>195</ele>
        <time>2019-11-09T09:51:21.000Z</time>
        <extensions>
          <gpxtpx:TrackPointExtension xmlns:gpxtpx="http://www.garmin.com/xmlschemas/TrackPointExtension/v1">
            <gpxtpx:hr>120</gpxtpx:hr>
          </gpxtpx:TrackPointExtension>
        </extensions>
      </trkpt>
      <trkpt lat="50.57411" lon="5.25547">
        <ele>198.9</ele>
        <time>2019-11-09T09:51:36.000Z</time>
      </trkpt>
      <trkpt lat="50.57423" lon="5.25529">
        <ele>195.19999694824</ele>
        <time>2019-11-09T09:51:43.000Z</time>
        <extensions>
          <gpxtpx:TrackPointExtension xmlns:gpxtpx="http://www.garmin.com/xmlschemas/TrackPointExtension/v1">
            <gpxtpx:hr>120</gpxtpx:hr>
          </gpxtpx:TrackPointExtension>
        </extensions>
      </trkpt>
      <trkpt lat="50.5745" lon="5.25501">
        <ele>198.1</ele>
        <time>2019-11-09T09:51:47.000Z</time>
      </trkpt>
      <trkpt lat="50.57476" lon="5.25469">
        <ele>198.4</ele>
        <time>2019-11-09T09:51:54.000Z</time>
      </trkpt>
      <trkpt lat="50.57515" lon="5.25423">
        <ele>197.6</ele>
        <time>2019-11-09T09:52:03.000Z</time>
      </trkpt>
      <trkpt lat="50.57563" lon="5.25368">
        <ele>197</ele>
        <time>2019-11-09T09:52:11.000Z</time>
      </trkpt>
      <trkpt lat="50.57592" lon="5.25335">
        <ele>195.7</ele>
        <time>2019-11-09T09:52:13.000Z</time>
      </trkpt>
      <trkpt lat="50.57621" lon="5.25303">
        <ele>193.9</ele>
        <time>2019-11-09T09:52:17.000Z</time>
      </trkpt>
      <trkpt lat="50.57639" lon="5.25277">
        <ele>192.60000610352</ele>
        <time>2019-11-09T09:52:26.000Z</time>
        <extensions>
          <gpxtpx:TrackPointExtension xmlns:gpxtpx="http://www.garmin.com/xmlschemas/TrackPointExtension/v1">
            <gpxtpx:hr>105</gpxtpx:hr>
          </gpxtpx:TrackPointExtension>
        </extensions>
      </trkpt>
      <trkpt lat="50.57645" lon="5.25269">
        <ele>192.19999694824</ele>
        <time>2019-11-09T09:52:31.000Z</time>
        <extensions>
          <gpxtpx:TrackPointExtension xmlns:gpxtpx="http://www.garmin.com/xmlschemas/TrackPointExtension/v1">
            <gpxtpx:hr>105</gpxtpx:hr>
          </gpxtpx:TrackPointExtension>
        </extensions>
      </trkpt>
      <trkpt lat="50.5765" lon="5.25261">
        <ele>192</ele>
        <time>2019-11-09T09:52:32.000Z</time>
        <extensions>
          <gpxtpx:TrackPointExtension xmlns:gpxtpx="http://www.garmin.com/xmlschemas/TrackPointExtension/v1">
            <gpxtpx:hr>104</gpxtpx:hr>
          </gpxtpx:TrackPointExtension>
        </extensions>
      </trkpt>
      <trkpt lat="50.5766" lon="5.25243">
        <ele>191.60000610352</ele>
        <time>2019-11-09T09:52:37.000Z</time>
        <extensions>
          <gpxtpx:TrackPointExtension xmlns:gpxtpx="http://www.garmin.com/xmlschemas/TrackPointExtension/v1">
            <gpxtpx:hr>104</gpxtpx:hr>
          </gpxtpx:TrackPointExtension>
        </extensions>
      </trkpt>
      <trkpt lat="50.57673" lon="5.25212">
        <ele>191.19999694824</ele>
        <time>2019-11-09T09:52:38.000Z</time>
        <extensions>
          <gpxtpx:TrackPointExtension xmlns:gpxtpx="http://www.garmin.com/xmlschemas/TrackPointExtension/v1">
            <gpxtpx:hr>104</gpxtpx:hr>
          </gpxtpx:TrackPointExtension>
        </extensions>
      </trkpt>
      <trkpt lat="50.57683" lon="5.25179">
        <ele>191.7</ele>
        <time>2019-11-09T09:52:40.000Z</time>
      </trkpt>
      <trkpt lat="50.57697" lon="5.2514">
        <ele>191.3</ele>
        <time>2019-11-09T09:52:44.000Z</time>
      </trkpt>
      <trkpt lat="50.5771" lon="5.25113">
        <ele>190.39999389648</ele>
        <time>2019-11-09T09:54:21.000Z</time>
        <extensions>
          <gpxtpx:TrackPointExtension xmlns:gpxtpx="http://www.garmin.com/xmlschemas/TrackPointExtension/v1">
            <gpxtpx:hr>109</gpxtpx:hr>
          </gpxtpx:TrackPointExtension>
        </extensions>
      </trkpt>
      <trkpt lat="50.57716" lon="5.25103">
        <ele>190.19999694824</ele>
        <time>2019-11-09T09:54:22.000Z</time>
        <extensions>
          <gpxtpx:TrackPointExtension xmlns:gpxtpx="http://www.garmin.com/xmlschemas/TrackPointExtension/v1">
            <gpxtpx:hr>109</gpxtpx:hr>
          </gpxtpx:TrackPointExtension>
        </extensions>
      </trkpt>
      <trkpt lat="50.57722" lon="5.25094">
        <ele>190</ele>
        <time>2019-11-09T09:54:28.000Z</time>
        <extensions>
          <gpxtpx:TrackPointExtension xmlns:gpxtpx="http://www.garmin.com/xmlschemas/TrackPointExtension/v1">
            <gpxtpx:hr>110</gpxtpx:hr>
          </gpxtpx:TrackPointExtension>
        </extensions>
      </trkpt>
      <trkpt lat="50.57749" lon="5.25062">
        <ele>189.39999389648</ele>
        <time>2019-11-09T09:54:31.000Z</time>
        <extensions>
          <gpxtpx:TrackPointExtension xmlns:gpxtpx="http://www.garmin.com/xmlschemas/TrackPointExtension/v1">
            <gpxtpx:hr>110</gpxtpx:hr>
          </gpxtpx:TrackPointExtension>
        </extensions>
      </trkpt>
      <trkpt lat="50.57794" lon="5.25008">
        <ele>189.39999389648</ele>
        <time>2019-11-09T09:54:36.000Z</time>
        <extensions>
          <gpxtpx:TrackPointExtension xmlns:gpxtpx="http://www.garmin.com/xmlschemas/TrackPointExtension/v1">
            <gpxtpx:hr>107</gpxtpx:hr>
          </gpxtpx:TrackPointExtension>
        </extensions>
      </trkpt>
      <trkpt lat="50.57812" lon="5.24985">
        <ele>189.19999694824</ele>
        <time>2019-11-09T09:54:43.000Z</time>
        <extensions>
          <gpxtpx:TrackPointExtension xmlns:gpxtpx="http://www.garmin.com/xmlschemas/TrackPointExtension/v1">
            <gpxtpx:hr>105</gpxtpx:hr>
          </gpxtpx:TrackPointExtension>
        </extensions>
      </trkpt>
      <trkpt lat="50.57841" lon="5.24949">
        <ele>189.19999694824</ele>
        <time>2019-11-09T09:54:50.000Z</time>
        <extensions>
          <gpxtpx:TrackPointExtension xmlns:gpxtpx="http://www.garmin.com/xmlschemas/TrackPointExtension/v1">
            <gpxtpx:hr>105</gpxtpx:hr>
          </gpxtpx:TrackPointExtension>
        </extensions>
      </trkpt>
      <trkpt lat="50.57864" lon="5.24918">
        <ele>189.19999694824</ele>
        <time>2019-11-09T09:54:55.000Z</time>
        <extensions>
          <gpxtpx:TrackPointExtension xmlns:gpxtpx="http://www.garmin.com/xmlschemas/TrackPointExtension/v1">
            <gpxtpx:hr>106</gpxtpx:hr>
          </gpxtpx:TrackPointExtension>
        </extensions>
      </trkpt>
      <trkpt lat="50.57909" lon="5.24854">
        <ele>189</ele>
        <time>2019-11-09T09:54:58.000Z</time>
        <extensions>
          <gpxtpx:TrackPointExtension xmlns:gpxtpx="http://www.garmin.com/xmlschemas/TrackPointExtension/v1">
            <gpxtpx:hr>108</gpxtpx:hr>
          </gpxtpx:TrackPointExtension>
        </extensions>
      </trkpt>
      <trkpt lat="50.5792" lon="5.24838">
        <ele>188.80000305176</ele>
        <time>2019-11-09T09:55:01.000Z</time>
        <extensions>
          <gpxtpx:TrackPointExtension xmlns:gpxtpx="http://www.garmin.com/xmlschemas/TrackPointExtension/v1">
            <gpxtpx:hr>108</gpxtpx:hr>
          </gpxtpx:TrackPointExtension>
        </extensions>
      </trkpt>
      <trkpt lat="50.57954" lon="5.2479">
        <ele>188.19999694824</ele>
        <time>2019-11-09T09:55:08.000Z</time>
        <extensions>
          <gpxtpx:TrackPointExtension xmlns:gpxtpx="http://www.garmin.com/xmlschemas/TrackPointExtension/v1">
            <gpxtpx:hr>108</gpxtpx:hr>
          </gpxtpx:TrackPointExtension>
        </extensions>
      </trkpt>
      <trkpt lat="50.57977" lon="5.24758">
        <ele>188</ele>
        <time>2019-11-09T09:55:09.000Z</time>
        <extensions>
          <gpxtpx:TrackPointExtension xmlns:gpxtpx="http://www.garmin.com/xmlschemas/TrackPointExtension/v1">
            <gpxtpx:hr>108</gpxtpx:hr>
          </gpxtpx:TrackPointExtension>
        </extensions>
      </trkpt>
      <trkpt lat="50.58022" lon="5.24709">
        <ele>187.60000610352</ele>
        <time>2019-11-09T09:55:16.000Z</time>
        <extensions>
          <gpxtpx:TrackPointExtension xmlns:gpxtpx="http://www.garmin.com/xmlschemas/TrackPointExtension/v1">
            <gpxtpx:hr>107</gpxtpx:hr>
          </gpxtpx:TrackPointExtension>
        </extensions>
      </trkpt>
      <trkpt lat="50.58061" lon="5.24669">
        <ele>187</ele>
        <time>2019-11-09T09:55:19.000Z</time>
        <extensions>
          <gpxtpx:TrackPointExtension xmlns:gpxtpx="http://www.garmin.com/xmlschemas/TrackPointExtension/v1">
            <gpxtpx:hr>105</gpxtpx:hr>
          </gpxtpx:TrackPointExtension>
        </extensions>
      </trkpt>
      <trkpt lat="50.58075" lon="5.24658">
        <ele>186.60000610352</ele>
        <time>2019-11-09T09:55:23.000Z</time>
        <extensions>
          <gpxtpx:TrackPointExtension xmlns:gpxtpx="http://www.garmin.com/xmlschemas/TrackPointExtension/v1">
            <gpxtpx:hr>104</gpxtpx:hr>
          </gpxtpx:TrackPointExtension>
        </extensions>
      </trkpt>
      <trkpt lat="50.58097" lon="5.24643">
        <ele>186.19999694824</ele>
        <time>2019-11-09T09:55:27.000Z</time>
        <extensions>
          <gpxtpx:TrackPointExtension xmlns:gpxtpx="http://www.garmin.com/xmlschemas/TrackPointExtension/v1">
            <gpxtpx:hr>101</gpxtpx:hr>
          </gpxtpx:TrackPointExtension>
        </extensions>
      </trkpt>
      <trkpt lat="50.58112" lon="5.24633">
        <ele>186</ele>
        <time>2019-11-09T09:55:35.000Z</time>
        <extensions>
          <gpxtpx:TrackPointExtension xmlns:gpxtpx="http://www.garmin.com/xmlschemas/TrackPointExtension/v1">
            <gpxtpx:hr>100</gpxtpx:hr>
          </gpxtpx:TrackPointExtension>
        </extensions>
      </trkpt>
      <trkpt lat="50.58127" lon="5.24623">
        <ele>185.80000305176</ele>
        <time>2019-11-09T09:55:36.000Z</time>
        <extensions>
          <gpxtpx:TrackPointExtension xmlns:gpxtpx="http://www.garmin.com/xmlschemas/TrackPointExtension/v1">
            <gpxtpx:hr>100</gpxtpx:hr>
          </gpxtpx:TrackPointExtension>
        </extensions>
      </trkpt>
      <trkpt lat="50.58151" lon="5.24608">
        <ele>185</ele>
        <time>2019-11-09T09:55:43.000Z</time>
        <extensions>
          <gpxtpx:TrackPointExtension xmlns:gpxtpx="http://www.garmin.com/xmlschemas/TrackPointExtension/v1">
            <gpxtpx:hr>100</gpxtpx:hr>
          </gpxtpx:TrackPointExtension>
        </extensions>
      </trkpt>
      <trkpt lat="50.58183" lon="5.24581">
        <ele>183.80000305176</ele>
        <time>2019-11-09T09:55:44.000Z</time>
        <extensions>
          <gpxtpx:TrackPointExtension xmlns:gpxtpx="http://www.garmin.com/xmlschemas/TrackPointExtension/v1">
            <gpxtpx:hr>99</gpxtpx:hr>
          </gpxtpx:TrackPointExtension>
        </extensions>
      </trkpt>
      <trkpt lat="50.58206" lon="5.24557">
        <ele>182.80000305176</ele>
        <time>2019-11-09T09:55:51.000Z</time>
        <extensions>
          <gpxtpx:TrackPointExtension xmlns:gpxtpx="http://www.garmin.com/xmlschemas/TrackPointExtension/v1">
            <gpxtpx:hr>97</gpxtpx:hr>
          </gpxtpx:TrackPointExtension>
        </extensions>
      </trkpt>
      <trkpt lat="50.58227" lon="5.24532">
        <ele>181.60000610352</ele>
        <time>2019-11-09T09:55:53.000Z</time>
        <extensions>
          <gpxtpx:TrackPointExtension xmlns:gpxtpx="http://www.garmin.com/xmlschemas/TrackPointExtension/v1">
            <gpxtpx:hr>96</gpxtpx:hr>
          </gpxtpx:TrackPointExtension>
        </extensions>
      </trkpt>
      <trkpt lat="50.58262" lon="5.24489">
        <ele>180.19999694824</ele>
        <time>2019-11-09T09:56:00.000Z</time>
        <extensions>
          <gpxtpx:TrackPointExtension xmlns:gpxtpx="http://www.garmin.com/xmlschemas/TrackPointExtension/v1">
            <gpxtpx:hr>98</gpxtpx:hr>
          </gpxtpx:TrackPointExtension>
        </extensions>
      </trkpt>
      <trkpt lat="50.58282" lon="5.24463">
        <ele>179.39999389648</ele>
        <time>2019-11-09T09:56:07.000Z</time>
        <extensions>
          <gpxtpx:TrackPointExtension xmlns:gpxtpx="http://www.garmin.com/xmlschemas/TrackPointExtension/v1">
            <gpxtpx:hr>98</gpxtpx:hr>
          </gpxtpx:TrackPointExtension>
        </extensions>
      </trkpt>
      <trkpt lat="50.58294" lon="5.24444">
        <ele>179</ele>
        <time>2019-11-09T09:56:09.000Z</time>
        <extensions>
          <gpxtpx:TrackPointExtension xmlns:gpxtpx="http://www.garmin.com/xmlschemas/TrackPointExtension/v1">
            <gpxtpx:hr>96</gpxtpx:hr>
          </gpxtpx:TrackPointExtension>
        </extensions>
      </trkpt>
      <trkpt lat="50.58311" lon="5.24412">
        <ele>180.4</ele>
        <time>2019-11-09T09:56:16.000Z</time>
      </trkpt>
      <trkpt lat="50.58323" lon="5.24393">
        <ele>180.2</ele>
        <time>2019-11-09T09:56:17.000Z</time>
      </trkpt>
      <trkpt lat="50.58334" lon="5.24377">
        <ele>179</ele>
        <time>2019-11-09T09:56:24.000Z</time>
      </trkpt>
      <trkpt lat="50.58357" lon="5.24345">
        <ele>177.39999389648</ele>
        <time>2019-11-09T09:56:31.000Z</time>
        <extensions>
          <gpxtpx:TrackPointExtension xmlns:gpxtpx="http://www.garmin.com/xmlschemas/TrackPointExtension/v1">
            <gpxtpx:hr>96</gpxtpx:hr>
          </gpxtpx:TrackPointExtension>
        </extensions>
      </trkpt>
      <trkpt lat="50.58375" lon="5.24321">
        <ele>177.19999694824</ele>
        <time>2019-11-09T09:57:00.000Z</time>
        <extensions>
          <gpxtpx:TrackPointExtension xmlns:gpxtpx="http://www.garmin.com/xmlschemas/TrackPointExtension/v1">
            <gpxtpx:hr>99</gpxtpx:hr>
          </gpxtpx:TrackPointExtension>
        </extensions>
      </trkpt>
      <trkpt lat="50.58382" lon="5.24313">
        <ele>177.19999694824</ele>
        <time>2019-11-09T09:57:01.000Z</time>
        <extensions>
          <gpxtpx:TrackPointExtension xmlns:gpxtpx="http://www.garmin.com/xmlschemas/TrackPointExtension/v1">
            <gpxtpx:hr>100</gpxtpx:hr>
          </gpxtpx:TrackPointExtension>
        </extensions>
      </trkpt>
      <trkpt lat="50.58403" lon="5.24296">
        <ele>177.19999694824</ele>
        <time>2019-11-09T09:57:40.000Z</time>
        <extensions>
          <gpxtpx:TrackPointExtension xmlns:gpxtpx="http://www.garmin.com/xmlschemas/TrackPointExtension/v1">
            <gpxtpx:hr>102</gpxtpx:hr>
          </gpxtpx:TrackPointExtension>
        </extensions>
      </trkpt>
      <trkpt lat="50.58418" lon="5.24287">
        <ele>177</ele>
        <time>2019-11-09T09:57:41.000Z</time>
        <extensions>
          <gpxtpx:TrackPointExtension xmlns:gpxtpx="http://www.garmin.com/xmlschemas/TrackPointExtension/v1">
            <gpxtpx:hr>103</gpxtpx:hr>
          </gpxtpx:TrackPointExtension>
        </extensions>
      </trkpt>
      <trkpt lat="50.58463" lon="5.24261">
        <ele>177</ele>
        <time>2019-11-09T09:57:44.000Z</time>
        <extensions>
          <gpxtpx:TrackPointExtension xmlns:gpxtpx="http://www.garmin.com/xmlschemas/TrackPointExtension/v1">
            <gpxtpx:hr>106</gpxtpx:hr>
          </gpxtpx:TrackPointExtension>
        </extensions>
      </trkpt>
      <trkpt lat="50.58478" lon="5.24252">
        <ele>177</ele>
        <time>2019-11-09T09:57:45.000Z</time>
        <extensions>
          <gpxtpx:TrackPointExtension xmlns:gpxtpx="http://www.garmin.com/xmlschemas/TrackPointExtension/v1">
            <gpxtpx:hr>107</gpxtpx:hr>
          </gpxtpx:TrackPointExtension>
        </extensions>
      </trkpt>
      <trkpt lat="50.58506" lon="5.24231">
        <ele>177.19999694824</ele>
        <time>2019-11-09T09:57:48.000Z</time>
        <extensions>
          <gpxtpx:TrackPointExtension xmlns:gpxtpx="http://www.garmin.com/xmlschemas/TrackPointExtension/v1">
            <gpxtpx:hr>110</gpxtpx:hr>
          </gpxtpx:TrackPointExtension>
        </extensions>
      </trkpt>
      <trkpt lat="50.58548" lon="5.24198">
        <ele>177.19999694824</ele>
        <time>2019-11-09T09:57:50.000Z</time>
        <extensions>
          <gpxtpx:TrackPointExtension xmlns:gpxtpx="http://www.garmin.com/xmlschemas/TrackPointExtension/v1">
            <gpxtpx:hr>112</gpxtpx:hr>
          </gpxtpx:TrackPointExtension>
        </extensions>
      </trkpt>
      <trkpt lat="50.58585" lon="5.24159">
        <ele>177.60000610352</ele>
        <time>2019-11-09T09:57:53.000Z</time>
        <extensions>
          <gpxtpx:TrackPointExtension xmlns:gpxtpx="http://www.garmin.com/xmlschemas/TrackPointExtension/v1">
            <gpxtpx:hr>115</gpxtpx:hr>
          </gpxtpx:TrackPointExtension>
        </extensions>
      </trkpt>
      <trkpt lat="50.58591" lon="5.24152">
        <ele>177.60000610352</ele>
        <time>2019-11-09T09:57:56.000Z</time>
        <extensions>
          <gpxtpx:TrackPointExtension xmlns:gpxtpx="http://www.garmin.com/xmlschemas/TrackPointExtension/v1">
            <gpxtpx:hr>116</gpxtpx:hr>
          </gpxtpx:TrackPointExtension>
        </extensions>
      </trkpt>
      <trkpt lat="50.58626" lon="5.24109">
        <ele>177.80000305176</ele>
        <time>2019-11-09T09:57:59.000Z</time>
        <extensions>
          <gpxtpx:TrackPointExtension xmlns:gpxtpx="http://www.garmin.com/xmlschemas/TrackPointExtension/v1">
            <gpxtpx:hr>119</gpxtpx:hr>
          </gpxtpx:TrackPointExtension>
        </extensions>
      </trkpt>
      <trkpt lat="50.58642" lon="5.24089">
        <ele>178.19999694824</ele>
        <time>2019-11-09T09:58:01.000Z</time>
        <extensions>
          <gpxtpx:TrackPointExtension xmlns:gpxtpx="http://www.garmin.com/xmlschemas/TrackPointExtension/v1">
            <gpxtpx:hr>120</gpxtpx:hr>
          </gpxtpx:TrackPointExtension>
        </extensions>
      </trkpt>
      <trkpt lat="50.58652" lon="5.24076">
        <ele>178.60000610352</ele>
        <time>2019-11-09T09:58:22.000Z</time>
        <extensions>
          <gpxtpx:TrackPointExtension xmlns:gpxtpx="http://www.garmin.com/xmlschemas/TrackPointExtension/v1">
            <gpxtpx:hr>121</gpxtpx:hr>
          </gpxtpx:TrackPointExtension>
        </extensions>
      </trkpt>
      <trkpt lat="50.58673" lon="5.24051">
        <ele>179.19999694824</ele>
        <time>2019-11-09T09:58:25.000Z</time>
        <extensions>
          <gpxtpx:TrackPointExtension xmlns:gpxtpx="http://www.garmin.com/xmlschemas/TrackPointExtension/v1">
            <gpxtpx:hr>123</gpxtpx:hr>
          </gpxtpx:TrackPointExtension>
        </extensions>
      </trkpt>
      <trkpt lat="50.5871" lon="5.24009">
        <ele>180.39999389648</ele>
        <time>2019-11-09T09:58:28.000Z</time>
        <extensions>
          <gpxtpx:TrackPointExtension xmlns:gpxtpx="http://www.garmin.com/xmlschemas/TrackPointExtension/v1">
            <gpxtpx:hr>125</gpxtpx:hr>
          </gpxtpx:TrackPointExtension>
        </extensions>
      </trkpt>
      <trkpt lat="50.5874" lon="5.23969">
        <ele>181.19999694824</ele>
        <time>2019-11-09T09:58:42.000Z</time>
        <extensions>
          <gpxtpx:TrackPointExtension xmlns:gpxtpx="http://www.garmin.com/xmlschemas/TrackPointExtension/v1">
            <gpxtpx:hr>128</gpxtpx:hr>
          </gpxtpx:TrackPointExtension>
        </extensions>
      </trkpt>
      <trkpt lat="50.58749" lon="5.23955">
        <ele>181.19999694824</ele>
        <time>2019-11-09T09:58:45.000Z</time>
        <extensions>
          <gpxtpx:TrackPointExtension xmlns:gpxtpx="http://www.garmin.com/xmlschemas/TrackPointExtension/v1">
            <gpxtpx:hr>128</gpxtpx:hr>
          </gpxtpx:TrackPointExtension>
        </extensions>
      </trkpt>
      <trkpt lat="50.58762" lon="5.23933">
        <ele>181.39999389648</ele>
        <time>2019-11-09T09:59:15.000Z</time>
        <extensions>
          <gpxtpx:TrackPointExtension xmlns:gpxtpx="http://www.garmin.com/xmlschemas/TrackPointExtension/v1">
            <gpxtpx:hr>129</gpxtpx:hr>
          </gpxtpx:TrackPointExtension>
        </extensions>
      </trkpt>
      <trkpt lat="50.58778" lon="5.23901">
        <ele>182</ele>
        <time>2019-11-09T09:59:39.000Z</time>
        <extensions>
          <gpxtpx:TrackPointExtension xmlns:gpxtpx="http://www.garmin.com/xmlschemas/TrackPointExtension/v1">
            <gpxtpx:hr>129</gpxtpx:hr>
          </gpxtpx:TrackPointExtension>
        </extensions>
      </trkpt>
      <trkpt lat="50.58808" lon="5.23835">
        <ele>182.60000610352</ele>
        <time>2019-11-09T09:59:40.000Z</time>
        <extensions>
          <gpxtpx:TrackPointExtension xmlns:gpxtpx="http://www.garmin.com/xmlschemas/TrackPointExtension/v1">
            <gpxtpx:hr>128</gpxtpx:hr>
          </gpxtpx:TrackPointExtension>
        </extensions>
      </trkpt>
      <trkpt lat="50.58816" lon="5.23819">
        <ele>182.60000610352</ele>
        <time>2019-11-09T09:59:48.000Z</time>
        <extensions>
          <gpxtpx:TrackPointExtension xmlns:gpxtpx="http://www.garmin.com/xmlschemas/TrackPointExtension/v1">
            <gpxtpx:hr>127</gpxtpx:hr>
          </gpxtpx:TrackPointExtension>
        </extensions>
      </trkpt>
      <trkpt lat="50.58836" lon="5.23781">
        <ele>182.80000305176</ele>
        <time>2019-11-09T10:00:02.000Z</time>
        <extensions>
          <gpxtpx:TrackPointExtension xmlns:gpxtpx="http://www.garmin.com/xmlschemas/TrackPointExtension/v1">
            <gpxtpx:hr>126</gpxtpx:hr>
          </gpxtpx:TrackPointExtension>
        </extensions>
      </trkpt>
      <trkpt lat="50.58846" lon="5.23769">
        <ele>183</ele>
        <time>2019-11-09T10:00:11.000Z</time>
        <extensions>
          <gpxtpx:TrackPointExtension xmlns:gpxtpx="http://www.garmin.com/xmlschemas/TrackPointExtension/v1">
            <gpxtpx:hr>126</gpxtpx:hr>
          </gpxtpx:TrackPointExtension>
        </extensions>
      </trkpt>
      <trkpt lat="50.58865" lon="5.2376">
        <ele>183.19999694824</ele>
        <time>2019-11-09T10:01:12.000Z</time>
        <extensions>
          <gpxtpx:TrackPointExtension xmlns:gpxtpx="http://www.garmin.com/xmlschemas/TrackPointExtension/v1">
            <gpxtpx:hr>125</gpxtpx:hr>
          </gpxtpx:TrackPointExtension>
        </extensions>
      </trkpt>
      <trkpt lat="50.58871" lon="5.23759">
        <ele>183.19999694824</ele>
        <time>2019-11-09T10:01:13.000Z</time>
        <extensions>
          <gpxtpx:TrackPointExtension xmlns:gpxtpx="http://www.garmin.com/xmlschemas/TrackPointExtension/v1">
            <gpxtpx:hr>125</gpxtpx:hr>
          </gpxtpx:TrackPointExtension>
        </extensions>
      </trkpt>
      <trkpt lat="50.5889" lon="5.23752">
        <ele>183.80000305176</ele>
        <time>2019-11-09T10:01:39.000Z</time>
        <extensions>
          <gpxtpx:TrackPointExtension xmlns:gpxtpx="http://www.garmin.com/xmlschemas/TrackPointExtension/v1">
            <gpxtpx:hr>125</gpxtpx:hr>
          </gpxtpx:TrackPointExtension>
        </extensions>
      </trkpt>
      <trkpt lat="50.5891" lon="5.23748">
        <ele>184.19999694824</ele>
        <time>2019-11-09T10:01:45.000Z</time>
        <extensions>
          <gpxtpx:TrackPointExtension xmlns:gpxtpx="http://www.garmin.com/xmlschemas/TrackPointExtension/v1">
            <gpxtpx:hr>124</gpxtpx:hr>
          </gpxtpx:TrackPointExtension>
        </extensions>
      </trkpt>
      <trkpt lat="50.58924" lon="5.23742">
        <ele>191</ele>
        <time>2019-11-09T10:01:47.000Z</time>
      </trkpt>
      <trkpt lat="50.58944" lon="5.23722">
        <ele>191</ele>
        <time>2019-11-09T10:01:49.000Z</time>
      </trkpt>
      <trkpt lat="50.58976" lon="5.2369">
        <ele>191</ele>
        <time>2019-11-09T10:01:54.000Z</time>
      </trkpt>
      <trkpt lat="50.58993" lon="5.23672">
        <ele>191</ele>
        <time>2019-11-09T10:01:59.000Z</time>
      </trkpt>
      <trkpt lat="50.59009" lon="5.23658">
        <ele>190.1</ele>
        <time>2019-11-09T10:02:04.000Z</time>
      </trkpt>
      <trkpt lat="50.5904" lon="5.23639">
        <ele>184.19999694824</ele>
        <time>2019-11-09T10:02:09.000Z</time>
        <extensions>
          <gpxtpx:TrackPointExtension xmlns:gpxtpx="http://www.garmin.com/xmlschemas/TrackPointExtension/v1">
            <gpxtpx:hr>122</gpxtpx:hr>
          </gpxtpx:TrackPointExtension>
        </extensions>
      </trkpt>
      <trkpt lat="50.59047" lon="5.23636">
        <ele>184.19999694824</ele>
        <time>2019-11-09T10:02:14.000Z</time>
        <extensions>
          <gpxtpx:TrackPointExtension xmlns:gpxtpx="http://www.garmin.com/xmlschemas/TrackPointExtension/v1">
            <gpxtpx:hr>121</gpxtpx:hr>
          </gpxtpx:TrackPointExtension>
        </extensions>
      </trkpt>
      <trkpt lat="50.59082" lon="5.23619">
        <ele>184</ele>
        <time>2019-11-09T10:02:15.000Z</time>
        <extensions>
          <gpxtpx:TrackPointExtension xmlns:gpxtpx="http://www.garmin.com/xmlschemas/TrackPointExtension/v1">
            <gpxtpx:hr>118</gpxtpx:hr>
          </gpxtpx:TrackPointExtension>
        </extensions>
      </trkpt>
      <trkpt lat="50.59089" lon="5.23616">
        <ele>183.80000305176</ele>
        <time>2019-11-09T10:02:21.000Z</time>
        <extensions>
          <gpxtpx:TrackPointExtension xmlns:gpxtpx="http://www.garmin.com/xmlschemas/TrackPointExtension/v1">
            <gpxtpx:hr>117</gpxtpx:hr>
          </gpxtpx:TrackPointExtension>
        </extensions>
      </trkpt>
      <trkpt lat="50.59112" lon="5.23607">
        <ele>182.80000305176</ele>
        <time>2019-11-09T10:02:22.000Z</time>
        <extensions>
          <gpxtpx:TrackPointExtension xmlns:gpxtpx="http://www.garmin.com/xmlschemas/TrackPointExtension/v1">
            <gpxtpx:hr>114</gpxtpx:hr>
          </gpxtpx:TrackPointExtension>
        </extensions>
      </trkpt>
      <trkpt lat="50.59119" lon="5.23605">
        <ele>182.60000610352</ele>
        <time>2019-11-09T10:02:24.000Z</time>
        <extensions>
          <gpxtpx:TrackPointExtension xmlns:gpxtpx="http://www.garmin.com/xmlschemas/TrackPointExtension/v1">
            <gpxtpx:hr>113</gpxtpx:hr>
          </gpxtpx:TrackPointExtension>
        </extensions>
      </trkpt>
      <trkpt lat="50.59136" lon="5.236">
        <ele>182</ele>
        <time>2019-11-09T10:02:30.000Z</time>
        <extensions>
          <gpxtpx:TrackPointExtension xmlns:gpxtpx="http://www.garmin.com/xmlschemas/TrackPointExtension/v1">
            <gpxtpx:hr>111</gpxtpx:hr>
          </gpxtpx:TrackPointExtension>
        </extensions>
      </trkpt>
      <trkpt lat="50.59144" lon="5.23597">
        <ele>181.60000610352</ele>
        <time>2019-11-09T10:02:36.000Z</time>
        <extensions>
          <gpxtpx:TrackPointExtension xmlns:gpxtpx="http://www.garmin.com/xmlschemas/TrackPointExtension/v1">
            <gpxtpx:hr>110</gpxtpx:hr>
          </gpxtpx:TrackPointExtension>
        </extensions>
      </trkpt>
      <trkpt lat="50.59167" lon="5.23586">
        <ele>180.60000610352</ele>
        <time>2019-11-09T10:02:39.000Z</time>
        <extensions>
          <gpxtpx:TrackPointExtension xmlns:gpxtpx="http://www.garmin.com/xmlschemas/TrackPointExtension/v1">
            <gpxtpx:hr>106</gpxtpx:hr>
          </gpxtpx:TrackPointExtension>
        </extensions>
      </trkpt>
      <trkpt lat="50.59176" lon="5.23583">
        <ele>179.80000305176</ele>
        <time>2019-11-09T10:02:45.000Z</time>
        <extensions>
          <gpxtpx:TrackPointExtension xmlns:gpxtpx="http://www.garmin.com/xmlschemas/TrackPointExtension/v1">
            <gpxtpx:hr>104</gpxtpx:hr>
          </gpxtpx:TrackPointExtension>
        </extensions>
      </trkpt>
      <trkpt lat="50.59184" lon="5.2358">
        <ele>179.39999389648</ele>
        <time>2019-11-09T10:02:47.000Z</time>
        <extensions>
          <gpxtpx:TrackPointExtension xmlns:gpxtpx="http://www.garmin.com/xmlschemas/TrackPointExtension/v1">
            <gpxtpx:hr>102</gpxtpx:hr>
          </gpxtpx:TrackPointExtension>
        </extensions>
      </trkpt>
      <trkpt lat="50.592" lon="5.23575">
        <ele>178.80000305176</ele>
        <time>2019-11-09T10:02:53.000Z</time>
        <extensions>
          <gpxtpx:TrackPointExtension xmlns:gpxtpx="http://www.garmin.com/xmlschemas/TrackPointExtension/v1">
            <gpxtpx:hr>99</gpxtpx:hr>
          </gpxtpx:TrackPointExtension>
        </extensions>
      </trkpt>
      <trkpt lat="50.59217" lon="5.23569">
        <ele>178</ele>
        <time>2019-11-09T10:02:58.000Z</time>
        <extensions>
          <gpxtpx:TrackPointExtension xmlns:gpxtpx="http://www.garmin.com/xmlschemas/TrackPointExtension/v1">
            <gpxtpx:hr>98</gpxtpx:hr>
          </gpxtpx:TrackPointExtension>
        </extensions>
      </trkpt>
      <trkpt lat="50.59241" lon="5.2356">
        <ele>177</ele>
        <time>2019-11-09T10:03:00.000Z</time>
        <extensions>
          <gpxtpx:TrackPointExtension xmlns:gpxtpx="http://www.garmin.com/xmlschemas/TrackPointExtension/v1">
            <gpxtpx:hr>100</gpxtpx:hr>
          </gpxtpx:TrackPointExtension>
        </extensions>
      </trkpt>
      <trkpt lat="50.59249" lon="5.23557">
        <ele>177</ele>
        <time>2019-11-09T10:03:01.000Z</time>
        <extensions>
          <gpxtpx:TrackPointExtension xmlns:gpxtpx="http://www.garmin.com/xmlschemas/TrackPointExtension/v1">
            <gpxtpx:hr>100</gpxtpx:hr>
          </gpxtpx:TrackPointExtension>
        </extensions>
      </trkpt>
      <trkpt lat="50.59285" lon="5.23543">
        <ele>175.39999389648</ele>
        <time>2019-11-09T10:03:04.000Z</time>
        <extensions>
          <gpxtpx:TrackPointExtension xmlns:gpxtpx="http://www.garmin.com/xmlschemas/TrackPointExtension/v1">
            <gpxtpx:hr>98</gpxtpx:hr>
          </gpxtpx:TrackPointExtension>
        </extensions>
      </trkpt>
      <trkpt lat="50.59302" lon="5.23537">
        <ele>174.80000305176</ele>
        <time>2019-11-09T10:03:05.000Z</time>
        <extensions>
          <gpxtpx:TrackPointExtension xmlns:gpxtpx="http://www.garmin.com/xmlschemas/TrackPointExtension/v1">
            <gpxtpx:hr>95</gpxtpx:hr>
          </gpxtpx:TrackPointExtension>
        </extensions>
      </trkpt>
      <trkpt lat="50.59316" lon="5.23534">
        <ele>174</ele>
        <time>2019-11-09T10:03:07.000Z</time>
        <extensions>
          <gpxtpx:TrackPointExtension xmlns:gpxtpx="http://www.garmin.com/xmlschemas/TrackPointExtension/v1">
            <gpxtpx:hr>90</gpxtpx:hr>
          </gpxtpx:TrackPointExtension>
        </extensions>
      </trkpt>
      <trkpt lat="50.59338" lon="5.2353">
        <ele>173</ele>
        <time>2019-11-09T10:03:09.000Z</time>
      </trkpt>
      <trkpt lat="50.59351" lon="5.23531">
        <ele>172.8</ele>
        <time>2019-11-09T10:03:10.000Z</time>
      </trkpt>
      <trkpt lat="50.59377" lon="5.2353">
        <ele>172.60000610352</ele>
        <time>2019-11-09T10:03:11.000Z</time>
        <extensions>
          <gpxtpx:TrackPointExtension xmlns:gpxtpx="http://www.garmin.com/xmlschemas/TrackPointExtension/v1">
            <gpxtpx:hr>99</gpxtpx:hr>
          </gpxtpx:TrackPointExtension>
        </extensions>
      </trkpt>
      <trkpt lat="50.5939" lon="5.23532">
        <ele>171.80000305176</ele>
        <time>2019-11-09T10:03:13.000Z</time>
        <extensions>
          <gpxtpx:TrackPointExtension xmlns:gpxtpx="http://www.garmin.com/xmlschemas/TrackPointExtension/v1">
            <gpxtpx:hr>96</gpxtpx:hr>
          </gpxtpx:TrackPointExtension>
        </extensions>
      </trkpt>
      <trkpt lat="50.59404" lon="5.23532">
        <ele>171.19999694824</ele>
        <time>2019-11-09T10:03:14.000Z</time>
        <extensions>
          <gpxtpx:TrackPointExtension xmlns:gpxtpx="http://www.garmin.com/xmlschemas/TrackPointExtension/v1">
            <gpxtpx:hr>95</gpxtpx:hr>
          </gpxtpx:TrackPointExtension>
        </extensions>
      </trkpt>
      <trkpt lat="50.59417" lon="5.23531">
        <ele>170.39999389648</ele>
        <time>2019-11-09T10:03:17.000Z</time>
        <extensions>
          <gpxtpx:TrackPointExtension xmlns:gpxtpx="http://www.garmin.com/xmlschemas/TrackPointExtension/v1">
            <gpxtpx:hr>93</gpxtpx:hr>
          </gpxtpx:TrackPointExtension>
        </extensions>
      </trkpt>
      <trkpt lat="50.59424" lon="5.2353">
        <ele>170.19999694824</ele>
        <time>2019-11-09T10:03:20.000Z</time>
        <extensions>
          <gpxtpx:TrackPointExtension xmlns:gpxtpx="http://www.garmin.com/xmlschemas/TrackPointExtension/v1">
            <gpxtpx:hr>92</gpxtpx:hr>
          </gpxtpx:TrackPointExtension>
        </extensions>
      </trkpt>
      <trkpt lat="50.59451" lon="5.23523">
        <ele>168.80000305176</ele>
        <time>2019-11-09T10:03:28.000Z</time>
        <extensions>
          <gpxtpx:TrackPointExtension xmlns:gpxtpx="http://www.garmin.com/xmlschemas/TrackPointExtension/v1">
            <gpxtpx:hr>91</gpxtpx:hr>
          </gpxtpx:TrackPointExtension>
        </extensions>
      </trkpt>
      <trkpt lat="50.59479" lon="5.23512">
        <ele>167.80000305176</ele>
        <time>2019-11-09T10:03:37.000Z</time>
        <extensions>
          <gpxtpx:TrackPointExtension xmlns:gpxtpx="http://www.garmin.com/xmlschemas/TrackPointExtension/v1">
            <gpxtpx:hr>92</gpxtpx:hr>
          </gpxtpx:TrackPointExtension>
        </extensions>
      </trkpt>
      <trkpt lat="50.59492" lon="5.23505">
        <ele>167.39999389648</ele>
        <time>2019-11-09T10:03:53.000Z</time>
        <extensions>
          <gpxtpx:TrackPointExtension xmlns:gpxtpx="http://www.garmin.com/xmlschemas/TrackPointExtension/v1">
            <gpxtpx:hr>91</gpxtpx:hr>
          </gpxtpx:TrackPointExtension>
        </extensions>
      </trkpt>
      <trkpt lat="50.59512" lon="5.23494">
        <ele>171.1</ele>
        <time>2019-11-09T10:04:00.000Z</time>
      </trkpt>
      <trkpt lat="50.59526" lon="5.23482">
        <ele>166.60000610352</ele>
        <time>2019-11-09T10:04:04.000Z</time>
        <extensions>
          <gpxtpx:TrackPointExtension xmlns:gpxtpx="http://www.garmin.com/xmlschemas/TrackPointExtension/v1">
            <gpxtpx:hr>92</gpxtpx:hr>
          </gpxtpx:TrackPointExtension>
        </extensions>
      </trkpt>
      <trkpt lat="50.59533" lon="5.23476">
        <ele>166.39999389648</ele>
        <time>2019-11-09T10:04:08.000Z</time>
        <extensions>
          <gpxtpx:TrackPointExtension xmlns:gpxtpx="http://www.garmin.com/xmlschemas/TrackPointExtension/v1">
            <gpxtpx:hr>93</gpxtpx:hr>
          </gpxtpx:TrackPointExtension>
        </extensions>
      </trkpt>
      <trkpt lat="50.59551" lon="5.23459">
        <ele>166.19999694824</ele>
        <time>2019-11-09T10:04:09.000Z</time>
        <extensions>
          <gpxtpx:TrackPointExtension xmlns:gpxtpx="http://www.garmin.com/xmlschemas/TrackPointExtension/v1">
            <gpxtpx:hr>96</gpxtpx:hr>
          </gpxtpx:TrackPointExtension>
        </extensions>
      </trkpt>
      <trkpt lat="50.59562" lon="5.2345">
        <ele>166.19999694824</ele>
        <time>2019-11-09T10:04:14.000Z</time>
        <extensions>
          <gpxtpx:TrackPointExtension xmlns:gpxtpx="http://www.garmin.com/xmlschemas/TrackPointExtension/v1">
            <gpxtpx:hr>99</gpxtpx:hr>
          </gpxtpx:TrackPointExtension>
        </extensions>
      </trkpt>
      <trkpt lat="50.59573" lon="5.23441">
        <ele>166.19999694824</ele>
        <time>2019-11-09T10:04:17.000Z</time>
        <extensions>
          <gpxtpx:TrackPointExtension xmlns:gpxtpx="http://www.garmin.com/xmlschemas/TrackPointExtension/v1">
            <gpxtpx:hr>102</gpxtpx:hr>
          </gpxtpx:TrackPointExtension>
        </extensions>
      </trkpt>
      <trkpt lat="50.59589" lon="5.23431">
        <ele>166.19999694824</ele>
        <time>2019-11-09T10:04:18.000Z</time>
        <extensions>
          <gpxtpx:TrackPointExtension xmlns:gpxtpx="http://www.garmin.com/xmlschemas/TrackPointExtension/v1">
            <gpxtpx:hr>106</gpxtpx:hr>
          </gpxtpx:TrackPointExtension>
        </extensions>
      </trkpt>
      <trkpt lat="50.59609" lon="5.23419">
        <ele>166.39999389648</ele>
        <time>2019-11-09T10:04:22.000Z</time>
        <extensions>
          <gpxtpx:TrackPointExtension xmlns:gpxtpx="http://www.garmin.com/xmlschemas/TrackPointExtension/v1">
            <gpxtpx:hr>109</gpxtpx:hr>
          </gpxtpx:TrackPointExtension>
        </extensions>
      </trkpt>
      <trkpt lat="50.59614" lon="5.23416">
        <ele>167.39999389648</ele>
        <time>2019-11-09T10:04:25.000Z</time>
        <extensions>
          <gpxtpx:TrackPointExtension xmlns:gpxtpx="http://www.garmin.com/xmlschemas/TrackPointExtension/v1">
            <gpxtpx:hr>110</gpxtpx:hr>
          </gpxtpx:TrackPointExtension>
        </extensions>
      </trkpt>
      <trkpt lat="50.59618" lon="5.23413">
        <ele>168.19999694824</ele>
        <time>2019-11-09T10:05:34.000Z</time>
        <extensions>
          <gpxtpx:TrackPointExtension xmlns:gpxtpx="http://www.garmin.com/xmlschemas/TrackPointExtension/v1">
            <gpxtpx:hr>111</gpxtpx:hr>
          </gpxtpx:TrackPointExtension>
        </extensions>
      </trkpt>
      <trkpt lat="50.59626" lon="5.23407">
        <ele>169.39999389648</ele>
        <time>2019-11-09T10:06:32.000Z</time>
        <extensions>
          <gpxtpx:TrackPointExtension xmlns:gpxtpx="http://www.garmin.com/xmlschemas/TrackPointExtension/v1">
            <gpxtpx:hr>112</gpxtpx:hr>
          </gpxtpx:TrackPointExtension>
        </extensions>
      </trkpt>
      <trkpt lat="50.59636" lon="5.23395">
        <ele>170</ele>
        <time>2019-11-09T10:08:03.000Z</time>
        <extensions>
          <gpxtpx:TrackPointExtension xmlns:gpxtpx="http://www.garmin.com/xmlschemas/TrackPointExtension/v1">
            <gpxtpx:hr>113</gpxtpx:hr>
          </gpxtpx:TrackPointExtension>
        </extensions>
      </trkpt>
      <trkpt lat="50.59639" lon="5.23391">
        <ele>170.80000305176</ele>
        <time>2019-11-09T10:08:10.000Z</time>
        <extensions>
          <gpxtpx:TrackPointExtension xmlns:gpxtpx="http://www.garmin.com/xmlschemas/TrackPointExtension/v1">
            <gpxtpx:hr>114</gpxtpx:hr>
          </gpxtpx:TrackPointExtension>
        </extensions>
      </trkpt>
      <trkpt lat="50.59643" lon="5.23387">
        <ele>171.19999694824</ele>
        <time>2019-11-09T10:09:53.000Z</time>
        <extensions>
          <gpxtpx:TrackPointExtension xmlns:gpxtpx="http://www.garmin.com/xmlschemas/TrackPointExtension/v1">
            <gpxtpx:hr>114</gpxtpx:hr>
          </gpxtpx:TrackPointExtension>
        </extensions>
      </trkpt>
      <trkpt lat="50.59648" lon="5.23377">
        <ele>171.80000305176</ele>
        <time>2019-11-09T10:09:56.000Z</time>
        <extensions>
          <gpxtpx:TrackPointExtension xmlns:gpxtpx="http://www.garmin.com/xmlschemas/TrackPointExtension/v1">
            <gpxtpx:hr>115</gpxtpx:hr>
          </gpxtpx:TrackPointExtension>
        </extensions>
      </trkpt>
      <trkpt lat="50.59654" lon="5.23366">
        <ele>172.19999694824</ele>
        <time>2019-11-09T10:10:01.000Z</time>
        <extensions>
          <gpxtpx:TrackPointExtension xmlns:gpxtpx="http://www.garmin.com/xmlschemas/TrackPointExtension/v1">
            <gpxtpx:hr>116</gpxtpx:hr>
          </gpxtpx:TrackPointExtension>
        </extensions>
      </trkpt>
      <trkpt lat="50.59665" lon="5.23342">
        <ele>171.5</ele>
        <time>2019-11-09T10:10:03.000Z</time>
      </trkpt>
      <trkpt lat="50.59663" lon="5.23329">
        <ele>170.8</ele>
        <time>2019-11-09T10:10:06.000Z</time>
      </trkpt>
      <trkpt lat="50.59659" lon="5.23308">
        <ele>170.2</ele>
        <time>2019-11-09T10:10:11.000Z</time>
      </trkpt>
      <trkpt lat="50.5966" lon="5.23291">
        <ele>169.6</ele>
        <time>2019-11-09T10:10:13.000Z</time>
      </trkpt>
      <trkpt lat="50.59665" lon="5.23282">
        <ele>171</ele>
        <time>2019-11-09T10:10:15.000Z</time>
        <extensions>
          <gpxtpx:TrackPointExtension xmlns:gpxtpx="http://www.garmin.com/xmlschemas/TrackPointExtension/v1">
            <gpxtpx:hr>112</gpxtpx:hr>
          </gpxtpx:TrackPointExtension>
        </extensions>
      </trkpt>
      <trkpt lat="50.59675" lon="5.23275">
        <ele>169.80000305176</ele>
        <time>2019-11-09T10:10:19.000Z</time>
        <extensions>
          <gpxtpx:TrackPointExtension xmlns:gpxtpx="http://www.garmin.com/xmlschemas/TrackPointExtension/v1">
            <gpxtpx:hr>111</gpxtpx:hr>
          </gpxtpx:TrackPointExtension>
        </extensions>
      </trkpt>
      <trkpt lat="50.59681" lon="5.23273">
        <ele>168.80000305176</ele>
        <time>2019-11-09T10:10:20.000Z</time>
        <extensions>
          <gpxtpx:TrackPointExtension xmlns:gpxtpx="http://www.garmin.com/xmlschemas/TrackPointExtension/v1">
            <gpxtpx:hr>110</gpxtpx:hr>
          </gpxtpx:TrackPointExtension>
        </extensions>
      </trkpt>
      <trkpt lat="50.59686" lon="5.23274">
        <ele>168.19999694824</ele>
        <time>2019-11-09T10:10:36.000Z</time>
        <extensions>
          <gpxtpx:TrackPointExtension xmlns:gpxtpx="http://www.garmin.com/xmlschemas/TrackPointExtension/v1">
            <gpxtpx:hr>109</gpxtpx:hr>
          </gpxtpx:TrackPointExtension>
        </extensions>
      </trkpt>
      <trkpt lat="50.59697" lon="5.23279">
        <ele>166.80000305176</ele>
        <time>2019-11-09T10:10:37.000Z</time>
        <extensions>
          <gpxtpx:TrackPointExtension xmlns:gpxtpx="http://www.garmin.com/xmlschemas/TrackPointExtension/v1">
            <gpxtpx:hr>107</gpxtpx:hr>
          </gpxtpx:TrackPointExtension>
        </extensions>
      </trkpt>
      <trkpt lat="50.59702" lon="5.23281">
        <ele>166.39999389648</ele>
        <time>2019-11-09T10:10:39.000Z</time>
        <extensions>
          <gpxtpx:TrackPointExtension xmlns:gpxtpx="http://www.garmin.com/xmlschemas/TrackPointExtension/v1">
            <gpxtpx:hr>107</gpxtpx:hr>
          </gpxtpx:TrackPointExtension>
        </extensions>
      </trkpt>
      <trkpt lat="50.59706" lon="5.23282">
        <ele>165.80000305176</ele>
        <time>2019-11-09T10:10:41.000Z</time>
        <extensions>
          <gpxtpx:TrackPointExtension xmlns:gpxtpx="http://www.garmin.com/xmlschemas/TrackPointExtension/v1">
            <gpxtpx:hr>106</gpxtpx:hr>
          </gpxtpx:TrackPointExtension>
        </extensions>
      </trkpt>
      <trkpt lat="50.59711" lon="5.23282">
        <ele>164.80000305176</ele>
        <time>2019-11-09T10:10:42.000Z</time>
        <extensions>
          <gpxtpx:TrackPointExtension xmlns:gpxtpx="http://www.garmin.com/xmlschemas/TrackPointExtension/v1">
            <gpxtpx:hr>105</gpxtpx:hr>
          </gpxtpx:TrackPointExtension>
        </extensions>
      </trkpt>
      <trkpt lat="50.59718" lon="5.23278">
        <ele>163.19999694824</ele>
        <time>2019-11-09T10:10:45.000Z</time>
        <extensions>
          <gpxtpx:TrackPointExtension xmlns:gpxtpx="http://www.garmin.com/xmlschemas/TrackPointExtension/v1">
            <gpxtpx:hr>103</gpxtpx:hr>
          </gpxtpx:TrackPointExtension>
        </extensions>
      </trkpt>
      <trkpt lat="50.59724" lon="5.23272">
        <ele>162</ele>
        <time>2019-11-09T10:10:48.000Z</time>
        <extensions>
          <gpxtpx:TrackPointExtension xmlns:gpxtpx="http://www.garmin.com/xmlschemas/TrackPointExtension/v1">
            <gpxtpx:hr>101</gpxtpx:hr>
          </gpxtpx:TrackPointExtension>
        </extensions>
      </trkpt>
      <trkpt lat="50.59733" lon="5.23262">
        <ele>162.9</ele>
        <time>2019-11-09T10:10:53.000Z</time>
      </trkpt>
      <trkpt lat="50.59723" lon="5.23247">
        <ele>162</ele>
        <time>2019-11-09T10:10:57.000Z</time>
      </trkpt>
      <trkpt lat="50.59714" lon="5.23233">
        <ele>162.5</ele>
        <time>2019-11-09T10:11:05.000Z</time>
      </trkpt>
      <trkpt lat="50.59706" lon="5.23222">
        <ele>162.7</ele>
        <time>2019-11-09T10:11:06.000Z</time>
      </trkpt>
      <trkpt lat="50.59695" lon="5.23202">
        <ele>162.8</ele>
        <time>2019-11-09T10:11:10.000Z</time>
      </trkpt>
      <trkpt lat="50.5968" lon="5.23172">
        <ele>156.60000610352</ele>
        <time>2019-11-09T10:11:12.000Z</time>
        <extensions>
          <gpxtpx:TrackPointExtension xmlns:gpxtpx="http://www.garmin.com/xmlschemas/TrackPointExtension/v1">
            <gpxtpx:hr>109</gpxtpx:hr>
          </gpxtpx:TrackPointExtension>
        </extensions>
      </trkpt>
      <trkpt lat="50.5967" lon="5.23154">
        <ele>163</ele>
        <time>2019-11-09T10:11:15.000Z</time>
      </trkpt>
      <trkpt lat="50.59664" lon="5.23135">
        <ele>164.6</ele>
        <time>2019-11-09T10:11:16.000Z</time>
      </trkpt>
      <trkpt lat="50.59654" lon="5.23108">
        <ele>165.1</ele>
        <time>2019-11-09T10:11:20.000Z</time>
      </trkpt>
      <trkpt lat="50.5965" lon="5.23083">
        <ele>156.19999694824</ele>
        <time>2019-11-09T10:11:22.000Z</time>
        <extensions>
          <gpxtpx:TrackPointExtension xmlns:gpxtpx="http://www.garmin.com/xmlschemas/TrackPointExtension/v1">
            <gpxtpx:hr>116</gpxtpx:hr>
          </gpxtpx:TrackPointExtension>
        </extensions>
      </trkpt>
      <trkpt lat="50.59647" lon="5.23057">
        <ele>156.80000305176</ele>
        <time>2019-11-09T10:11:28.000Z</time>
        <extensions>
          <gpxtpx:TrackPointExtension xmlns:gpxtpx="http://www.garmin.com/xmlschemas/TrackPointExtension/v1">
            <gpxtpx:hr>118</gpxtpx:hr>
          </gpxtpx:TrackPointExtension>
        </extensions>
      </trkpt>
      <trkpt lat="50.59644" lon="5.23032">
        <ele>157.39999389648</ele>
        <time>2019-11-09T10:11:29.000Z</time>
        <extensions>
          <gpxtpx:TrackPointExtension xmlns:gpxtpx="http://www.garmin.com/xmlschemas/TrackPointExtension/v1">
            <gpxtpx:hr>121</gpxtpx:hr>
          </gpxtpx:TrackPointExtension>
        </extensions>
      </trkpt>
      <trkpt lat="50.59642" lon="5.23024">
        <ele>158.19999694824</ele>
        <time>2019-11-09T10:11:34.000Z</time>
        <extensions>
          <gpxtpx:TrackPointExtension xmlns:gpxtpx="http://www.garmin.com/xmlschemas/TrackPointExtension/v1">
            <gpxtpx:hr>121</gpxtpx:hr>
          </gpxtpx:TrackPointExtension>
        </extensions>
      </trkpt>
      <trkpt lat="50.59639" lon="5.23008">
        <ele>159.60000610352</ele>
        <time>2019-11-09T10:11:42.000Z</time>
        <extensions>
          <gpxtpx:TrackPointExtension xmlns:gpxtpx="http://www.garmin.com/xmlschemas/TrackPointExtension/v1">
            <gpxtpx:hr>123</gpxtpx:hr>
          </gpxtpx:TrackPointExtension>
        </extensions>
      </trkpt>
      <trkpt lat="50.59637" lon="5.23">
        <ele>160</ele>
        <time>2019-11-09T10:11:44.000Z</time>
        <extensions>
          <gpxtpx:TrackPointExtension xmlns:gpxtpx="http://www.garmin.com/xmlschemas/TrackPointExtension/v1">
            <gpxtpx:hr>124</gpxtpx:hr>
          </gpxtpx:TrackPointExtension>
        </extensions>
      </trkpt>
      <trkpt lat="50.5963" lon="5.22983">
        <ele>168</ele>
        <time>2019-11-09T10:11:47.000Z</time>
      </trkpt>
      <trkpt lat="50.59622" lon="5.22954">
        <ele>168</ele>
        <time>2019-11-09T10:11:49.000Z</time>
      </trkpt>
      <trkpt lat="50.59611" lon="5.22921">
        <ele>167.9</ele>
        <time>2019-11-09T10:11:53.000Z</time>
      </trkpt>
      <trkpt lat="50.59597" lon="5.22886">
        <ele>167.5</ele>
        <time>2019-11-09T10:11:59.000Z</time>
      </trkpt>
      <trkpt lat="50.59582" lon="5.22865">
        <ele>168.6</ele>
        <time>2019-11-09T10:12:07.000Z</time>
      </trkpt>
      <trkpt lat="50.59566" lon="5.22839">
        <ele>164.19999694824</ele>
        <time>2019-11-09T10:12:10.000Z</time>
        <extensions>
          <gpxtpx:TrackPointExtension xmlns:gpxtpx="http://www.garmin.com/xmlschemas/TrackPointExtension/v1">
            <gpxtpx:hr>129</gpxtpx:hr>
          </gpxtpx:TrackPointExtension>
        </extensions>
      </trkpt>
      <trkpt lat="50.59531" lon="5.22792">
        <ele>164.39999389648</ele>
        <time>2019-11-09T10:12:12.000Z</time>
        <extensions>
          <gpxtpx:TrackPointExtension xmlns:gpxtpx="http://www.garmin.com/xmlschemas/TrackPointExtension/v1">
            <gpxtpx:hr>126</gpxtpx:hr>
          </gpxtpx:TrackPointExtension>
        </extensions>
      </trkpt>
      <trkpt lat="50.59513" lon="5.22768">
        <ele>168.9</ele>
        <time>2019-11-09T10:12:13.000Z</time>
      </trkpt>
      <trkpt lat="50.59526" lon="5.22751">
        <ele>164.60000610352</ele>
        <time>2019-11-09T10:12:16.000Z</time>
        <extensions>
          <gpxtpx:TrackPointExtension xmlns:gpxtpx="http://www.garmin.com/xmlschemas/TrackPointExtension/v1">
            <gpxtpx:hr>123</gpxtpx:hr>
          </gpxtpx:TrackPointExtension>
        </extensions>
      </trkpt>
      <trkpt lat="50.59534" lon="5.22741">
        <ele>164.60000610352</ele>
        <time>2019-11-09T10:12:20.000Z</time>
        <extensions>
          <gpxtpx:TrackPointExtension xmlns:gpxtpx="http://www.garmin.com/xmlschemas/TrackPointExtension/v1">
            <gpxtpx:hr>122</gpxtpx:hr>
          </gpxtpx:TrackPointExtension>
        </extensions>
      </trkpt>
      <trkpt lat="50.59548" lon="5.22725">
        <ele>164.19999694824</ele>
        <time>2019-11-09T10:12:24.000Z</time>
        <extensions>
          <gpxtpx:TrackPointExtension xmlns:gpxtpx="http://www.garmin.com/xmlschemas/TrackPointExtension/v1">
            <gpxtpx:hr>118</gpxtpx:hr>
          </gpxtpx:TrackPointExtension>
        </extensions>
      </trkpt>
      <trkpt lat="50.59552" lon="5.22719">
        <ele>164.19999694824</ele>
        <time>2019-11-09T10:12:28.000Z</time>
        <extensions>
          <gpxtpx:TrackPointExtension xmlns:gpxtpx="http://www.garmin.com/xmlschemas/TrackPointExtension/v1">
            <gpxtpx:hr>117</gpxtpx:hr>
          </gpxtpx:TrackPointExtension>
        </extensions>
      </trkpt>
      <trkpt lat="50.59567" lon="5.227">
        <ele>163.80000305176</ele>
        <time>2019-11-09T10:12:29.000Z</time>
        <extensions>
          <gpxtpx:TrackPointExtension xmlns:gpxtpx="http://www.garmin.com/xmlschemas/TrackPointExtension/v1">
            <gpxtpx:hr>114</gpxtpx:hr>
          </gpxtpx:TrackPointExtension>
        </extensions>
      </trkpt>
      <trkpt lat="50.59581" lon="5.22686">
        <ele>166.5</ele>
        <time>2019-11-09T10:12:32.000Z</time>
      </trkpt>
      <trkpt lat="50.59591" lon="5.22671">
        <ele>166.2</ele>
        <time>2019-11-09T10:12:36.000Z</time>
      </trkpt>
      <trkpt lat="50.59602" lon="5.22657">
        <ele>165.6</ele>
        <time>2019-11-09T10:12:37.000Z</time>
      </trkpt>
      <trkpt lat="50.5962" lon="5.22621">
        <ele>161.39999389648</ele>
        <time>2019-11-09T10:12:43.000Z</time>
        <extensions>
          <gpxtpx:TrackPointExtension xmlns:gpxtpx="http://www.garmin.com/xmlschemas/TrackPointExtension/v1">
            <gpxtpx:hr>110</gpxtpx:hr>
          </gpxtpx:TrackPointExtension>
        </extensions>
      </trkpt>
      <trkpt lat="50.59637" lon="5.22589">
        <ele>161.19999694824</ele>
        <time>2019-11-09T10:12:44.000Z</time>
        <extensions>
          <gpxtpx:TrackPointExtension xmlns:gpxtpx="http://www.garmin.com/xmlschemas/TrackPointExtension/v1">
            <gpxtpx:hr>107</gpxtpx:hr>
          </gpxtpx:TrackPointExtension>
        </extensions>
      </trkpt>
      <trkpt lat="50.59645" lon="5.22572">
        <ele>161</ele>
        <time>2019-11-09T10:12:48.000Z</time>
        <extensions>
          <gpxtpx:TrackPointExtension xmlns:gpxtpx="http://www.garmin.com/xmlschemas/TrackPointExtension/v1">
            <gpxtpx:hr>104</gpxtpx:hr>
          </gpxtpx:TrackPointExtension>
        </extensions>
      </trkpt>
      <trkpt lat="50.59652" lon="5.22555">
        <ele>160.80000305176</ele>
        <time>2019-11-09T10:12:58.000Z</time>
        <extensions>
          <gpxtpx:TrackPointExtension xmlns:gpxtpx="http://www.garmin.com/xmlschemas/TrackPointExtension/v1">
            <gpxtpx:hr>103</gpxtpx:hr>
          </gpxtpx:TrackPointExtension>
        </extensions>
      </trkpt>
      <trkpt lat="50.59667" lon="5.22513">
        <ele>160.39999389648</ele>
        <time>2019-11-09T10:13:01.000Z</time>
        <extensions>
          <gpxtpx:TrackPointExtension xmlns:gpxtpx="http://www.garmin.com/xmlschemas/TrackPointExtension/v1">
            <gpxtpx:hr>101</gpxtpx:hr>
          </gpxtpx:TrackPointExtension>
        </extensions>
      </trkpt>
      <trkpt lat="50.5967" lon="5.22494">
        <ele>160.19999694824</ele>
        <time>2019-11-09T10:13:03.000Z</time>
        <extensions>
          <gpxtpx:TrackPointExtension xmlns:gpxtpx="http://www.garmin.com/xmlschemas/TrackPointExtension/v1">
            <gpxtpx:hr>102</gpxtpx:hr>
          </gpxtpx:TrackPointExtension>
        </extensions>
      </trkpt>
      <trkpt lat="50.59671" lon="5.22475">
        <ele>159.80000305176</ele>
        <time>2019-11-09T10:13:08.000Z</time>
        <extensions>
          <gpxtpx:TrackPointExtension xmlns:gpxtpx="http://www.garmin.com/xmlschemas/TrackPointExtension/v1">
            <gpxtpx:hr>99</gpxtpx:hr>
          </gpxtpx:TrackPointExtension>
        </extensions>
      </trkpt>
      <trkpt lat="50.59671" lon="5.22465">
        <ele>159.80000305176</ele>
        <time>2019-11-09T10:13:12.000Z</time>
        <extensions>
          <gpxtpx:TrackPointExtension xmlns:gpxtpx="http://www.garmin.com/xmlschemas/TrackPointExtension/v1">
            <gpxtpx:hr>98</gpxtpx:hr>
          </gpxtpx:TrackPointExtension>
        </extensions>
      </trkpt>
      <trkpt lat="50.59671" lon="5.22444">
        <ele>159.60000610352</ele>
        <time>2019-11-09T10:13:13.000Z</time>
        <extensions>
          <gpxtpx:TrackPointExtension xmlns:gpxtpx="http://www.garmin.com/xmlschemas/TrackPointExtension/v1">
            <gpxtpx:hr>96</gpxtpx:hr>
          </gpxtpx:TrackPointExtension>
        </extensions>
      </trkpt>
      <trkpt lat="50.5967" lon="5.22425">
        <ele>159.19999694824</ele>
        <time>2019-11-09T10:13:14.000Z</time>
        <extensions>
          <gpxtpx:TrackPointExtension xmlns:gpxtpx="http://www.garmin.com/xmlschemas/TrackPointExtension/v1">
            <gpxtpx:hr>93</gpxtpx:hr>
          </gpxtpx:TrackPointExtension>
        </extensions>
      </trkpt>
      <trkpt lat="50.59671" lon="5.22398">
        <ele>158.80000305176</ele>
        <time>2019-11-09T10:13:17.000Z</time>
        <extensions>
          <gpxtpx:TrackPointExtension xmlns:gpxtpx="http://www.garmin.com/xmlschemas/TrackPointExtension/v1">
            <gpxtpx:hr>93</gpxtpx:hr>
          </gpxtpx:TrackPointExtension>
        </extensions>
      </trkpt>
      <trkpt lat="50.59671" lon="5.22379">
        <ele>158.19999694824</ele>
        <time>2019-11-09T10:13:21.000Z</time>
        <extensions>
          <gpxtpx:TrackPointExtension xmlns:gpxtpx="http://www.garmin.com/xmlschemas/TrackPointExtension/v1">
            <gpxtpx:hr>90</gpxtpx:hr>
          </gpxtpx:TrackPointExtension>
        </extensions>
      </trkpt>
      <trkpt lat="50.59665" lon="5.22354">
        <ele>159.2</ele>
        <time>2019-11-09T10:13:27.000Z</time>
      </trkpt>
      <trkpt lat="50.59658" lon="5.22334">
        <ele>156</ele>
        <time>2019-11-09T10:13:31.000Z</time>
        <extensions>
          <gpxtpx:TrackPointExtension xmlns:gpxtpx="http://www.garmin.com/xmlschemas/TrackPointExtension/v1">
            <gpxtpx:hr>84</gpxtpx:hr>
          </gpxtpx:TrackPointExtension>
        </extensions>
      </trkpt>
      <trkpt lat="50.59646" lon="5.22305">
        <ele>154.80000305176</ele>
        <time>2019-11-09T10:13:37.000Z</time>
        <extensions>
          <gpxtpx:TrackPointExtension xmlns:gpxtpx="http://www.garmin.com/xmlschemas/TrackPointExtension/v1">
            <gpxtpx:hr>82</gpxtpx:hr>
          </gpxtpx:TrackPointExtension>
        </extensions>
      </trkpt>
      <trkpt lat="50.59642" lon="5.22295">
        <ele>154.39999389648</ele>
        <time>2019-11-09T10:13:43.000Z</time>
        <extensions>
          <gpxtpx:TrackPointExtension xmlns:gpxtpx="http://www.garmin.com/xmlschemas/TrackPointExtension/v1">
            <gpxtpx:hr>83</gpxtpx:hr>
          </gpxtpx:TrackPointExtension>
        </extensions>
      </trkpt>
      <trkpt lat="50.59635" lon="5.22275">
        <ele>153.39999389648</ele>
        <time>2019-11-09T10:13:47.000Z</time>
        <extensions>
          <gpxtpx:TrackPointExtension xmlns:gpxtpx="http://www.garmin.com/xmlschemas/TrackPointExtension/v1">
            <gpxtpx:hr>86</gpxtpx:hr>
          </gpxtpx:TrackPointExtension>
        </extensions>
      </trkpt>
      <trkpt lat="50.59632" lon="5.22266">
        <ele>152.80000305176</ele>
        <time>2019-11-09T10:13:55.000Z</time>
        <extensions>
          <gpxtpx:TrackPointExtension xmlns:gpxtpx="http://www.garmin.com/xmlschemas/TrackPointExtension/v1">
            <gpxtpx:hr>88</gpxtpx:hr>
          </gpxtpx:TrackPointExtension>
        </extensions>
      </trkpt>
      <trkpt lat="50.59627" lon="5.22258">
        <ele>152.39999389648</ele>
        <time>2019-11-09T10:13:56.000Z</time>
        <extensions>
          <gpxtpx:TrackPointExtension xmlns:gpxtpx="http://www.garmin.com/xmlschemas/TrackPointExtension/v1">
            <gpxtpx:hr>88</gpxtpx:hr>
          </gpxtpx:TrackPointExtension>
        </extensions>
      </trkpt>
      <trkpt lat="50.59622" lon="5.22251">
        <ele>152</ele>
        <time>2019-11-09T10:13:59.000Z</time>
        <extensions>
          <gpxtpx:TrackPointExtension xmlns:gpxtpx="http://www.garmin.com/xmlschemas/TrackPointExtension/v1">
            <gpxtpx:hr>88</gpxtpx:hr>
          </gpxtpx:TrackPointExtension>
        </extensions>
      </trkpt>
      <trkpt lat="50.59598" lon="5.2223">
        <ele>151.19999694824</ele>
        <time>2019-11-09T10:14:03.000Z</time>
        <extensions>
          <gpxtpx:TrackPointExtension xmlns:gpxtpx="http://www.garmin.com/xmlschemas/TrackPointExtension/v1">
            <gpxtpx:hr>90</gpxtpx:hr>
          </gpxtpx:TrackPointExtension>
        </extensions>
      </trkpt>
      <trkpt lat="50.59592" lon="5.22226">
        <ele>151</ele>
        <time>2019-11-09T10:14:06.000Z</time>
        <extensions>
          <gpxtpx:TrackPointExtension xmlns:gpxtpx="http://www.garmin.com/xmlschemas/TrackPointExtension/v1">
            <gpxtpx:hr>91</gpxtpx:hr>
          </gpxtpx:TrackPointExtension>
        </extensions>
      </trkpt>
      <trkpt lat="50.59545" lon="5.22202">
        <ele>150.80000305176</ele>
        <time>2019-11-09T10:14:14.000Z</time>
        <extensions>
          <gpxtpx:TrackPointExtension xmlns:gpxtpx="http://www.garmin.com/xmlschemas/TrackPointExtension/v1">
            <gpxtpx:hr>94</gpxtpx:hr>
          </gpxtpx:TrackPointExtension>
        </extensions>
      </trkpt>
      <trkpt lat="50.59538" lon="5.222">
        <ele>150.80000305176</ele>
        <time>2019-11-09T10:14:16.000Z</time>
        <extensions>
          <gpxtpx:TrackPointExtension xmlns:gpxtpx="http://www.garmin.com/xmlschemas/TrackPointExtension/v1">
            <gpxtpx:hr>95</gpxtpx:hr>
          </gpxtpx:TrackPointExtension>
        </extensions>
      </trkpt>
      <trkpt lat="50.59522" lon="5.22201">
        <ele>156.1</ele>
        <time>2019-11-09T10:14:18.000Z</time>
      </trkpt>
      <trkpt lat="50.5951" lon="5.22211">
        <ele>156.1</ele>
        <time>2019-11-09T10:14:26.000Z</time>
      </trkpt>
      <trkpt lat="50.59501" lon="5.22216">
        <ele>156.1</ele>
        <time>2019-11-09T10:14:28.000Z</time>
      </trkpt>
      <trkpt lat="50.59489" lon="5.22221">
        <ele>157.5</ele>
        <time>2019-11-09T10:14:30.000Z</time>
      </trkpt>
      <trkpt lat="50.59474" lon="5.22224">
        <ele>150.60000610352</ele>
        <time>2019-11-09T10:14:37.000Z</time>
        <extensions>
          <gpxtpx:TrackPointExtension xmlns:gpxtpx="http://www.garmin.com/xmlschemas/TrackPointExtension/v1">
            <gpxtpx:hr>104</gpxtpx:hr>
          </gpxtpx:TrackPointExtension>
        </extensions>
      </trkpt>
      <trkpt lat="50.59453" lon="5.22234">
        <ele>158</ele>
        <time>2019-11-09T10:14:43.000Z</time>
      </trkpt>
      <trkpt lat="50.59448" lon="5.22203">
        <ele>150.80000305176</ele>
        <time>2019-11-09T10:14:45.000Z</time>
        <extensions>
          <gpxtpx:TrackPointExtension xmlns:gpxtpx="http://www.garmin.com/xmlschemas/TrackPointExtension/v1">
            <gpxtpx:hr>107</gpxtpx:hr>
          </gpxtpx:TrackPointExtension>
        </extensions>
      </trkpt>
      <trkpt lat="50.59447" lon="5.22186">
        <ele>151.39999389648</ele>
        <time>2019-11-09T10:14:46.000Z</time>
        <extensions>
          <gpxtpx:TrackPointExtension xmlns:gpxtpx="http://www.garmin.com/xmlschemas/TrackPointExtension/v1">
            <gpxtpx:hr>110</gpxtpx:hr>
          </gpxtpx:TrackPointExtension>
        </extensions>
      </trkpt>
      <trkpt lat="50.59443" lon="5.22159">
        <ele>151.80000305176</ele>
        <time>2019-11-09T10:14:48.000Z</time>
        <extensions>
          <gpxtpx:TrackPointExtension xmlns:gpxtpx="http://www.garmin.com/xmlschemas/TrackPointExtension/v1">
            <gpxtpx:hr>113</gpxtpx:hr>
          </gpxtpx:TrackPointExtension>
        </extensions>
      </trkpt>
      <trkpt lat="50.59439" lon="5.22131">
        <ele>152.19999694824</ele>
        <time>2019-11-09T10:14:51.000Z</time>
        <extensions>
          <gpxtpx:TrackPointExtension xmlns:gpxtpx="http://www.garmin.com/xmlschemas/TrackPointExtension/v1">
            <gpxtpx:hr>116</gpxtpx:hr>
          </gpxtpx:TrackPointExtension>
        </extensions>
      </trkpt>
      <trkpt lat="50.59438" lon="5.22123">
        <ele>152.39999389648</ele>
        <time>2019-11-09T10:14:53.000Z</time>
        <extensions>
          <gpxtpx:TrackPointExtension xmlns:gpxtpx="http://www.garmin.com/xmlschemas/TrackPointExtension/v1">
            <gpxtpx:hr>118</gpxtpx:hr>
          </gpxtpx:TrackPointExtension>
        </extensions>
      </trkpt>
      <trkpt lat="50.59436" lon="5.22107">
        <ele>152.60000610352</ele>
        <time>2019-11-09T10:14:54.000Z</time>
        <extensions>
          <gpxtpx:TrackPointExtension xmlns:gpxtpx="http://www.garmin.com/xmlschemas/TrackPointExtension/v1">
            <gpxtpx:hr>121</gpxtpx:hr>
          </gpxtpx:TrackPointExtension>
        </extensions>
      </trkpt>
      <trkpt lat="50.59432" lon="5.22083">
        <ele>153</ele>
        <time>2019-11-09T10:14:57.000Z</time>
        <extensions>
          <gpxtpx:TrackPointExtension xmlns:gpxtpx="http://www.garmin.com/xmlschemas/TrackPointExtension/v1">
            <gpxtpx:hr>124</gpxtpx:hr>
          </gpxtpx:TrackPointExtension>
        </extensions>
      </trkpt>
      <trkpt lat="50.59431" lon="5.22076">
        <ele>153</ele>
        <time>2019-11-09T10:14:59.000Z</time>
        <extensions>
          <gpxtpx:TrackPointExtension xmlns:gpxtpx="http://www.garmin.com/xmlschemas/TrackPointExtension/v1">
            <gpxtpx:hr>125</gpxtpx:hr>
          </gpxtpx:TrackPointExtension>
        </extensions>
      </trkpt>
      <trkpt lat="50.59431" lon="5.22069">
        <ele>153.39999389648</ele>
        <time>2019-11-09T10:15:01.000Z</time>
        <extensions>
          <gpxtpx:TrackPointExtension xmlns:gpxtpx="http://www.garmin.com/xmlschemas/TrackPointExtension/v1">
            <gpxtpx:hr>126</gpxtpx:hr>
          </gpxtpx:TrackPointExtension>
        </extensions>
      </trkpt>
      <trkpt lat="50.59427" lon="5.22047">
        <ele>154.19999694824</ele>
        <time>2019-11-09T10:15:06.000Z</time>
        <extensions>
          <gpxtpx:TrackPointExtension xmlns:gpxtpx="http://www.garmin.com/xmlschemas/TrackPointExtension/v1">
            <gpxtpx:hr>129</gpxtpx:hr>
          </gpxtpx:TrackPointExtension>
        </extensions>
      </trkpt>
      <trkpt lat="50.59426" lon="5.2204">
        <ele>154.60000610352</ele>
        <time>2019-11-09T10:15:08.000Z</time>
        <extensions>
          <gpxtpx:TrackPointExtension xmlns:gpxtpx="http://www.garmin.com/xmlschemas/TrackPointExtension/v1">
            <gpxtpx:hr>130</gpxtpx:hr>
          </gpxtpx:TrackPointExtension>
        </extensions>
      </trkpt>
      <trkpt lat="50.59424" lon="5.22026">
        <ele>154.80000305176</ele>
        <time>2019-11-09T10:15:12.000Z</time>
        <extensions>
          <gpxtpx:TrackPointExtension xmlns:gpxtpx="http://www.garmin.com/xmlschemas/TrackPointExtension/v1">
            <gpxtpx:hr>131</gpxtpx:hr>
          </gpxtpx:TrackPointExtension>
        </extensions>
      </trkpt>
      <trkpt lat="50.59422" lon="5.22">
        <ele>155.19999694824</ele>
        <time>2019-11-09T10:15:19.000Z</time>
        <extensions>
          <gpxtpx:TrackPointExtension xmlns:gpxtpx="http://www.garmin.com/xmlschemas/TrackPointExtension/v1">
            <gpxtpx:hr>134</gpxtpx:hr>
          </gpxtpx:TrackPointExtension>
        </extensions>
      </trkpt>
      <trkpt lat="50.59422" lon="5.21989">
        <ele>155.60000610352</ele>
        <time>2019-11-09T10:15:21.000Z</time>
        <extensions>
          <gpxtpx:TrackPointExtension xmlns:gpxtpx="http://www.garmin.com/xmlschemas/TrackPointExtension/v1">
            <gpxtpx:hr>135</gpxtpx:hr>
          </gpxtpx:TrackPointExtension>
        </extensions>
      </trkpt>
      <trkpt lat="50.59421" lon="5.21956">
        <ele>162.6</ele>
        <time>2019-11-09T10:15:28.000Z</time>
      </trkpt>
      <trkpt lat="50.59424" lon="5.21938">
        <ele>163.1</ele>
        <time>2019-11-09T10:15:31.000Z</time>
      </trkpt>
      <trkpt lat="50.59427" lon="5.21905">
        <ele>164</ele>
        <time>2019-11-09T10:15:39.000Z</time>
      </trkpt>
      <trkpt lat="50.59431" lon="5.21877">
        <ele>163.6</ele>
        <time>2019-11-09T10:15:57.000Z</time>
      </trkpt>
      <trkpt lat="50.59439" lon="5.21819">
        <ele>163.8</ele>
        <time>2019-11-09T10:16:15.000Z</time>
      </trkpt>
      <trkpt lat="50.59445" lon="5.21784">
        <ele>163.3</ele>
        <time>2019-11-09T10:16:20.000Z</time>
      </trkpt>
      <trkpt lat="50.59446" lon="5.21734">
        <ele>163</ele>
        <time>2019-11-09T10:16:22.000Z</time>
      </trkpt>
      <trkpt lat="50.59447" lon="5.21698">
        <ele>162.7</ele>
        <time>2019-11-09T10:16:29.000Z</time>
      </trkpt>
      <trkpt lat="50.59461" lon="5.21701">
        <ele>162.1</ele>
        <time>2019-11-09T10:16:31.000Z</time>
      </trkpt>
      <trkpt lat="50.59476" lon="5.21704">
        <ele>161.6</ele>
        <time>2019-11-09T10:16:34.000Z</time>
      </trkpt>
      <trkpt lat="50.59499" lon="5.21711">
        <ele>161</ele>
        <time>2019-11-09T10:16:37.000Z</time>
      </trkpt>
      <trkpt lat="50.59515" lon="5.21715">
        <ele>156.5</ele>
        <time>2019-11-09T10:16:40.000Z</time>
      </trkpt>
      <trkpt lat="50.59536" lon="5.21721">
        <ele>155.8</ele>
        <time>2019-11-09T10:16:41.000Z</time>
      </trkpt>
      <trkpt lat="50.59557" lon="5.21726">
        <ele>154.9</ele>
        <time>2019-11-09T10:16:45.000Z</time>
      </trkpt>
      <trkpt lat="50.59576" lon="5.21731">
        <ele>154.2</ele>
        <time>2019-11-09T10:16:48.000Z</time>
      </trkpt>
      <trkpt lat="50.59595" lon="5.21735">
        <ele>151.3</ele>
        <time>2019-11-09T10:16:49.000Z</time>
      </trkpt>
      <trkpt lat="50.59615" lon="5.21741">
        <ele>150.5</ele>
        <time>2019-11-09T10:16:50.000Z</time>
      </trkpt>
      <trkpt lat="50.59635" lon="5.21746">
        <ele>149.6</ele>
        <time>2019-11-09T10:16:55.000Z</time>
      </trkpt>
      <trkpt lat="50.59657" lon="5.21751">
        <ele>149.2</ele>
        <time>2019-11-09T10:16:56.000Z</time>
      </trkpt>
      <trkpt lat="50.59681" lon="5.21756">
        <ele>148.2</ele>
        <time>2019-11-09T10:16:59.000Z</time>
      </trkpt>
      <trkpt lat="50.59706" lon="5.21762">
        <ele>148.1</ele>
        <time>2019-11-09T10:17:03.000Z</time>
      </trkpt>
      <trkpt lat="50.59737" lon="5.21771">
        <ele>147.6</ele>
        <time>2019-11-09T10:17:09.000Z</time>
      </trkpt>
      <trkpt lat="50.59768" lon="5.21778">
        <ele>147.9</ele>
        <time>2019-11-09T10:17:15.000Z</time>
      </trkpt>
      <trkpt lat="50.59798" lon="5.21786">
        <ele>141</ele>
        <time>2019-11-09T10:17:21.000Z</time>
        <extensions>
          <gpxtpx:TrackPointExtension xmlns:gpxtpx="http://www.garmin.com/xmlschemas/TrackPointExtension/v1">
            <gpxtpx:hr>98</gpxtpx:hr>
          </gpxtpx:TrackPointExtension>
        </extensions>
      </trkpt>
      <trkpt lat="50.59818" lon="5.21791">
        <ele>140.80000305176</ele>
        <time>2019-11-09T10:17:29.000Z</time>
        <extensions>
          <gpxtpx:TrackPointExtension xmlns:gpxtpx="http://www.garmin.com/xmlschemas/TrackPointExtension/v1">
            <gpxtpx:hr>97</gpxtpx:hr>
          </gpxtpx:TrackPointExtension>
        </extensions>
      </trkpt>
      <trkpt lat="50.59829" lon="5.21793">
        <ele>140.80000305176</ele>
        <time>2019-11-09T10:17:33.000Z</time>
        <extensions>
          <gpxtpx:TrackPointExtension xmlns:gpxtpx="http://www.garmin.com/xmlschemas/TrackPointExtension/v1">
            <gpxtpx:hr>100</gpxtpx:hr>
          </gpxtpx:TrackPointExtension>
        </extensions>
      </trkpt>
      <trkpt lat="50.59834" lon="5.21794">
        <ele>140.80000305176</ele>
        <time>2019-11-09T10:17:34.000Z</time>
        <extensions>
          <gpxtpx:TrackPointExtension xmlns:gpxtpx="http://www.garmin.com/xmlschemas/TrackPointExtension/v1">
            <gpxtpx:hr>103</gpxtpx:hr>
          </gpxtpx:TrackPointExtension>
        </extensions>
      </trkpt>
      <trkpt lat="50.59845" lon="5.21796">
        <ele>142</ele>
        <time>2019-11-09T10:17:36.000Z</time>
        <extensions>
          <gpxtpx:TrackPointExtension xmlns:gpxtpx="http://www.garmin.com/xmlschemas/TrackPointExtension/v1">
            <gpxtpx:hr>106</gpxtpx:hr>
          </gpxtpx:TrackPointExtension>
        </extensions>
      </trkpt>
      <trkpt lat="50.59849" lon="5.21797">
        <ele>142.39999389648</ele>
        <time>2019-11-09T10:17:39.000Z</time>
        <extensions>
          <gpxtpx:TrackPointExtension xmlns:gpxtpx="http://www.garmin.com/xmlschemas/TrackPointExtension/v1">
            <gpxtpx:hr>109</gpxtpx:hr>
          </gpxtpx:TrackPointExtension>
        </extensions>
      </trkpt>
      <trkpt lat="50.59854" lon="5.21798">
        <ele>143.19999694824</ele>
        <time>2019-11-09T10:17:47.000Z</time>
        <extensions>
          <gpxtpx:TrackPointExtension xmlns:gpxtpx="http://www.garmin.com/xmlschemas/TrackPointExtension/v1">
            <gpxtpx:hr>110</gpxtpx:hr>
          </gpxtpx:TrackPointExtension>
        </extensions>
      </trkpt>
      <trkpt lat="50.59859" lon="5.21799">
        <ele>144.60000610352</ele>
        <time>2019-11-09T10:17:54.000Z</time>
        <extensions>
          <gpxtpx:TrackPointExtension xmlns:gpxtpx="http://www.garmin.com/xmlschemas/TrackPointExtension/v1">
            <gpxtpx:hr>112</gpxtpx:hr>
          </gpxtpx:TrackPointExtension>
        </extensions>
      </trkpt>
      <trkpt lat="50.59863" lon="5.218">
        <ele>145.80000305176</ele>
        <time>2019-11-09T10:18:02.000Z</time>
        <extensions>
          <gpxtpx:TrackPointExtension xmlns:gpxtpx="http://www.garmin.com/xmlschemas/TrackPointExtension/v1">
            <gpxtpx:hr>114</gpxtpx:hr>
          </gpxtpx:TrackPointExtension>
        </extensions>
      </trkpt>
      <trkpt lat="50.59872" lon="5.21802">
        <ele>147.39999389648</ele>
        <time>2019-11-09T10:18:03.000Z</time>
        <extensions>
          <gpxtpx:TrackPointExtension xmlns:gpxtpx="http://www.garmin.com/xmlschemas/TrackPointExtension/v1">
            <gpxtpx:hr>117</gpxtpx:hr>
          </gpxtpx:TrackPointExtension>
        </extensions>
      </trkpt>
      <trkpt lat="50.59882" lon="5.21804">
        <ele>148.19999694824</ele>
        <time>2019-11-09T10:18:11.000Z</time>
        <extensions>
          <gpxtpx:TrackPointExtension xmlns:gpxtpx="http://www.garmin.com/xmlschemas/TrackPointExtension/v1">
            <gpxtpx:hr>120</gpxtpx:hr>
          </gpxtpx:TrackPointExtension>
        </extensions>
      </trkpt>
      <trkpt lat="50.59886" lon="5.21805">
        <ele>148.60000610352</ele>
        <time>2019-11-09T10:18:12.000Z</time>
        <extensions>
          <gpxtpx:TrackPointExtension xmlns:gpxtpx="http://www.garmin.com/xmlschemas/TrackPointExtension/v1">
            <gpxtpx:hr>122</gpxtpx:hr>
          </gpxtpx:TrackPointExtension>
        </extensions>
      </trkpt>
      <trkpt lat="50.59891" lon="5.21806">
        <ele>149</ele>
        <time>2019-11-09T10:18:19.000Z</time>
        <extensions>
          <gpxtpx:TrackPointExtension xmlns:gpxtpx="http://www.garmin.com/xmlschemas/TrackPointExtension/v1">
            <gpxtpx:hr>123</gpxtpx:hr>
          </gpxtpx:TrackPointExtension>
        </extensions>
      </trkpt>
      <trkpt lat="50.59906" lon="5.21811">
        <ele>149.80000305176</ele>
        <time>2019-11-09T10:18:23.000Z</time>
        <extensions>
          <gpxtpx:TrackPointExtension xmlns:gpxtpx="http://www.garmin.com/xmlschemas/TrackPointExtension/v1">
            <gpxtpx:hr>126</gpxtpx:hr>
          </gpxtpx:TrackPointExtension>
        </extensions>
      </trkpt>
      <trkpt lat="50.59917" lon="5.21814">
        <ele>151</ele>
        <time>2019-11-09T10:18:25.000Z</time>
        <extensions>
          <gpxtpx:TrackPointExtension xmlns:gpxtpx="http://www.garmin.com/xmlschemas/TrackPointExtension/v1">
            <gpxtpx:hr>128</gpxtpx:hr>
          </gpxtpx:TrackPointExtension>
        </extensions>
      </trkpt>
      <trkpt lat="50.59929" lon="5.2182">
        <ele>151.80000305176</ele>
        <time>2019-11-09T10:18:27.000Z</time>
        <extensions>
          <gpxtpx:TrackPointExtension xmlns:gpxtpx="http://www.garmin.com/xmlschemas/TrackPointExtension/v1">
            <gpxtpx:hr>130</gpxtpx:hr>
          </gpxtpx:TrackPointExtension>
        </extensions>
      </trkpt>
      <trkpt lat="50.59934" lon="5.21823">
        <ele>152</ele>
        <time>2019-11-09T10:18:28.000Z</time>
        <extensions>
          <gpxtpx:TrackPointExtension xmlns:gpxtpx="http://www.garmin.com/xmlschemas/TrackPointExtension/v1">
            <gpxtpx:hr>131</gpxtpx:hr>
          </gpxtpx:TrackPointExtension>
        </extensions>
      </trkpt>
      <trkpt lat="50.59958" lon="5.21842">
        <ele>152.80000305176</ele>
        <time>2019-11-09T10:18:32.000Z</time>
        <extensions>
          <gpxtpx:TrackPointExtension xmlns:gpxtpx="http://www.garmin.com/xmlschemas/TrackPointExtension/v1">
            <gpxtpx:hr>134</gpxtpx:hr>
          </gpxtpx:TrackPointExtension>
        </extensions>
      </trkpt>
      <trkpt lat="50.59968" lon="5.21851">
        <ele>153.19999694824</ele>
        <time>2019-11-09T10:18:34.000Z</time>
        <extensions>
          <gpxtpx:TrackPointExtension xmlns:gpxtpx="http://www.garmin.com/xmlschemas/TrackPointExtension/v1">
            <gpxtpx:hr>135</gpxtpx:hr>
          </gpxtpx:TrackPointExtension>
        </extensions>
      </trkpt>
      <trkpt lat="50.5999" lon="5.2188">
        <ele>154.39999389648</ele>
        <time>2019-11-09T10:18:36.000Z</time>
        <extensions>
          <gpxtpx:TrackPointExtension xmlns:gpxtpx="http://www.garmin.com/xmlschemas/TrackPointExtension/v1">
            <gpxtpx:hr>134</gpxtpx:hr>
          </gpxtpx:TrackPointExtension>
        </extensions>
      </trkpt>
      <trkpt lat="50.59994" lon="5.21886">
        <ele>154.39999389648</ele>
        <time>2019-11-09T10:18:39.000Z</time>
        <extensions>
          <gpxtpx:TrackPointExtension xmlns:gpxtpx="http://www.garmin.com/xmlschemas/TrackPointExtension/v1">
            <gpxtpx:hr>134</gpxtpx:hr>
          </gpxtpx:TrackPointExtension>
        </extensions>
      </trkpt>
      <trkpt lat="50.60029" lon="5.21944">
        <ele>155.19999694824</ele>
        <time>2019-11-09T10:18:41.000Z</time>
        <extensions>
          <gpxtpx:TrackPointExtension xmlns:gpxtpx="http://www.garmin.com/xmlschemas/TrackPointExtension/v1">
            <gpxtpx:hr>133</gpxtpx:hr>
          </gpxtpx:TrackPointExtension>
        </extensions>
      </trkpt>
      <trkpt lat="50.60052" lon="5.21983">
        <ele>155.19999694824</ele>
        <time>2019-11-09T10:18:44.000Z</time>
        <extensions>
          <gpxtpx:TrackPointExtension xmlns:gpxtpx="http://www.garmin.com/xmlschemas/TrackPointExtension/v1">
            <gpxtpx:hr>130</gpxtpx:hr>
          </gpxtpx:TrackPointExtension>
        </extensions>
      </trkpt>
      <trkpt lat="50.60064" lon="5.22003">
        <ele>155</ele>
        <time>2019-11-09T10:18:49.000Z</time>
        <extensions>
          <gpxtpx:TrackPointExtension xmlns:gpxtpx="http://www.garmin.com/xmlschemas/TrackPointExtension/v1">
            <gpxtpx:hr>129</gpxtpx:hr>
          </gpxtpx:TrackPointExtension>
        </extensions>
      </trkpt>
      <trkpt lat="50.60079" lon="5.22029">
        <ele>154.60000610352</ele>
        <time>2019-11-09T10:18:55.000Z</time>
        <extensions>
          <gpxtpx:TrackPointExtension xmlns:gpxtpx="http://www.garmin.com/xmlschemas/TrackPointExtension/v1">
            <gpxtpx:hr>126</gpxtpx:hr>
          </gpxtpx:TrackPointExtension>
        </extensions>
      </trkpt>
      <trkpt lat="50.60087" lon="5.22041">
        <ele>154.39999389648</ele>
        <time>2019-11-09T10:18:57.000Z</time>
        <extensions>
          <gpxtpx:TrackPointExtension xmlns:gpxtpx="http://www.garmin.com/xmlschemas/TrackPointExtension/v1">
            <gpxtpx:hr>123</gpxtpx:hr>
          </gpxtpx:TrackPointExtension>
        </extensions>
      </trkpt>
      <trkpt lat="50.60094" lon="5.22053">
        <ele>154.19999694824</ele>
        <time>2019-11-09T10:19:01.000Z</time>
        <extensions>
          <gpxtpx:TrackPointExtension xmlns:gpxtpx="http://www.garmin.com/xmlschemas/TrackPointExtension/v1">
            <gpxtpx:hr>120</gpxtpx:hr>
          </gpxtpx:TrackPointExtension>
        </extensions>
      </trkpt>
      <trkpt lat="50.601" lon="5.22064">
        <ele>154</ele>
        <time>2019-11-09T10:19:04.000Z</time>
        <extensions>
          <gpxtpx:TrackPointExtension xmlns:gpxtpx="http://www.garmin.com/xmlschemas/TrackPointExtension/v1">
            <gpxtpx:hr>117</gpxtpx:hr>
          </gpxtpx:TrackPointExtension>
        </extensions>
      </trkpt>
      <trkpt lat="50.60106" lon="5.22076">
        <ele>153.80000305176</ele>
        <time>2019-11-09T10:19:10.000Z</time>
        <extensions>
          <gpxtpx:TrackPointExtension xmlns:gpxtpx="http://www.garmin.com/xmlschemas/TrackPointExtension/v1">
            <gpxtpx:hr>113</gpxtpx:hr>
          </gpxtpx:TrackPointExtension>
        </extensions>
      </trkpt>
      <trkpt lat="50.60123" lon="5.22102">
        <ele>155.1</ele>
        <time>2019-11-09T10:19:16.000Z</time>
      </trkpt>
      <trkpt lat="50.60131" lon="5.22076">
        <ele>154.5</ele>
        <time>2019-11-09T10:19:17.000Z</time>
      </trkpt>
      <trkpt lat="50.60136" lon="5.22057">
        <ele>154.3</ele>
        <time>2019-11-09T10:19:24.000Z</time>
      </trkpt>
      <trkpt lat="50.60152" lon="5.22019">
        <ele>152.19999694824</ele>
        <time>2019-11-09T10:19:28.000Z</time>
        <extensions>
          <gpxtpx:TrackPointExtension xmlns:gpxtpx="http://www.garmin.com/xmlschemas/TrackPointExtension/v1">
            <gpxtpx:hr>105</gpxtpx:hr>
          </gpxtpx:TrackPointExtension>
        </extensions>
      </trkpt>
      <trkpt lat="50.60163" lon="5.21989">
        <ele>150.80000305176</ele>
        <time>2019-11-09T10:19:34.000Z</time>
        <extensions>
          <gpxtpx:TrackPointExtension xmlns:gpxtpx="http://www.garmin.com/xmlschemas/TrackPointExtension/v1">
            <gpxtpx:hr>104</gpxtpx:hr>
          </gpxtpx:TrackPointExtension>
        </extensions>
      </trkpt>
      <trkpt lat="50.60171" lon="5.21964">
        <ele>148.9</ele>
        <time>2019-11-09T10:19:37.000Z</time>
      </trkpt>
      <trkpt lat="50.60186" lon="5.2192">
        <ele>148.8</ele>
        <time>2019-11-09T10:19:38.000Z</time>
      </trkpt>
      <trkpt lat="50.60198" lon="5.21887">
        <ele>147.5</ele>
        <time>2019-11-09T10:19:43.000Z</time>
      </trkpt>
      <trkpt lat="50.60212" lon="5.21845">
        <ele>146.9</ele>
        <time>2019-11-09T10:19:44.000Z</time>
      </trkpt>
      <trkpt lat="50.60222" lon="5.21812">
        <ele>147.6</ele>
        <time>2019-11-09T10:19:51.000Z</time>
      </trkpt>
      <trkpt lat="50.60229" lon="5.21786">
        <ele>147.9</ele>
        <time>2019-11-09T10:19:59.000Z</time>
      </trkpt>
      <trkpt lat="50.60239" lon="5.21746">
        <ele>148.1</ele>
        <time>2019-11-09T10:20:00.000Z</time>
      </trkpt>
      <trkpt lat="50.60247" lon="5.217">
        <ele>149.2</ele>
        <time>2019-11-09T10:20:02.000Z</time>
      </trkpt>
      <trkpt lat="50.60255" lon="5.21652">
        <ele>148</ele>
        <time>2019-11-09T10:20:06.000Z</time>
      </trkpt>
      <trkpt lat="50.60262" lon="5.21626">
        <ele>147.5</ele>
        <time>2019-11-09T10:20:07.000Z</time>
      </trkpt>
      <trkpt lat="50.60285" lon="5.21567">
        <ele>147.2</ele>
        <time>2019-11-09T10:20:11.000Z</time>
      </trkpt>
      <trkpt lat="50.60292" lon="5.21555">
        <ele>143.60000610352</ele>
        <time>2019-11-09T10:20:13.000Z</time>
        <extensions>
          <gpxtpx:TrackPointExtension xmlns:gpxtpx="http://www.garmin.com/xmlschemas/TrackPointExtension/v1">
            <gpxtpx:hr>115</gpxtpx:hr>
          </gpxtpx:TrackPointExtension>
        </extensions>
      </trkpt>
      <trkpt lat="50.60302" lon="5.21538">
        <ele>143.60000610352</ele>
        <time>2019-11-09T10:20:19.000Z</time>
        <extensions>
          <gpxtpx:TrackPointExtension xmlns:gpxtpx="http://www.garmin.com/xmlschemas/TrackPointExtension/v1">
            <gpxtpx:hr>115</gpxtpx:hr>
          </gpxtpx:TrackPointExtension>
        </extensions>
      </trkpt>
      <trkpt lat="50.6032" lon="5.21515">
        <ele>143.39999389648</ele>
        <time>2019-11-09T10:20:27.000Z</time>
        <extensions>
          <gpxtpx:TrackPointExtension xmlns:gpxtpx="http://www.garmin.com/xmlschemas/TrackPointExtension/v1">
            <gpxtpx:hr>115</gpxtpx:hr>
          </gpxtpx:TrackPointExtension>
        </extensions>
      </trkpt>
      <trkpt lat="50.60345" lon="5.21483">
        <ele>142.80000305176</ele>
        <time>2019-11-09T10:20:29.000Z</time>
        <extensions>
          <gpxtpx:TrackPointExtension xmlns:gpxtpx="http://www.garmin.com/xmlschemas/TrackPointExtension/v1">
            <gpxtpx:hr>114</gpxtpx:hr>
          </gpxtpx:TrackPointExtension>
        </extensions>
      </trkpt>
      <trkpt lat="50.60357" lon="5.21465">
        <ele>142.60000610352</ele>
        <time>2019-11-09T10:20:32.000Z</time>
        <extensions>
          <gpxtpx:TrackPointExtension xmlns:gpxtpx="http://www.garmin.com/xmlschemas/TrackPointExtension/v1">
            <gpxtpx:hr>113</gpxtpx:hr>
          </gpxtpx:TrackPointExtension>
        </extensions>
      </trkpt>
      <trkpt lat="50.60383" lon="5.21425">
        <ele>141.60000610352</ele>
        <time>2019-11-09T10:20:33.000Z</time>
        <extensions>
          <gpxtpx:TrackPointExtension xmlns:gpxtpx="http://www.garmin.com/xmlschemas/TrackPointExtension/v1">
            <gpxtpx:hr>111</gpxtpx:hr>
          </gpxtpx:TrackPointExtension>
        </extensions>
      </trkpt>
      <trkpt lat="50.60395" lon="5.21405">
        <ele>140.19999694824</ele>
        <time>2019-11-09T10:20:35.000Z</time>
        <extensions>
          <gpxtpx:TrackPointExtension xmlns:gpxtpx="http://www.garmin.com/xmlschemas/TrackPointExtension/v1">
            <gpxtpx:hr>110</gpxtpx:hr>
          </gpxtpx:TrackPointExtension>
        </extensions>
      </trkpt>
      <trkpt lat="50.60407" lon="5.21384">
        <ele>138.60000610352</ele>
        <time>2019-11-09T10:20:38.000Z</time>
        <extensions>
          <gpxtpx:TrackPointExtension xmlns:gpxtpx="http://www.garmin.com/xmlschemas/TrackPointExtension/v1">
            <gpxtpx:hr>108</gpxtpx:hr>
          </gpxtpx:TrackPointExtension>
        </extensions>
      </trkpt>
      <trkpt lat="50.60418" lon="5.21363">
        <ele>137.19999694824</ele>
        <time>2019-11-09T10:20:39.000Z</time>
        <extensions>
          <gpxtpx:TrackPointExtension xmlns:gpxtpx="http://www.garmin.com/xmlschemas/TrackPointExtension/v1">
            <gpxtpx:hr>106</gpxtpx:hr>
          </gpxtpx:TrackPointExtension>
        </extensions>
      </trkpt>
      <trkpt lat="50.60427" lon="5.21339">
        <ele>136</ele>
        <time>2019-11-09T10:20:44.000Z</time>
        <extensions>
          <gpxtpx:TrackPointExtension xmlns:gpxtpx="http://www.garmin.com/xmlschemas/TrackPointExtension/v1">
            <gpxtpx:hr>105</gpxtpx:hr>
          </gpxtpx:TrackPointExtension>
        </extensions>
      </trkpt>
      <trkpt lat="50.6043" lon="5.21302">
        <ele>136.3</ele>
        <time>2019-11-09T10:20:50.000Z</time>
      </trkpt>
      <trkpt lat="50.60431" lon="5.21249">
        <ele>135.3</ele>
        <time>2019-11-09T10:20:53.000Z</time>
      </trkpt>
      <trkpt lat="50.60433" lon="5.21206">
        <ele>132.7</ele>
        <time>2019-11-09T10:20:57.000Z</time>
      </trkpt>
      <trkpt lat="50.60435" lon="5.21163">
        <ele>130.6</ele>
        <time>2019-11-09T10:21:01.000Z</time>
      </trkpt>
      <trkpt lat="50.60436" lon="5.21115">
        <ele>128.7</ele>
        <time>2019-11-09T10:21:08.000Z</time>
      </trkpt>
      <trkpt lat="50.60439" lon="5.21093">
        <ele>128.3</ele>
        <time>2019-11-09T10:21:10.000Z</time>
      </trkpt>
      <trkpt lat="50.60447" lon="5.21069">
        <ele>124.59999847412</ele>
        <time>2019-11-09T10:21:12.000Z</time>
        <extensions>
          <gpxtpx:TrackPointExtension xmlns:gpxtpx="http://www.garmin.com/xmlschemas/TrackPointExtension/v1">
            <gpxtpx:hr>95</gpxtpx:hr>
          </gpxtpx:TrackPointExtension>
        </extensions>
      </trkpt>
      <trkpt lat="50.60453" lon="5.21057">
        <ele>124.19999694824</ele>
        <time>2019-11-09T10:21:28.000Z</time>
        <extensions>
          <gpxtpx:TrackPointExtension xmlns:gpxtpx="http://www.garmin.com/xmlschemas/TrackPointExtension/v1">
            <gpxtpx:hr>96</gpxtpx:hr>
          </gpxtpx:TrackPointExtension>
        </extensions>
      </trkpt>
      <trkpt lat="50.60459" lon="5.21048">
        <ele>123</ele>
        <time>2019-11-09T10:21:33.000Z</time>
        <extensions>
          <gpxtpx:TrackPointExtension xmlns:gpxtpx="http://www.garmin.com/xmlschemas/TrackPointExtension/v1">
            <gpxtpx:hr>97</gpxtpx:hr>
          </gpxtpx:TrackPointExtension>
        </extensions>
      </trkpt>
      <trkpt lat="50.60472" lon="5.21037">
        <ele>126.5</ele>
        <time>2019-11-09T10:21:36.000Z</time>
      </trkpt>
      <trkpt lat="50.60486" lon="5.21027">
        <ele>126.6</ele>
        <time>2019-11-09T10:21:41.000Z</time>
      </trkpt>
      <trkpt lat="50.60506" lon="5.21015">
        <ele>128.8</ele>
        <time>2019-11-09T10:22:23.000Z</time>
      </trkpt>
      <trkpt lat="50.6053" lon="5.21002">
        <ele>120</ele>
        <time>2019-11-09T10:22:25.000Z</time>
        <extensions>
          <gpxtpx:TrackPointExtension xmlns:gpxtpx="http://www.garmin.com/xmlschemas/TrackPointExtension/v1">
            <gpxtpx:hr>105</gpxtpx:hr>
          </gpxtpx:TrackPointExtension>
        </extensions>
      </trkpt>
      <trkpt lat="50.60535" lon="5.21002">
        <ele>120</ele>
        <time>2019-11-09T10:22:30.000Z</time>
        <extensions>
          <gpxtpx:TrackPointExtension xmlns:gpxtpx="http://www.garmin.com/xmlschemas/TrackPointExtension/v1">
            <gpxtpx:hr>106</gpxtpx:hr>
          </gpxtpx:TrackPointExtension>
        </extensions>
      </trkpt>
      <trkpt lat="50.6055" lon="5.21014">
        <ele>131.9</ele>
        <time>2019-11-09T10:22:37.000Z</time>
      </trkpt>
      <trkpt lat="50.6056" lon="5.21024">
        <ele>132.5</ele>
        <time>2019-11-09T10:22:40.000Z</time>
      </trkpt>
      <trkpt lat="50.60576" lon="5.2103">
        <ele>124.19999694824</ele>
        <time>2019-11-09T10:22:42.000Z</time>
        <extensions>
          <gpxtpx:TrackPointExtension xmlns:gpxtpx="http://www.garmin.com/xmlschemas/TrackPointExtension/v1">
            <gpxtpx:hr>116</gpxtpx:hr>
          </gpxtpx:TrackPointExtension>
        </extensions>
      </trkpt>
      <trkpt lat="50.60587" lon="5.21037">
        <ele>139</ele>
        <time>2019-11-09T10:22:46.000Z</time>
      </trkpt>
      <trkpt lat="50.60602" lon="5.21041">
        <ele>127.59999847412</ele>
        <time>2019-11-09T10:22:54.000Z</time>
        <extensions>
          <gpxtpx:TrackPointExtension xmlns:gpxtpx="http://www.garmin.com/xmlschemas/TrackPointExtension/v1">
            <gpxtpx:hr>124</gpxtpx:hr>
          </gpxtpx:TrackPointExtension>
        </extensions>
      </trkpt>
      <trkpt lat="50.60611" lon="5.21044">
        <ele>128.80000305176</ele>
        <time>2019-11-09T10:22:55.000Z</time>
        <extensions>
          <gpxtpx:TrackPointExtension xmlns:gpxtpx="http://www.garmin.com/xmlschemas/TrackPointExtension/v1">
            <gpxtpx:hr>127</gpxtpx:hr>
          </gpxtpx:TrackPointExtension>
        </extensions>
      </trkpt>
      <trkpt lat="50.60617" lon="5.21045">
        <ele>129.60000610352</ele>
        <time>2019-11-09T10:22:58.000Z</time>
        <extensions>
          <gpxtpx:TrackPointExtension xmlns:gpxtpx="http://www.garmin.com/xmlschemas/TrackPointExtension/v1">
            <gpxtpx:hr>129</gpxtpx:hr>
          </gpxtpx:TrackPointExtension>
        </extensions>
      </trkpt>
      <trkpt lat="50.60628" lon="5.21045">
        <ele>130.80000305176</ele>
        <time>2019-11-09T10:23:02.000Z</time>
        <extensions>
          <gpxtpx:TrackPointExtension xmlns:gpxtpx="http://www.garmin.com/xmlschemas/TrackPointExtension/v1">
            <gpxtpx:hr>132</gpxtpx:hr>
          </gpxtpx:TrackPointExtension>
        </extensions>
      </trkpt>
      <trkpt lat="50.60636" lon="5.21043">
        <ele>132</ele>
        <time>2019-11-09T10:23:09.000Z</time>
        <extensions>
          <gpxtpx:TrackPointExtension xmlns:gpxtpx="http://www.garmin.com/xmlschemas/TrackPointExtension/v1">
            <gpxtpx:hr>135</gpxtpx:hr>
          </gpxtpx:TrackPointExtension>
        </extensions>
      </trkpt>
      <trkpt lat="50.6065" lon="5.21043">
        <ele>142.1</ele>
        <time>2019-11-09T10:23:16.000Z</time>
      </trkpt>
      <trkpt lat="50.60664" lon="5.21048">
        <ele>142.4</ele>
        <time>2019-11-09T10:23:18.000Z</time>
      </trkpt>
      <trkpt lat="50.60673" lon="5.21051">
        <ele>147.7</ele>
        <time>2019-11-09T10:23:21.000Z</time>
      </trkpt>
      <trkpt lat="50.60689" lon="5.2106">
        <ele>147.8</ele>
        <time>2019-11-09T10:23:25.000Z</time>
      </trkpt>
      <trkpt lat="50.60701" lon="5.21065">
        <ele>148.4</ele>
        <time>2019-11-09T10:23:26.000Z</time>
      </trkpt>
      <trkpt lat="50.60714" lon="5.21068">
        <ele>149.1</ele>
        <time>2019-11-09T10:23:33.000Z</time>
      </trkpt>
      <trkpt lat="50.60734" lon="5.21068">
        <ele>150</ele>
        <time>2019-11-09T10:23:41.000Z</time>
      </trkpt>
      <trkpt lat="50.60741" lon="5.21065">
        <ele>143.80000305176</ele>
        <time>2019-11-09T10:23:43.000Z</time>
        <extensions>
          <gpxtpx:TrackPointExtension xmlns:gpxtpx="http://www.garmin.com/xmlschemas/TrackPointExtension/v1">
            <gpxtpx:hr>152</gpxtpx:hr>
          </gpxtpx:TrackPointExtension>
        </extensions>
      </trkpt>
      <trkpt lat="50.60747" lon="5.21064">
        <ele>144.19999694824</ele>
        <time>2019-11-09T10:23:45.000Z</time>
        <extensions>
          <gpxtpx:TrackPointExtension xmlns:gpxtpx="http://www.garmin.com/xmlschemas/TrackPointExtension/v1">
            <gpxtpx:hr>152</gpxtpx:hr>
          </gpxtpx:TrackPointExtension>
        </extensions>
      </trkpt>
      <trkpt lat="50.60758" lon="5.21064">
        <ele>153.4</ele>
        <time>2019-11-09T10:23:52.000Z</time>
      </trkpt>
      <trkpt lat="50.60777" lon="5.21059">
        <ele>154.4</ele>
        <time>2019-11-09T10:24:00.000Z</time>
      </trkpt>
      <trkpt lat="50.6079" lon="5.21053">
        <ele>155</ele>
        <time>2019-11-09T10:24:01.000Z</time>
      </trkpt>
      <trkpt lat="50.60814" lon="5.21053">
        <ele>155.7</ele>
        <time>2019-11-09T10:24:08.000Z</time>
      </trkpt>
      <trkpt lat="50.6084" lon="5.21051">
        <ele>150</ele>
        <time>2019-11-09T10:24:11.000Z</time>
        <extensions>
          <gpxtpx:TrackPointExtension xmlns:gpxtpx="http://www.garmin.com/xmlschemas/TrackPointExtension/v1">
            <gpxtpx:hr>155</gpxtpx:hr>
          </gpxtpx:TrackPointExtension>
        </extensions>
      </trkpt>
      <trkpt lat="50.60844" lon="5.21051">
        <ele>150.19999694824</ele>
        <time>2019-11-09T10:24:20.000Z</time>
        <extensions>
          <gpxtpx:TrackPointExtension xmlns:gpxtpx="http://www.garmin.com/xmlschemas/TrackPointExtension/v1">
            <gpxtpx:hr>155</gpxtpx:hr>
          </gpxtpx:TrackPointExtension>
        </extensions>
      </trkpt>
      <trkpt lat="50.60866" lon="5.21052">
        <ele>151.19999694824</ele>
        <time>2019-11-09T10:24:22.000Z</time>
        <extensions>
          <gpxtpx:TrackPointExtension xmlns:gpxtpx="http://www.garmin.com/xmlschemas/TrackPointExtension/v1">
            <gpxtpx:hr>156</gpxtpx:hr>
          </gpxtpx:TrackPointExtension>
        </extensions>
      </trkpt>
      <trkpt lat="50.60887" lon="5.21053">
        <ele>152.39999389648</ele>
        <time>2019-11-09T10:24:39.000Z</time>
        <extensions>
          <gpxtpx:TrackPointExtension xmlns:gpxtpx="http://www.garmin.com/xmlschemas/TrackPointExtension/v1">
            <gpxtpx:hr>157</gpxtpx:hr>
          </gpxtpx:TrackPointExtension>
        </extensions>
      </trkpt>
      <trkpt lat="50.60896" lon="5.21053">
        <ele>153</ele>
        <time>2019-11-09T10:24:56.000Z</time>
        <extensions>
          <gpxtpx:TrackPointExtension xmlns:gpxtpx="http://www.garmin.com/xmlschemas/TrackPointExtension/v1">
            <gpxtpx:hr>157</gpxtpx:hr>
          </gpxtpx:TrackPointExtension>
        </extensions>
      </trkpt>
      <trkpt lat="50.609" lon="5.21053">
        <ele>153.39999389648</ele>
        <time>2019-11-09T10:24:59.000Z</time>
        <extensions>
          <gpxtpx:TrackPointExtension xmlns:gpxtpx="http://www.garmin.com/xmlschemas/TrackPointExtension/v1">
            <gpxtpx:hr>157</gpxtpx:hr>
          </gpxtpx:TrackPointExtension>
        </extensions>
      </trkpt>
      <trkpt lat="50.60916" lon="5.2105">
        <ele>154.60000610352</ele>
        <time>2019-11-09T10:25:04.000Z</time>
        <extensions>
          <gpxtpx:TrackPointExtension xmlns:gpxtpx="http://www.garmin.com/xmlschemas/TrackPointExtension/v1">
            <gpxtpx:hr>158</gpxtpx:hr>
          </gpxtpx:TrackPointExtension>
        </extensions>
      </trkpt>
      <trkpt lat="50.60932" lon="5.21044">
        <ele>155.60000610352</ele>
        <time>2019-11-09T10:25:07.000Z</time>
        <extensions>
          <gpxtpx:TrackPointExtension xmlns:gpxtpx="http://www.garmin.com/xmlschemas/TrackPointExtension/v1">
            <gpxtpx:hr>158</gpxtpx:hr>
          </gpxtpx:TrackPointExtension>
        </extensions>
      </trkpt>
      <trkpt lat="50.60936" lon="5.21042">
        <ele>156</ele>
        <time>2019-11-09T10:25:08.000Z</time>
        <extensions>
          <gpxtpx:TrackPointExtension xmlns:gpxtpx="http://www.garmin.com/xmlschemas/TrackPointExtension/v1">
            <gpxtpx:hr>158</gpxtpx:hr>
          </gpxtpx:TrackPointExtension>
        </extensions>
      </trkpt>
      <trkpt lat="50.60951" lon="5.21035">
        <ele>156.80000305176</ele>
        <time>2019-11-09T10:25:11.000Z</time>
        <extensions>
          <gpxtpx:TrackPointExtension xmlns:gpxtpx="http://www.garmin.com/xmlschemas/TrackPointExtension/v1">
            <gpxtpx:hr>157</gpxtpx:hr>
          </gpxtpx:TrackPointExtension>
        </extensions>
      </trkpt>
      <trkpt lat="50.60971" lon="5.21026">
        <ele>158</ele>
        <time>2019-11-09T10:25:12.000Z</time>
        <extensions>
          <gpxtpx:TrackPointExtension xmlns:gpxtpx="http://www.garmin.com/xmlschemas/TrackPointExtension/v1">
            <gpxtpx:hr>156</gpxtpx:hr>
          </gpxtpx:TrackPointExtension>
        </extensions>
      </trkpt>
      <trkpt lat="50.60975" lon="5.21024">
        <ele>158.19999694824</ele>
        <time>2019-11-09T10:25:14.000Z</time>
        <extensions>
          <gpxtpx:TrackPointExtension xmlns:gpxtpx="http://www.garmin.com/xmlschemas/TrackPointExtension/v1">
            <gpxtpx:hr>156</gpxtpx:hr>
          </gpxtpx:TrackPointExtension>
        </extensions>
      </trkpt>
      <trkpt lat="50.61009" lon="5.21008">
        <ele>158.39999389648</ele>
        <time>2019-11-09T10:25:17.000Z</time>
        <extensions>
          <gpxtpx:TrackPointExtension xmlns:gpxtpx="http://www.garmin.com/xmlschemas/TrackPointExtension/v1">
            <gpxtpx:hr>153</gpxtpx:hr>
          </gpxtpx:TrackPointExtension>
        </extensions>
      </trkpt>
      <trkpt lat="50.61014" lon="5.21006">
        <ele>158.39999389648</ele>
        <time>2019-11-09T10:25:22.000Z</time>
        <extensions>
          <gpxtpx:TrackPointExtension xmlns:gpxtpx="http://www.garmin.com/xmlschemas/TrackPointExtension/v1">
            <gpxtpx:hr>152</gpxtpx:hr>
          </gpxtpx:TrackPointExtension>
        </extensions>
      </trkpt>
      <trkpt lat="50.61032" lon="5.20999">
        <ele>158.39999389648</ele>
        <time>2019-11-09T10:25:45.000Z</time>
        <extensions>
          <gpxtpx:TrackPointExtension xmlns:gpxtpx="http://www.garmin.com/xmlschemas/TrackPointExtension/v1">
            <gpxtpx:hr>149</gpxtpx:hr>
          </gpxtpx:TrackPointExtension>
        </extensions>
      </trkpt>
      <trkpt lat="50.61044" lon="5.20995">
        <ele>158</ele>
        <time>2019-11-09T10:25:46.000Z</time>
        <extensions>
          <gpxtpx:TrackPointExtension xmlns:gpxtpx="http://www.garmin.com/xmlschemas/TrackPointExtension/v1">
            <gpxtpx:hr>145</gpxtpx:hr>
          </gpxtpx:TrackPointExtension>
        </extensions>
      </trkpt>
      <trkpt lat="50.61058" lon="5.20992">
        <ele>158</ele>
        <time>2019-11-09T10:25:47.000Z</time>
        <extensions>
          <gpxtpx:TrackPointExtension xmlns:gpxtpx="http://www.garmin.com/xmlschemas/TrackPointExtension/v1">
            <gpxtpx:hr>142</gpxtpx:hr>
          </gpxtpx:TrackPointExtension>
        </extensions>
      </trkpt>
      <trkpt lat="50.61068" lon="5.20989">
        <ele>158</ele>
        <time>2019-11-09T10:25:55.000Z</time>
        <extensions>
          <gpxtpx:TrackPointExtension xmlns:gpxtpx="http://www.garmin.com/xmlschemas/TrackPointExtension/v1">
            <gpxtpx:hr>139</gpxtpx:hr>
          </gpxtpx:TrackPointExtension>
        </extensions>
      </trkpt>
      <trkpt lat="50.61073" lon="5.20988">
        <ele>157.80000305176</ele>
        <time>2019-11-09T10:26:03.000Z</time>
        <extensions>
          <gpxtpx:TrackPointExtension xmlns:gpxtpx="http://www.garmin.com/xmlschemas/TrackPointExtension/v1">
            <gpxtpx:hr>138</gpxtpx:hr>
          </gpxtpx:TrackPointExtension>
        </extensions>
      </trkpt>
      <trkpt lat="50.61085" lon="5.20986">
        <ele>157.60000610352</ele>
        <time>2019-11-09T10:26:10.000Z</time>
        <extensions>
          <gpxtpx:TrackPointExtension xmlns:gpxtpx="http://www.garmin.com/xmlschemas/TrackPointExtension/v1">
            <gpxtpx:hr>135</gpxtpx:hr>
          </gpxtpx:TrackPointExtension>
        </extensions>
      </trkpt>
      <trkpt lat="50.61104" lon="5.20982">
        <ele>157.19999694824</ele>
        <time>2019-11-09T10:26:11.000Z</time>
        <extensions>
          <gpxtpx:TrackPointExtension xmlns:gpxtpx="http://www.garmin.com/xmlschemas/TrackPointExtension/v1">
            <gpxtpx:hr>131</gpxtpx:hr>
          </gpxtpx:TrackPointExtension>
        </extensions>
      </trkpt>
      <trkpt lat="50.61117" lon="5.20981">
        <ele>157.19999694824</ele>
        <time>2019-11-09T10:26:15.000Z</time>
        <extensions>
          <gpxtpx:TrackPointExtension xmlns:gpxtpx="http://www.garmin.com/xmlschemas/TrackPointExtension/v1">
            <gpxtpx:hr>128</gpxtpx:hr>
          </gpxtpx:TrackPointExtension>
        </extensions>
      </trkpt>
      <trkpt lat="50.61124" lon="5.2098">
        <ele>157.19999694824</ele>
        <time>2019-11-09T10:26:18.000Z</time>
        <extensions>
          <gpxtpx:TrackPointExtension xmlns:gpxtpx="http://www.garmin.com/xmlschemas/TrackPointExtension/v1">
            <gpxtpx:hr>125</gpxtpx:hr>
          </gpxtpx:TrackPointExtension>
        </extensions>
      </trkpt>
      <trkpt lat="50.61137" lon="5.20978">
        <ele>156.60000610352</ele>
        <time>2019-11-09T10:26:20.000Z</time>
        <extensions>
          <gpxtpx:TrackPointExtension xmlns:gpxtpx="http://www.garmin.com/xmlschemas/TrackPointExtension/v1">
            <gpxtpx:hr>122</gpxtpx:hr>
          </gpxtpx:TrackPointExtension>
        </extensions>
      </trkpt>
      <trkpt lat="50.61151" lon="5.20976">
        <ele>155.39999389648</ele>
        <time>2019-11-09T10:26:22.000Z</time>
        <extensions>
          <gpxtpx:TrackPointExtension xmlns:gpxtpx="http://www.garmin.com/xmlschemas/TrackPointExtension/v1">
            <gpxtpx:hr>120</gpxtpx:hr>
          </gpxtpx:TrackPointExtension>
        </extensions>
      </trkpt>
      <trkpt lat="50.61175" lon="5.20973">
        <ele>154.80000305176</ele>
        <time>2019-11-09T10:26:25.000Z</time>
        <extensions>
          <gpxtpx:TrackPointExtension xmlns:gpxtpx="http://www.garmin.com/xmlschemas/TrackPointExtension/v1">
            <gpxtpx:hr>119</gpxtpx:hr>
          </gpxtpx:TrackPointExtension>
        </extensions>
      </trkpt>
      <trkpt lat="50.61188" lon="5.20971">
        <ele>154.39999389648</ele>
        <time>2019-11-09T10:26:27.000Z</time>
        <extensions>
          <gpxtpx:TrackPointExtension xmlns:gpxtpx="http://www.garmin.com/xmlschemas/TrackPointExtension/v1">
            <gpxtpx:hr>119</gpxtpx:hr>
          </gpxtpx:TrackPointExtension>
        </extensions>
      </trkpt>
      <trkpt lat="50.61215" lon="5.20966">
        <ele>153</ele>
        <time>2019-11-09T10:26:30.000Z</time>
        <extensions>
          <gpxtpx:TrackPointExtension xmlns:gpxtpx="http://www.garmin.com/xmlschemas/TrackPointExtension/v1">
            <gpxtpx:hr>117</gpxtpx:hr>
          </gpxtpx:TrackPointExtension>
        </extensions>
      </trkpt>
      <trkpt lat="50.61236" lon="5.20961">
        <ele>152.19999694824</ele>
        <time>2019-11-09T10:26:34.000Z</time>
        <extensions>
          <gpxtpx:TrackPointExtension xmlns:gpxtpx="http://www.garmin.com/xmlschemas/TrackPointExtension/v1">
            <gpxtpx:hr>113</gpxtpx:hr>
          </gpxtpx:TrackPointExtension>
        </extensions>
      </trkpt>
      <trkpt lat="50.61243" lon="5.2096">
        <ele>151.80000305176</ele>
        <time>2019-11-09T10:26:42.000Z</time>
        <extensions>
          <gpxtpx:TrackPointExtension xmlns:gpxtpx="http://www.garmin.com/xmlschemas/TrackPointExtension/v1">
            <gpxtpx:hr>111</gpxtpx:hr>
          </gpxtpx:TrackPointExtension>
        </extensions>
      </trkpt>
      <trkpt lat="50.61259" lon="5.20958">
        <ele>151.19999694824</ele>
        <time>2019-11-09T10:26:43.000Z</time>
        <extensions>
          <gpxtpx:TrackPointExtension xmlns:gpxtpx="http://www.garmin.com/xmlschemas/TrackPointExtension/v1">
            <gpxtpx:hr>108</gpxtpx:hr>
          </gpxtpx:TrackPointExtension>
        </extensions>
      </trkpt>
      <trkpt lat="50.61275" lon="5.20955">
        <ele>150.60000610352</ele>
        <time>2019-11-09T10:26:50.000Z</time>
        <extensions>
          <gpxtpx:TrackPointExtension xmlns:gpxtpx="http://www.garmin.com/xmlschemas/TrackPointExtension/v1">
            <gpxtpx:hr>104</gpxtpx:hr>
          </gpxtpx:TrackPointExtension>
        </extensions>
      </trkpt>
      <trkpt lat="50.61299" lon="5.20951">
        <ele>149.60000610352</ele>
        <time>2019-11-09T10:27:08.000Z</time>
        <extensions>
          <gpxtpx:TrackPointExtension xmlns:gpxtpx="http://www.garmin.com/xmlschemas/TrackPointExtension/v1">
            <gpxtpx:hr>105</gpxtpx:hr>
          </gpxtpx:TrackPointExtension>
        </extensions>
      </trkpt>
      <trkpt lat="50.61324" lon="5.20948">
        <ele>148.19999694824</ele>
        <time>2019-11-09T10:27:09.000Z</time>
        <extensions>
          <gpxtpx:TrackPointExtension xmlns:gpxtpx="http://www.garmin.com/xmlschemas/TrackPointExtension/v1">
            <gpxtpx:hr>103</gpxtpx:hr>
          </gpxtpx:TrackPointExtension>
        </extensions>
      </trkpt>
      <trkpt lat="50.61356" lon="5.20943">
        <ele>145.80000305176</ele>
        <time>2019-11-09T10:27:18.000Z</time>
        <extensions>
          <gpxtpx:TrackPointExtension xmlns:gpxtpx="http://www.garmin.com/xmlschemas/TrackPointExtension/v1">
            <gpxtpx:hr>103</gpxtpx:hr>
          </gpxtpx:TrackPointExtension>
        </extensions>
      </trkpt>
      <trkpt lat="50.61363" lon="5.20942">
        <ele>145.39999389648</ele>
        <time>2019-11-09T10:27:20.000Z</time>
        <extensions>
          <gpxtpx:TrackPointExtension xmlns:gpxtpx="http://www.garmin.com/xmlschemas/TrackPointExtension/v1">
            <gpxtpx:hr>103</gpxtpx:hr>
          </gpxtpx:TrackPointExtension>
        </extensions>
      </trkpt>
      <trkpt lat="50.61401" lon="5.20936">
        <ele>144.60000610352</ele>
        <time>2019-11-09T10:27:28.000Z</time>
        <extensions>
          <gpxtpx:TrackPointExtension xmlns:gpxtpx="http://www.garmin.com/xmlschemas/TrackPointExtension/v1">
            <gpxtpx:hr>103</gpxtpx:hr>
          </gpxtpx:TrackPointExtension>
        </extensions>
      </trkpt>
      <trkpt lat="50.61424" lon="5.20937">
        <ele>144</ele>
        <time>2019-11-09T10:27:30.000Z</time>
        <extensions>
          <gpxtpx:TrackPointExtension xmlns:gpxtpx="http://www.garmin.com/xmlschemas/TrackPointExtension/v1">
            <gpxtpx:hr>100</gpxtpx:hr>
          </gpxtpx:TrackPointExtension>
        </extensions>
      </trkpt>
      <trkpt lat="50.61448" lon="5.20937">
        <ele>143.39999389648</ele>
        <time>2019-11-09T10:28:16.000Z</time>
        <extensions>
          <gpxtpx:TrackPointExtension xmlns:gpxtpx="http://www.garmin.com/xmlschemas/TrackPointExtension/v1">
            <gpxtpx:hr>100</gpxtpx:hr>
          </gpxtpx:TrackPointExtension>
        </extensions>
      </trkpt>
      <trkpt lat="50.61488" lon="5.20938">
        <ele>142.39999389648</ele>
        <time>2019-11-09T10:28:37.000Z</time>
        <extensions>
          <gpxtpx:TrackPointExtension xmlns:gpxtpx="http://www.garmin.com/xmlschemas/TrackPointExtension/v1">
            <gpxtpx:hr>101</gpxtpx:hr>
          </gpxtpx:TrackPointExtension>
        </extensions>
      </trkpt>
      <trkpt lat="50.61511" lon="5.20937">
        <ele>141.39999389648</ele>
        <time>2019-11-09T10:28:56.000Z</time>
        <extensions>
          <gpxtpx:TrackPointExtension xmlns:gpxtpx="http://www.garmin.com/xmlschemas/TrackPointExtension/v1">
            <gpxtpx:hr>101</gpxtpx:hr>
          </gpxtpx:TrackPointExtension>
        </extensions>
      </trkpt>
      <trkpt lat="50.61518" lon="5.20937">
        <ele>141.19999694824</ele>
        <time>2019-11-09T10:29:12.000Z</time>
        <extensions>
          <gpxtpx:TrackPointExtension xmlns:gpxtpx="http://www.garmin.com/xmlschemas/TrackPointExtension/v1">
            <gpxtpx:hr>101</gpxtpx:hr>
          </gpxtpx:TrackPointExtension>
        </extensions>
      </trkpt>
      <trkpt lat="50.6155" lon="5.20936">
        <ele>140.19999694824</ele>
        <time>2019-11-09T10:29:14.000Z</time>
        <extensions>
          <gpxtpx:TrackPointExtension xmlns:gpxtpx="http://www.garmin.com/xmlschemas/TrackPointExtension/v1">
            <gpxtpx:hr>101</gpxtpx:hr>
          </gpxtpx:TrackPointExtension>
        </extensions>
      </trkpt>
      <trkpt lat="50.61565" lon="5.20933">
        <ele>139.80000305176</ele>
        <time>2019-11-09T10:29:22.000Z</time>
        <extensions>
          <gpxtpx:TrackPointExtension xmlns:gpxtpx="http://www.garmin.com/xmlschemas/TrackPointExtension/v1">
            <gpxtpx:hr>101</gpxtpx:hr>
          </gpxtpx:TrackPointExtension>
        </extensions>
      </trkpt>
      <trkpt lat="50.61604" lon="5.2092">
        <ele>139.19999694824</ele>
        <time>2019-11-09T10:29:23.000Z</time>
        <extensions>
          <gpxtpx:TrackPointExtension xmlns:gpxtpx="http://www.garmin.com/xmlschemas/TrackPointExtension/v1">
            <gpxtpx:hr>104</gpxtpx:hr>
          </gpxtpx:TrackPointExtension>
        </extensions>
      </trkpt>
      <trkpt lat="50.6162" lon="5.20918">
        <ele>138.80000305176</ele>
        <time>2019-11-09T10:29:25.000Z</time>
        <extensions>
          <gpxtpx:TrackPointExtension xmlns:gpxtpx="http://www.garmin.com/xmlschemas/TrackPointExtension/v1">
            <gpxtpx:hr>104</gpxtpx:hr>
          </gpxtpx:TrackPointExtension>
        </extensions>
      </trkpt>
      <trkpt lat="50.6165" lon="5.20919">
        <ele>138</ele>
        <time>2019-11-09T10:29:28.000Z</time>
        <extensions>
          <gpxtpx:TrackPointExtension xmlns:gpxtpx="http://www.garmin.com/xmlschemas/TrackPointExtension/v1">
            <gpxtpx:hr>104</gpxtpx:hr>
          </gpxtpx:TrackPointExtension>
        </extensions>
      </trkpt>
      <trkpt lat="50.61656" lon="5.2092">
        <ele>138</ele>
        <time>2019-11-09T10:29:36.000Z</time>
        <extensions>
          <gpxtpx:TrackPointExtension xmlns:gpxtpx="http://www.garmin.com/xmlschemas/TrackPointExtension/v1">
            <gpxtpx:hr>104</gpxtpx:hr>
          </gpxtpx:TrackPointExtension>
        </extensions>
      </trkpt>
      <trkpt lat="50.61676" lon="5.2093">
        <ele>137.39999389648</ele>
        <time>2019-11-09T10:29:42.000Z</time>
        <extensions>
          <gpxtpx:TrackPointExtension xmlns:gpxtpx="http://www.garmin.com/xmlschemas/TrackPointExtension/v1">
            <gpxtpx:hr>104</gpxtpx:hr>
          </gpxtpx:TrackPointExtension>
        </extensions>
      </trkpt>
      <trkpt lat="50.61688" lon="5.20939">
        <ele>140.6</ele>
        <time>2019-11-09T10:29:46.000Z</time>
      </trkpt>
      <trkpt lat="50.61703" lon="5.20956">
        <ele>137</ele>
        <time>2019-11-09T10:29:47.000Z</time>
        <extensions>
          <gpxtpx:TrackPointExtension xmlns:gpxtpx="http://www.garmin.com/xmlschemas/TrackPointExtension/v1">
            <gpxtpx:hr>103</gpxtpx:hr>
          </gpxtpx:TrackPointExtension>
        </extensions>
      </trkpt>
      <trkpt lat="50.61713" lon="5.20963">
        <ele>136.80000305176</ele>
        <time>2019-11-09T10:29:50.000Z</time>
        <extensions>
          <gpxtpx:TrackPointExtension xmlns:gpxtpx="http://www.garmin.com/xmlschemas/TrackPointExtension/v1">
            <gpxtpx:hr>103</gpxtpx:hr>
          </gpxtpx:TrackPointExtension>
        </extensions>
      </trkpt>
      <trkpt lat="50.6173" lon="5.20966">
        <ele>136</ele>
        <time>2019-11-09T10:29:57.000Z</time>
        <extensions>
          <gpxtpx:TrackPointExtension xmlns:gpxtpx="http://www.garmin.com/xmlschemas/TrackPointExtension/v1">
            <gpxtpx:hr>104</gpxtpx:hr>
          </gpxtpx:TrackPointExtension>
        </extensions>
      </trkpt>
      <trkpt lat="50.61738" lon="5.20965">
        <ele>140.6</ele>
        <time>2019-11-09T10:30:03.000Z</time>
      </trkpt>
      <trkpt lat="50.61762" lon="5.20952">
        <ele>140.8</ele>
        <time>2019-11-09T10:30:06.000Z</time>
      </trkpt>
      <trkpt lat="50.61769" lon="5.20921">
        <ele>140.4</ele>
        <time>2019-11-09T10:30:13.000Z</time>
      </trkpt>
      <trkpt lat="50.61765" lon="5.2089">
        <ele>141</ele>
        <time>2019-11-09T10:30:17.000Z</time>
      </trkpt>
      <trkpt lat="50.61761" lon="5.20864">
        <ele>141</ele>
        <time>2019-11-09T10:30:25.000Z</time>
      </trkpt>
      <trkpt lat="50.61759" lon="5.20851">
        <ele>140.6</ele>
        <time>2019-11-09T10:30:31.000Z</time>
      </trkpt>
      <trkpt lat="50.61749" lon="5.20826">
        <ele>139</ele>
        <time>2019-11-09T10:30:35.000Z</time>
      </trkpt>
      <trkpt lat="50.61725" lon="5.20764">
        <ele>140.2</ele>
        <time>2019-11-09T10:30:44.000Z</time>
      </trkpt>
      <trkpt lat="50.61715" lon="5.20728">
        <ele>141.2</ele>
        <time>2019-11-09T10:30:45.000Z</time>
      </trkpt>
      <trkpt lat="50.61711" lon="5.20713">
        <ele>135</ele>
        <time>2019-11-09T10:30:52.000Z</time>
        <extensions>
          <gpxtpx:TrackPointExtension xmlns:gpxtpx="http://www.garmin.com/xmlschemas/TrackPointExtension/v1">
            <gpxtpx:hr>113</gpxtpx:hr>
          </gpxtpx:TrackPointExtension>
        </extensions>
      </trkpt>
      <trkpt lat="50.61707" lon="5.20695">
        <ele>141</ele>
        <time>2019-11-09T10:30:54.000Z</time>
      </trkpt>
      <trkpt lat="50.61703" lon="5.20667">
        <ele>141.9</ele>
        <time>2019-11-09T10:30:55.000Z</time>
      </trkpt>
      <trkpt lat="50.61695" lon="5.206">
        <ele>141.8</ele>
        <time>2019-11-09T10:30:57.000Z</time>
      </trkpt>
      <trkpt lat="50.61692" lon="5.20555">
        <ele>142.2</ele>
        <time>2019-11-09T10:30:58.000Z</time>
      </trkpt>
      <trkpt lat="50.61693" lon="5.20523">
        <ele>142.3</ele>
        <time>2019-11-09T10:31:00.000Z</time>
      </trkpt>
      <trkpt lat="50.61691" lon="5.20505">
        <ele>142</ele>
        <time>2019-11-09T10:31:04.000Z</time>
      </trkpt>
      <trkpt lat="50.61688" lon="5.20483">
        <ele>142.5</ele>
        <time>2019-11-09T10:31:06.000Z</time>
      </trkpt>
      <trkpt lat="50.61697" lon="5.20476">
        <ele>143.1</ele>
        <time>2019-11-09T10:31:09.000Z</time>
      </trkpt>
      <trkpt lat="50.61707" lon="5.20458">
        <ele>143.7</ele>
        <time>2019-11-09T10:31:10.000Z</time>
      </trkpt>
      <trkpt lat="50.6172" lon="5.20433">
        <ele>144.4</ele>
        <time>2019-11-09T10:31:11.000Z</time>
      </trkpt>
      <trkpt lat="50.61737" lon="5.20403">
        <ele>146.2</ele>
        <time>2019-11-09T10:31:14.000Z</time>
      </trkpt>
      <trkpt lat="50.61745" lon="5.20389">
        <ele>146.2</ele>
        <time>2019-11-09T10:31:16.000Z</time>
      </trkpt>
      <trkpt lat="50.61753" lon="5.20373">
        <ele>148.9</ele>
        <time>2019-11-09T10:31:17.000Z</time>
      </trkpt>
      <trkpt lat="50.61759" lon="5.20365">
        <ele>149</ele>
        <time>2019-11-09T10:31:20.000Z</time>
      </trkpt>
      <trkpt lat="50.61761" lon="5.20351">
        <ele>148.9</ele>
        <time>2019-11-09T10:31:21.000Z</time>
      </trkpt>
      <trkpt lat="50.61764" lon="5.20334">
        <ele>138.39999389648</ele>
        <time>2019-11-09T10:31:23.000Z</time>
        <extensions>
          <gpxtpx:TrackPointExtension xmlns:gpxtpx="http://www.garmin.com/xmlschemas/TrackPointExtension/v1">
            <gpxtpx:hr>121</gpxtpx:hr>
          </gpxtpx:TrackPointExtension>
        </extensions>
      </trkpt>
      <trkpt lat="50.61766" lon="5.20321">
        <ele>150</ele>
        <time>2019-11-09T10:31:25.000Z</time>
      </trkpt>
      <trkpt lat="50.61769" lon="5.20306">
        <ele>150.6</ele>
        <time>2019-11-09T10:31:29.000Z</time>
      </trkpt>
      <trkpt lat="50.61774" lon="5.20284">
        <ele>151.2</ele>
        <time>2019-11-09T10:31:32.000Z</time>
      </trkpt>
      <trkpt lat="50.61779" lon="5.20261">
        <ele>151.6</ele>
        <time>2019-11-09T10:31:33.000Z</time>
      </trkpt>
      <trkpt lat="50.61783" lon="5.20238">
        <ele>153.9</ele>
        <time>2019-11-09T10:31:35.000Z</time>
      </trkpt>
      <trkpt lat="50.6179" lon="5.20203">
        <ele>154.8</ele>
        <time>2019-11-09T10:31:40.000Z</time>
      </trkpt>
      <trkpt lat="50.61794" lon="5.20182">
        <ele>155.4</ele>
        <time>2019-11-09T10:31:48.000Z</time>
      </trkpt>
      <trkpt lat="50.61803" lon="5.20162">
        <ele>157.6</ele>
        <time>2019-11-09T10:31:50.000Z</time>
      </trkpt>
      <trkpt lat="50.6181" lon="5.20147">
        <ele>158</ele>
        <time>2019-11-09T10:31:53.000Z</time>
      </trkpt>
      <trkpt lat="50.61818" lon="5.20134">
        <ele>158.1</ele>
        <time>2019-11-09T10:31:55.000Z</time>
      </trkpt>
      <trkpt lat="50.61835" lon="5.20113">
        <ele>149.80000305176</ele>
        <time>2019-11-09T10:31:57.000Z</time>
        <extensions>
          <gpxtpx:TrackPointExtension xmlns:gpxtpx="http://www.garmin.com/xmlschemas/TrackPointExtension/v1">
            <gpxtpx:hr>143</gpxtpx:hr>
          </gpxtpx:TrackPointExtension>
        </extensions>
      </trkpt>
      <trkpt lat="50.61837" lon="5.20108">
        <ele>150</ele>
        <time>2019-11-09T10:31:59.000Z</time>
        <extensions>
          <gpxtpx:TrackPointExtension xmlns:gpxtpx="http://www.garmin.com/xmlschemas/TrackPointExtension/v1">
            <gpxtpx:hr>144</gpxtpx:hr>
          </gpxtpx:TrackPointExtension>
        </extensions>
      </trkpt>
      <trkpt lat="50.61847" lon="5.20085">
        <ele>151</ele>
        <time>2019-11-09T10:32:39.000Z</time>
        <extensions>
          <gpxtpx:TrackPointExtension xmlns:gpxtpx="http://www.garmin.com/xmlschemas/TrackPointExtension/v1">
            <gpxtpx:hr>144</gpxtpx:hr>
          </gpxtpx:TrackPointExtension>
        </extensions>
      </trkpt>
      <trkpt lat="50.6185" lon="5.20079">
        <ele>151.39999389648</ele>
        <time>2019-11-09T10:32:41.000Z</time>
        <extensions>
          <gpxtpx:TrackPointExtension xmlns:gpxtpx="http://www.garmin.com/xmlschemas/TrackPointExtension/v1">
            <gpxtpx:hr>144</gpxtpx:hr>
          </gpxtpx:TrackPointExtension>
        </extensions>
      </trkpt>
      <trkpt lat="50.61857" lon="5.20059">
        <ele>163.9</ele>
        <time>2019-11-09T10:32:43.000Z</time>
      </trkpt>
      <trkpt lat="50.61863" lon="5.20039">
        <ele>164.2</ele>
        <time>2019-11-09T10:32:47.000Z</time>
      </trkpt>
      <trkpt lat="50.61877" lon="5.20008">
        <ele>164.8</ele>
        <time>2019-11-09T10:32:50.000Z</time>
      </trkpt>
      <trkpt lat="50.61883" lon="5.19994">
        <ele>164.5</ele>
        <time>2019-11-09T10:33:26.000Z</time>
      </trkpt>
      <trkpt lat="50.61892" lon="5.19982">
        <ele>164.9</ele>
        <time>2019-11-09T10:33:29.000Z</time>
      </trkpt>
      <trkpt lat="50.61905" lon="5.19963">
        <ele>164.9</ele>
        <time>2019-11-09T10:33:32.000Z</time>
      </trkpt>
      <trkpt lat="50.61915" lon="5.19948">
        <ele>164.9</ele>
        <time>2019-11-09T10:33:38.000Z</time>
      </trkpt>
      <trkpt lat="50.6193" lon="5.19928">
        <ele>167.9</ele>
        <time>2019-11-09T10:33:42.000Z</time>
      </trkpt>
      <trkpt lat="50.61941" lon="5.19913">
        <ele>168</ele>
        <time>2019-11-09T10:33:44.000Z</time>
      </trkpt>
      <trkpt lat="50.61953" lon="5.199">
        <ele>168.7</ele>
        <time>2019-11-09T10:33:49.000Z</time>
      </trkpt>
      <trkpt lat="50.61981" lon="5.19866">
        <ele>169.5</ele>
        <time>2019-11-09T10:34:33.000Z</time>
      </trkpt>
      <trkpt lat="50.61997" lon="5.19843">
        <ele>170.3</ele>
        <time>2019-11-09T10:34:37.000Z</time>
      </trkpt>
      <trkpt lat="50.62014" lon="5.19822">
        <ele>170.2</ele>
        <time>2019-11-09T10:34:41.000Z</time>
      </trkpt>
      <trkpt lat="50.62031" lon="5.19795">
        <ele>169.5</ele>
        <time>2019-11-09T10:34:47.000Z</time>
      </trkpt>
      <trkpt lat="50.62043" lon="5.19775">
        <ele>169.3</ele>
        <time>2019-11-09T10:34:48.000Z</time>
      </trkpt>
      <trkpt lat="50.62058" lon="5.19755">
        <ele>169.2</ele>
        <time>2019-11-09T10:34:53.000Z</time>
      </trkpt>
      <trkpt lat="50.6207" lon="5.19745">
        <ele>168.7</ele>
        <time>2019-11-09T10:34:54.000Z</time>
      </trkpt>
      <trkpt lat="50.62081" lon="5.19737">
        <ele>168.7</ele>
        <time>2019-11-09T10:34:57.000Z</time>
      </trkpt>
      <trkpt lat="50.62094" lon="5.19727">
        <ele>168.3</ele>
        <time>2019-11-09T10:35:00.000Z</time>
      </trkpt>
      <trkpt lat="50.62105" lon="5.19715">
        <ele>165.80000305176</ele>
        <time>2019-11-09T10:35:01.000Z</time>
        <extensions>
          <gpxtpx:TrackPointExtension xmlns:gpxtpx="http://www.garmin.com/xmlschemas/TrackPointExtension/v1">
            <gpxtpx:hr>149</gpxtpx:hr>
          </gpxtpx:TrackPointExtension>
        </extensions>
      </trkpt>
      <trkpt lat="50.62109" lon="5.19709">
        <ele>166.39999389648</ele>
        <time>2019-11-09T10:35:03.000Z</time>
        <extensions>
          <gpxtpx:TrackPointExtension xmlns:gpxtpx="http://www.garmin.com/xmlschemas/TrackPointExtension/v1">
            <gpxtpx:hr>148</gpxtpx:hr>
          </gpxtpx:TrackPointExtension>
        </extensions>
      </trkpt>
      <trkpt lat="50.62116" lon="5.19696">
        <ele>166.60000610352</ele>
        <time>2019-11-09T10:35:04.000Z</time>
        <extensions>
          <gpxtpx:TrackPointExtension xmlns:gpxtpx="http://www.garmin.com/xmlschemas/TrackPointExtension/v1">
            <gpxtpx:hr>147</gpxtpx:hr>
          </gpxtpx:TrackPointExtension>
        </extensions>
      </trkpt>
      <trkpt lat="50.62128" lon="5.19676">
        <ele>166.60000610352</ele>
        <time>2019-11-09T10:35:24.000Z</time>
        <extensions>
          <gpxtpx:TrackPointExtension xmlns:gpxtpx="http://www.garmin.com/xmlschemas/TrackPointExtension/v1">
            <gpxtpx:hr>144</gpxtpx:hr>
          </gpxtpx:TrackPointExtension>
        </extensions>
      </trkpt>
      <trkpt lat="50.62135" lon="5.19665">
        <ele>166.60000610352</ele>
        <time>2019-11-09T10:35:34.000Z</time>
        <extensions>
          <gpxtpx:TrackPointExtension xmlns:gpxtpx="http://www.garmin.com/xmlschemas/TrackPointExtension/v1">
            <gpxtpx:hr>144</gpxtpx:hr>
          </gpxtpx:TrackPointExtension>
        </extensions>
      </trkpt>
      <trkpt lat="50.62147" lon="5.19648">
        <ele>166.19999694824</ele>
        <time>2019-11-09T10:35:39.000Z</time>
        <extensions>
          <gpxtpx:TrackPointExtension xmlns:gpxtpx="http://www.garmin.com/xmlschemas/TrackPointExtension/v1">
            <gpxtpx:hr>141</gpxtpx:hr>
          </gpxtpx:TrackPointExtension>
        </extensions>
      </trkpt>
      <trkpt lat="50.62159" lon="5.19629">
        <ele>165.80000305176</ele>
        <time>2019-11-09T10:35:40.000Z</time>
        <extensions>
          <gpxtpx:TrackPointExtension xmlns:gpxtpx="http://www.garmin.com/xmlschemas/TrackPointExtension/v1">
            <gpxtpx:hr>138</gpxtpx:hr>
          </gpxtpx:TrackPointExtension>
        </extensions>
      </trkpt>
      <trkpt lat="50.62164" lon="5.19623">
        <ele>165.60000610352</ele>
        <time>2019-11-09T10:35:44.000Z</time>
        <extensions>
          <gpxtpx:TrackPointExtension xmlns:gpxtpx="http://www.garmin.com/xmlschemas/TrackPointExtension/v1">
            <gpxtpx:hr>137</gpxtpx:hr>
          </gpxtpx:TrackPointExtension>
        </extensions>
      </trkpt>
      <trkpt lat="50.62173" lon="5.19611">
        <ele>165.39999389648</ele>
        <time>2019-11-09T10:35:46.000Z</time>
        <extensions>
          <gpxtpx:TrackPointExtension xmlns:gpxtpx="http://www.garmin.com/xmlschemas/TrackPointExtension/v1">
            <gpxtpx:hr>134</gpxtpx:hr>
          </gpxtpx:TrackPointExtension>
        </extensions>
      </trkpt>
      <trkpt lat="50.62176" lon="5.19606">
        <ele>165.39999389648</ele>
        <time>2019-11-09T10:35:50.000Z</time>
        <extensions>
          <gpxtpx:TrackPointExtension xmlns:gpxtpx="http://www.garmin.com/xmlschemas/TrackPointExtension/v1">
            <gpxtpx:hr>133</gpxtpx:hr>
          </gpxtpx:TrackPointExtension>
        </extensions>
      </trkpt>
      <trkpt lat="50.62182" lon="5.19597">
        <ele>165.19999694824</ele>
        <time>2019-11-09T10:35:53.000Z</time>
        <extensions>
          <gpxtpx:TrackPointExtension xmlns:gpxtpx="http://www.garmin.com/xmlschemas/TrackPointExtension/v1">
            <gpxtpx:hr>131</gpxtpx:hr>
          </gpxtpx:TrackPointExtension>
        </extensions>
      </trkpt>
      <trkpt lat="50.62193" lon="5.19583">
        <ele>164.60000610352</ele>
        <time>2019-11-09T10:35:56.000Z</time>
        <extensions>
          <gpxtpx:TrackPointExtension xmlns:gpxtpx="http://www.garmin.com/xmlschemas/TrackPointExtension/v1">
            <gpxtpx:hr>109</gpxtpx:hr>
          </gpxtpx:TrackPointExtension>
        </extensions>
      </trkpt>
      <trkpt lat="50.62205" lon="5.19569">
        <ele>164.60000610352</ele>
        <time>2019-11-09T10:36:02.000Z</time>
        <extensions>
          <gpxtpx:TrackPointExtension xmlns:gpxtpx="http://www.garmin.com/xmlschemas/TrackPointExtension/v1">
            <gpxtpx:hr>108</gpxtpx:hr>
          </gpxtpx:TrackPointExtension>
        </extensions>
      </trkpt>
      <trkpt lat="50.62227" lon="5.19543">
        <ele>164.60000610352</ele>
        <time>2019-11-09T10:36:03.000Z</time>
        <extensions>
          <gpxtpx:TrackPointExtension xmlns:gpxtpx="http://www.garmin.com/xmlschemas/TrackPointExtension/v1">
            <gpxtpx:hr>108</gpxtpx:hr>
          </gpxtpx:TrackPointExtension>
        </extensions>
      </trkpt>
      <trkpt lat="50.62261" lon="5.19505">
        <ele>163.39999389648</ele>
        <time>2019-11-09T10:36:07.000Z</time>
        <extensions>
          <gpxtpx:TrackPointExtension xmlns:gpxtpx="http://www.garmin.com/xmlschemas/TrackPointExtension/v1">
            <gpxtpx:hr>110</gpxtpx:hr>
          </gpxtpx:TrackPointExtension>
        </extensions>
      </trkpt>
      <trkpt lat="50.62266" lon="5.195">
        <ele>163</ele>
        <time>2019-11-09T10:36:10.000Z</time>
        <extensions>
          <gpxtpx:TrackPointExtension xmlns:gpxtpx="http://www.garmin.com/xmlschemas/TrackPointExtension/v1">
            <gpxtpx:hr>111</gpxtpx:hr>
          </gpxtpx:TrackPointExtension>
        </extensions>
      </trkpt>
      <trkpt lat="50.6228" lon="5.19485">
        <ele>162.39999389648</ele>
        <time>2019-11-09T10:36:14.000Z</time>
        <extensions>
          <gpxtpx:TrackPointExtension xmlns:gpxtpx="http://www.garmin.com/xmlschemas/TrackPointExtension/v1">
            <gpxtpx:hr>112</gpxtpx:hr>
          </gpxtpx:TrackPointExtension>
        </extensions>
      </trkpt>
      <trkpt lat="50.62314" lon="5.19449">
        <ele>162</ele>
        <time>2019-11-09T10:36:16.000Z</time>
        <extensions>
          <gpxtpx:TrackPointExtension xmlns:gpxtpx="http://www.garmin.com/xmlschemas/TrackPointExtension/v1">
            <gpxtpx:hr>114</gpxtpx:hr>
          </gpxtpx:TrackPointExtension>
        </extensions>
      </trkpt>
      <trkpt lat="50.6236" lon="5.19404">
        <ele>162.19999694824</ele>
        <time>2019-11-09T10:36:20.000Z</time>
        <extensions>
          <gpxtpx:TrackPointExtension xmlns:gpxtpx="http://www.garmin.com/xmlschemas/TrackPointExtension/v1">
            <gpxtpx:hr>116</gpxtpx:hr>
          </gpxtpx:TrackPointExtension>
        </extensions>
      </trkpt>
      <trkpt lat="50.62365" lon="5.19399">
        <ele>162.19999694824</ele>
        <time>2019-11-09T10:37:54.000Z</time>
        <extensions>
          <gpxtpx:TrackPointExtension xmlns:gpxtpx="http://www.garmin.com/xmlschemas/TrackPointExtension/v1">
            <gpxtpx:hr>116</gpxtpx:hr>
          </gpxtpx:TrackPointExtension>
        </extensions>
      </trkpt>
      <trkpt lat="50.62401" lon="5.19364">
        <ele>161.39999389648</ele>
        <time>2019-11-09T10:37:55.000Z</time>
        <extensions>
          <gpxtpx:TrackPointExtension xmlns:gpxtpx="http://www.garmin.com/xmlschemas/TrackPointExtension/v1">
            <gpxtpx:hr>117</gpxtpx:hr>
          </gpxtpx:TrackPointExtension>
        </extensions>
      </trkpt>
      <trkpt lat="50.62413" lon="5.19352">
        <ele>161</ele>
        <time>2019-11-09T10:37:59.000Z</time>
        <extensions>
          <gpxtpx:TrackPointExtension xmlns:gpxtpx="http://www.garmin.com/xmlschemas/TrackPointExtension/v1">
            <gpxtpx:hr>117</gpxtpx:hr>
          </gpxtpx:TrackPointExtension>
        </extensions>
      </trkpt>
      <trkpt lat="50.62425" lon="5.19342">
        <ele>160.39999389648</ele>
        <time>2019-11-09T10:38:00.000Z</time>
        <extensions>
          <gpxtpx:TrackPointExtension xmlns:gpxtpx="http://www.garmin.com/xmlschemas/TrackPointExtension/v1">
            <gpxtpx:hr>117</gpxtpx:hr>
          </gpxtpx:TrackPointExtension>
        </extensions>
      </trkpt>
      <trkpt lat="50.62464" lon="5.19315">
        <ele>159.60000610352</ele>
        <time>2019-11-09T10:38:05.000Z</time>
        <extensions>
          <gpxtpx:TrackPointExtension xmlns:gpxtpx="http://www.garmin.com/xmlschemas/TrackPointExtension/v1">
            <gpxtpx:hr>118</gpxtpx:hr>
          </gpxtpx:TrackPointExtension>
        </extensions>
      </trkpt>
      <trkpt lat="50.62491" lon="5.19299">
        <ele>159.39999389648</ele>
        <time>2019-11-09T10:38:07.000Z</time>
        <extensions>
          <gpxtpx:TrackPointExtension xmlns:gpxtpx="http://www.garmin.com/xmlschemas/TrackPointExtension/v1">
            <gpxtpx:hr>117</gpxtpx:hr>
          </gpxtpx:TrackPointExtension>
        </extensions>
      </trkpt>
      <trkpt lat="50.62511" lon="5.19289">
        <ele>159.19999694824</ele>
        <time>2019-11-09T10:38:10.000Z</time>
        <extensions>
          <gpxtpx:TrackPointExtension xmlns:gpxtpx="http://www.garmin.com/xmlschemas/TrackPointExtension/v1">
            <gpxtpx:hr>118</gpxtpx:hr>
          </gpxtpx:TrackPointExtension>
        </extensions>
      </trkpt>
      <trkpt lat="50.62553" lon="5.19262">
        <ele>159.19999694824</ele>
        <time>2019-11-09T10:38:18.000Z</time>
        <extensions>
          <gpxtpx:TrackPointExtension xmlns:gpxtpx="http://www.garmin.com/xmlschemas/TrackPointExtension/v1">
            <gpxtpx:hr>119</gpxtpx:hr>
          </gpxtpx:TrackPointExtension>
        </extensions>
      </trkpt>
      <trkpt lat="50.62588" lon="5.19228">
        <ele>159</ele>
        <time>2019-11-09T10:38:19.000Z</time>
        <extensions>
          <gpxtpx:TrackPointExtension xmlns:gpxtpx="http://www.garmin.com/xmlschemas/TrackPointExtension/v1">
            <gpxtpx:hr>122</gpxtpx:hr>
          </gpxtpx:TrackPointExtension>
        </extensions>
      </trkpt>
      <trkpt lat="50.62601" lon="5.19213">
        <ele>159.19999694824</ele>
        <time>2019-11-09T10:38:27.000Z</time>
        <extensions>
          <gpxtpx:TrackPointExtension xmlns:gpxtpx="http://www.garmin.com/xmlschemas/TrackPointExtension/v1">
            <gpxtpx:hr>123</gpxtpx:hr>
          </gpxtpx:TrackPointExtension>
        </extensions>
      </trkpt>
      <trkpt lat="50.62624" lon="5.19184">
        <ele>159.19999694824</ele>
        <time>2019-11-09T10:38:35.000Z</time>
        <extensions>
          <gpxtpx:TrackPointExtension xmlns:gpxtpx="http://www.garmin.com/xmlschemas/TrackPointExtension/v1">
            <gpxtpx:hr>126</gpxtpx:hr>
          </gpxtpx:TrackPointExtension>
        </extensions>
      </trkpt>
      <trkpt lat="50.62633" lon="5.19169">
        <ele>159.19999694824</ele>
        <time>2019-11-09T10:38:39.000Z</time>
        <extensions>
          <gpxtpx:TrackPointExtension xmlns:gpxtpx="http://www.garmin.com/xmlschemas/TrackPointExtension/v1">
            <gpxtpx:hr>127</gpxtpx:hr>
          </gpxtpx:TrackPointExtension>
        </extensions>
      </trkpt>
      <trkpt lat="50.62646" lon="5.19146">
        <ele>163.3</ele>
        <time>2019-11-09T10:38:43.000Z</time>
      </trkpt>
      <trkpt lat="50.62654" lon="5.19128">
        <ele>163.3</ele>
        <time>2019-11-09T10:38:46.000Z</time>
      </trkpt>
      <trkpt lat="50.62664" lon="5.19146">
        <ele>160.60000610352</ele>
        <time>2019-11-09T10:38:49.000Z</time>
        <extensions>
          <gpxtpx:TrackPointExtension xmlns:gpxtpx="http://www.garmin.com/xmlschemas/TrackPointExtension/v1">
            <gpxtpx:hr>126</gpxtpx:hr>
          </gpxtpx:TrackPointExtension>
        </extensions>
      </trkpt>
      <trkpt lat="50.62672" lon="5.19158">
        <ele>161.39999389648</ele>
        <time>2019-11-09T10:38:52.000Z</time>
        <extensions>
          <gpxtpx:TrackPointExtension xmlns:gpxtpx="http://www.garmin.com/xmlschemas/TrackPointExtension/v1">
            <gpxtpx:hr>126</gpxtpx:hr>
          </gpxtpx:TrackPointExtension>
        </extensions>
      </trkpt>
      <trkpt lat="50.6268" lon="5.19172">
        <ele>161.80000305176</ele>
        <time>2019-11-09T10:38:55.000Z</time>
        <extensions>
          <gpxtpx:TrackPointExtension xmlns:gpxtpx="http://www.garmin.com/xmlschemas/TrackPointExtension/v1">
            <gpxtpx:hr>125</gpxtpx:hr>
          </gpxtpx:TrackPointExtension>
        </extensions>
      </trkpt>
      <trkpt lat="50.62712" lon="5.19218">
        <ele>162</ele>
        <time>2019-11-09T10:38:58.000Z</time>
        <extensions>
          <gpxtpx:TrackPointExtension xmlns:gpxtpx="http://www.garmin.com/xmlschemas/TrackPointExtension/v1">
            <gpxtpx:hr>124</gpxtpx:hr>
          </gpxtpx:TrackPointExtension>
        </extensions>
      </trkpt>
      <trkpt lat="50.62747" lon="5.1926">
        <ele>161.39999389648</ele>
        <time>2019-11-09T10:39:06.000Z</time>
        <extensions>
          <gpxtpx:TrackPointExtension xmlns:gpxtpx="http://www.garmin.com/xmlschemas/TrackPointExtension/v1">
            <gpxtpx:hr>124</gpxtpx:hr>
          </gpxtpx:TrackPointExtension>
        </extensions>
      </trkpt>
      <trkpt lat="50.62772" lon="5.19284">
        <ele>160.39999389648</ele>
        <time>2019-11-09T10:39:19.000Z</time>
        <extensions>
          <gpxtpx:TrackPointExtension xmlns:gpxtpx="http://www.garmin.com/xmlschemas/TrackPointExtension/v1">
            <gpxtpx:hr>123</gpxtpx:hr>
          </gpxtpx:TrackPointExtension>
        </extensions>
      </trkpt>
      <trkpt lat="50.62798" lon="5.19308">
        <ele>159</ele>
        <time>2019-11-09T10:39:27.000Z</time>
        <extensions>
          <gpxtpx:TrackPointExtension xmlns:gpxtpx="http://www.garmin.com/xmlschemas/TrackPointExtension/v1">
            <gpxtpx:hr>124</gpxtpx:hr>
          </gpxtpx:TrackPointExtension>
        </extensions>
      </trkpt>
      <trkpt lat="50.62826" lon="5.19332">
        <ele>157.60000610352</ele>
        <time>2019-11-09T10:39:28.000Z</time>
        <extensions>
          <gpxtpx:TrackPointExtension xmlns:gpxtpx="http://www.garmin.com/xmlschemas/TrackPointExtension/v1">
            <gpxtpx:hr>124</gpxtpx:hr>
          </gpxtpx:TrackPointExtension>
        </extensions>
      </trkpt>
      <trkpt lat="50.62844" lon="5.19346">
        <ele>156.80000305176</ele>
        <time>2019-11-09T10:39:33.000Z</time>
        <extensions>
          <gpxtpx:TrackPointExtension xmlns:gpxtpx="http://www.garmin.com/xmlschemas/TrackPointExtension/v1">
            <gpxtpx:hr>124</gpxtpx:hr>
          </gpxtpx:TrackPointExtension>
        </extensions>
      </trkpt>
      <trkpt lat="50.62863" lon="5.1936">
        <ele>155.19999694824</ele>
        <time>2019-11-09T10:39:35.000Z</time>
        <extensions>
          <gpxtpx:TrackPointExtension xmlns:gpxtpx="http://www.garmin.com/xmlschemas/TrackPointExtension/v1">
            <gpxtpx:hr>124</gpxtpx:hr>
          </gpxtpx:TrackPointExtension>
        </extensions>
      </trkpt>
      <trkpt lat="50.62883" lon="5.19374">
        <ele>154.19999694824</ele>
        <time>2019-11-09T10:39:42.000Z</time>
        <extensions>
          <gpxtpx:TrackPointExtension xmlns:gpxtpx="http://www.garmin.com/xmlschemas/TrackPointExtension/v1">
            <gpxtpx:hr>125</gpxtpx:hr>
          </gpxtpx:TrackPointExtension>
        </extensions>
      </trkpt>
      <trkpt lat="50.62942" lon="5.19415">
        <ele>153.39999389648</ele>
        <time>2019-11-09T10:39:45.000Z</time>
        <extensions>
          <gpxtpx:TrackPointExtension xmlns:gpxtpx="http://www.garmin.com/xmlschemas/TrackPointExtension/v1">
            <gpxtpx:hr>124</gpxtpx:hr>
          </gpxtpx:TrackPointExtension>
        </extensions>
      </trkpt>
      <trkpt lat="50.62952" lon="5.1942">
        <ele>153.19999694824</ele>
        <time>2019-11-09T10:39:52.000Z</time>
        <extensions>
          <gpxtpx:TrackPointExtension xmlns:gpxtpx="http://www.garmin.com/xmlschemas/TrackPointExtension/v1">
            <gpxtpx:hr>124</gpxtpx:hr>
          </gpxtpx:TrackPointExtension>
        </extensions>
      </trkpt>
      <trkpt lat="50.62981" lon="5.19439">
        <ele>152</ele>
        <time>2019-11-09T10:39:59.000Z</time>
        <extensions>
          <gpxtpx:TrackPointExtension xmlns:gpxtpx="http://www.garmin.com/xmlschemas/TrackPointExtension/v1">
            <gpxtpx:hr>124</gpxtpx:hr>
          </gpxtpx:TrackPointExtension>
        </extensions>
      </trkpt>
      <trkpt lat="50.6301" lon="5.19459">
        <ele>151.80000305176</ele>
        <time>2019-11-09T10:40:07.000Z</time>
        <extensions>
          <gpxtpx:TrackPointExtension xmlns:gpxtpx="http://www.garmin.com/xmlschemas/TrackPointExtension/v1">
            <gpxtpx:hr>126</gpxtpx:hr>
          </gpxtpx:TrackPointExtension>
        </extensions>
      </trkpt>
      <trkpt lat="50.63061" lon="5.19493">
        <ele>151.39999389648</ele>
        <time>2019-11-09T10:40:11.000Z</time>
        <extensions>
          <gpxtpx:TrackPointExtension xmlns:gpxtpx="http://www.garmin.com/xmlschemas/TrackPointExtension/v1">
            <gpxtpx:hr>129</gpxtpx:hr>
          </gpxtpx:TrackPointExtension>
        </extensions>
      </trkpt>
      <trkpt lat="50.63082" lon="5.19506">
        <ele>151.39999389648</ele>
        <time>2019-11-09T10:40:14.000Z</time>
        <extensions>
          <gpxtpx:TrackPointExtension xmlns:gpxtpx="http://www.garmin.com/xmlschemas/TrackPointExtension/v1">
            <gpxtpx:hr>130</gpxtpx:hr>
          </gpxtpx:TrackPointExtension>
        </extensions>
      </trkpt>
      <trkpt lat="50.63115" lon="5.19519">
        <ele>154.1</ele>
        <time>2019-11-09T10:40:16.000Z</time>
      </trkpt>
      <trkpt lat="50.63147" lon="5.19531">
        <ele>154</ele>
        <time>2019-11-09T10:40:17.000Z</time>
      </trkpt>
      <trkpt lat="50.63172" lon="5.1954">
        <ele>154.1</ele>
        <time>2019-11-09T10:40:20.000Z</time>
      </trkpt>
      <trkpt lat="50.63216" lon="5.19554">
        <ele>154.4</ele>
        <time>2019-11-09T10:40:23.000Z</time>
      </trkpt>
      <trkpt lat="50.63249" lon="5.19566">
        <ele>154.6</ele>
        <time>2019-11-09T10:40:24.000Z</time>
      </trkpt>
      <trkpt lat="50.63288" lon="5.19591">
        <ele>149</ele>
        <time>2019-11-09T10:40:30.000Z</time>
        <extensions>
          <gpxtpx:TrackPointExtension xmlns:gpxtpx="http://www.garmin.com/xmlschemas/TrackPointExtension/v1">
            <gpxtpx:hr>146</gpxtpx:hr>
          </gpxtpx:TrackPointExtension>
        </extensions>
      </trkpt>
      <trkpt lat="50.63322" lon="5.19611">
        <ele>149</ele>
        <time>2019-11-09T10:40:33.000Z</time>
        <extensions>
          <gpxtpx:TrackPointExtension xmlns:gpxtpx="http://www.garmin.com/xmlschemas/TrackPointExtension/v1">
            <gpxtpx:hr>149</gpxtpx:hr>
          </gpxtpx:TrackPointExtension>
        </extensions>
      </trkpt>
      <trkpt lat="50.63355" lon="5.19632">
        <ele>149.19999694824</ele>
        <time>2019-11-09T10:40:38.000Z</time>
        <extensions>
          <gpxtpx:TrackPointExtension xmlns:gpxtpx="http://www.garmin.com/xmlschemas/TrackPointExtension/v1">
            <gpxtpx:hr>152</gpxtpx:hr>
          </gpxtpx:TrackPointExtension>
        </extensions>
      </trkpt>
      <trkpt lat="50.63377" lon="5.19646">
        <ele>149.39999389648</ele>
        <time>2019-11-09T10:40:45.000Z</time>
        <extensions>
          <gpxtpx:TrackPointExtension xmlns:gpxtpx="http://www.garmin.com/xmlschemas/TrackPointExtension/v1">
            <gpxtpx:hr>154</gpxtpx:hr>
          </gpxtpx:TrackPointExtension>
        </extensions>
      </trkpt>
      <trkpt lat="50.63433" lon="5.19682">
        <ele>149.80000305176</ele>
        <time>2019-11-09T10:40:47.000Z</time>
        <extensions>
          <gpxtpx:TrackPointExtension xmlns:gpxtpx="http://www.garmin.com/xmlschemas/TrackPointExtension/v1">
            <gpxtpx:hr>157</gpxtpx:hr>
          </gpxtpx:TrackPointExtension>
        </extensions>
      </trkpt>
      <trkpt lat="50.63457" lon="5.19698">
        <ele>155.5</ele>
        <time>2019-11-09T10:40:53.000Z</time>
      </trkpt>
      <trkpt lat="50.63476" lon="5.19714">
        <ele>150.19999694824</ele>
        <time>2019-11-09T10:40:55.000Z</time>
        <extensions>
          <gpxtpx:TrackPointExtension xmlns:gpxtpx="http://www.garmin.com/xmlschemas/TrackPointExtension/v1">
            <gpxtpx:hr>159</gpxtpx:hr>
          </gpxtpx:TrackPointExtension>
        </extensions>
      </trkpt>
      <trkpt lat="50.63512" lon="5.19761">
        <ele>150.39999389648</ele>
        <time>2019-11-09T10:40:57.000Z</time>
        <extensions>
          <gpxtpx:TrackPointExtension xmlns:gpxtpx="http://www.garmin.com/xmlschemas/TrackPointExtension/v1">
            <gpxtpx:hr>161</gpxtpx:hr>
          </gpxtpx:TrackPointExtension>
        </extensions>
      </trkpt>
      <trkpt lat="50.63552" lon="5.19821">
        <ele>150.80000305176</ele>
        <time>2019-11-09T10:41:04.000Z</time>
        <extensions>
          <gpxtpx:TrackPointExtension xmlns:gpxtpx="http://www.garmin.com/xmlschemas/TrackPointExtension/v1">
            <gpxtpx:hr>163</gpxtpx:hr>
          </gpxtpx:TrackPointExtension>
        </extensions>
      </trkpt>
      <trkpt lat="50.63567" lon="5.19843">
        <ele>151</ele>
        <time>2019-11-09T10:41:10.000Z</time>
        <extensions>
          <gpxtpx:TrackPointExtension xmlns:gpxtpx="http://www.garmin.com/xmlschemas/TrackPointExtension/v1">
            <gpxtpx:hr>163</gpxtpx:hr>
          </gpxtpx:TrackPointExtension>
        </extensions>
      </trkpt>
      <trkpt lat="50.63594" lon="5.19885">
        <ele>152.19999694824</ele>
        <time>2019-11-09T10:41:11.000Z</time>
        <extensions>
          <gpxtpx:TrackPointExtension xmlns:gpxtpx="http://www.garmin.com/xmlschemas/TrackPointExtension/v1">
            <gpxtpx:hr>163</gpxtpx:hr>
          </gpxtpx:TrackPointExtension>
        </extensions>
      </trkpt>
      <trkpt lat="50.63613" lon="5.19913">
        <ele>153.19999694824</ele>
        <time>2019-11-09T10:41:12.000Z</time>
        <extensions>
          <gpxtpx:TrackPointExtension xmlns:gpxtpx="http://www.garmin.com/xmlschemas/TrackPointExtension/v1">
            <gpxtpx:hr>161</gpxtpx:hr>
          </gpxtpx:TrackPointExtension>
        </extensions>
      </trkpt>
      <trkpt lat="50.63619" lon="5.19923">
        <ele>153.39999389648</ele>
        <time>2019-11-09T10:41:19.000Z</time>
        <extensions>
          <gpxtpx:TrackPointExtension xmlns:gpxtpx="http://www.garmin.com/xmlschemas/TrackPointExtension/v1">
            <gpxtpx:hr>161</gpxtpx:hr>
          </gpxtpx:TrackPointExtension>
        </extensions>
      </trkpt>
      <trkpt lat="50.6365" lon="5.19969">
        <ele>154.19999694824</ele>
        <time>2019-11-09T10:41:22.000Z</time>
        <extensions>
          <gpxtpx:TrackPointExtension xmlns:gpxtpx="http://www.garmin.com/xmlschemas/TrackPointExtension/v1">
            <gpxtpx:hr>158</gpxtpx:hr>
          </gpxtpx:TrackPointExtension>
        </extensions>
      </trkpt>
      <trkpt lat="50.63663" lon="5.19988">
        <ele>154.39999389648</ele>
        <time>2019-11-09T10:41:24.000Z</time>
        <extensions>
          <gpxtpx:TrackPointExtension xmlns:gpxtpx="http://www.garmin.com/xmlschemas/TrackPointExtension/v1">
            <gpxtpx:hr>157</gpxtpx:hr>
          </gpxtpx:TrackPointExtension>
        </extensions>
      </trkpt>
      <trkpt lat="50.63675" lon="5.20007">
        <ele>154.39999389648</ele>
        <time>2019-11-09T10:41:28.000Z</time>
        <extensions>
          <gpxtpx:TrackPointExtension xmlns:gpxtpx="http://www.garmin.com/xmlschemas/TrackPointExtension/v1">
            <gpxtpx:hr>156</gpxtpx:hr>
          </gpxtpx:TrackPointExtension>
        </extensions>
      </trkpt>
      <trkpt lat="50.63702" lon="5.20047">
        <ele>154.39999389648</ele>
        <time>2019-11-09T10:41:31.000Z</time>
        <extensions>
          <gpxtpx:TrackPointExtension xmlns:gpxtpx="http://www.garmin.com/xmlschemas/TrackPointExtension/v1">
            <gpxtpx:hr>153</gpxtpx:hr>
          </gpxtpx:TrackPointExtension>
        </extensions>
      </trkpt>
      <trkpt lat="50.63722" lon="5.20077">
        <ele>153.80000305176</ele>
        <time>2019-11-09T10:41:36.000Z</time>
        <extensions>
          <gpxtpx:TrackPointExtension xmlns:gpxtpx="http://www.garmin.com/xmlschemas/TrackPointExtension/v1">
            <gpxtpx:hr>150</gpxtpx:hr>
          </gpxtpx:TrackPointExtension>
        </extensions>
      </trkpt>
      <trkpt lat="50.63735" lon="5.20099">
        <ele>153</ele>
        <time>2019-11-09T10:41:41.000Z</time>
        <extensions>
          <gpxtpx:TrackPointExtension xmlns:gpxtpx="http://www.garmin.com/xmlschemas/TrackPointExtension/v1">
            <gpxtpx:hr>148</gpxtpx:hr>
          </gpxtpx:TrackPointExtension>
        </extensions>
      </trkpt>
      <trkpt lat="50.63748" lon="5.2012">
        <ele>152</ele>
        <time>2019-11-09T10:41:42.000Z</time>
        <extensions>
          <gpxtpx:TrackPointExtension xmlns:gpxtpx="http://www.garmin.com/xmlschemas/TrackPointExtension/v1">
            <gpxtpx:hr>147</gpxtpx:hr>
          </gpxtpx:TrackPointExtension>
        </extensions>
      </trkpt>
      <trkpt lat="50.63767" lon="5.20152">
        <ele>151</ele>
        <time>2019-11-09T10:41:46.000Z</time>
        <extensions>
          <gpxtpx:TrackPointExtension xmlns:gpxtpx="http://www.garmin.com/xmlschemas/TrackPointExtension/v1">
            <gpxtpx:hr>144</gpxtpx:hr>
          </gpxtpx:TrackPointExtension>
        </extensions>
      </trkpt>
      <trkpt lat="50.63791" lon="5.20193">
        <ele>150.39999389648</ele>
        <time>2019-11-09T10:42:21.000Z</time>
        <extensions>
          <gpxtpx:TrackPointExtension xmlns:gpxtpx="http://www.garmin.com/xmlschemas/TrackPointExtension/v1">
            <gpxtpx:hr>141</gpxtpx:hr>
          </gpxtpx:TrackPointExtension>
        </extensions>
      </trkpt>
      <trkpt lat="50.63803" lon="5.20213">
        <ele>150.19999694824</ele>
        <time>2019-11-09T10:42:24.000Z</time>
        <extensions>
          <gpxtpx:TrackPointExtension xmlns:gpxtpx="http://www.garmin.com/xmlschemas/TrackPointExtension/v1">
            <gpxtpx:hr>139</gpxtpx:hr>
          </gpxtpx:TrackPointExtension>
        </extensions>
      </trkpt>
      <trkpt lat="50.63814" lon="5.20233">
        <ele>150</ele>
        <time>2019-11-09T10:42:29.000Z</time>
        <extensions>
          <gpxtpx:TrackPointExtension xmlns:gpxtpx="http://www.garmin.com/xmlschemas/TrackPointExtension/v1">
            <gpxtpx:hr>137</gpxtpx:hr>
          </gpxtpx:TrackPointExtension>
        </extensions>
      </trkpt>
      <trkpt lat="50.63841" lon="5.20281">
        <ele>149.39999389648</ele>
        <time>2019-11-09T10:42:30.000Z</time>
        <extensions>
          <gpxtpx:TrackPointExtension xmlns:gpxtpx="http://www.garmin.com/xmlschemas/TrackPointExtension/v1">
            <gpxtpx:hr>134</gpxtpx:hr>
          </gpxtpx:TrackPointExtension>
        </extensions>
      </trkpt>
      <trkpt lat="50.63851" lon="5.203">
        <ele>149</ele>
        <time>2019-11-09T10:42:31.000Z</time>
        <extensions>
          <gpxtpx:TrackPointExtension xmlns:gpxtpx="http://www.garmin.com/xmlschemas/TrackPointExtension/v1">
            <gpxtpx:hr>133</gpxtpx:hr>
          </gpxtpx:TrackPointExtension>
        </extensions>
      </trkpt>
      <trkpt lat="50.63857" lon="5.20309">
        <ele>148.80000305176</ele>
        <time>2019-11-09T10:42:34.000Z</time>
        <extensions>
          <gpxtpx:TrackPointExtension xmlns:gpxtpx="http://www.garmin.com/xmlschemas/TrackPointExtension/v1">
            <gpxtpx:hr>132</gpxtpx:hr>
          </gpxtpx:TrackPointExtension>
        </extensions>
      </trkpt>
      <trkpt lat="50.63867" lon="5.20327">
        <ele>148.80000305176</ele>
        <time>2019-11-09T10:42:37.000Z</time>
        <extensions>
          <gpxtpx:TrackPointExtension xmlns:gpxtpx="http://www.garmin.com/xmlschemas/TrackPointExtension/v1">
            <gpxtpx:hr>129</gpxtpx:hr>
          </gpxtpx:TrackPointExtension>
        </extensions>
      </trkpt>
      <trkpt lat="50.63887" lon="5.20362">
        <ele>148.80000305176</ele>
        <time>2019-11-09T10:42:45.000Z</time>
        <extensions>
          <gpxtpx:TrackPointExtension xmlns:gpxtpx="http://www.garmin.com/xmlschemas/TrackPointExtension/v1">
            <gpxtpx:hr>126</gpxtpx:hr>
          </gpxtpx:TrackPointExtension>
        </extensions>
      </trkpt>
      <trkpt lat="50.63911" lon="5.20407">
        <ele>148.80000305176</ele>
        <time>2019-11-09T10:42:48.000Z</time>
        <extensions>
          <gpxtpx:TrackPointExtension xmlns:gpxtpx="http://www.garmin.com/xmlschemas/TrackPointExtension/v1">
            <gpxtpx:hr>125</gpxtpx:hr>
          </gpxtpx:TrackPointExtension>
        </extensions>
      </trkpt>
      <trkpt lat="50.63929" lon="5.20445">
        <ele>148.80000305176</ele>
        <time>2019-11-09T10:42:51.000Z</time>
        <extensions>
          <gpxtpx:TrackPointExtension xmlns:gpxtpx="http://www.garmin.com/xmlschemas/TrackPointExtension/v1">
            <gpxtpx:hr>122</gpxtpx:hr>
          </gpxtpx:TrackPointExtension>
        </extensions>
      </trkpt>
      <trkpt lat="50.63945" lon="5.20486">
        <ele>148.80000305176</ele>
        <time>2019-11-09T10:42:56.000Z</time>
        <extensions>
          <gpxtpx:TrackPointExtension xmlns:gpxtpx="http://www.garmin.com/xmlschemas/TrackPointExtension/v1">
            <gpxtpx:hr>120</gpxtpx:hr>
          </gpxtpx:TrackPointExtension>
        </extensions>
      </trkpt>
      <trkpt lat="50.6396" lon="5.20526">
        <ele>152</ele>
        <time>2019-11-09T10:42:59.000Z</time>
      </trkpt>
      <trkpt lat="50.63974" lon="5.20557">
        <ele>148</ele>
        <time>2019-11-09T10:43:04.000Z</time>
        <extensions>
          <gpxtpx:TrackPointExtension xmlns:gpxtpx="http://www.garmin.com/xmlschemas/TrackPointExtension/v1">
            <gpxtpx:hr>117</gpxtpx:hr>
          </gpxtpx:TrackPointExtension>
        </extensions>
      </trkpt>
      <trkpt lat="50.63982" lon="5.20575">
        <ele>147.60000610352</ele>
        <time>2019-11-09T10:43:05.000Z</time>
        <extensions>
          <gpxtpx:TrackPointExtension xmlns:gpxtpx="http://www.garmin.com/xmlschemas/TrackPointExtension/v1">
            <gpxtpx:hr>118</gpxtpx:hr>
          </gpxtpx:TrackPointExtension>
        </extensions>
      </trkpt>
      <trkpt lat="50.64012" lon="5.2064">
        <ele>149.7</ele>
        <time>2019-11-09T10:43:07.000Z</time>
      </trkpt>
      <trkpt lat="50.64042" lon="5.20703">
        <ele>146.80000305176</ele>
        <time>2019-11-09T10:43:09.000Z</time>
        <extensions>
          <gpxtpx:TrackPointExtension xmlns:gpxtpx="http://www.garmin.com/xmlschemas/TrackPointExtension/v1">
            <gpxtpx:hr>121</gpxtpx:hr>
          </gpxtpx:TrackPointExtension>
        </extensions>
      </trkpt>
      <trkpt lat="50.64064" lon="5.2075">
        <ele>147</ele>
        <time>2019-11-09T10:43:10.000Z</time>
        <extensions>
          <gpxtpx:TrackPointExtension xmlns:gpxtpx="http://www.garmin.com/xmlschemas/TrackPointExtension/v1">
            <gpxtpx:hr>118</gpxtpx:hr>
          </gpxtpx:TrackPointExtension>
        </extensions>
      </trkpt>
      <trkpt lat="50.64073" lon="5.20774">
        <ele>150.6</ele>
        <time>2019-11-09T10:43:12.000Z</time>
      </trkpt>
      <trkpt lat="50.64078" lon="5.2079">
        <ele>147.80000305176</ele>
        <time>2019-11-09T10:43:22.000Z</time>
        <extensions>
          <gpxtpx:TrackPointExtension xmlns:gpxtpx="http://www.garmin.com/xmlschemas/TrackPointExtension/v1">
            <gpxtpx:hr>114</gpxtpx:hr>
          </gpxtpx:TrackPointExtension>
        </extensions>
      </trkpt>
      <trkpt lat="50.64082" lon="5.20818">
        <ele>148.19999694824</ele>
        <time>2019-11-09T10:43:23.000Z</time>
        <extensions>
          <gpxtpx:TrackPointExtension xmlns:gpxtpx="http://www.garmin.com/xmlschemas/TrackPointExtension/v1">
            <gpxtpx:hr>113</gpxtpx:hr>
          </gpxtpx:TrackPointExtension>
        </extensions>
      </trkpt>
      <trkpt lat="50.64082" lon="5.20825">
        <ele>148.39999389648</ele>
        <time>2019-11-09T10:43:25.000Z</time>
        <extensions>
          <gpxtpx:TrackPointExtension xmlns:gpxtpx="http://www.garmin.com/xmlschemas/TrackPointExtension/v1">
            <gpxtpx:hr>113</gpxtpx:hr>
          </gpxtpx:TrackPointExtension>
        </extensions>
      </trkpt>
      <trkpt lat="50.64081" lon="5.20861">
        <ele>148.60000610352</ele>
        <time>2019-11-09T10:43:27.000Z</time>
        <extensions>
          <gpxtpx:TrackPointExtension xmlns:gpxtpx="http://www.garmin.com/xmlschemas/TrackPointExtension/v1">
            <gpxtpx:hr>114</gpxtpx:hr>
          </gpxtpx:TrackPointExtension>
        </extensions>
      </trkpt>
      <trkpt lat="50.6408" lon="5.20883">
        <ele>148.60000610352</ele>
        <time>2019-11-09T10:43:32.000Z</time>
        <extensions>
          <gpxtpx:TrackPointExtension xmlns:gpxtpx="http://www.garmin.com/xmlschemas/TrackPointExtension/v1">
            <gpxtpx:hr>116</gpxtpx:hr>
          </gpxtpx:TrackPointExtension>
        </extensions>
      </trkpt>
      <trkpt lat="50.64078" lon="5.20937">
        <ele>148.60000610352</ele>
        <time>2019-11-09T10:43:34.000Z</time>
        <extensions>
          <gpxtpx:TrackPointExtension xmlns:gpxtpx="http://www.garmin.com/xmlschemas/TrackPointExtension/v1">
            <gpxtpx:hr>119</gpxtpx:hr>
          </gpxtpx:TrackPointExtension>
        </extensions>
      </trkpt>
      <trkpt lat="50.64078" lon="5.20965">
        <ele>153.7</ele>
        <time>2019-11-09T10:43:35.000Z</time>
      </trkpt>
      <trkpt lat="50.64085" lon="5.20972">
        <ele>148.80000305176</ele>
        <time>2019-11-09T10:43:38.000Z</time>
        <extensions>
          <gpxtpx:TrackPointExtension xmlns:gpxtpx="http://www.garmin.com/xmlschemas/TrackPointExtension/v1">
            <gpxtpx:hr>120</gpxtpx:hr>
          </gpxtpx:TrackPointExtension>
        </extensions>
      </trkpt>
      <trkpt lat="50.64097" lon="5.2098">
        <ele>153.6</ele>
        <time>2019-11-09T10:43:40.000Z</time>
      </trkpt>
      <trkpt lat="50.64108" lon="5.20987">
        <ele>153.5</ele>
        <time>2019-11-09T10:44:07.000Z</time>
      </trkpt>
      <trkpt lat="50.64128" lon="5.21001">
        <ele>153.9</ele>
        <time>2019-11-09T10:44:08.000Z</time>
      </trkpt>
      <trkpt lat="50.64137" lon="5.21012">
        <ele>149.60000610352</ele>
        <time>2019-11-09T10:44:09.000Z</time>
        <extensions>
          <gpxtpx:TrackPointExtension xmlns:gpxtpx="http://www.garmin.com/xmlschemas/TrackPointExtension/v1">
            <gpxtpx:hr>125</gpxtpx:hr>
          </gpxtpx:TrackPointExtension>
        </extensions>
      </trkpt>
      <trkpt lat="50.64166" lon="5.21028">
        <ele>153.9</ele>
        <time>2019-11-09T10:44:10.000Z</time>
      </trkpt>
      <trkpt lat="50.64195" lon="5.21046">
        <ele>153.2</ele>
        <time>2019-11-09T10:44:11.000Z</time>
      </trkpt>
      <trkpt lat="50.64228" lon="5.21069">
        <ele>153.1</ele>
        <time>2019-11-09T10:44:12.000Z</time>
      </trkpt>
      <trkpt lat="50.64233" lon="5.21086">
        <ele>153.8</ele>
        <time>2019-11-09T10:44:14.000Z</time>
      </trkpt>
      <trkpt lat="50.64234" lon="5.21108">
        <ele>154.1</ele>
        <time>2019-11-09T10:44:18.000Z</time>
      </trkpt>
      <trkpt lat="50.64235" lon="5.21136">
        <ele>154.5</ele>
        <time>2019-11-09T10:44:20.000Z</time>
      </trkpt>
      <trkpt lat="50.64236" lon="5.21211">
        <ele>151.19999694824</ele>
        <time>2019-11-09T10:44:21.000Z</time>
        <extensions>
          <gpxtpx:TrackPointExtension xmlns:gpxtpx="http://www.garmin.com/xmlschemas/TrackPointExtension/v1">
            <gpxtpx:hr>124</gpxtpx:hr>
          </gpxtpx:TrackPointExtension>
        </extensions>
      </trkpt>
      <trkpt lat="50.64236" lon="5.21221">
        <ele>151.19999694824</ele>
        <time>2019-11-09T10:44:22.000Z</time>
        <extensions>
          <gpxtpx:TrackPointExtension xmlns:gpxtpx="http://www.garmin.com/xmlschemas/TrackPointExtension/v1">
            <gpxtpx:hr>124</gpxtpx:hr>
          </gpxtpx:TrackPointExtension>
        </extensions>
      </trkpt>
      <trkpt lat="50.6424" lon="5.21264">
        <ele>154.1</ele>
        <time>2019-11-09T10:44:23.000Z</time>
      </trkpt>
      <trkpt lat="50.64244" lon="5.21304">
        <ele>154.1</ele>
        <time>2019-11-09T10:44:25.000Z</time>
      </trkpt>
      <trkpt lat="50.64255" lon="5.21374">
        <ele>153.5</ele>
        <time>2019-11-09T10:44:29.000Z</time>
      </trkpt>
      <trkpt lat="50.64268" lon="5.21448">
        <ele>154.1</ele>
        <time>2019-11-09T10:44:30.000Z</time>
      </trkpt>
      <trkpt lat="50.6428" lon="5.21519">
        <ele>154.8</ele>
        <time>2019-11-09T10:44:31.000Z</time>
      </trkpt>
      <trkpt lat="50.64285" lon="5.2155">
        <ele>154.8</ele>
        <time>2019-11-09T10:44:33.000Z</time>
      </trkpt>
      <trkpt lat="50.64294" lon="5.21587">
        <ele>152.80000305176</ele>
        <time>2019-11-09T10:44:35.000Z</time>
        <extensions>
          <gpxtpx:TrackPointExtension xmlns:gpxtpx="http://www.garmin.com/xmlschemas/TrackPointExtension/v1">
            <gpxtpx:hr>129</gpxtpx:hr>
          </gpxtpx:TrackPointExtension>
        </extensions>
      </trkpt>
      <trkpt lat="50.64317" lon="5.21668">
        <ele>152.60000610352</ele>
        <time>2019-11-09T10:44:36.000Z</time>
        <extensions>
          <gpxtpx:TrackPointExtension xmlns:gpxtpx="http://www.garmin.com/xmlschemas/TrackPointExtension/v1">
            <gpxtpx:hr>128</gpxtpx:hr>
          </gpxtpx:TrackPointExtension>
        </extensions>
      </trkpt>
      <trkpt lat="50.64325" lon="5.21698">
        <ele>152.19999694824</ele>
        <time>2019-11-09T10:44:37.000Z</time>
        <extensions>
          <gpxtpx:TrackPointExtension xmlns:gpxtpx="http://www.garmin.com/xmlschemas/TrackPointExtension/v1">
            <gpxtpx:hr>125</gpxtpx:hr>
          </gpxtpx:TrackPointExtension>
        </extensions>
      </trkpt>
      <trkpt lat="50.64327" lon="5.21704">
        <ele>152.19999694824</ele>
        <time>2019-11-09T10:44:38.000Z</time>
        <extensions>
          <gpxtpx:TrackPointExtension xmlns:gpxtpx="http://www.garmin.com/xmlschemas/TrackPointExtension/v1">
            <gpxtpx:hr>124</gpxtpx:hr>
          </gpxtpx:TrackPointExtension>
        </extensions>
      </trkpt>
      <trkpt lat="50.64339" lon="5.2174">
        <ele>151.80000305176</ele>
        <time>2019-11-09T10:44:40.000Z</time>
        <extensions>
          <gpxtpx:TrackPointExtension xmlns:gpxtpx="http://www.garmin.com/xmlschemas/TrackPointExtension/v1">
            <gpxtpx:hr>121</gpxtpx:hr>
          </gpxtpx:TrackPointExtension>
        </extensions>
      </trkpt>
      <trkpt lat="50.64341" lon="5.21749">
        <ele>151.60000610352</ele>
        <time>2019-11-09T10:44:42.000Z</time>
        <extensions>
          <gpxtpx:TrackPointExtension xmlns:gpxtpx="http://www.garmin.com/xmlschemas/TrackPointExtension/v1">
            <gpxtpx:hr>120</gpxtpx:hr>
          </gpxtpx:TrackPointExtension>
        </extensions>
      </trkpt>
      <trkpt lat="50.64347" lon="5.21766">
        <ele>151.60000610352</ele>
        <time>2019-11-09T10:44:43.000Z</time>
        <extensions>
          <gpxtpx:TrackPointExtension xmlns:gpxtpx="http://www.garmin.com/xmlschemas/TrackPointExtension/v1">
            <gpxtpx:hr>117</gpxtpx:hr>
          </gpxtpx:TrackPointExtension>
        </extensions>
      </trkpt>
      <trkpt lat="50.6436" lon="5.21804">
        <ele>151</ele>
        <time>2019-11-09T10:44:44.000Z</time>
        <extensions>
          <gpxtpx:TrackPointExtension xmlns:gpxtpx="http://www.garmin.com/xmlschemas/TrackPointExtension/v1">
            <gpxtpx:hr>115</gpxtpx:hr>
          </gpxtpx:TrackPointExtension>
        </extensions>
      </trkpt>
      <trkpt lat="50.64364" lon="5.21813">
        <ele>151</ele>
        <time>2019-11-09T10:44:46.000Z</time>
        <extensions>
          <gpxtpx:TrackPointExtension xmlns:gpxtpx="http://www.garmin.com/xmlschemas/TrackPointExtension/v1">
            <gpxtpx:hr>114</gpxtpx:hr>
          </gpxtpx:TrackPointExtension>
        </extensions>
      </trkpt>
      <trkpt lat="50.64383" lon="5.21873">
        <ele>150</ele>
        <time>2019-11-09T10:44:48.000Z</time>
        <extensions>
          <gpxtpx:TrackPointExtension xmlns:gpxtpx="http://www.garmin.com/xmlschemas/TrackPointExtension/v1">
            <gpxtpx:hr>117</gpxtpx:hr>
          </gpxtpx:TrackPointExtension>
        </extensions>
      </trkpt>
      <trkpt lat="50.64387" lon="5.21883">
        <ele>149.80000305176</ele>
        <time>2019-11-09T10:44:50.000Z</time>
        <extensions>
          <gpxtpx:TrackPointExtension xmlns:gpxtpx="http://www.garmin.com/xmlschemas/TrackPointExtension/v1">
            <gpxtpx:hr>117</gpxtpx:hr>
          </gpxtpx:TrackPointExtension>
        </extensions>
      </trkpt>
      <trkpt lat="50.644" lon="5.21923">
        <ele>149.39999389648</ele>
        <time>2019-11-09T10:44:51.000Z</time>
        <extensions>
          <gpxtpx:TrackPointExtension xmlns:gpxtpx="http://www.garmin.com/xmlschemas/TrackPointExtension/v1">
            <gpxtpx:hr>118</gpxtpx:hr>
          </gpxtpx:TrackPointExtension>
        </extensions>
      </trkpt>
      <trkpt lat="50.64428" lon="5.22007">
        <ele>148.80000305176</ele>
        <time>2019-11-09T10:44:53.000Z</time>
        <extensions>
          <gpxtpx:TrackPointExtension xmlns:gpxtpx="http://www.garmin.com/xmlschemas/TrackPointExtension/v1">
            <gpxtpx:hr>115</gpxtpx:hr>
          </gpxtpx:TrackPointExtension>
        </extensions>
      </trkpt>
      <trkpt lat="50.64438" lon="5.22039">
        <ele>148</ele>
        <time>2019-11-09T10:44:55.000Z</time>
        <extensions>
          <gpxtpx:TrackPointExtension xmlns:gpxtpx="http://www.garmin.com/xmlschemas/TrackPointExtension/v1">
            <gpxtpx:hr>113</gpxtpx:hr>
          </gpxtpx:TrackPointExtension>
        </extensions>
      </trkpt>
      <trkpt lat="50.64442" lon="5.2205">
        <ele>147.60000610352</ele>
        <time>2019-11-09T10:44:57.000Z</time>
        <extensions>
          <gpxtpx:TrackPointExtension xmlns:gpxtpx="http://www.garmin.com/xmlschemas/TrackPointExtension/v1">
            <gpxtpx:hr>112</gpxtpx:hr>
          </gpxtpx:TrackPointExtension>
        </extensions>
      </trkpt>
      <trkpt lat="50.6446" lon="5.22105">
        <ele>147</ele>
        <time>2019-11-09T10:45:01.000Z</time>
        <extensions>
          <gpxtpx:TrackPointExtension xmlns:gpxtpx="http://www.garmin.com/xmlschemas/TrackPointExtension/v1">
            <gpxtpx:hr>109</gpxtpx:hr>
          </gpxtpx:TrackPointExtension>
        </extensions>
      </trkpt>
      <trkpt lat="50.64465" lon="5.22127">
        <ele>146.60000610352</ele>
        <time>2019-11-09T10:45:02.000Z</time>
        <extensions>
          <gpxtpx:TrackPointExtension xmlns:gpxtpx="http://www.garmin.com/xmlschemas/TrackPointExtension/v1">
            <gpxtpx:hr>108</gpxtpx:hr>
          </gpxtpx:TrackPointExtension>
        </extensions>
      </trkpt>
      <trkpt lat="50.64468" lon="5.22137">
        <ele>146.60000610352</ele>
        <time>2019-11-09T10:45:03.000Z</time>
        <extensions>
          <gpxtpx:TrackPointExtension xmlns:gpxtpx="http://www.garmin.com/xmlschemas/TrackPointExtension/v1">
            <gpxtpx:hr>108</gpxtpx:hr>
          </gpxtpx:TrackPointExtension>
        </extensions>
      </trkpt>
      <trkpt lat="50.64469" lon="5.22147">
        <ele>146.39999389648</ele>
        <time>2019-11-09T10:45:04.000Z</time>
        <extensions>
          <gpxtpx:TrackPointExtension xmlns:gpxtpx="http://www.garmin.com/xmlschemas/TrackPointExtension/v1">
            <gpxtpx:hr>108</gpxtpx:hr>
          </gpxtpx:TrackPointExtension>
        </extensions>
      </trkpt>
      <trkpt lat="50.64468" lon="5.22157">
        <ele>146.39999389648</ele>
        <time>2019-11-09T10:45:07.000Z</time>
        <extensions>
          <gpxtpx:TrackPointExtension xmlns:gpxtpx="http://www.garmin.com/xmlschemas/TrackPointExtension/v1">
            <gpxtpx:hr>107</gpxtpx:hr>
          </gpxtpx:TrackPointExtension>
        </extensions>
      </trkpt>
      <trkpt lat="50.64456" lon="5.22182">
        <ele>146</ele>
        <time>2019-11-09T10:45:08.000Z</time>
        <extensions>
          <gpxtpx:TrackPointExtension xmlns:gpxtpx="http://www.garmin.com/xmlschemas/TrackPointExtension/v1">
            <gpxtpx:hr>108</gpxtpx:hr>
          </gpxtpx:TrackPointExtension>
        </extensions>
      </trkpt>
      <trkpt lat="50.64439" lon="5.22205">
        <ele>145.60000610352</ele>
        <time>2019-11-09T10:45:11.000Z</time>
        <extensions>
          <gpxtpx:TrackPointExtension xmlns:gpxtpx="http://www.garmin.com/xmlschemas/TrackPointExtension/v1">
            <gpxtpx:hr>110</gpxtpx:hr>
          </gpxtpx:TrackPointExtension>
        </extensions>
      </trkpt>
      <trkpt lat="50.64428" lon="5.22221">
        <ele>145.39999389648</ele>
        <time>2019-11-09T10:45:12.000Z</time>
        <extensions>
          <gpxtpx:TrackPointExtension xmlns:gpxtpx="http://www.garmin.com/xmlschemas/TrackPointExtension/v1">
            <gpxtpx:hr>113</gpxtpx:hr>
          </gpxtpx:TrackPointExtension>
        </extensions>
      </trkpt>
      <trkpt lat="50.64416" lon="5.22238">
        <ele>144.60000610352</ele>
        <time>2019-11-09T10:45:13.000Z</time>
        <extensions>
          <gpxtpx:TrackPointExtension xmlns:gpxtpx="http://www.garmin.com/xmlschemas/TrackPointExtension/v1">
            <gpxtpx:hr>115</gpxtpx:hr>
          </gpxtpx:TrackPointExtension>
        </extensions>
      </trkpt>
      <trkpt lat="50.6441" lon="5.22247">
        <ele>144.39999389648</ele>
        <time>2019-11-09T10:45:17.000Z</time>
        <extensions>
          <gpxtpx:TrackPointExtension xmlns:gpxtpx="http://www.garmin.com/xmlschemas/TrackPointExtension/v1">
            <gpxtpx:hr>116</gpxtpx:hr>
          </gpxtpx:TrackPointExtension>
        </extensions>
      </trkpt>
      <trkpt lat="50.64388" lon="5.22278">
        <ele>143.39999389648</ele>
        <time>2019-11-09T10:45:23.000Z</time>
        <extensions>
          <gpxtpx:TrackPointExtension xmlns:gpxtpx="http://www.garmin.com/xmlschemas/TrackPointExtension/v1">
            <gpxtpx:hr>119</gpxtpx:hr>
          </gpxtpx:TrackPointExtension>
        </extensions>
      </trkpt>
      <trkpt lat="50.64383" lon="5.22286">
        <ele>143.19999694824</ele>
        <time>2019-11-09T10:45:24.000Z</time>
        <extensions>
          <gpxtpx:TrackPointExtension xmlns:gpxtpx="http://www.garmin.com/xmlschemas/TrackPointExtension/v1">
            <gpxtpx:hr>119</gpxtpx:hr>
          </gpxtpx:TrackPointExtension>
        </extensions>
      </trkpt>
      <trkpt lat="50.64373" lon="5.22301">
        <ele>143</ele>
        <time>2019-11-09T10:45:27.000Z</time>
        <extensions>
          <gpxtpx:TrackPointExtension xmlns:gpxtpx="http://www.garmin.com/xmlschemas/TrackPointExtension/v1">
            <gpxtpx:hr>120</gpxtpx:hr>
          </gpxtpx:TrackPointExtension>
        </extensions>
      </trkpt>
      <trkpt lat="50.64335" lon="5.22355">
        <ele>143</ele>
        <time>2019-11-09T10:45:28.000Z</time>
        <extensions>
          <gpxtpx:TrackPointExtension xmlns:gpxtpx="http://www.garmin.com/xmlschemas/TrackPointExtension/v1">
            <gpxtpx:hr>121</gpxtpx:hr>
          </gpxtpx:TrackPointExtension>
        </extensions>
      </trkpt>
      <trkpt lat="50.64329" lon="5.22365">
        <ele>143</ele>
        <time>2019-11-09T10:45:30.000Z</time>
        <extensions>
          <gpxtpx:TrackPointExtension xmlns:gpxtpx="http://www.garmin.com/xmlschemas/TrackPointExtension/v1">
            <gpxtpx:hr>121</gpxtpx:hr>
          </gpxtpx:TrackPointExtension>
        </extensions>
      </trkpt>
      <trkpt lat="50.64327" lon="5.22378">
        <ele>143</ele>
        <time>2019-11-09T10:45:33.000Z</time>
        <extensions>
          <gpxtpx:TrackPointExtension xmlns:gpxtpx="http://www.garmin.com/xmlschemas/TrackPointExtension/v1">
            <gpxtpx:hr>121</gpxtpx:hr>
          </gpxtpx:TrackPointExtension>
        </extensions>
      </trkpt>
      <trkpt lat="50.64336" lon="5.22398">
        <ele>143.60000610352</ele>
        <time>2019-11-09T10:45:38.000Z</time>
        <extensions>
          <gpxtpx:TrackPointExtension xmlns:gpxtpx="http://www.garmin.com/xmlschemas/TrackPointExtension/v1">
            <gpxtpx:hr>122</gpxtpx:hr>
          </gpxtpx:TrackPointExtension>
        </extensions>
      </trkpt>
      <trkpt lat="50.64345" lon="5.22412">
        <ele>144.39999389648</ele>
        <time>2019-11-09T10:46:26.000Z</time>
        <extensions>
          <gpxtpx:TrackPointExtension xmlns:gpxtpx="http://www.garmin.com/xmlschemas/TrackPointExtension/v1">
            <gpxtpx:hr>121</gpxtpx:hr>
          </gpxtpx:TrackPointExtension>
        </extensions>
      </trkpt>
      <trkpt lat="50.64361" lon="5.22432">
        <ele>144.80000305176</ele>
        <time>2019-11-09T10:46:28.000Z</time>
        <extensions>
          <gpxtpx:TrackPointExtension xmlns:gpxtpx="http://www.garmin.com/xmlschemas/TrackPointExtension/v1">
            <gpxtpx:hr>121</gpxtpx:hr>
          </gpxtpx:TrackPointExtension>
        </extensions>
      </trkpt>
      <trkpt lat="50.6441" lon="5.22488">
        <ele>144.80000305176</ele>
        <time>2019-11-09T10:46:32.000Z</time>
        <extensions>
          <gpxtpx:TrackPointExtension xmlns:gpxtpx="http://www.garmin.com/xmlschemas/TrackPointExtension/v1">
            <gpxtpx:hr>121</gpxtpx:hr>
          </gpxtpx:TrackPointExtension>
        </extensions>
      </trkpt>
      <trkpt lat="50.64452" lon="5.22536">
        <ele>144.60000610352</ele>
        <time>2019-11-09T10:46:33.000Z</time>
        <extensions>
          <gpxtpx:TrackPointExtension xmlns:gpxtpx="http://www.garmin.com/xmlschemas/TrackPointExtension/v1">
            <gpxtpx:hr>124</gpxtpx:hr>
          </gpxtpx:TrackPointExtension>
        </extensions>
      </trkpt>
      <trkpt lat="50.64464" lon="5.22549">
        <ele>144.80000305176</ele>
        <time>2019-11-09T10:46:34.000Z</time>
        <extensions>
          <gpxtpx:TrackPointExtension xmlns:gpxtpx="http://www.garmin.com/xmlschemas/TrackPointExtension/v1">
            <gpxtpx:hr>124</gpxtpx:hr>
          </gpxtpx:TrackPointExtension>
        </extensions>
      </trkpt>
      <trkpt lat="50.6449" lon="5.22579">
        <ele>146.9</ele>
        <time>2019-11-09T10:46:36.000Z</time>
      </trkpt>
      <trkpt lat="50.64512" lon="5.22608">
        <ele>145.39999389648</ele>
        <time>2019-11-09T10:46:38.000Z</time>
        <extensions>
          <gpxtpx:TrackPointExtension xmlns:gpxtpx="http://www.garmin.com/xmlschemas/TrackPointExtension/v1">
            <gpxtpx:hr>126</gpxtpx:hr>
          </gpxtpx:TrackPointExtension>
        </extensions>
      </trkpt>
      <trkpt lat="50.64518" lon="5.22617">
        <ele>145.39999389648</ele>
        <time>2019-11-09T10:46:39.000Z</time>
        <extensions>
          <gpxtpx:TrackPointExtension xmlns:gpxtpx="http://www.garmin.com/xmlschemas/TrackPointExtension/v1">
            <gpxtpx:hr>126</gpxtpx:hr>
          </gpxtpx:TrackPointExtension>
        </extensions>
      </trkpt>
      <trkpt lat="50.64553" lon="5.22666">
        <ele>145.60000610352</ele>
        <time>2019-11-09T10:46:41.000Z</time>
        <extensions>
          <gpxtpx:TrackPointExtension xmlns:gpxtpx="http://www.garmin.com/xmlschemas/TrackPointExtension/v1">
            <gpxtpx:hr>126</gpxtpx:hr>
          </gpxtpx:TrackPointExtension>
        </extensions>
      </trkpt>
      <trkpt lat="50.64571" lon="5.22691">
        <ele>145.60000610352</ele>
        <time>2019-11-09T10:46:45.000Z</time>
        <extensions>
          <gpxtpx:TrackPointExtension xmlns:gpxtpx="http://www.garmin.com/xmlschemas/TrackPointExtension/v1">
            <gpxtpx:hr>126</gpxtpx:hr>
          </gpxtpx:TrackPointExtension>
        </extensions>
      </trkpt>
      <trkpt lat="50.64583" lon="5.22711">
        <ele>147</ele>
        <time>2019-11-09T10:46:48.000Z</time>
      </trkpt>
      <trkpt lat="50.64595" lon="5.22737">
        <ele>145.80000305176</ele>
        <time>2019-11-09T10:46:54.000Z</time>
        <extensions>
          <gpxtpx:TrackPointExtension xmlns:gpxtpx="http://www.garmin.com/xmlschemas/TrackPointExtension/v1">
            <gpxtpx:hr>127</gpxtpx:hr>
          </gpxtpx:TrackPointExtension>
        </extensions>
      </trkpt>
      <trkpt lat="50.64621" lon="5.22811">
        <ele>146</ele>
        <time>2019-11-09T10:46:55.000Z</time>
        <extensions>
          <gpxtpx:TrackPointExtension xmlns:gpxtpx="http://www.garmin.com/xmlschemas/TrackPointExtension/v1">
            <gpxtpx:hr>126</gpxtpx:hr>
          </gpxtpx:TrackPointExtension>
        </extensions>
      </trkpt>
      <trkpt lat="50.64649" lon="5.22888">
        <ele>146</ele>
        <time>2019-11-09T10:47:03.000Z</time>
        <extensions>
          <gpxtpx:TrackPointExtension xmlns:gpxtpx="http://www.garmin.com/xmlschemas/TrackPointExtension/v1">
            <gpxtpx:hr>125</gpxtpx:hr>
          </gpxtpx:TrackPointExtension>
        </extensions>
      </trkpt>
      <trkpt lat="50.64662" lon="5.22921">
        <ele>146.1</ele>
        <time>2019-11-09T10:47:04.000Z</time>
      </trkpt>
      <trkpt lat="50.64677" lon="5.22945">
        <ele>145.80000305176</ele>
        <time>2019-11-09T10:47:08.000Z</time>
        <extensions>
          <gpxtpx:TrackPointExtension xmlns:gpxtpx="http://www.garmin.com/xmlschemas/TrackPointExtension/v1">
            <gpxtpx:hr>124</gpxtpx:hr>
          </gpxtpx:TrackPointExtension>
        </extensions>
      </trkpt>
      <trkpt lat="50.64697" lon="5.22972">
        <ele>144.19999694824</ele>
        <time>2019-11-09T10:47:13.000Z</time>
        <extensions>
          <gpxtpx:TrackPointExtension xmlns:gpxtpx="http://www.garmin.com/xmlschemas/TrackPointExtension/v1">
            <gpxtpx:hr>123</gpxtpx:hr>
          </gpxtpx:TrackPointExtension>
        </extensions>
      </trkpt>
      <trkpt lat="50.64717" lon="5.22997">
        <ele>143.80000305176</ele>
        <time>2019-11-09T10:47:14.000Z</time>
        <extensions>
          <gpxtpx:TrackPointExtension xmlns:gpxtpx="http://www.garmin.com/xmlschemas/TrackPointExtension/v1">
            <gpxtpx:hr>123</gpxtpx:hr>
          </gpxtpx:TrackPointExtension>
        </extensions>
      </trkpt>
      <trkpt lat="50.6476" lon="5.23052">
        <ele>144</ele>
        <time>2019-11-09T10:47:27.000Z</time>
        <extensions>
          <gpxtpx:TrackPointExtension xmlns:gpxtpx="http://www.garmin.com/xmlschemas/TrackPointExtension/v1">
            <gpxtpx:hr>122</gpxtpx:hr>
          </gpxtpx:TrackPointExtension>
        </extensions>
      </trkpt>
      <trkpt lat="50.64766" lon="5.23059">
        <ele>144</ele>
        <time>2019-11-09T10:47:42.000Z</time>
        <extensions>
          <gpxtpx:TrackPointExtension xmlns:gpxtpx="http://www.garmin.com/xmlschemas/TrackPointExtension/v1">
            <gpxtpx:hr>122</gpxtpx:hr>
          </gpxtpx:TrackPointExtension>
        </extensions>
      </trkpt>
      <trkpt lat="50.64806" lon="5.23109">
        <ele>145.39999389648</ele>
        <time>2019-11-09T10:47:46.000Z</time>
        <extensions>
          <gpxtpx:TrackPointExtension xmlns:gpxtpx="http://www.garmin.com/xmlschemas/TrackPointExtension/v1">
            <gpxtpx:hr>121</gpxtpx:hr>
          </gpxtpx:TrackPointExtension>
        </extensions>
      </trkpt>
      <trkpt lat="50.64823" lon="5.23132">
        <ele>145.80000305176</ele>
        <time>2019-11-09T10:47:51.000Z</time>
        <extensions>
          <gpxtpx:TrackPointExtension xmlns:gpxtpx="http://www.garmin.com/xmlschemas/TrackPointExtension/v1">
            <gpxtpx:hr>121</gpxtpx:hr>
          </gpxtpx:TrackPointExtension>
        </extensions>
      </trkpt>
      <trkpt lat="50.64843" lon="5.23167">
        <ele>146.39999389648</ele>
        <time>2019-11-09T10:47:56.000Z</time>
        <extensions>
          <gpxtpx:TrackPointExtension xmlns:gpxtpx="http://www.garmin.com/xmlschemas/TrackPointExtension/v1">
            <gpxtpx:hr>121</gpxtpx:hr>
          </gpxtpx:TrackPointExtension>
        </extensions>
      </trkpt>
      <trkpt lat="50.64863" lon="5.23203">
        <ele>146.60000610352</ele>
        <time>2019-11-09T10:48:02.000Z</time>
        <extensions>
          <gpxtpx:TrackPointExtension xmlns:gpxtpx="http://www.garmin.com/xmlschemas/TrackPointExtension/v1">
            <gpxtpx:hr>121</gpxtpx:hr>
          </gpxtpx:TrackPointExtension>
        </extensions>
      </trkpt>
      <trkpt lat="50.64901" lon="5.23279">
        <ele>146.60000610352</ele>
        <time>2019-11-09T10:48:08.000Z</time>
        <extensions>
          <gpxtpx:TrackPointExtension xmlns:gpxtpx="http://www.garmin.com/xmlschemas/TrackPointExtension/v1">
            <gpxtpx:hr>122</gpxtpx:hr>
          </gpxtpx:TrackPointExtension>
        </extensions>
      </trkpt>
      <trkpt lat="50.64906" lon="5.23289">
        <ele>146.60000610352</ele>
        <time>2019-11-09T10:48:13.000Z</time>
        <extensions>
          <gpxtpx:TrackPointExtension xmlns:gpxtpx="http://www.garmin.com/xmlschemas/TrackPointExtension/v1">
            <gpxtpx:hr>122</gpxtpx:hr>
          </gpxtpx:TrackPointExtension>
        </extensions>
      </trkpt>
      <trkpt lat="50.64945" lon="5.23351">
        <ele>146.60000610352</ele>
        <time>2019-11-09T10:48:14.000Z</time>
        <extensions>
          <gpxtpx:TrackPointExtension xmlns:gpxtpx="http://www.garmin.com/xmlschemas/TrackPointExtension/v1">
            <gpxtpx:hr>121</gpxtpx:hr>
          </gpxtpx:TrackPointExtension>
        </extensions>
      </trkpt>
      <trkpt lat="50.64951" lon="5.23359">
        <ele>146.39999389648</ele>
        <time>2019-11-09T10:48:18.000Z</time>
        <extensions>
          <gpxtpx:TrackPointExtension xmlns:gpxtpx="http://www.garmin.com/xmlschemas/TrackPointExtension/v1">
            <gpxtpx:hr>121</gpxtpx:hr>
          </gpxtpx:TrackPointExtension>
        </extensions>
      </trkpt>
      <trkpt lat="50.64993" lon="5.23414">
        <ele>146.39999389648</ele>
        <time>2019-11-09T10:48:19.000Z</time>
        <extensions>
          <gpxtpx:TrackPointExtension xmlns:gpxtpx="http://www.garmin.com/xmlschemas/TrackPointExtension/v1">
            <gpxtpx:hr>122</gpxtpx:hr>
          </gpxtpx:TrackPointExtension>
        </extensions>
      </trkpt>
      <trkpt lat="50.65005" lon="5.23431">
        <ele>146.60000610352</ele>
        <time>2019-11-09T10:48:20.000Z</time>
        <extensions>
          <gpxtpx:TrackPointExtension xmlns:gpxtpx="http://www.garmin.com/xmlschemas/TrackPointExtension/v1">
            <gpxtpx:hr>122</gpxtpx:hr>
          </gpxtpx:TrackPointExtension>
        </extensions>
      </trkpt>
      <trkpt lat="50.65044" lon="5.23496">
        <ele>147</ele>
        <time>2019-11-09T10:48:24.000Z</time>
        <extensions>
          <gpxtpx:TrackPointExtension xmlns:gpxtpx="http://www.garmin.com/xmlschemas/TrackPointExtension/v1">
            <gpxtpx:hr>124</gpxtpx:hr>
          </gpxtpx:TrackPointExtension>
        </extensions>
      </trkpt>
      <trkpt lat="50.65082" lon="5.23564">
        <ele>146.60000610352</ele>
        <time>2019-11-09T10:48:30.000Z</time>
        <extensions>
          <gpxtpx:TrackPointExtension xmlns:gpxtpx="http://www.garmin.com/xmlschemas/TrackPointExtension/v1">
            <gpxtpx:hr>125</gpxtpx:hr>
          </gpxtpx:TrackPointExtension>
        </extensions>
      </trkpt>
      <trkpt lat="50.65092" lon="5.23583">
        <ele>146.60000610352</ele>
        <time>2019-11-09T10:48:32.000Z</time>
        <extensions>
          <gpxtpx:TrackPointExtension xmlns:gpxtpx="http://www.garmin.com/xmlschemas/TrackPointExtension/v1">
            <gpxtpx:hr>125</gpxtpx:hr>
          </gpxtpx:TrackPointExtension>
        </extensions>
      </trkpt>
      <trkpt lat="50.65121" lon="5.23657">
        <ele>146.39999389648</ele>
        <time>2019-11-09T10:48:35.000Z</time>
        <extensions>
          <gpxtpx:TrackPointExtension xmlns:gpxtpx="http://www.garmin.com/xmlschemas/TrackPointExtension/v1">
            <gpxtpx:hr>128</gpxtpx:hr>
          </gpxtpx:TrackPointExtension>
        </extensions>
      </trkpt>
      <trkpt lat="50.65125" lon="5.23668">
        <ele>146.60000610352</ele>
        <time>2019-11-09T10:48:36.000Z</time>
        <extensions>
          <gpxtpx:TrackPointExtension xmlns:gpxtpx="http://www.garmin.com/xmlschemas/TrackPointExtension/v1">
            <gpxtpx:hr>127</gpxtpx:hr>
          </gpxtpx:TrackPointExtension>
        </extensions>
      </trkpt>
      <trkpt lat="50.65145" lon="5.2375">
        <ele>146.60000610352</ele>
        <time>2019-11-09T10:48:38.000Z</time>
        <extensions>
          <gpxtpx:TrackPointExtension xmlns:gpxtpx="http://www.garmin.com/xmlschemas/TrackPointExtension/v1">
            <gpxtpx:hr>127</gpxtpx:hr>
          </gpxtpx:TrackPointExtension>
        </extensions>
      </trkpt>
      <trkpt lat="50.6516" lon="5.23835">
        <ele>146.60000610352</ele>
        <time>2019-11-09T10:48:40.000Z</time>
        <extensions>
          <gpxtpx:TrackPointExtension xmlns:gpxtpx="http://www.garmin.com/xmlschemas/TrackPointExtension/v1">
            <gpxtpx:hr>127</gpxtpx:hr>
          </gpxtpx:TrackPointExtension>
        </extensions>
      </trkpt>
      <trkpt lat="50.65162" lon="5.23847">
        <ele>146.60000610352</ele>
        <time>2019-11-09T10:48:41.000Z</time>
        <extensions>
          <gpxtpx:TrackPointExtension xmlns:gpxtpx="http://www.garmin.com/xmlschemas/TrackPointExtension/v1">
            <gpxtpx:hr>128</gpxtpx:hr>
          </gpxtpx:TrackPointExtension>
        </extensions>
      </trkpt>
      <trkpt lat="50.65177" lon="5.23931">
        <ele>146.39999389648</ele>
        <time>2019-11-09T10:48:45.000Z</time>
        <extensions>
          <gpxtpx:TrackPointExtension xmlns:gpxtpx="http://www.garmin.com/xmlschemas/TrackPointExtension/v1">
            <gpxtpx:hr>127</gpxtpx:hr>
          </gpxtpx:TrackPointExtension>
        </extensions>
      </trkpt>
      <trkpt lat="50.65183" lon="5.23967">
        <ele>146.39999389648</ele>
        <time>2019-11-09T10:48:50.000Z</time>
        <extensions>
          <gpxtpx:TrackPointExtension xmlns:gpxtpx="http://www.garmin.com/xmlschemas/TrackPointExtension/v1">
            <gpxtpx:hr>128</gpxtpx:hr>
          </gpxtpx:TrackPointExtension>
        </extensions>
      </trkpt>
      <trkpt lat="50.652" lon="5.24055">
        <ele>146.39999389648</ele>
        <time>2019-11-09T10:48:54.000Z</time>
        <extensions>
          <gpxtpx:TrackPointExtension xmlns:gpxtpx="http://www.garmin.com/xmlschemas/TrackPointExtension/v1">
            <gpxtpx:hr>128</gpxtpx:hr>
          </gpxtpx:TrackPointExtension>
        </extensions>
      </trkpt>
      <trkpt lat="50.65202" lon="5.24064">
        <ele>146.39999389648</ele>
        <time>2019-11-09T10:48:57.000Z</time>
        <extensions>
          <gpxtpx:TrackPointExtension xmlns:gpxtpx="http://www.garmin.com/xmlschemas/TrackPointExtension/v1">
            <gpxtpx:hr>128</gpxtpx:hr>
          </gpxtpx:TrackPointExtension>
        </extensions>
      </trkpt>
      <trkpt lat="50.6521" lon="5.24103">
        <ele>147.80000305176</ele>
        <time>2019-11-09T10:49:03.000Z</time>
        <extensions>
          <gpxtpx:TrackPointExtension xmlns:gpxtpx="http://www.garmin.com/xmlschemas/TrackPointExtension/v1">
            <gpxtpx:hr>127</gpxtpx:hr>
          </gpxtpx:TrackPointExtension>
        </extensions>
      </trkpt>
      <trkpt lat="50.65216" lon="5.24125">
        <ele>151.1</ele>
        <time>2019-11-09T10:49:06.000Z</time>
      </trkpt>
      <trkpt lat="50.65228" lon="5.24147">
        <ele>151.5</ele>
        <time>2019-11-09T10:49:10.000Z</time>
      </trkpt>
      <trkpt lat="50.65255" lon="5.24186">
        <ele>151.9</ele>
        <time>2019-11-09T10:49:13.000Z</time>
      </trkpt>
      <trkpt lat="50.65276" lon="5.24217">
        <ele>151.1</ele>
        <time>2019-11-09T10:49:16.000Z</time>
      </trkpt>
      <trkpt lat="50.65291" lon="5.24245">
        <ele>149.19999694824</ele>
        <time>2019-11-09T10:49:21.000Z</time>
        <extensions>
          <gpxtpx:TrackPointExtension xmlns:gpxtpx="http://www.garmin.com/xmlschemas/TrackPointExtension/v1">
            <gpxtpx:hr>122</gpxtpx:hr>
          </gpxtpx:TrackPointExtension>
        </extensions>
      </trkpt>
      <trkpt lat="50.65294" lon="5.24253">
        <ele>149</ele>
        <time>2019-11-09T10:51:25.000Z</time>
        <extensions>
          <gpxtpx:TrackPointExtension xmlns:gpxtpx="http://www.garmin.com/xmlschemas/TrackPointExtension/v1">
            <gpxtpx:hr>121</gpxtpx:hr>
          </gpxtpx:TrackPointExtension>
        </extensions>
      </trkpt>
      <trkpt lat="50.65302" lon="5.24267">
        <ele>149.9</ele>
        <time>2019-11-09T10:51:29.000Z</time>
      </trkpt>
      <trkpt lat="50.65316" lon="5.24314">
        <ele>149.5</ele>
        <time>2019-11-09T10:51:30.000Z</time>
      </trkpt>
      <trkpt lat="50.65327" lon="5.24346">
        <ele>148.6</ele>
        <time>2019-11-09T10:51:32.000Z</time>
      </trkpt>
      <trkpt lat="50.65335" lon="5.24368">
        <ele>148.6</ele>
        <time>2019-11-09T10:51:34.000Z</time>
      </trkpt>
      <trkpt lat="50.65343" lon="5.24391">
        <ele>148.4</ele>
        <time>2019-11-09T10:51:44.000Z</time>
      </trkpt>
      <trkpt lat="50.65355" lon="5.24415">
        <ele>148.3</ele>
      </trkpt>
      <trkpt lat="50.65363" lon="5.24431">
        <ele>147</ele>
      </trkpt>
      <trkpt lat="50.65379" lon="5.24456">
        <ele>146.5</ele>
      </trkpt>
      <trkpt lat="50.65393" lon="5.24473">
        <ele>146.2</ele>
      </trkpt>
      <trkpt lat="50.65383" lon="5.24493">
        <ele>142.80000305176</ele>
        <extensions>
          <gpxtpx:TrackPointExtension xmlns:gpxtpx="http://www.garmin.com/xmlschemas/TrackPointExtension/v1">
            <gpxtpx:hr>111</gpxtpx:hr>
          </gpxtpx:TrackPointExtension>
        </extensions>
      </trkpt>
      <trkpt lat="50.65379" lon="5.24509">
        <ele>142.19999694824</ele>
        <extensions>
          <gpxtpx:TrackPointExtension xmlns:gpxtpx="http://www.garmin.com/xmlschemas/TrackPointExtension/v1">
            <gpxtpx:hr>110</gpxtpx:hr>
          </gpxtpx:TrackPointExtension>
        </extensions>
      </trkpt>
      <trkpt lat="50.65371" lon="5.24537">
        <ele>141.80000305176</ele>
        <extensions>
          <gpxtpx:TrackPointExtension xmlns:gpxtpx="http://www.garmin.com/xmlschemas/TrackPointExtension/v1">
            <gpxtpx:hr>108</gpxtpx:hr>
          </gpxtpx:TrackPointExtension>
        </extensions>
      </trkpt>
      <trkpt lat="50.65363" lon="5.24567">
        <ele>141</ele>
        <extensions>
          <gpxtpx:TrackPointExtension xmlns:gpxtpx="http://www.garmin.com/xmlschemas/TrackPointExtension/v1">
            <gpxtpx:hr>105</gpxtpx:hr>
          </gpxtpx:TrackPointExtension>
        </extensions>
      </trkpt>
      <trkpt lat="50.65356" lon="5.24598">
        <ele>139.60000610352</ele>
        <extensions>
          <gpxtpx:TrackPointExtension xmlns:gpxtpx="http://www.garmin.com/xmlschemas/TrackPointExtension/v1">
            <gpxtpx:hr>105</gpxtpx:hr>
          </gpxtpx:TrackPointExtension>
        </extensions>
      </trkpt>
      <trkpt lat="50.6535" lon="5.2462">
        <ele>138.80000305176</ele>
        <extensions>
          <gpxtpx:TrackPointExtension xmlns:gpxtpx="http://www.garmin.com/xmlschemas/TrackPointExtension/v1">
            <gpxtpx:hr>106</gpxtpx:hr>
          </gpxtpx:TrackPointExtension>
        </extensions>
      </trkpt>
      <trkpt lat="50.65346" lon="5.2463">
        <ele>138.39999389648</ele>
        <extensions>
          <gpxtpx:TrackPointExtension xmlns:gpxtpx="http://www.garmin.com/xmlschemas/TrackPointExtension/v1">
            <gpxtpx:hr>106</gpxtpx:hr>
          </gpxtpx:TrackPointExtension>
        </extensions>
      </trkpt>
      <trkpt lat="50.65331" lon="5.24656">
        <ele>137.60000610352</ele>
        <extensions>
          <gpxtpx:TrackPointExtension xmlns:gpxtpx="http://www.garmin.com/xmlschemas/TrackPointExtension/v1">
            <gpxtpx:hr>107</gpxtpx:hr>
          </gpxtpx:TrackPointExtension>
        </extensions>
      </trkpt>
      <trkpt lat="50.65321" lon="5.24673">
        <ele>137.39999389648</ele>
        <extensions>
          <gpxtpx:TrackPointExtension xmlns:gpxtpx="http://www.garmin.com/xmlschemas/TrackPointExtension/v1">
            <gpxtpx:hr>106</gpxtpx:hr>
          </gpxtpx:TrackPointExtension>
        </extensions>
      </trkpt>
      <trkpt lat="50.65303" lon="5.24697">
        <ele>137</ele>
        <extensions>
          <gpxtpx:TrackPointExtension xmlns:gpxtpx="http://www.garmin.com/xmlschemas/TrackPointExtension/v1">
            <gpxtpx:hr>107</gpxtpx:hr>
          </gpxtpx:TrackPointExtension>
        </extensions>
      </trkpt>
      <trkpt lat="50.65276" lon="5.24716">
        <ele>136</ele>
        <extensions>
          <gpxtpx:TrackPointExtension xmlns:gpxtpx="http://www.garmin.com/xmlschemas/TrackPointExtension/v1">
            <gpxtpx:hr>109</gpxtpx:hr>
          </gpxtpx:TrackPointExtension>
        </extensions>
      </trkpt>
      <trkpt lat="50.65261" lon="5.24721">
        <ele>135.60000610352</ele>
        <extensions>
          <gpxtpx:TrackPointExtension xmlns:gpxtpx="http://www.garmin.com/xmlschemas/TrackPointExtension/v1">
            <gpxtpx:hr>112</gpxtpx:hr>
          </gpxtpx:TrackPointExtension>
        </extensions>
      </trkpt>
      <trkpt lat="50.65247" lon="5.24727">
        <ele>135.19999694824</ele>
        <extensions>
          <gpxtpx:TrackPointExtension xmlns:gpxtpx="http://www.garmin.com/xmlschemas/TrackPointExtension/v1">
            <gpxtpx:hr>115</gpxtpx:hr>
          </gpxtpx:TrackPointExtension>
        </extensions>
      </trkpt>
      <trkpt lat="50.65233" lon="5.24735">
        <ele>135</ele>
        <extensions>
          <gpxtpx:TrackPointExtension xmlns:gpxtpx="http://www.garmin.com/xmlschemas/TrackPointExtension/v1">
            <gpxtpx:hr>118</gpxtpx:hr>
          </gpxtpx:TrackPointExtension>
        </extensions>
      </trkpt>
      <trkpt lat="50.65219" lon="5.24747">
        <ele>135</ele>
        <extensions>
          <gpxtpx:TrackPointExtension xmlns:gpxtpx="http://www.garmin.com/xmlschemas/TrackPointExtension/v1">
            <gpxtpx:hr>122</gpxtpx:hr>
          </gpxtpx:TrackPointExtension>
        </extensions>
      </trkpt>
      <trkpt lat="50.65201" lon="5.24769">
        <ele>135</ele>
        <extensions>
          <gpxtpx:TrackPointExtension xmlns:gpxtpx="http://www.garmin.com/xmlschemas/TrackPointExtension/v1">
            <gpxtpx:hr>125</gpxtpx:hr>
          </gpxtpx:TrackPointExtension>
        </extensions>
      </trkpt>
      <trkpt lat="50.65185" lon="5.24791">
        <ele>135.39999389648</ele>
        <extensions>
          <gpxtpx:TrackPointExtension xmlns:gpxtpx="http://www.garmin.com/xmlschemas/TrackPointExtension/v1">
            <gpxtpx:hr>128</gpxtpx:hr>
          </gpxtpx:TrackPointExtension>
        </extensions>
      </trkpt>
      <trkpt lat="50.65164" lon="5.24818">
        <ele>136</ele>
        <extensions>
          <gpxtpx:TrackPointExtension xmlns:gpxtpx="http://www.garmin.com/xmlschemas/TrackPointExtension/v1">
            <gpxtpx:hr>130</gpxtpx:hr>
          </gpxtpx:TrackPointExtension>
        </extensions>
      </trkpt>
      <trkpt lat="50.65148" lon="5.24839">
        <ele>137.39999389648</ele>
        <extensions>
          <gpxtpx:TrackPointExtension xmlns:gpxtpx="http://www.garmin.com/xmlschemas/TrackPointExtension/v1">
            <gpxtpx:hr>131</gpxtpx:hr>
          </gpxtpx:TrackPointExtension>
        </extensions>
      </trkpt>
      <trkpt lat="50.65128" lon="5.24866">
        <ele>138.60000610352</ele>
        <extensions>
          <gpxtpx:TrackPointExtension xmlns:gpxtpx="http://www.garmin.com/xmlschemas/TrackPointExtension/v1">
            <gpxtpx:hr>131</gpxtpx:hr>
          </gpxtpx:TrackPointExtension>
        </extensions>
      </trkpt>
      <trkpt lat="50.65124" lon="5.24872">
        <ele>138.80000305176</ele>
        <extensions>
          <gpxtpx:TrackPointExtension xmlns:gpxtpx="http://www.garmin.com/xmlschemas/TrackPointExtension/v1">
            <gpxtpx:hr>131</gpxtpx:hr>
          </gpxtpx:TrackPointExtension>
        </extensions>
      </trkpt>
      <trkpt lat="50.65115" lon="5.24887">
        <ele>139</ele>
        <extensions>
          <gpxtpx:TrackPointExtension xmlns:gpxtpx="http://www.garmin.com/xmlschemas/TrackPointExtension/v1">
            <gpxtpx:hr>132</gpxtpx:hr>
          </gpxtpx:TrackPointExtension>
        </extensions>
      </trkpt>
      <trkpt lat="50.65107" lon="5.24911">
        <ele>139.19999694824</ele>
        <extensions>
          <gpxtpx:TrackPointExtension xmlns:gpxtpx="http://www.garmin.com/xmlschemas/TrackPointExtension/v1">
            <gpxtpx:hr>133</gpxtpx:hr>
          </gpxtpx:TrackPointExtension>
        </extensions>
      </trkpt>
      <trkpt lat="50.65101" lon="5.24927">
        <ele>139.60000610352</ele>
        <extensions>
          <gpxtpx:TrackPointExtension xmlns:gpxtpx="http://www.garmin.com/xmlschemas/TrackPointExtension/v1">
            <gpxtpx:hr>134</gpxtpx:hr>
          </gpxtpx:TrackPointExtension>
        </extensions>
      </trkpt>
      <trkpt lat="50.65082" lon="5.24976">
        <ele>140.60000610352</ele>
        <extensions>
          <gpxtpx:TrackPointExtension xmlns:gpxtpx="http://www.garmin.com/xmlschemas/TrackPointExtension/v1">
            <gpxtpx:hr>136</gpxtpx:hr>
          </gpxtpx:TrackPointExtension>
        </extensions>
      </trkpt>
      <trkpt lat="50.65079" lon="5.24984">
        <ele>140.80000305176</ele>
        <extensions>
          <gpxtpx:TrackPointExtension xmlns:gpxtpx="http://www.garmin.com/xmlschemas/TrackPointExtension/v1">
            <gpxtpx:hr>137</gpxtpx:hr>
          </gpxtpx:TrackPointExtension>
        </extensions>
      </trkpt>
      <trkpt lat="50.65055" lon="5.25041">
        <ele>141.80000305176</ele>
        <extensions>
          <gpxtpx:TrackPointExtension xmlns:gpxtpx="http://www.garmin.com/xmlschemas/TrackPointExtension/v1">
            <gpxtpx:hr>138</gpxtpx:hr>
          </gpxtpx:TrackPointExtension>
        </extensions>
      </trkpt>
      <trkpt lat="50.65026" lon="5.25107">
        <ele>142.19999694824</ele>
        <extensions>
          <gpxtpx:TrackPointExtension xmlns:gpxtpx="http://www.garmin.com/xmlschemas/TrackPointExtension/v1">
            <gpxtpx:hr>138</gpxtpx:hr>
          </gpxtpx:TrackPointExtension>
        </extensions>
      </trkpt>
      <trkpt lat="50.64998" lon="5.2514">
        <ele>143.7</ele>
      </trkpt>
      <trkpt lat="50.64962" lon="5.25176">
        <ele>142.5</ele>
      </trkpt>
      <trkpt lat="50.64945" lon="5.25191">
        <ele>142.4</ele>
      </trkpt>
      <trkpt lat="50.64903" lon="5.25226">
        <ele>140.39999389648</ele>
        <extensions>
          <gpxtpx:TrackPointExtension xmlns:gpxtpx="http://www.garmin.com/xmlschemas/TrackPointExtension/v1">
            <gpxtpx:hr>132</gpxtpx:hr>
          </gpxtpx:TrackPointExtension>
        </extensions>
      </trkpt>
      <trkpt lat="50.64879" lon="5.25243">
        <ele>142.6</ele>
      </trkpt>
      <trkpt lat="50.64846" lon="5.25279">
        <ele>140.39999389648</ele>
        <extensions>
          <gpxtpx:TrackPointExtension xmlns:gpxtpx="http://www.garmin.com/xmlschemas/TrackPointExtension/v1">
            <gpxtpx:hr>130</gpxtpx:hr>
          </gpxtpx:TrackPointExtension>
        </extensions>
      </trkpt>
      <trkpt lat="50.64831" lon="5.25296">
        <ele>143.6</ele>
      </trkpt>
      <trkpt lat="50.64809" lon="5.25333">
        <ele>141.39999389648</ele>
        <extensions>
          <gpxtpx:TrackPointExtension xmlns:gpxtpx="http://www.garmin.com/xmlschemas/TrackPointExtension/v1">
            <gpxtpx:hr>131</gpxtpx:hr>
          </gpxtpx:TrackPointExtension>
        </extensions>
      </trkpt>
      <trkpt lat="50.6478" lon="5.25379">
        <ele>142</ele>
        <extensions>
          <gpxtpx:TrackPointExtension xmlns:gpxtpx="http://www.garmin.com/xmlschemas/TrackPointExtension/v1">
            <gpxtpx:hr>132</gpxtpx:hr>
          </gpxtpx:TrackPointExtension>
        </extensions>
      </trkpt>
      <trkpt lat="50.64773" lon="5.25392">
        <ele>142.19999694824</ele>
        <extensions>
          <gpxtpx:TrackPointExtension xmlns:gpxtpx="http://www.garmin.com/xmlschemas/TrackPointExtension/v1">
            <gpxtpx:hr>133</gpxtpx:hr>
          </gpxtpx:TrackPointExtension>
        </extensions>
      </trkpt>
      <trkpt lat="50.64753" lon="5.25424">
        <ele>143.19999694824</ele>
        <extensions>
          <gpxtpx:TrackPointExtension xmlns:gpxtpx="http://www.garmin.com/xmlschemas/TrackPointExtension/v1">
            <gpxtpx:hr>134</gpxtpx:hr>
          </gpxtpx:TrackPointExtension>
        </extensions>
      </trkpt>
      <trkpt lat="50.64733" lon="5.25456">
        <ele>143.80000305176</ele>
        <extensions>
          <gpxtpx:TrackPointExtension xmlns:gpxtpx="http://www.garmin.com/xmlschemas/TrackPointExtension/v1">
            <gpxtpx:hr>135</gpxtpx:hr>
          </gpxtpx:TrackPointExtension>
        </extensions>
      </trkpt>
      <trkpt lat="50.64718" lon="5.25481">
        <ele>144.39999389648</ele>
        <extensions>
          <gpxtpx:TrackPointExtension xmlns:gpxtpx="http://www.garmin.com/xmlschemas/TrackPointExtension/v1">
            <gpxtpx:hr>136</gpxtpx:hr>
          </gpxtpx:TrackPointExtension>
        </extensions>
      </trkpt>
      <trkpt lat="50.64702" lon="5.25506">
        <ele>145.60000610352</ele>
        <extensions>
          <gpxtpx:TrackPointExtension xmlns:gpxtpx="http://www.garmin.com/xmlschemas/TrackPointExtension/v1">
            <gpxtpx:hr>138</gpxtpx:hr>
          </gpxtpx:TrackPointExtension>
        </extensions>
      </trkpt>
      <trkpt lat="50.6469" lon="5.25525">
        <ele>145.80000305176</ele>
        <extensions>
          <gpxtpx:TrackPointExtension xmlns:gpxtpx="http://www.garmin.com/xmlschemas/TrackPointExtension/v1">
            <gpxtpx:hr>139</gpxtpx:hr>
          </gpxtpx:TrackPointExtension>
        </extensions>
      </trkpt>
      <trkpt lat="50.64675" lon="5.25549">
        <ele>146.60000610352</ele>
        <extensions>
          <gpxtpx:TrackPointExtension xmlns:gpxtpx="http://www.garmin.com/xmlschemas/TrackPointExtension/v1">
            <gpxtpx:hr>140</gpxtpx:hr>
          </gpxtpx:TrackPointExtension>
        </extensions>
      </trkpt>
      <trkpt lat="50.64655" lon="5.25575">
        <ele>151.3</ele>
      </trkpt>
      <trkpt lat="50.64621" lon="5.25629">
        <ele>152.8</ele>
      </trkpt>
      <trkpt lat="50.64608" lon="5.25654">
        <ele>153.2</ele>
      </trkpt>
      <trkpt lat="50.64587" lon="5.25691">
        <ele>151.39999389648</ele>
        <extensions>
          <gpxtpx:TrackPointExtension xmlns:gpxtpx="http://www.garmin.com/xmlschemas/TrackPointExtension/v1">
            <gpxtpx:hr>145</gpxtpx:hr>
          </gpxtpx:TrackPointExtension>
        </extensions>
      </trkpt>
      <trkpt lat="50.64583" lon="5.25697">
        <ele>151.39999389648</ele>
        <extensions>
          <gpxtpx:TrackPointExtension xmlns:gpxtpx="http://www.garmin.com/xmlschemas/TrackPointExtension/v1">
            <gpxtpx:hr>145</gpxtpx:hr>
          </gpxtpx:TrackPointExtension>
        </extensions>
      </trkpt>
      <trkpt lat="50.64558" lon="5.25749">
        <ele>152.39999389648</ele>
        <extensions>
          <gpxtpx:TrackPointExtension xmlns:gpxtpx="http://www.garmin.com/xmlschemas/TrackPointExtension/v1">
            <gpxtpx:hr>144</gpxtpx:hr>
          </gpxtpx:TrackPointExtension>
        </extensions>
      </trkpt>
      <trkpt lat="50.64555" lon="5.25757">
        <ele>152.39999389648</ele>
        <extensions>
          <gpxtpx:TrackPointExtension xmlns:gpxtpx="http://www.garmin.com/xmlschemas/TrackPointExtension/v1">
            <gpxtpx:hr>145</gpxtpx:hr>
          </gpxtpx:TrackPointExtension>
        </extensions>
      </trkpt>
      <trkpt lat="50.64537" lon="5.25803">
        <ele>153.4</ele>
      </trkpt>
      <trkpt lat="50.64508" lon="5.25886">
        <ele>152.39999389648</ele>
        <extensions>
          <gpxtpx:TrackPointExtension xmlns:gpxtpx="http://www.garmin.com/xmlschemas/TrackPointExtension/v1">
            <gpxtpx:hr>143</gpxtpx:hr>
          </gpxtpx:TrackPointExtension>
        </extensions>
      </trkpt>
      <trkpt lat="50.64498" lon="5.25915">
        <ele>151.80000305176</ele>
        <extensions>
          <gpxtpx:TrackPointExtension xmlns:gpxtpx="http://www.garmin.com/xmlschemas/TrackPointExtension/v1">
            <gpxtpx:hr>142</gpxtpx:hr>
          </gpxtpx:TrackPointExtension>
        </extensions>
      </trkpt>
      <trkpt lat="50.64494" lon="5.25925">
        <ele>151.39999389648</ele>
        <extensions>
          <gpxtpx:TrackPointExtension xmlns:gpxtpx="http://www.garmin.com/xmlschemas/TrackPointExtension/v1">
            <gpxtpx:hr>142</gpxtpx:hr>
          </gpxtpx:TrackPointExtension>
        </extensions>
      </trkpt>
      <trkpt lat="50.64479" lon="5.25965">
        <ele>150.60000610352</ele>
        <extensions>
          <gpxtpx:TrackPointExtension xmlns:gpxtpx="http://www.garmin.com/xmlschemas/TrackPointExtension/v1">
            <gpxtpx:hr>139</gpxtpx:hr>
          </gpxtpx:TrackPointExtension>
        </extensions>
      </trkpt>
      <trkpt lat="50.64476" lon="5.25975">
        <ele>150.60000610352</ele>
        <extensions>
          <gpxtpx:TrackPointExtension xmlns:gpxtpx="http://www.garmin.com/xmlschemas/TrackPointExtension/v1">
            <gpxtpx:hr>138</gpxtpx:hr>
          </gpxtpx:TrackPointExtension>
        </extensions>
      </trkpt>
      <trkpt lat="50.64464" lon="5.26005">
        <ele>150.19999694824</ele>
        <extensions>
          <gpxtpx:TrackPointExtension xmlns:gpxtpx="http://www.garmin.com/xmlschemas/TrackPointExtension/v1">
            <gpxtpx:hr>135</gpxtpx:hr>
          </gpxtpx:TrackPointExtension>
        </extensions>
      </trkpt>
      <trkpt lat="50.6446" lon="5.26015">
        <ele>150</ele>
        <extensions>
          <gpxtpx:TrackPointExtension xmlns:gpxtpx="http://www.garmin.com/xmlschemas/TrackPointExtension/v1">
            <gpxtpx:hr>134</gpxtpx:hr>
          </gpxtpx:TrackPointExtension>
        </extensions>
      </trkpt>
      <trkpt lat="50.64453" lon="5.26035">
        <ele>149.80000305176</ele>
        <extensions>
          <gpxtpx:TrackPointExtension xmlns:gpxtpx="http://www.garmin.com/xmlschemas/TrackPointExtension/v1">
            <gpxtpx:hr>131</gpxtpx:hr>
          </gpxtpx:TrackPointExtension>
        </extensions>
      </trkpt>
      <trkpt lat="50.64445" lon="5.26054">
        <ele>149.39999389648</ele>
        <extensions>
          <gpxtpx:TrackPointExtension xmlns:gpxtpx="http://www.garmin.com/xmlschemas/TrackPointExtension/v1">
            <gpxtpx:hr>130</gpxtpx:hr>
          </gpxtpx:TrackPointExtension>
        </extensions>
      </trkpt>
      <trkpt lat="50.64431" lon="5.26093">
        <ele>148.19999694824</ele>
        <extensions>
          <gpxtpx:TrackPointExtension xmlns:gpxtpx="http://www.garmin.com/xmlschemas/TrackPointExtension/v1">
            <gpxtpx:hr>127</gpxtpx:hr>
          </gpxtpx:TrackPointExtension>
        </extensions>
      </trkpt>
      <trkpt lat="50.64427" lon="5.26102">
        <ele>147.80000305176</ele>
        <extensions>
          <gpxtpx:TrackPointExtension xmlns:gpxtpx="http://www.garmin.com/xmlschemas/TrackPointExtension/v1">
            <gpxtpx:hr>127</gpxtpx:hr>
          </gpxtpx:TrackPointExtension>
        </extensions>
      </trkpt>
      <trkpt lat="50.64401" lon="5.26174">
        <ele>147.60000610352</ele>
        <extensions>
          <gpxtpx:TrackPointExtension xmlns:gpxtpx="http://www.garmin.com/xmlschemas/TrackPointExtension/v1">
            <gpxtpx:hr>127</gpxtpx:hr>
          </gpxtpx:TrackPointExtension>
        </extensions>
      </trkpt>
      <trkpt lat="50.64377" lon="5.26222">
        <ele>148.60000610352</ele>
        <extensions>
          <gpxtpx:TrackPointExtension xmlns:gpxtpx="http://www.garmin.com/xmlschemas/TrackPointExtension/v1">
            <gpxtpx:hr>130</gpxtpx:hr>
          </gpxtpx:TrackPointExtension>
        </extensions>
      </trkpt>
      <trkpt lat="50.64368" lon="5.26236">
        <ele>148.80000305176</ele>
        <extensions>
          <gpxtpx:TrackPointExtension xmlns:gpxtpx="http://www.garmin.com/xmlschemas/TrackPointExtension/v1">
            <gpxtpx:hr>131</gpxtpx:hr>
          </gpxtpx:TrackPointExtension>
        </extensions>
      </trkpt>
      <trkpt lat="50.64359" lon="5.26249">
        <ele>149.19999694824</ele>
        <extensions>
          <gpxtpx:TrackPointExtension xmlns:gpxtpx="http://www.garmin.com/xmlschemas/TrackPointExtension/v1">
            <gpxtpx:hr>131</gpxtpx:hr>
          </gpxtpx:TrackPointExtension>
        </extensions>
      </trkpt>
      <trkpt lat="50.64336" lon="5.26286">
        <ele>150</ele>
        <extensions>
          <gpxtpx:TrackPointExtension xmlns:gpxtpx="http://www.garmin.com/xmlschemas/TrackPointExtension/v1">
            <gpxtpx:hr>132</gpxtpx:hr>
          </gpxtpx:TrackPointExtension>
        </extensions>
      </trkpt>
      <trkpt lat="50.64317" lon="5.26332">
        <ele>150</ele>
        <extensions>
          <gpxtpx:TrackPointExtension xmlns:gpxtpx="http://www.garmin.com/xmlschemas/TrackPointExtension/v1">
            <gpxtpx:hr>131</gpxtpx:hr>
          </gpxtpx:TrackPointExtension>
        </extensions>
      </trkpt>
      <trkpt lat="50.64306" lon="5.26386">
        <ele>149.39999389648</ele>
        <extensions>
          <gpxtpx:TrackPointExtension xmlns:gpxtpx="http://www.garmin.com/xmlschemas/TrackPointExtension/v1">
            <gpxtpx:hr>131</gpxtpx:hr>
          </gpxtpx:TrackPointExtension>
        </extensions>
      </trkpt>
      <trkpt lat="50.64298" lon="5.26442">
        <ele>148.19999694824</ele>
        <extensions>
          <gpxtpx:TrackPointExtension xmlns:gpxtpx="http://www.garmin.com/xmlschemas/TrackPointExtension/v1">
            <gpxtpx:hr>131</gpxtpx:hr>
          </gpxtpx:TrackPointExtension>
        </extensions>
      </trkpt>
      <trkpt lat="50.64289" lon="5.26497">
        <ele>147.80000305176</ele>
        <extensions>
          <gpxtpx:TrackPointExtension xmlns:gpxtpx="http://www.garmin.com/xmlschemas/TrackPointExtension/v1">
            <gpxtpx:hr>128</gpxtpx:hr>
          </gpxtpx:TrackPointExtension>
        </extensions>
      </trkpt>
      <trkpt lat="50.64287" lon="5.26509">
        <ele>147.80000305176</ele>
        <extensions>
          <gpxtpx:TrackPointExtension xmlns:gpxtpx="http://www.garmin.com/xmlschemas/TrackPointExtension/v1">
            <gpxtpx:hr>128</gpxtpx:hr>
          </gpxtpx:TrackPointExtension>
        </extensions>
      </trkpt>
      <trkpt lat="50.64282" lon="5.26531">
        <ele>149.6</ele>
      </trkpt>
      <trkpt lat="50.64273" lon="5.26568">
        <ele>149.6</ele>
      </trkpt>
      <trkpt lat="50.6426" lon="5.26601">
        <ele>150.1</ele>
      </trkpt>
      <trkpt lat="50.64242" lon="5.26649">
        <ele>151.1</ele>
      </trkpt>
      <trkpt lat="50.6422" lon="5.26699">
        <ele>152.3</ele>
      </trkpt>
      <trkpt lat="50.64205" lon="5.2673">
        <ele>152.8</ele>
      </trkpt>
      <trkpt lat="50.64185" lon="5.2677">
        <ele>154.5</ele>
      </trkpt>
      <trkpt lat="50.64176" lon="5.26788">
        <ele>154.8</ele>
      </trkpt>
      <trkpt lat="50.64156" lon="5.26826">
        <ele>150.19999694824</ele>
        <extensions>
          <gpxtpx:TrackPointExtension xmlns:gpxtpx="http://www.garmin.com/xmlschemas/TrackPointExtension/v1">
            <gpxtpx:hr>129</gpxtpx:hr>
          </gpxtpx:TrackPointExtension>
        </extensions>
      </trkpt>
      <trkpt lat="50.64142" lon="5.26851">
        <ele>156.9</ele>
      </trkpt>
      <trkpt lat="50.64138" lon="5.26864">
        <ele>157.1</ele>
      </trkpt>
      <trkpt lat="50.64135" lon="5.26878">
        <ele>157.3</ele>
      </trkpt>
      <trkpt lat="50.64127" lon="5.26882">
        <ele>154</ele>
        <extensions>
          <gpxtpx:TrackPointExtension xmlns:gpxtpx="http://www.garmin.com/xmlschemas/TrackPointExtension/v1">
            <gpxtpx:hr>134</gpxtpx:hr>
          </gpxtpx:TrackPointExtension>
        </extensions>
      </trkpt>
      <trkpt lat="50.64122" lon="5.26894">
        <ele>157.4</ele>
      </trkpt>
      <trkpt lat="50.64123" lon="5.26908">
        <ele>157.5</ele>
      </trkpt>
      <trkpt lat="50.64129" lon="5.26919">
        <ele>155.80000305176</ele>
        <extensions>
          <gpxtpx:TrackPointExtension xmlns:gpxtpx="http://www.garmin.com/xmlschemas/TrackPointExtension/v1">
            <gpxtpx:hr>135</gpxtpx:hr>
          </gpxtpx:TrackPointExtension>
        </extensions>
      </trkpt>
      <trkpt lat="50.64138" lon="5.26929">
        <ele>158.3</ele>
      </trkpt>
      <trkpt lat="50.64141" lon="5.26944">
        <ele>158.4</ele>
      </trkpt>
      <trkpt lat="50.64146" lon="5.26966">
        <ele>156</ele>
        <extensions>
          <gpxtpx:TrackPointExtension xmlns:gpxtpx="http://www.garmin.com/xmlschemas/TrackPointExtension/v1">
            <gpxtpx:hr>136</gpxtpx:hr>
          </gpxtpx:TrackPointExtension>
        </extensions>
      </trkpt>
      <trkpt lat="50.64152" lon="5.26994">
        <ele>156</ele>
        <extensions>
          <gpxtpx:TrackPointExtension xmlns:gpxtpx="http://www.garmin.com/xmlschemas/TrackPointExtension/v1">
            <gpxtpx:hr>136</gpxtpx:hr>
          </gpxtpx:TrackPointExtension>
        </extensions>
      </trkpt>
      <trkpt lat="50.64168" lon="5.27066">
        <ele>156.19999694824</ele>
        <extensions>
          <gpxtpx:TrackPointExtension xmlns:gpxtpx="http://www.garmin.com/xmlschemas/TrackPointExtension/v1">
            <gpxtpx:hr>135</gpxtpx:hr>
          </gpxtpx:TrackPointExtension>
        </extensions>
      </trkpt>
      <trkpt lat="50.64181" lon="5.2713">
        <ele>156.80000305176</ele>
        <extensions>
          <gpxtpx:TrackPointExtension xmlns:gpxtpx="http://www.garmin.com/xmlschemas/TrackPointExtension/v1">
            <gpxtpx:hr>135</gpxtpx:hr>
          </gpxtpx:TrackPointExtension>
        </extensions>
      </trkpt>
      <trkpt lat="50.64185" lon="5.27148">
        <ele>157.19999694824</ele>
        <extensions>
          <gpxtpx:TrackPointExtension xmlns:gpxtpx="http://www.garmin.com/xmlschemas/TrackPointExtension/v1">
            <gpxtpx:hr>135</gpxtpx:hr>
          </gpxtpx:TrackPointExtension>
        </extensions>
      </trkpt>
      <trkpt lat="50.64195" lon="5.27204">
        <ele>158</ele>
        <extensions>
          <gpxtpx:TrackPointExtension xmlns:gpxtpx="http://www.garmin.com/xmlschemas/TrackPointExtension/v1">
            <gpxtpx:hr>135</gpxtpx:hr>
          </gpxtpx:TrackPointExtension>
        </extensions>
      </trkpt>
      <trkpt lat="50.64201" lon="5.27242">
        <ele>158</ele>
        <extensions>
          <gpxtpx:TrackPointExtension xmlns:gpxtpx="http://www.garmin.com/xmlschemas/TrackPointExtension/v1">
            <gpxtpx:hr>135</gpxtpx:hr>
          </gpxtpx:TrackPointExtension>
        </extensions>
      </trkpt>
      <trkpt lat="50.64215" lon="5.27298">
        <ele>158.39999389648</ele>
        <extensions>
          <gpxtpx:TrackPointExtension xmlns:gpxtpx="http://www.garmin.com/xmlschemas/TrackPointExtension/v1">
            <gpxtpx:hr>134</gpxtpx:hr>
          </gpxtpx:TrackPointExtension>
        </extensions>
      </trkpt>
      <trkpt lat="50.64226" lon="5.27335">
        <ele>158.9</ele>
      </trkpt>
      <trkpt lat="50.6424" lon="5.27365">
        <ele>158.39999389648</ele>
        <extensions>
          <gpxtpx:TrackPointExtension xmlns:gpxtpx="http://www.garmin.com/xmlschemas/TrackPointExtension/v1">
            <gpxtpx:hr>132</gpxtpx:hr>
          </gpxtpx:TrackPointExtension>
        </extensions>
      </trkpt>
      <trkpt lat="50.64257" lon="5.27404">
        <ele>158.19999694824</ele>
        <extensions>
          <gpxtpx:TrackPointExtension xmlns:gpxtpx="http://www.garmin.com/xmlschemas/TrackPointExtension/v1">
            <gpxtpx:hr>129</gpxtpx:hr>
          </gpxtpx:TrackPointExtension>
        </extensions>
      </trkpt>
      <trkpt lat="50.64274" lon="5.27444">
        <ele>156.80000305176</ele>
        <extensions>
          <gpxtpx:TrackPointExtension xmlns:gpxtpx="http://www.garmin.com/xmlschemas/TrackPointExtension/v1">
            <gpxtpx:hr>126</gpxtpx:hr>
          </gpxtpx:TrackPointExtension>
        </extensions>
      </trkpt>
      <trkpt lat="50.64279" lon="5.27454">
        <ele>156.60000610352</ele>
        <extensions>
          <gpxtpx:TrackPointExtension xmlns:gpxtpx="http://www.garmin.com/xmlschemas/TrackPointExtension/v1">
            <gpxtpx:hr>125</gpxtpx:hr>
          </gpxtpx:TrackPointExtension>
        </extensions>
      </trkpt>
      <trkpt lat="50.643" lon="5.27503">
        <ele>156</ele>
        <extensions>
          <gpxtpx:TrackPointExtension xmlns:gpxtpx="http://www.garmin.com/xmlschemas/TrackPointExtension/v1">
            <gpxtpx:hr>122</gpxtpx:hr>
          </gpxtpx:TrackPointExtension>
        </extensions>
      </trkpt>
      <trkpt lat="50.64312" lon="5.27531">
        <ele>155.80000305176</ele>
        <extensions>
          <gpxtpx:TrackPointExtension xmlns:gpxtpx="http://www.garmin.com/xmlschemas/TrackPointExtension/v1">
            <gpxtpx:hr>121</gpxtpx:hr>
          </gpxtpx:TrackPointExtension>
        </extensions>
      </trkpt>
      <trkpt lat="50.64316" lon="5.27541">
        <ele>155.80000305176</ele>
        <extensions>
          <gpxtpx:TrackPointExtension xmlns:gpxtpx="http://www.garmin.com/xmlschemas/TrackPointExtension/v1">
            <gpxtpx:hr>121</gpxtpx:hr>
          </gpxtpx:TrackPointExtension>
        </extensions>
      </trkpt>
      <trkpt lat="50.64333" lon="5.2758">
        <ele>155.39999389648</ele>
        <extensions>
          <gpxtpx:TrackPointExtension xmlns:gpxtpx="http://www.garmin.com/xmlschemas/TrackPointExtension/v1">
            <gpxtpx:hr>124</gpxtpx:hr>
          </gpxtpx:TrackPointExtension>
        </extensions>
      </trkpt>
      <trkpt lat="50.64345" lon="5.27608">
        <ele>155.39999389648</ele>
        <extensions>
          <gpxtpx:TrackPointExtension xmlns:gpxtpx="http://www.garmin.com/xmlschemas/TrackPointExtension/v1">
            <gpxtpx:hr>124</gpxtpx:hr>
          </gpxtpx:TrackPointExtension>
        </extensions>
      </trkpt>
      <trkpt lat="50.64377" lon="5.27684">
        <ele>155.80000305176</ele>
        <extensions>
          <gpxtpx:TrackPointExtension xmlns:gpxtpx="http://www.garmin.com/xmlschemas/TrackPointExtension/v1">
            <gpxtpx:hr>123</gpxtpx:hr>
          </gpxtpx:TrackPointExtension>
        </extensions>
      </trkpt>
      <trkpt lat="50.64381" lon="5.27694">
        <ele>155.80000305176</ele>
        <extensions>
          <gpxtpx:TrackPointExtension xmlns:gpxtpx="http://www.garmin.com/xmlschemas/TrackPointExtension/v1">
            <gpxtpx:hr>123</gpxtpx:hr>
          </gpxtpx:TrackPointExtension>
        </extensions>
      </trkpt>
      <trkpt lat="50.64414" lon="5.27771">
        <ele>156.39999389648</ele>
        <extensions>
          <gpxtpx:TrackPointExtension xmlns:gpxtpx="http://www.garmin.com/xmlschemas/TrackPointExtension/v1">
            <gpxtpx:hr>124</gpxtpx:hr>
          </gpxtpx:TrackPointExtension>
        </extensions>
      </trkpt>
      <trkpt lat="50.64422" lon="5.27792">
        <ele>156.60000610352</ele>
        <extensions>
          <gpxtpx:TrackPointExtension xmlns:gpxtpx="http://www.garmin.com/xmlschemas/TrackPointExtension/v1">
            <gpxtpx:hr>123</gpxtpx:hr>
          </gpxtpx:TrackPointExtension>
        </extensions>
      </trkpt>
      <trkpt lat="50.64448" lon="5.27866">
        <ele>156.39999389648</ele>
        <extensions>
          <gpxtpx:TrackPointExtension xmlns:gpxtpx="http://www.garmin.com/xmlschemas/TrackPointExtension/v1">
            <gpxtpx:hr>122</gpxtpx:hr>
          </gpxtpx:TrackPointExtension>
        </extensions>
      </trkpt>
      <trkpt lat="50.64469" lon="5.27945">
        <ele>156</ele>
        <extensions>
          <gpxtpx:TrackPointExtension xmlns:gpxtpx="http://www.garmin.com/xmlschemas/TrackPointExtension/v1">
            <gpxtpx:hr>121</gpxtpx:hr>
          </gpxtpx:TrackPointExtension>
        </extensions>
      </trkpt>
      <trkpt lat="50.64472" lon="5.27957">
        <ele>155.80000305176</ele>
        <extensions>
          <gpxtpx:TrackPointExtension xmlns:gpxtpx="http://www.garmin.com/xmlschemas/TrackPointExtension/v1">
            <gpxtpx:hr>121</gpxtpx:hr>
          </gpxtpx:TrackPointExtension>
        </extensions>
      </trkpt>
      <trkpt lat="50.64488" lon="5.28018">
        <ele>155.39999389648</ele>
        <extensions>
          <gpxtpx:TrackPointExtension xmlns:gpxtpx="http://www.garmin.com/xmlschemas/TrackPointExtension/v1">
            <gpxtpx:hr>118</gpxtpx:hr>
          </gpxtpx:TrackPointExtension>
        </extensions>
      </trkpt>
      <trkpt lat="50.64502" lon="5.28067">
        <ele>154.80000305176</ele>
        <extensions>
          <gpxtpx:TrackPointExtension xmlns:gpxtpx="http://www.garmin.com/xmlschemas/TrackPointExtension/v1">
            <gpxtpx:hr>115</gpxtpx:hr>
          </gpxtpx:TrackPointExtension>
        </extensions>
      </trkpt>
      <trkpt lat="50.64508" lon="5.28091">
        <ele>154.39999389648</ele>
        <extensions>
          <gpxtpx:TrackPointExtension xmlns:gpxtpx="http://www.garmin.com/xmlschemas/TrackPointExtension/v1">
            <gpxtpx:hr>115</gpxtpx:hr>
          </gpxtpx:TrackPointExtension>
        </extensions>
      </trkpt>
      <trkpt lat="50.64531" lon="5.28184">
        <ele>152.6</ele>
      </trkpt>
      <trkpt lat="50.64551" lon="5.28262">
        <ele>151.3</ele>
      </trkpt>
      <trkpt lat="50.64562" lon="5.28301">
        <ele>150.8</ele>
      </trkpt>
      <trkpt lat="50.64581" lon="5.2837">
        <ele>149.5</ele>
      </trkpt>
      <trkpt lat="50.64591" lon="5.28412">
        <ele>148.9</ele>
      </trkpt>
      <trkpt lat="50.64597" lon="5.28444">
        <ele>149</ele>
      </trkpt>
      <trkpt lat="50.64602" lon="5.28515">
        <ele>149.5</ele>
      </trkpt>
      <trkpt lat="50.64603" lon="5.28573">
        <ele>149.8</ele>
      </trkpt>
      <trkpt lat="50.64598" lon="5.28684">
        <ele>152.6</ele>
      </trkpt>
      <trkpt lat="50.64595" lon="5.2874">
        <ele>153</ele>
      </trkpt>
      <trkpt lat="50.64592" lon="5.28796">
        <ele>154.2</ele>
      </trkpt>
      <trkpt lat="50.6459" lon="5.28842">
        <ele>155.3</ele>
      </trkpt>
      <trkpt lat="50.64588" lon="5.28881">
        <ele>156.1</ele>
      </trkpt>
      <trkpt lat="50.64586" lon="5.28946">
        <ele>154.80000305176</ele>
        <extensions>
          <gpxtpx:TrackPointExtension xmlns:gpxtpx="http://www.garmin.com/xmlschemas/TrackPointExtension/v1">
            <gpxtpx:hr>140</gpxtpx:hr>
          </gpxtpx:TrackPointExtension>
        </extensions>
      </trkpt>
      <trkpt lat="50.64585" lon="5.28977">
        <ele>155</ele>
        <extensions>
          <gpxtpx:TrackPointExtension xmlns:gpxtpx="http://www.garmin.com/xmlschemas/TrackPointExtension/v1">
            <gpxtpx:hr>141</gpxtpx:hr>
          </gpxtpx:TrackPointExtension>
        </extensions>
      </trkpt>
      <trkpt lat="50.64582" lon="5.29038">
        <ele>156.60000610352</ele>
        <extensions>
          <gpxtpx:TrackPointExtension xmlns:gpxtpx="http://www.garmin.com/xmlschemas/TrackPointExtension/v1">
            <gpxtpx:hr>142</gpxtpx:hr>
          </gpxtpx:TrackPointExtension>
        </extensions>
      </trkpt>
      <trkpt lat="50.6458" lon="5.29067">
        <ele>157.39999389648</ele>
        <extensions>
          <gpxtpx:TrackPointExtension xmlns:gpxtpx="http://www.garmin.com/xmlschemas/TrackPointExtension/v1">
            <gpxtpx:hr>143</gpxtpx:hr>
          </gpxtpx:TrackPointExtension>
        </extensions>
      </trkpt>
      <trkpt lat="50.64579" lon="5.29077">
        <ele>157.80000305176</ele>
        <extensions>
          <gpxtpx:TrackPointExtension xmlns:gpxtpx="http://www.garmin.com/xmlschemas/TrackPointExtension/v1">
            <gpxtpx:hr>143</gpxtpx:hr>
          </gpxtpx:TrackPointExtension>
        </extensions>
      </trkpt>
      <trkpt lat="50.64576" lon="5.29096">
        <ele>158</ele>
        <extensions>
          <gpxtpx:TrackPointExtension xmlns:gpxtpx="http://www.garmin.com/xmlschemas/TrackPointExtension/v1">
            <gpxtpx:hr>143</gpxtpx:hr>
          </gpxtpx:TrackPointExtension>
        </extensions>
      </trkpt>
      <trkpt lat="50.64572" lon="5.29114">
        <ele>158.19999694824</ele>
        <extensions>
          <gpxtpx:TrackPointExtension xmlns:gpxtpx="http://www.garmin.com/xmlschemas/TrackPointExtension/v1">
            <gpxtpx:hr>143</gpxtpx:hr>
          </gpxtpx:TrackPointExtension>
        </extensions>
      </trkpt>
      <trkpt lat="50.64553" lon="5.29166">
        <ele>159</ele>
      </trkpt>
      <trkpt lat="50.64529" lon="5.2923">
        <ele>158.6</ele>
      </trkpt>
      <trkpt lat="50.64499" lon="5.29312">
        <ele>159.3</ele>
      </trkpt>
      <trkpt lat="50.64475" lon="5.29372">
        <ele>159.8</ele>
      </trkpt>
      <trkpt lat="50.64456" lon="5.2942">
        <ele>160</ele>
      </trkpt>
      <trkpt lat="50.64436" lon="5.29471">
        <ele>160.3</ele>
      </trkpt>
      <trkpt lat="50.64414" lon="5.29528">
        <ele>159.8</ele>
      </trkpt>
      <trkpt lat="50.64401" lon="5.29562">
        <ele>159.2</ele>
      </trkpt>
      <trkpt lat="50.64377" lon="5.29621">
        <ele>158.3</ele>
      </trkpt>
      <trkpt lat="50.64357" lon="5.29672">
        <ele>157.7</ele>
      </trkpt>
      <trkpt lat="50.64338" lon="5.29721">
        <ele>157.7</ele>
      </trkpt>
      <trkpt lat="50.6431" lon="5.29798">
        <ele>156</ele>
        <extensions>
          <gpxtpx:TrackPointExtension xmlns:gpxtpx="http://www.garmin.com/xmlschemas/TrackPointExtension/v1">
            <gpxtpx:hr>133</gpxtpx:hr>
          </gpxtpx:TrackPointExtension>
        </extensions>
      </trkpt>
      <trkpt lat="50.64301" lon="5.2982">
        <ele>156</ele>
        <extensions>
          <gpxtpx:TrackPointExtension xmlns:gpxtpx="http://www.garmin.com/xmlschemas/TrackPointExtension/v1">
            <gpxtpx:hr>132</gpxtpx:hr>
          </gpxtpx:TrackPointExtension>
        </extensions>
      </trkpt>
      <trkpt lat="50.64274" lon="5.29888">
        <ele>156.39999389648</ele>
        <extensions>
          <gpxtpx:TrackPointExtension xmlns:gpxtpx="http://www.garmin.com/xmlschemas/TrackPointExtension/v1">
            <gpxtpx:hr>132</gpxtpx:hr>
          </gpxtpx:TrackPointExtension>
        </extensions>
      </trkpt>
      <trkpt lat="50.64257" lon="5.2993">
        <ele>158.6</ele>
      </trkpt>
      <trkpt lat="50.64251" lon="5.29964">
        <ele>157.80000305176</ele>
        <extensions>
          <gpxtpx:TrackPointExtension xmlns:gpxtpx="http://www.garmin.com/xmlschemas/TrackPointExtension/v1">
            <gpxtpx:hr>130</gpxtpx:hr>
          </gpxtpx:TrackPointExtension>
        </extensions>
      </trkpt>
      <trkpt lat="50.64236" lon="5.30041">
        <ele>158</ele>
        <extensions>
          <gpxtpx:TrackPointExtension xmlns:gpxtpx="http://www.garmin.com/xmlschemas/TrackPointExtension/v1">
            <gpxtpx:hr>128</gpxtpx:hr>
          </gpxtpx:TrackPointExtension>
        </extensions>
      </trkpt>
      <trkpt lat="50.64224" lon="5.30101">
        <ele>156.9</ele>
      </trkpt>
      <trkpt lat="50.64217" lon="5.30144">
        <ele>156.3</ele>
      </trkpt>
      <trkpt lat="50.6421" lon="5.30181">
        <ele>155</ele>
      </trkpt>
      <trkpt lat="50.64202" lon="5.30237">
        <ele>154.5</ele>
      </trkpt>
      <trkpt lat="50.64197" lon="5.30267">
        <ele>154</ele>
      </trkpt>
      <trkpt lat="50.64191" lon="5.30316">
        <ele>154.2</ele>
      </trkpt>
      <trkpt lat="50.64187" lon="5.30357">
        <ele>153.60000610352</ele>
        <extensions>
          <gpxtpx:TrackPointExtension xmlns:gpxtpx="http://www.garmin.com/xmlschemas/TrackPointExtension/v1">
            <gpxtpx:hr>113</gpxtpx:hr>
          </gpxtpx:TrackPointExtension>
        </extensions>
      </trkpt>
      <trkpt lat="50.64183" lon="5.30392">
        <ele>153.60000610352</ele>
        <extensions>
          <gpxtpx:TrackPointExtension xmlns:gpxtpx="http://www.garmin.com/xmlschemas/TrackPointExtension/v1">
            <gpxtpx:hr>116</gpxtpx:hr>
          </gpxtpx:TrackPointExtension>
        </extensions>
      </trkpt>
      <trkpt lat="50.64179" lon="5.3045">
        <ele>153.60000610352</ele>
        <extensions>
          <gpxtpx:TrackPointExtension xmlns:gpxtpx="http://www.garmin.com/xmlschemas/TrackPointExtension/v1">
            <gpxtpx:hr>118</gpxtpx:hr>
          </gpxtpx:TrackPointExtension>
        </extensions>
      </trkpt>
      <trkpt lat="50.64174" lon="5.30507">
        <ele>154</ele>
        <extensions>
          <gpxtpx:TrackPointExtension xmlns:gpxtpx="http://www.garmin.com/xmlschemas/TrackPointExtension/v1">
            <gpxtpx:hr>121</gpxtpx:hr>
          </gpxtpx:TrackPointExtension>
        </extensions>
      </trkpt>
      <trkpt lat="50.6417" lon="5.30551">
        <ele>154.19999694824</ele>
        <extensions>
          <gpxtpx:TrackPointExtension xmlns:gpxtpx="http://www.garmin.com/xmlschemas/TrackPointExtension/v1">
            <gpxtpx:hr>123</gpxtpx:hr>
          </gpxtpx:TrackPointExtension>
        </extensions>
      </trkpt>
      <trkpt lat="50.64165" lon="5.30615">
        <ele>154.39999389648</ele>
        <extensions>
          <gpxtpx:TrackPointExtension xmlns:gpxtpx="http://www.garmin.com/xmlschemas/TrackPointExtension/v1">
            <gpxtpx:hr>126</gpxtpx:hr>
          </gpxtpx:TrackPointExtension>
        </extensions>
      </trkpt>
      <trkpt lat="50.64163" lon="5.30637">
        <ele>154.60000610352</ele>
        <extensions>
          <gpxtpx:TrackPointExtension xmlns:gpxtpx="http://www.garmin.com/xmlschemas/TrackPointExtension/v1">
            <gpxtpx:hr>127</gpxtpx:hr>
          </gpxtpx:TrackPointExtension>
        </extensions>
      </trkpt>
      <trkpt lat="50.64162" lon="5.30662">
        <ele>160.3</ele>
      </trkpt>
      <trkpt lat="50.64158" lon="5.30716">
        <ele>161.4</ele>
      </trkpt>
      <trkpt lat="50.64153" lon="5.308">
        <ele>162.8</ele>
      </trkpt>
      <trkpt lat="50.64149" lon="5.30862">
        <ele>163.1</ele>
      </trkpt>
      <trkpt lat="50.64137" lon="5.30915">
        <ele>162.6</ele>
      </trkpt>
      <trkpt lat="50.64127" lon="5.3096">
        <ele>161.9</ele>
      </trkpt>
      <trkpt lat="50.6412" lon="5.30994">
        <ele>162</ele>
      </trkpt>
      <trkpt lat="50.64108" lon="5.31043">
        <ele>161.5</ele>
      </trkpt>
      <trkpt lat="50.64097" lon="5.31085">
        <ele>161.2</ele>
      </trkpt>
      <trkpt lat="50.6408" lon="5.31156">
        <ele>156</ele>
        <extensions>
          <gpxtpx:TrackPointExtension xmlns:gpxtpx="http://www.garmin.com/xmlschemas/TrackPointExtension/v1">
            <gpxtpx:hr>123</gpxtpx:hr>
          </gpxtpx:TrackPointExtension>
        </extensions>
      </trkpt>
      <trkpt lat="50.64075" lon="5.31179">
        <ele>155.80000305176</ele>
        <extensions>
          <gpxtpx:TrackPointExtension xmlns:gpxtpx="http://www.garmin.com/xmlschemas/TrackPointExtension/v1">
            <gpxtpx:hr>123</gpxtpx:hr>
          </gpxtpx:TrackPointExtension>
        </extensions>
      </trkpt>
      <trkpt lat="50.64067" lon="5.31214">
        <ele>154.60000610352</ele>
        <extensions>
          <gpxtpx:TrackPointExtension xmlns:gpxtpx="http://www.garmin.com/xmlschemas/TrackPointExtension/v1">
            <gpxtpx:hr>122</gpxtpx:hr>
          </gpxtpx:TrackPointExtension>
        </extensions>
      </trkpt>
      <trkpt lat="50.64054" lon="5.31273">
        <ele>153.60000610352</ele>
        <extensions>
          <gpxtpx:TrackPointExtension xmlns:gpxtpx="http://www.garmin.com/xmlschemas/TrackPointExtension/v1">
            <gpxtpx:hr>121</gpxtpx:hr>
          </gpxtpx:TrackPointExtension>
        </extensions>
      </trkpt>
      <trkpt lat="50.64049" lon="5.31297">
        <ele>152.80000305176</ele>
        <extensions>
          <gpxtpx:TrackPointExtension xmlns:gpxtpx="http://www.garmin.com/xmlschemas/TrackPointExtension/v1">
            <gpxtpx:hr>120</gpxtpx:hr>
          </gpxtpx:TrackPointExtension>
        </extensions>
      </trkpt>
      <trkpt lat="50.6404" lon="5.31331">
        <ele>152.39999389648</ele>
        <extensions>
          <gpxtpx:TrackPointExtension xmlns:gpxtpx="http://www.garmin.com/xmlschemas/TrackPointExtension/v1">
            <gpxtpx:hr>119</gpxtpx:hr>
          </gpxtpx:TrackPointExtension>
        </extensions>
      </trkpt>
      <trkpt lat="50.64027" lon="5.31391">
        <ele>151</ele>
        <extensions>
          <gpxtpx:TrackPointExtension xmlns:gpxtpx="http://www.garmin.com/xmlschemas/TrackPointExtension/v1">
            <gpxtpx:hr>116</gpxtpx:hr>
          </gpxtpx:TrackPointExtension>
        </extensions>
      </trkpt>
      <trkpt lat="50.64022" lon="5.31415">
        <ele>150.60000610352</ele>
        <extensions>
          <gpxtpx:TrackPointExtension xmlns:gpxtpx="http://www.garmin.com/xmlschemas/TrackPointExtension/v1">
            <gpxtpx:hr>113</gpxtpx:hr>
          </gpxtpx:TrackPointExtension>
        </extensions>
      </trkpt>
      <trkpt lat="50.64018" lon="5.31439">
        <ele>150.39999389648</ele>
        <extensions>
          <gpxtpx:TrackPointExtension xmlns:gpxtpx="http://www.garmin.com/xmlschemas/TrackPointExtension/v1">
            <gpxtpx:hr>109</gpxtpx:hr>
          </gpxtpx:TrackPointExtension>
        </extensions>
      </trkpt>
      <trkpt lat="50.64014" lon="5.31464">
        <ele>149.80000305176</ele>
        <extensions>
          <gpxtpx:TrackPointExtension xmlns:gpxtpx="http://www.garmin.com/xmlschemas/TrackPointExtension/v1">
            <gpxtpx:hr>107</gpxtpx:hr>
          </gpxtpx:TrackPointExtension>
        </extensions>
      </trkpt>
      <trkpt lat="50.64008" lon="5.31488">
        <ele>149.39999389648</ele>
        <extensions>
          <gpxtpx:TrackPointExtension xmlns:gpxtpx="http://www.garmin.com/xmlschemas/TrackPointExtension/v1">
            <gpxtpx:hr>106</gpxtpx:hr>
          </gpxtpx:TrackPointExtension>
        </extensions>
      </trkpt>
      <trkpt lat="50.64007" lon="5.31501">
        <ele>149.19999694824</ele>
        <extensions>
          <gpxtpx:TrackPointExtension xmlns:gpxtpx="http://www.garmin.com/xmlschemas/TrackPointExtension/v1">
            <gpxtpx:hr>105</gpxtpx:hr>
          </gpxtpx:TrackPointExtension>
        </extensions>
      </trkpt>
      <trkpt lat="50.64002" lon="5.31543">
        <ele>149.3</ele>
      </trkpt>
      <trkpt lat="50.64001" lon="5.31571">
        <ele>149.1</ele>
      </trkpt>
      <trkpt lat="50.64" lon="5.31624">
        <ele>147.6</ele>
      </trkpt>
      <trkpt lat="50.63999" lon="5.31679">
        <ele>147.2</ele>
      </trkpt>
      <trkpt lat="50.63998" lon="5.31702">
        <ele>146</ele>
        <extensions>
          <gpxtpx:TrackPointExtension xmlns:gpxtpx="http://www.garmin.com/xmlschemas/TrackPointExtension/v1">
            <gpxtpx:hr>106</gpxtpx:hr>
          </gpxtpx:TrackPointExtension>
        </extensions>
      </trkpt>
      <trkpt lat="50.63996" lon="5.31714">
        <ele>145.80000305176</ele>
        <extensions>
          <gpxtpx:TrackPointExtension xmlns:gpxtpx="http://www.garmin.com/xmlschemas/TrackPointExtension/v1">
            <gpxtpx:hr>106</gpxtpx:hr>
          </gpxtpx:TrackPointExtension>
        </extensions>
      </trkpt>
      <trkpt lat="50.6399" lon="5.31736">
        <ele>145.39999389648</ele>
        <extensions>
          <gpxtpx:TrackPointExtension xmlns:gpxtpx="http://www.garmin.com/xmlschemas/TrackPointExtension/v1">
            <gpxtpx:hr>108</gpxtpx:hr>
          </gpxtpx:TrackPointExtension>
        </extensions>
      </trkpt>
      <trkpt lat="50.63982" lon="5.31756">
        <ele>145</ele>
        <extensions>
          <gpxtpx:TrackPointExtension xmlns:gpxtpx="http://www.garmin.com/xmlschemas/TrackPointExtension/v1">
            <gpxtpx:hr>109</gpxtpx:hr>
          </gpxtpx:TrackPointExtension>
        </extensions>
      </trkpt>
      <trkpt lat="50.63977" lon="5.31766">
        <ele>144.80000305176</ele>
        <extensions>
          <gpxtpx:TrackPointExtension xmlns:gpxtpx="http://www.garmin.com/xmlschemas/TrackPointExtension/v1">
            <gpxtpx:hr>110</gpxtpx:hr>
          </gpxtpx:TrackPointExtension>
        </extensions>
      </trkpt>
      <trkpt lat="50.63962" lon="5.31792">
        <ele>144.39999389648</ele>
        <extensions>
          <gpxtpx:TrackPointExtension xmlns:gpxtpx="http://www.garmin.com/xmlschemas/TrackPointExtension/v1">
            <gpxtpx:hr>106</gpxtpx:hr>
          </gpxtpx:TrackPointExtension>
        </extensions>
      </trkpt>
      <trkpt lat="50.63947" lon="5.31819">
        <ele>144.19999694824</ele>
        <extensions>
          <gpxtpx:TrackPointExtension xmlns:gpxtpx="http://www.garmin.com/xmlschemas/TrackPointExtension/v1">
            <gpxtpx:hr>105</gpxtpx:hr>
          </gpxtpx:TrackPointExtension>
        </extensions>
      </trkpt>
      <trkpt lat="50.63922" lon="5.31862">
        <ele>144</ele>
        <extensions>
          <gpxtpx:TrackPointExtension xmlns:gpxtpx="http://www.garmin.com/xmlschemas/TrackPointExtension/v1">
            <gpxtpx:hr>108</gpxtpx:hr>
          </gpxtpx:TrackPointExtension>
        </extensions>
      </trkpt>
      <trkpt lat="50.63904" lon="5.31896">
        <ele>143.80000305176</ele>
        <extensions>
          <gpxtpx:TrackPointExtension xmlns:gpxtpx="http://www.garmin.com/xmlschemas/TrackPointExtension/v1">
            <gpxtpx:hr>109</gpxtpx:hr>
          </gpxtpx:TrackPointExtension>
        </extensions>
      </trkpt>
      <trkpt lat="50.63868" lon="5.31959">
        <ele>143.39999389648</ele>
        <extensions>
          <gpxtpx:TrackPointExtension xmlns:gpxtpx="http://www.garmin.com/xmlschemas/TrackPointExtension/v1">
            <gpxtpx:hr>106</gpxtpx:hr>
          </gpxtpx:TrackPointExtension>
        </extensions>
      </trkpt>
      <trkpt lat="50.63864" lon="5.31966">
        <ele>143.19999694824</ele>
        <extensions>
          <gpxtpx:TrackPointExtension xmlns:gpxtpx="http://www.garmin.com/xmlschemas/TrackPointExtension/v1">
            <gpxtpx:hr>106</gpxtpx:hr>
          </gpxtpx:TrackPointExtension>
        </extensions>
      </trkpt>
      <trkpt lat="50.63848" lon="5.31993">
        <ele>143.19999694824</ele>
        <extensions>
          <gpxtpx:TrackPointExtension xmlns:gpxtpx="http://www.garmin.com/xmlschemas/TrackPointExtension/v1">
            <gpxtpx:hr>105</gpxtpx:hr>
          </gpxtpx:TrackPointExtension>
        </extensions>
      </trkpt>
      <trkpt lat="50.63845" lon="5.3201">
        <ele>143</ele>
        <extensions>
          <gpxtpx:TrackPointExtension xmlns:gpxtpx="http://www.garmin.com/xmlschemas/TrackPointExtension/v1">
            <gpxtpx:hr>105</gpxtpx:hr>
          </gpxtpx:TrackPointExtension>
        </extensions>
      </trkpt>
      <trkpt lat="50.63848" lon="5.32039">
        <ele>143</ele>
        <extensions>
          <gpxtpx:TrackPointExtension xmlns:gpxtpx="http://www.garmin.com/xmlschemas/TrackPointExtension/v1">
            <gpxtpx:hr>106</gpxtpx:hr>
          </gpxtpx:TrackPointExtension>
        </extensions>
      </trkpt>
      <trkpt lat="50.63849" lon="5.32049">
        <ele>143</ele>
        <extensions>
          <gpxtpx:TrackPointExtension xmlns:gpxtpx="http://www.garmin.com/xmlschemas/TrackPointExtension/v1">
            <gpxtpx:hr>106</gpxtpx:hr>
          </gpxtpx:TrackPointExtension>
        </extensions>
      </trkpt>
      <trkpt lat="50.63853" lon="5.32091">
        <ele>143</ele>
        <extensions>
          <gpxtpx:TrackPointExtension xmlns:gpxtpx="http://www.garmin.com/xmlschemas/TrackPointExtension/v1">
            <gpxtpx:hr>109</gpxtpx:hr>
          </gpxtpx:TrackPointExtension>
        </extensions>
      </trkpt>
      <trkpt lat="50.63855" lon="5.32113">
        <ele>143</ele>
        <extensions>
          <gpxtpx:TrackPointExtension xmlns:gpxtpx="http://www.garmin.com/xmlschemas/TrackPointExtension/v1">
            <gpxtpx:hr>110</gpxtpx:hr>
          </gpxtpx:TrackPointExtension>
        </extensions>
      </trkpt>
      <trkpt lat="50.6386" lon="5.32166">
        <ele>145.8</ele>
      </trkpt>
      <trkpt lat="50.63861" lon="5.32188">
        <ele>146</ele>
      </trkpt>
      <trkpt lat="50.63865" lon="5.32228">
        <ele>146.2</ele>
      </trkpt>
      <trkpt lat="50.6387" lon="5.32247">
        <ele>146.2</ele>
      </trkpt>
      <trkpt lat="50.63884" lon="5.32294">
        <ele>143.80000305176</ele>
        <extensions>
          <gpxtpx:TrackPointExtension xmlns:gpxtpx="http://www.garmin.com/xmlschemas/TrackPointExtension/v1">
            <gpxtpx:hr>120</gpxtpx:hr>
          </gpxtpx:TrackPointExtension>
        </extensions>
      </trkpt>
      <trkpt lat="50.63887" lon="5.32302">
        <ele>144</ele>
        <extensions>
          <gpxtpx:TrackPointExtension xmlns:gpxtpx="http://www.garmin.com/xmlschemas/TrackPointExtension/v1">
            <gpxtpx:hr>120</gpxtpx:hr>
          </gpxtpx:TrackPointExtension>
        </extensions>
      </trkpt>
      <trkpt lat="50.63888" lon="5.3232">
        <ele>147.5</ele>
      </trkpt>
      <trkpt lat="50.63886" lon="5.32345">
        <ele>148.7</ele>
      </trkpt>
      <trkpt lat="50.63884" lon="5.32364">
        <ele>148.9</ele>
      </trkpt>
      <trkpt lat="50.63878" lon="5.32391">
        <ele>149.2</ele>
      </trkpt>
      <trkpt lat="50.63867" lon="5.32432">
        <ele>151.2</ele>
      </trkpt>
      <trkpt lat="50.63858" lon="5.32466">
        <ele>151.9</ele>
      </trkpt>
      <trkpt lat="50.63853" lon="5.32497">
        <ele>152.2</ele>
      </trkpt>
      <trkpt lat="50.63852" lon="5.32527">
        <ele>154.2</ele>
      </trkpt>
      <trkpt lat="50.63852" lon="5.32554">
        <ele>154.6</ele>
      </trkpt>
      <trkpt lat="50.63855" lon="5.3258">
        <ele>154.7</ele>
      </trkpt>
      <trkpt lat="50.63858" lon="5.32613">
        <ele>156.7</ele>
      </trkpt>
      <trkpt lat="50.63863" lon="5.32644">
        <ele>157.3</ele>
      </trkpt>
      <trkpt lat="50.63868" lon="5.3268">
        <ele>159</ele>
      </trkpt>
      <trkpt lat="50.63877" lon="5.32733">
        <ele>159.8</ele>
      </trkpt>
      <trkpt lat="50.63885" lon="5.32781">
        <ele>161</ele>
      </trkpt>
      <trkpt lat="50.63889" lon="5.32815">
        <ele>156.39999389648</ele>
        <extensions>
          <gpxtpx:TrackPointExtension xmlns:gpxtpx="http://www.garmin.com/xmlschemas/TrackPointExtension/v1">
            <gpxtpx:hr>140</gpxtpx:hr>
          </gpxtpx:TrackPointExtension>
        </extensions>
      </trkpt>
      <trkpt lat="50.63893" lon="5.32845">
        <ele>157.19999694824</ele>
        <extensions>
          <gpxtpx:TrackPointExtension xmlns:gpxtpx="http://www.garmin.com/xmlschemas/TrackPointExtension/v1">
            <gpxtpx:hr>140</gpxtpx:hr>
          </gpxtpx:TrackPointExtension>
        </extensions>
      </trkpt>
      <trkpt lat="50.639" lon="5.32891">
        <ele>158.39999389648</ele>
        <extensions>
          <gpxtpx:TrackPointExtension xmlns:gpxtpx="http://www.garmin.com/xmlschemas/TrackPointExtension/v1">
            <gpxtpx:hr>141</gpxtpx:hr>
          </gpxtpx:TrackPointExtension>
        </extensions>
      </trkpt>
      <trkpt lat="50.63906" lon="5.3293">
        <ele>159.39999389648</ele>
        <extensions>
          <gpxtpx:TrackPointExtension xmlns:gpxtpx="http://www.garmin.com/xmlschemas/TrackPointExtension/v1">
            <gpxtpx:hr>141</gpxtpx:hr>
          </gpxtpx:TrackPointExtension>
        </extensions>
      </trkpt>
      <trkpt lat="50.63911" lon="5.3297">
        <ele>160.39999389648</ele>
        <extensions>
          <gpxtpx:TrackPointExtension xmlns:gpxtpx="http://www.garmin.com/xmlschemas/TrackPointExtension/v1">
            <gpxtpx:hr>142</gpxtpx:hr>
          </gpxtpx:TrackPointExtension>
        </extensions>
      </trkpt>
      <trkpt lat="50.63915" lon="5.33001">
        <ele>161.19999694824</ele>
        <extensions>
          <gpxtpx:TrackPointExtension xmlns:gpxtpx="http://www.garmin.com/xmlschemas/TrackPointExtension/v1">
            <gpxtpx:hr>142</gpxtpx:hr>
          </gpxtpx:TrackPointExtension>
        </extensions>
      </trkpt>
      <trkpt lat="50.63916" lon="5.33008">
        <ele>161.39999389648</ele>
        <extensions>
          <gpxtpx:TrackPointExtension xmlns:gpxtpx="http://www.garmin.com/xmlschemas/TrackPointExtension/v1">
            <gpxtpx:hr>142</gpxtpx:hr>
          </gpxtpx:TrackPointExtension>
        </extensions>
      </trkpt>
      <trkpt lat="50.63917" lon="5.33016">
        <ele>161.60000610352</ele>
        <extensions>
          <gpxtpx:TrackPointExtension xmlns:gpxtpx="http://www.garmin.com/xmlschemas/TrackPointExtension/v1">
            <gpxtpx:hr>142</gpxtpx:hr>
          </gpxtpx:TrackPointExtension>
        </extensions>
      </trkpt>
      <trkpt lat="50.63923" lon="5.33038">
        <ele>161.80000305176</ele>
        <extensions>
          <gpxtpx:TrackPointExtension xmlns:gpxtpx="http://www.garmin.com/xmlschemas/TrackPointExtension/v1">
            <gpxtpx:hr>142</gpxtpx:hr>
          </gpxtpx:TrackPointExtension>
        </extensions>
      </trkpt>
      <trkpt lat="50.63932" lon="5.33068">
        <ele>162.60000610352</ele>
        <extensions>
          <gpxtpx:TrackPointExtension xmlns:gpxtpx="http://www.garmin.com/xmlschemas/TrackPointExtension/v1">
            <gpxtpx:hr>143</gpxtpx:hr>
          </gpxtpx:TrackPointExtension>
        </extensions>
      </trkpt>
      <trkpt lat="50.63946" lon="5.33118">
        <ele>163.19999694824</ele>
        <extensions>
          <gpxtpx:TrackPointExtension xmlns:gpxtpx="http://www.garmin.com/xmlschemas/TrackPointExtension/v1">
            <gpxtpx:hr>144</gpxtpx:hr>
          </gpxtpx:TrackPointExtension>
        </extensions>
      </trkpt>
      <trkpt lat="50.63955" lon="5.33155">
        <ele>163.60000610352</ele>
        <extensions>
          <gpxtpx:TrackPointExtension xmlns:gpxtpx="http://www.garmin.com/xmlschemas/TrackPointExtension/v1">
            <gpxtpx:hr>144</gpxtpx:hr>
          </gpxtpx:TrackPointExtension>
        </extensions>
      </trkpt>
      <trkpt lat="50.63971" lon="5.33213">
        <ele>164.19999694824</ele>
        <extensions>
          <gpxtpx:TrackPointExtension xmlns:gpxtpx="http://www.garmin.com/xmlschemas/TrackPointExtension/v1">
            <gpxtpx:hr>145</gpxtpx:hr>
          </gpxtpx:TrackPointExtension>
        </extensions>
      </trkpt>
      <trkpt lat="50.63987" lon="5.33271">
        <ele>164.60000610352</ele>
        <extensions>
          <gpxtpx:TrackPointExtension xmlns:gpxtpx="http://www.garmin.com/xmlschemas/TrackPointExtension/v1">
            <gpxtpx:hr>145</gpxtpx:hr>
          </gpxtpx:TrackPointExtension>
        </extensions>
      </trkpt>
      <trkpt lat="50.63997" lon="5.33311">
        <ele>164.80000305176</ele>
        <extensions>
          <gpxtpx:TrackPointExtension xmlns:gpxtpx="http://www.garmin.com/xmlschemas/TrackPointExtension/v1">
            <gpxtpx:hr>145</gpxtpx:hr>
          </gpxtpx:TrackPointExtension>
        </extensions>
      </trkpt>
      <trkpt lat="50.6402" lon="5.33388">
        <ele>165.60000610352</ele>
        <extensions>
          <gpxtpx:TrackPointExtension xmlns:gpxtpx="http://www.garmin.com/xmlschemas/TrackPointExtension/v1">
            <gpxtpx:hr>145</gpxtpx:hr>
          </gpxtpx:TrackPointExtension>
        </extensions>
      </trkpt>
      <trkpt lat="50.64022" lon="5.33398">
        <ele>165.80000305176</ele>
        <extensions>
          <gpxtpx:TrackPointExtension xmlns:gpxtpx="http://www.garmin.com/xmlschemas/TrackPointExtension/v1">
            <gpxtpx:hr>145</gpxtpx:hr>
          </gpxtpx:TrackPointExtension>
        </extensions>
      </trkpt>
      <trkpt lat="50.6403" lon="5.33428">
        <ele>166.39999389648</ele>
        <extensions>
          <gpxtpx:TrackPointExtension xmlns:gpxtpx="http://www.garmin.com/xmlschemas/TrackPointExtension/v1">
            <gpxtpx:hr>145</gpxtpx:hr>
          </gpxtpx:TrackPointExtension>
        </extensions>
      </trkpt>
      <trkpt lat="50.6404" lon="5.33469">
        <ele>166.80000305176</ele>
        <extensions>
          <gpxtpx:TrackPointExtension xmlns:gpxtpx="http://www.garmin.com/xmlschemas/TrackPointExtension/v1">
            <gpxtpx:hr>145</gpxtpx:hr>
          </gpxtpx:TrackPointExtension>
        </extensions>
      </trkpt>
      <trkpt lat="50.64048" lon="5.335">
        <ele>167.19999694824</ele>
        <extensions>
          <gpxtpx:TrackPointExtension xmlns:gpxtpx="http://www.garmin.com/xmlschemas/TrackPointExtension/v1">
            <gpxtpx:hr>145</gpxtpx:hr>
          </gpxtpx:TrackPointExtension>
        </extensions>
      </trkpt>
      <trkpt lat="50.64069" lon="5.3358">
        <ele>167.80000305176</ele>
        <extensions>
          <gpxtpx:TrackPointExtension xmlns:gpxtpx="http://www.garmin.com/xmlschemas/TrackPointExtension/v1">
            <gpxtpx:hr>144</gpxtpx:hr>
          </gpxtpx:TrackPointExtension>
        </extensions>
      </trkpt>
      <trkpt lat="50.64075" lon="5.336">
        <ele>167.80000305176</ele>
        <extensions>
          <gpxtpx:TrackPointExtension xmlns:gpxtpx="http://www.garmin.com/xmlschemas/TrackPointExtension/v1">
            <gpxtpx:hr>143</gpxtpx:hr>
          </gpxtpx:TrackPointExtension>
        </extensions>
      </trkpt>
      <trkpt lat="50.6408" lon="5.3362">
        <ele>167.80000305176</ele>
        <extensions>
          <gpxtpx:TrackPointExtension xmlns:gpxtpx="http://www.garmin.com/xmlschemas/TrackPointExtension/v1">
            <gpxtpx:hr>143</gpxtpx:hr>
          </gpxtpx:TrackPointExtension>
        </extensions>
      </trkpt>
      <trkpt lat="50.64102" lon="5.33701">
        <ele>168.39999389648</ele>
        <extensions>
          <gpxtpx:TrackPointExtension xmlns:gpxtpx="http://www.garmin.com/xmlschemas/TrackPointExtension/v1">
            <gpxtpx:hr>142</gpxtpx:hr>
          </gpxtpx:TrackPointExtension>
        </extensions>
      </trkpt>
      <trkpt lat="50.64108" lon="5.33721">
        <ele>169</ele>
        <extensions>
          <gpxtpx:TrackPointExtension xmlns:gpxtpx="http://www.garmin.com/xmlschemas/TrackPointExtension/v1">
            <gpxtpx:hr>143</gpxtpx:hr>
          </gpxtpx:TrackPointExtension>
        </extensions>
      </trkpt>
      <trkpt lat="50.64116" lon="5.3374">
        <ele>169.19999694824</ele>
        <extensions>
          <gpxtpx:TrackPointExtension xmlns:gpxtpx="http://www.garmin.com/xmlschemas/TrackPointExtension/v1">
            <gpxtpx:hr>142</gpxtpx:hr>
          </gpxtpx:TrackPointExtension>
        </extensions>
      </trkpt>
      <trkpt lat="50.64148" lon="5.33808">
        <ele>169.19999694824</ele>
        <extensions>
          <gpxtpx:TrackPointExtension xmlns:gpxtpx="http://www.garmin.com/xmlschemas/TrackPointExtension/v1">
            <gpxtpx:hr>140</gpxtpx:hr>
          </gpxtpx:TrackPointExtension>
        </extensions>
      </trkpt>
      <trkpt lat="50.6418" lon="5.33872">
        <ele>168.80000305176</ele>
        <extensions>
          <gpxtpx:TrackPointExtension xmlns:gpxtpx="http://www.garmin.com/xmlschemas/TrackPointExtension/v1">
            <gpxtpx:hr>137</gpxtpx:hr>
          </gpxtpx:TrackPointExtension>
        </extensions>
      </trkpt>
      <trkpt lat="50.64192" lon="5.33894">
        <ele>168.19999694824</ele>
        <extensions>
          <gpxtpx:TrackPointExtension xmlns:gpxtpx="http://www.garmin.com/xmlschemas/TrackPointExtension/v1">
            <gpxtpx:hr>136</gpxtpx:hr>
          </gpxtpx:TrackPointExtension>
        </extensions>
      </trkpt>
      <trkpt lat="50.64198" lon="5.33906">
        <ele>167.60000610352</ele>
        <extensions>
          <gpxtpx:TrackPointExtension xmlns:gpxtpx="http://www.garmin.com/xmlschemas/TrackPointExtension/v1">
            <gpxtpx:hr>136</gpxtpx:hr>
          </gpxtpx:TrackPointExtension>
        </extensions>
      </trkpt>
      <trkpt lat="50.64209" lon="5.3393">
        <ele>166.60000610352</ele>
        <extensions>
          <gpxtpx:TrackPointExtension xmlns:gpxtpx="http://www.garmin.com/xmlschemas/TrackPointExtension/v1">
            <gpxtpx:hr>134</gpxtpx:hr>
          </gpxtpx:TrackPointExtension>
        </extensions>
      </trkpt>
      <trkpt lat="50.64228" lon="5.33966">
        <ele>165.39999389648</ele>
        <extensions>
          <gpxtpx:TrackPointExtension xmlns:gpxtpx="http://www.garmin.com/xmlschemas/TrackPointExtension/v1">
            <gpxtpx:hr>133</gpxtpx:hr>
          </gpxtpx:TrackPointExtension>
        </extensions>
      </trkpt>
      <trkpt lat="50.6424" lon="5.3399">
        <ele>164.39999389648</ele>
        <extensions>
          <gpxtpx:TrackPointExtension xmlns:gpxtpx="http://www.garmin.com/xmlschemas/TrackPointExtension/v1">
            <gpxtpx:hr>130</gpxtpx:hr>
          </gpxtpx:TrackPointExtension>
        </extensions>
      </trkpt>
      <trkpt lat="50.64246" lon="5.34003">
        <ele>163.80000305176</ele>
        <extensions>
          <gpxtpx:TrackPointExtension xmlns:gpxtpx="http://www.garmin.com/xmlschemas/TrackPointExtension/v1">
            <gpxtpx:hr>130</gpxtpx:hr>
          </gpxtpx:TrackPointExtension>
        </extensions>
      </trkpt>
      <trkpt lat="50.64263" lon="5.34043">
        <ele>162.80000305176</ele>
        <extensions>
          <gpxtpx:TrackPointExtension xmlns:gpxtpx="http://www.garmin.com/xmlschemas/TrackPointExtension/v1">
            <gpxtpx:hr>127</gpxtpx:hr>
          </gpxtpx:TrackPointExtension>
        </extensions>
      </trkpt>
      <trkpt lat="50.64273" lon="5.34071">
        <ele>162.19999694824</ele>
        <extensions>
          <gpxtpx:TrackPointExtension xmlns:gpxtpx="http://www.garmin.com/xmlschemas/TrackPointExtension/v1">
            <gpxtpx:hr>125</gpxtpx:hr>
          </gpxtpx:TrackPointExtension>
        </extensions>
      </trkpt>
      <trkpt lat="50.64282" lon="5.34098">
        <ele>161.39999389648</ele>
        <extensions>
          <gpxtpx:TrackPointExtension xmlns:gpxtpx="http://www.garmin.com/xmlschemas/TrackPointExtension/v1">
            <gpxtpx:hr>123</gpxtpx:hr>
          </gpxtpx:TrackPointExtension>
        </extensions>
      </trkpt>
      <trkpt lat="50.64305" lon="5.34161">
        <ele>160.60000610352</ele>
        <extensions>
          <gpxtpx:TrackPointExtension xmlns:gpxtpx="http://www.garmin.com/xmlschemas/TrackPointExtension/v1">
            <gpxtpx:hr>122</gpxtpx:hr>
          </gpxtpx:TrackPointExtension>
        </extensions>
      </trkpt>
      <trkpt lat="50.64313" lon="5.34185">
        <ele>160.39999389648</ele>
        <extensions>
          <gpxtpx:TrackPointExtension xmlns:gpxtpx="http://www.garmin.com/xmlschemas/TrackPointExtension/v1">
            <gpxtpx:hr>123</gpxtpx:hr>
          </gpxtpx:TrackPointExtension>
        </extensions>
      </trkpt>
      <trkpt lat="50.6433" lon="5.3423">
        <ele>160.39999389648</ele>
        <extensions>
          <gpxtpx:TrackPointExtension xmlns:gpxtpx="http://www.garmin.com/xmlschemas/TrackPointExtension/v1">
            <gpxtpx:hr>126</gpxtpx:hr>
          </gpxtpx:TrackPointExtension>
        </extensions>
      </trkpt>
      <trkpt lat="50.64356" lon="5.34307">
        <ele>160.39999389648</ele>
        <extensions>
          <gpxtpx:TrackPointExtension xmlns:gpxtpx="http://www.garmin.com/xmlschemas/TrackPointExtension/v1">
            <gpxtpx:hr>126</gpxtpx:hr>
          </gpxtpx:TrackPointExtension>
        </extensions>
      </trkpt>
      <trkpt lat="50.64364" lon="5.34328">
        <ele>160.60000610352</ele>
        <extensions>
          <gpxtpx:TrackPointExtension xmlns:gpxtpx="http://www.garmin.com/xmlschemas/TrackPointExtension/v1">
            <gpxtpx:hr>126</gpxtpx:hr>
          </gpxtpx:TrackPointExtension>
        </extensions>
      </trkpt>
      <trkpt lat="50.64391" lon="5.34404">
        <ele>161.39999389648</ele>
        <extensions>
          <gpxtpx:TrackPointExtension xmlns:gpxtpx="http://www.garmin.com/xmlschemas/TrackPointExtension/v1">
            <gpxtpx:hr>125</gpxtpx:hr>
          </gpxtpx:TrackPointExtension>
        </extensions>
      </trkpt>
      <trkpt lat="50.64403" lon="5.34436">
        <ele>161.39999389648</ele>
        <extensions>
          <gpxtpx:TrackPointExtension xmlns:gpxtpx="http://www.garmin.com/xmlschemas/TrackPointExtension/v1">
            <gpxtpx:hr>124</gpxtpx:hr>
          </gpxtpx:TrackPointExtension>
        </extensions>
      </trkpt>
      <trkpt lat="50.64407" lon="5.34446">
        <ele>161.60000610352</ele>
        <extensions>
          <gpxtpx:TrackPointExtension xmlns:gpxtpx="http://www.garmin.com/xmlschemas/TrackPointExtension/v1">
            <gpxtpx:hr>125</gpxtpx:hr>
          </gpxtpx:TrackPointExtension>
        </extensions>
      </trkpt>
      <trkpt lat="50.64439" lon="5.34518">
        <ele>161.80000305176</ele>
        <extensions>
          <gpxtpx:TrackPointExtension xmlns:gpxtpx="http://www.garmin.com/xmlschemas/TrackPointExtension/v1">
            <gpxtpx:hr>124</gpxtpx:hr>
          </gpxtpx:TrackPointExtension>
        </extensions>
      </trkpt>
      <trkpt lat="50.64448" lon="5.34538">
        <ele>162</ele>
        <extensions>
          <gpxtpx:TrackPointExtension xmlns:gpxtpx="http://www.garmin.com/xmlschemas/TrackPointExtension/v1">
            <gpxtpx:hr>124</gpxtpx:hr>
          </gpxtpx:TrackPointExtension>
        </extensions>
      </trkpt>
      <trkpt lat="50.64476" lon="5.34597">
        <ele>161.80000305176</ele>
        <extensions>
          <gpxtpx:TrackPointExtension xmlns:gpxtpx="http://www.garmin.com/xmlschemas/TrackPointExtension/v1">
            <gpxtpx:hr>121</gpxtpx:hr>
          </gpxtpx:TrackPointExtension>
        </extensions>
      </trkpt>
      <trkpt lat="50.6449" lon="5.34627">
        <ele>161.60000610352</ele>
        <extensions>
          <gpxtpx:TrackPointExtension xmlns:gpxtpx="http://www.garmin.com/xmlschemas/TrackPointExtension/v1">
            <gpxtpx:hr>119</gpxtpx:hr>
          </gpxtpx:TrackPointExtension>
        </extensions>
      </trkpt>
      <trkpt lat="50.64525" lon="5.34703">
        <ele>161.19999694824</ele>
        <extensions>
          <gpxtpx:TrackPointExtension xmlns:gpxtpx="http://www.garmin.com/xmlschemas/TrackPointExtension/v1">
            <gpxtpx:hr>119</gpxtpx:hr>
          </gpxtpx:TrackPointExtension>
        </extensions>
      </trkpt>
      <trkpt lat="50.64541" lon="5.34738">
        <ele>160.80000305176</ele>
        <extensions>
          <gpxtpx:TrackPointExtension xmlns:gpxtpx="http://www.garmin.com/xmlschemas/TrackPointExtension/v1">
            <gpxtpx:hr>116</gpxtpx:hr>
          </gpxtpx:TrackPointExtension>
        </extensions>
      </trkpt>
      <trkpt lat="50.64552" lon="5.34762">
        <ele>160.39999389648</ele>
        <extensions>
          <gpxtpx:TrackPointExtension xmlns:gpxtpx="http://www.garmin.com/xmlschemas/TrackPointExtension/v1">
            <gpxtpx:hr>115</gpxtpx:hr>
          </gpxtpx:TrackPointExtension>
        </extensions>
      </trkpt>
      <trkpt lat="50.64574" lon="5.3481">
        <ele>159.60000610352</ele>
        <extensions>
          <gpxtpx:TrackPointExtension xmlns:gpxtpx="http://www.garmin.com/xmlschemas/TrackPointExtension/v1">
            <gpxtpx:hr>114</gpxtpx:hr>
          </gpxtpx:TrackPointExtension>
        </extensions>
      </trkpt>
      <trkpt lat="50.64579" lon="5.34822">
        <ele>159.39999389648</ele>
        <extensions>
          <gpxtpx:TrackPointExtension xmlns:gpxtpx="http://www.garmin.com/xmlschemas/TrackPointExtension/v1">
            <gpxtpx:hr>113</gpxtpx:hr>
          </gpxtpx:TrackPointExtension>
        </extensions>
      </trkpt>
      <trkpt lat="50.64603" lon="5.34872">
        <ele>158.60000610352</ele>
        <extensions>
          <gpxtpx:TrackPointExtension xmlns:gpxtpx="http://www.garmin.com/xmlschemas/TrackPointExtension/v1">
            <gpxtpx:hr>110</gpxtpx:hr>
          </gpxtpx:TrackPointExtension>
        </extensions>
      </trkpt>
      <trkpt lat="50.64614" lon="5.34897">
        <ele>157.19999694824</ele>
        <extensions>
          <gpxtpx:TrackPointExtension xmlns:gpxtpx="http://www.garmin.com/xmlschemas/TrackPointExtension/v1">
            <gpxtpx:hr>108</gpxtpx:hr>
          </gpxtpx:TrackPointExtension>
        </extensions>
      </trkpt>
      <trkpt lat="50.64627" lon="5.34921">
        <ele>156.80000305176</ele>
        <extensions>
          <gpxtpx:TrackPointExtension xmlns:gpxtpx="http://www.garmin.com/xmlschemas/TrackPointExtension/v1">
            <gpxtpx:hr>107</gpxtpx:hr>
          </gpxtpx:TrackPointExtension>
        </extensions>
      </trkpt>
      <trkpt lat="50.64659" lon="5.34975">
        <ele>156.19999694824</ele>
        <extensions>
          <gpxtpx:TrackPointExtension xmlns:gpxtpx="http://www.garmin.com/xmlschemas/TrackPointExtension/v1">
            <gpxtpx:hr>108</gpxtpx:hr>
          </gpxtpx:TrackPointExtension>
        </extensions>
      </trkpt>
      <trkpt lat="50.64672" lon="5.34994">
        <ele>155.80000305176</ele>
        <extensions>
          <gpxtpx:TrackPointExtension xmlns:gpxtpx="http://www.garmin.com/xmlschemas/TrackPointExtension/v1">
            <gpxtpx:hr>108</gpxtpx:hr>
          </gpxtpx:TrackPointExtension>
        </extensions>
      </trkpt>
      <trkpt lat="50.64708" lon="5.35054">
        <ele>156.4</ele>
      </trkpt>
      <trkpt lat="50.64725" lon="5.35079">
        <ele>155.60000610352</ele>
        <extensions>
          <gpxtpx:TrackPointExtension xmlns:gpxtpx="http://www.garmin.com/xmlschemas/TrackPointExtension/v1">
            <gpxtpx:hr>109</gpxtpx:hr>
          </gpxtpx:TrackPointExtension>
        </extensions>
      </trkpt>
      <trkpt lat="50.64742" lon="5.35106">
        <ele>155.60000610352</ele>
        <extensions>
          <gpxtpx:TrackPointExtension xmlns:gpxtpx="http://www.garmin.com/xmlschemas/TrackPointExtension/v1">
            <gpxtpx:hr>112</gpxtpx:hr>
          </gpxtpx:TrackPointExtension>
        </extensions>
      </trkpt>
      <trkpt lat="50.64759" lon="5.35132">
        <ele>155.80000305176</ele>
        <extensions>
          <gpxtpx:TrackPointExtension xmlns:gpxtpx="http://www.garmin.com/xmlschemas/TrackPointExtension/v1">
            <gpxtpx:hr>115</gpxtpx:hr>
          </gpxtpx:TrackPointExtension>
        </extensions>
      </trkpt>
      <trkpt lat="50.64775" lon="5.35156">
        <ele>156</ele>
        <extensions>
          <gpxtpx:TrackPointExtension xmlns:gpxtpx="http://www.garmin.com/xmlschemas/TrackPointExtension/v1">
            <gpxtpx:hr>118</gpxtpx:hr>
          </gpxtpx:TrackPointExtension>
        </extensions>
      </trkpt>
      <trkpt lat="50.6478" lon="5.35164">
        <ele>156</ele>
        <extensions>
          <gpxtpx:TrackPointExtension xmlns:gpxtpx="http://www.garmin.com/xmlschemas/TrackPointExtension/v1">
            <gpxtpx:hr>119</gpxtpx:hr>
          </gpxtpx:TrackPointExtension>
        </extensions>
      </trkpt>
      <trkpt lat="50.648" lon="5.35197">
        <ele>157.39999389648</ele>
        <extensions>
          <gpxtpx:TrackPointExtension xmlns:gpxtpx="http://www.garmin.com/xmlschemas/TrackPointExtension/v1">
            <gpxtpx:hr>122</gpxtpx:hr>
          </gpxtpx:TrackPointExtension>
        </extensions>
      </trkpt>
      <trkpt lat="50.64816" lon="5.35222">
        <ele>158</ele>
        <extensions>
          <gpxtpx:TrackPointExtension xmlns:gpxtpx="http://www.garmin.com/xmlschemas/TrackPointExtension/v1">
            <gpxtpx:hr>125</gpxtpx:hr>
          </gpxtpx:TrackPointExtension>
        </extensions>
      </trkpt>
      <trkpt lat="50.64826" lon="5.35238">
        <ele>158.60000610352</ele>
        <extensions>
          <gpxtpx:TrackPointExtension xmlns:gpxtpx="http://www.garmin.com/xmlschemas/TrackPointExtension/v1">
            <gpxtpx:hr>126</gpxtpx:hr>
          </gpxtpx:TrackPointExtension>
        </extensions>
      </trkpt>
      <trkpt lat="50.64853" lon="5.35279">
        <ele>159.19999694824</ele>
        <extensions>
          <gpxtpx:TrackPointExtension xmlns:gpxtpx="http://www.garmin.com/xmlschemas/TrackPointExtension/v1">
            <gpxtpx:hr>129</gpxtpx:hr>
          </gpxtpx:TrackPointExtension>
        </extensions>
      </trkpt>
      <trkpt lat="50.64858" lon="5.35287">
        <ele>159.39999389648</ele>
        <extensions>
          <gpxtpx:TrackPointExtension xmlns:gpxtpx="http://www.garmin.com/xmlschemas/TrackPointExtension/v1">
            <gpxtpx:hr>130</gpxtpx:hr>
          </gpxtpx:TrackPointExtension>
        </extensions>
      </trkpt>
      <trkpt lat="50.64873" lon="5.35313">
        <ele>159.60000610352</ele>
        <extensions>
          <gpxtpx:TrackPointExtension xmlns:gpxtpx="http://www.garmin.com/xmlschemas/TrackPointExtension/v1">
            <gpxtpx:hr>130</gpxtpx:hr>
          </gpxtpx:TrackPointExtension>
        </extensions>
      </trkpt>
      <trkpt lat="50.64894" lon="5.35345">
        <ele>159.80000305176</ele>
        <extensions>
          <gpxtpx:TrackPointExtension xmlns:gpxtpx="http://www.garmin.com/xmlschemas/TrackPointExtension/v1">
            <gpxtpx:hr>132</gpxtpx:hr>
          </gpxtpx:TrackPointExtension>
        </extensions>
      </trkpt>
      <trkpt lat="50.64906" lon="5.35362">
        <ele>161.7</ele>
      </trkpt>
      <trkpt lat="50.64928" lon="5.35381">
        <ele>162.1</ele>
      </trkpt>
      <trkpt lat="50.64946" lon="5.35394">
        <ele>162.3</ele>
      </trkpt>
      <trkpt lat="50.64973" lon="5.35409">
        <ele>163.1</ele>
      </trkpt>
      <trkpt lat="50.65019" lon="5.35419">
        <ele>164.3</ele>
      </trkpt>
      <trkpt lat="50.65071" lon="5.35432">
        <ele>163</ele>
      </trkpt>
      <trkpt lat="50.65098" lon="5.35436">
        <ele>162.4</ele>
      </trkpt>
      <trkpt lat="50.6511" lon="5.3544">
        <ele>162.4</ele>
      </trkpt>
      <trkpt lat="50.65108" lon="5.35454">
        <ele>159.60000610352</ele>
        <extensions>
          <gpxtpx:TrackPointExtension xmlns:gpxtpx="http://www.garmin.com/xmlschemas/TrackPointExtension/v1">
            <gpxtpx:hr>126</gpxtpx:hr>
          </gpxtpx:TrackPointExtension>
        </extensions>
      </trkpt>
      <trkpt lat="50.65101" lon="5.35481">
        <ele>162.6</ele>
      </trkpt>
      <trkpt lat="50.65087" lon="5.35552">
        <ele>159.39999389648</ele>
        <extensions>
          <gpxtpx:TrackPointExtension xmlns:gpxtpx="http://www.garmin.com/xmlschemas/TrackPointExtension/v1">
            <gpxtpx:hr>126</gpxtpx:hr>
          </gpxtpx:TrackPointExtension>
        </extensions>
      </trkpt>
      <trkpt lat="50.6508" lon="5.35592">
        <ele>164.4</ele>
      </trkpt>
      <trkpt lat="50.65077" lon="5.35628">
        <ele>165</ele>
      </trkpt>
      <trkpt lat="50.65073" lon="5.35709">
        <ele>160.19999694824</ele>
        <extensions>
          <gpxtpx:TrackPointExtension xmlns:gpxtpx="http://www.garmin.com/xmlschemas/TrackPointExtension/v1">
            <gpxtpx:hr>129</gpxtpx:hr>
          </gpxtpx:TrackPointExtension>
        </extensions>
      </trkpt>
      <trkpt lat="50.65073" lon="5.3572">
        <ele>160.39999389648</ele>
        <extensions>
          <gpxtpx:TrackPointExtension xmlns:gpxtpx="http://www.garmin.com/xmlschemas/TrackPointExtension/v1">
            <gpxtpx:hr>128</gpxtpx:hr>
          </gpxtpx:TrackPointExtension>
        </extensions>
      </trkpt>
      <trkpt lat="50.65069" lon="5.35802">
        <ele>164.5</ele>
      </trkpt>
      <trkpt lat="50.65068" lon="5.35829">
        <ele>164.3</ele>
      </trkpt>
      <trkpt lat="50.65064" lon="5.35879">
        <ele>162.6</ele>
      </trkpt>
      <trkpt lat="50.65059" lon="5.35905">
        <ele>159.60000610352</ele>
        <extensions>
          <gpxtpx:TrackPointExtension xmlns:gpxtpx="http://www.garmin.com/xmlschemas/TrackPointExtension/v1">
            <gpxtpx:hr>125</gpxtpx:hr>
          </gpxtpx:TrackPointExtension>
        </extensions>
      </trkpt>
      <trkpt lat="50.65052" lon="5.35923">
        <ele>160.8</ele>
      </trkpt>
      <trkpt lat="50.65042" lon="5.35943">
        <ele>158.80000305176</ele>
        <extensions>
          <gpxtpx:TrackPointExtension xmlns:gpxtpx="http://www.garmin.com/xmlschemas/TrackPointExtension/v1">
            <gpxtpx:hr>124</gpxtpx:hr>
          </gpxtpx:TrackPointExtension>
        </extensions>
      </trkpt>
      <trkpt lat="50.65031" lon="5.35958">
        <ele>158.60000610352</ele>
        <extensions>
          <gpxtpx:TrackPointExtension xmlns:gpxtpx="http://www.garmin.com/xmlschemas/TrackPointExtension/v1">
            <gpxtpx:hr>123</gpxtpx:hr>
          </gpxtpx:TrackPointExtension>
        </extensions>
      </trkpt>
      <trkpt lat="50.65021" lon="5.35973">
        <ele>158.39999389648</ele>
        <extensions>
          <gpxtpx:TrackPointExtension xmlns:gpxtpx="http://www.garmin.com/xmlschemas/TrackPointExtension/v1">
            <gpxtpx:hr>123</gpxtpx:hr>
          </gpxtpx:TrackPointExtension>
        </extensions>
      </trkpt>
      <trkpt lat="50.65016" lon="5.3598">
        <ele>158.19999694824</ele>
        <extensions>
          <gpxtpx:TrackPointExtension xmlns:gpxtpx="http://www.garmin.com/xmlschemas/TrackPointExtension/v1">
            <gpxtpx:hr>123</gpxtpx:hr>
          </gpxtpx:TrackPointExtension>
        </extensions>
      </trkpt>
      <trkpt lat="50.64994" lon="5.3601">
        <ele>161.1</ele>
      </trkpt>
      <trkpt lat="50.64989" lon="5.36028">
        <ele>157.39999389648</ele>
        <extensions>
          <gpxtpx:TrackPointExtension xmlns:gpxtpx="http://www.garmin.com/xmlschemas/TrackPointExtension/v1">
            <gpxtpx:hr>122</gpxtpx:hr>
          </gpxtpx:TrackPointExtension>
        </extensions>
      </trkpt>
      <trkpt lat="50.64985" lon="5.36047">
        <ele>161.2</ele>
      </trkpt>
      <trkpt lat="50.64976" lon="5.36095">
        <ele>161.5</ele>
      </trkpt>
      <trkpt lat="50.64971" lon="5.36127">
        <ele>161.6</ele>
      </trkpt>
      <trkpt lat="50.64965" lon="5.36168">
        <ele>162</ele>
      </trkpt>
      <trkpt lat="50.64954" lon="5.3622">
        <ele>158.60000610352</ele>
        <extensions>
          <gpxtpx:TrackPointExtension xmlns:gpxtpx="http://www.garmin.com/xmlschemas/TrackPointExtension/v1">
            <gpxtpx:hr>117</gpxtpx:hr>
          </gpxtpx:TrackPointExtension>
        </extensions>
      </trkpt>
      <trkpt lat="50.64949" lon="5.36237">
        <ele>158.80000305176</ele>
        <extensions>
          <gpxtpx:TrackPointExtension xmlns:gpxtpx="http://www.garmin.com/xmlschemas/TrackPointExtension/v1">
            <gpxtpx:hr>117</gpxtpx:hr>
          </gpxtpx:TrackPointExtension>
        </extensions>
      </trkpt>
      <trkpt lat="50.64939" lon="5.36274">
        <ele>159</ele>
        <extensions>
          <gpxtpx:TrackPointExtension xmlns:gpxtpx="http://www.garmin.com/xmlschemas/TrackPointExtension/v1">
            <gpxtpx:hr>120</gpxtpx:hr>
          </gpxtpx:TrackPointExtension>
        </extensions>
      </trkpt>
      <trkpt lat="50.64932" lon="5.36301">
        <ele>159.19999694824</ele>
        <extensions>
          <gpxtpx:TrackPointExtension xmlns:gpxtpx="http://www.garmin.com/xmlschemas/TrackPointExtension/v1">
            <gpxtpx:hr>122</gpxtpx:hr>
          </gpxtpx:TrackPointExtension>
        </extensions>
      </trkpt>
      <trkpt lat="50.64927" lon="5.36322">
        <ele>163.4</ele>
      </trkpt>
      <trkpt lat="50.64923" lon="5.36364">
        <ele>163.1</ele>
      </trkpt>
      <trkpt lat="50.64926" lon="5.36422">
        <ele>163.1</ele>
      </trkpt>
      <trkpt lat="50.64928" lon="5.36444">
        <ele>163.2</ele>
      </trkpt>
      <trkpt lat="50.64933" lon="5.36511">
        <ele>160.80000305176</ele>
        <extensions>
          <gpxtpx:TrackPointExtension xmlns:gpxtpx="http://www.garmin.com/xmlschemas/TrackPointExtension/v1">
            <gpxtpx:hr>128</gpxtpx:hr>
          </gpxtpx:TrackPointExtension>
        </extensions>
      </trkpt>
      <trkpt lat="50.64936" lon="5.36555">
        <ele>161</ele>
        <extensions>
          <gpxtpx:TrackPointExtension xmlns:gpxtpx="http://www.garmin.com/xmlschemas/TrackPointExtension/v1">
            <gpxtpx:hr>131</gpxtpx:hr>
          </gpxtpx:TrackPointExtension>
        </extensions>
      </trkpt>
      <trkpt lat="50.64939" lon="5.3662">
        <ele>161.39999389648</ele>
        <extensions>
          <gpxtpx:TrackPointExtension xmlns:gpxtpx="http://www.garmin.com/xmlschemas/TrackPointExtension/v1">
            <gpxtpx:hr>134</gpxtpx:hr>
          </gpxtpx:TrackPointExtension>
        </extensions>
      </trkpt>
      <trkpt lat="50.64938" lon="5.36652">
        <ele>161.60000610352</ele>
        <extensions>
          <gpxtpx:TrackPointExtension xmlns:gpxtpx="http://www.garmin.com/xmlschemas/TrackPointExtension/v1">
            <gpxtpx:hr>135</gpxtpx:hr>
          </gpxtpx:TrackPointExtension>
        </extensions>
      </trkpt>
      <trkpt lat="50.64937" lon="5.36662">
        <ele>162.19999694824</ele>
        <extensions>
          <gpxtpx:TrackPointExtension xmlns:gpxtpx="http://www.garmin.com/xmlschemas/TrackPointExtension/v1">
            <gpxtpx:hr>135</gpxtpx:hr>
          </gpxtpx:TrackPointExtension>
        </extensions>
      </trkpt>
      <trkpt lat="50.64928" lon="5.3671">
        <ele>164.8</ele>
      </trkpt>
      <trkpt lat="50.64912" lon="5.3679">
        <ele>165</ele>
      </trkpt>
      <trkpt lat="50.64897" lon="5.36864">
        <ele>164.8</ele>
      </trkpt>
      <trkpt lat="50.64894" lon="5.36903">
        <ele>164.5</ele>
      </trkpt>
      <trkpt lat="50.6489" lon="5.36943">
        <ele>164.2</ele>
      </trkpt>
      <trkpt lat="50.64893" lon="5.36994">
        <ele>163.8</ele>
      </trkpt>
      <trkpt lat="50.649" lon="5.37025">
        <ele>163.5</ele>
      </trkpt>
      <trkpt lat="50.64905" lon="5.3705">
        <ele>163.5</ele>
      </trkpt>
      <trkpt lat="50.6491" lon="5.37089">
        <ele>163.2</ele>
      </trkpt>
      <trkpt lat="50.6491" lon="5.37167">
        <ele>163.3</ele>
      </trkpt>
      <trkpt lat="50.64909" lon="5.37208">
        <ele>164.2</ele>
      </trkpt>
      <trkpt lat="50.64907" lon="5.37231">
        <ele>164.2</ele>
      </trkpt>
      <trkpt lat="50.64894" lon="5.37222">
        <ele>162.19999694824</ele>
        <extensions>
          <gpxtpx:TrackPointExtension xmlns:gpxtpx="http://www.garmin.com/xmlschemas/TrackPointExtension/v1">
            <gpxtpx:hr>117</gpxtpx:hr>
          </gpxtpx:TrackPointExtension>
        </extensions>
      </trkpt>
      <trkpt lat="50.64889" lon="5.37219">
        <ele>162.19999694824</ele>
        <extensions>
          <gpxtpx:TrackPointExtension xmlns:gpxtpx="http://www.garmin.com/xmlschemas/TrackPointExtension/v1">
            <gpxtpx:hr>118</gpxtpx:hr>
          </gpxtpx:TrackPointExtension>
        </extensions>
      </trkpt>
      <trkpt lat="50.64862" lon="5.37203">
        <ele>162.39999389648</ele>
        <extensions>
          <gpxtpx:TrackPointExtension xmlns:gpxtpx="http://www.garmin.com/xmlschemas/TrackPointExtension/v1">
            <gpxtpx:hr>120</gpxtpx:hr>
          </gpxtpx:TrackPointExtension>
        </extensions>
      </trkpt>
      <trkpt lat="50.64828" lon="5.3718">
        <ele>162.80000305176</ele>
        <extensions>
          <gpxtpx:TrackPointExtension xmlns:gpxtpx="http://www.garmin.com/xmlschemas/TrackPointExtension/v1">
            <gpxtpx:hr>123</gpxtpx:hr>
          </gpxtpx:TrackPointExtension>
        </extensions>
      </trkpt>
      <trkpt lat="50.6481" lon="5.3717">
        <ele>163</ele>
        <extensions>
          <gpxtpx:TrackPointExtension xmlns:gpxtpx="http://www.garmin.com/xmlschemas/TrackPointExtension/v1">
            <gpxtpx:hr>124</gpxtpx:hr>
          </gpxtpx:TrackPointExtension>
        </extensions>
      </trkpt>
      <trkpt lat="50.64788" lon="5.37157">
        <ele>163.19999694824</ele>
        <extensions>
          <gpxtpx:TrackPointExtension xmlns:gpxtpx="http://www.garmin.com/xmlschemas/TrackPointExtension/v1">
            <gpxtpx:hr>124</gpxtpx:hr>
          </gpxtpx:TrackPointExtension>
        </extensions>
      </trkpt>
      <trkpt lat="50.64769" lon="5.37146">
        <ele>163.39999389648</ele>
        <extensions>
          <gpxtpx:TrackPointExtension xmlns:gpxtpx="http://www.garmin.com/xmlschemas/TrackPointExtension/v1">
            <gpxtpx:hr>125</gpxtpx:hr>
          </gpxtpx:TrackPointExtension>
        </extensions>
      </trkpt>
      <trkpt lat="50.64734" lon="5.37127">
        <ele>165.1</ele>
      </trkpt>
      <trkpt lat="50.6473" lon="5.37136">
        <ele>164</ele>
        <extensions>
          <gpxtpx:TrackPointExtension xmlns:gpxtpx="http://www.garmin.com/xmlschemas/TrackPointExtension/v1">
            <gpxtpx:hr>125</gpxtpx:hr>
          </gpxtpx:TrackPointExtension>
        </extensions>
      </trkpt>
      <trkpt lat="50.64725" lon="5.37149">
        <ele>164.19999694824</ele>
        <extensions>
          <gpxtpx:TrackPointExtension xmlns:gpxtpx="http://www.garmin.com/xmlschemas/TrackPointExtension/v1">
            <gpxtpx:hr>125</gpxtpx:hr>
          </gpxtpx:TrackPointExtension>
        </extensions>
      </trkpt>
      <trkpt lat="50.64719" lon="5.37164">
        <ele>164.19999694824</ele>
        <extensions>
          <gpxtpx:TrackPointExtension xmlns:gpxtpx="http://www.garmin.com/xmlschemas/TrackPointExtension/v1">
            <gpxtpx:hr>126</gpxtpx:hr>
          </gpxtpx:TrackPointExtension>
        </extensions>
      </trkpt>
      <trkpt lat="50.64716" lon="5.37171">
        <ele>164.19999694824</ele>
        <extensions>
          <gpxtpx:TrackPointExtension xmlns:gpxtpx="http://www.garmin.com/xmlschemas/TrackPointExtension/v1">
            <gpxtpx:hr>126</gpxtpx:hr>
          </gpxtpx:TrackPointExtension>
        </extensions>
      </trkpt>
      <trkpt lat="50.64695" lon="5.37226">
        <ele>164.39999389648</ele>
        <extensions>
          <gpxtpx:TrackPointExtension xmlns:gpxtpx="http://www.garmin.com/xmlschemas/TrackPointExtension/v1">
            <gpxtpx:hr>129</gpxtpx:hr>
          </gpxtpx:TrackPointExtension>
        </extensions>
      </trkpt>
      <trkpt lat="50.64686" lon="5.37251">
        <ele>165</ele>
        <extensions>
          <gpxtpx:TrackPointExtension xmlns:gpxtpx="http://www.garmin.com/xmlschemas/TrackPointExtension/v1">
            <gpxtpx:hr>130</gpxtpx:hr>
          </gpxtpx:TrackPointExtension>
        </extensions>
      </trkpt>
      <trkpt lat="50.64676" lon="5.37275">
        <ele>165.19999694824</ele>
        <extensions>
          <gpxtpx:TrackPointExtension xmlns:gpxtpx="http://www.garmin.com/xmlschemas/TrackPointExtension/v1">
            <gpxtpx:hr>131</gpxtpx:hr>
          </gpxtpx:TrackPointExtension>
        </extensions>
      </trkpt>
      <trkpt lat="50.6466" lon="5.37314">
        <ele>165.60000610352</ele>
        <extensions>
          <gpxtpx:TrackPointExtension xmlns:gpxtpx="http://www.garmin.com/xmlschemas/TrackPointExtension/v1">
            <gpxtpx:hr>133</gpxtpx:hr>
          </gpxtpx:TrackPointExtension>
        </extensions>
      </trkpt>
      <trkpt lat="50.64651" lon="5.37338">
        <ele>166.39999389648</ele>
        <extensions>
          <gpxtpx:TrackPointExtension xmlns:gpxtpx="http://www.garmin.com/xmlschemas/TrackPointExtension/v1">
            <gpxtpx:hr>134</gpxtpx:hr>
          </gpxtpx:TrackPointExtension>
        </extensions>
      </trkpt>
      <trkpt lat="50.64634" lon="5.37379">
        <ele>166.80000305176</ele>
        <extensions>
          <gpxtpx:TrackPointExtension xmlns:gpxtpx="http://www.garmin.com/xmlschemas/TrackPointExtension/v1">
            <gpxtpx:hr>135</gpxtpx:hr>
          </gpxtpx:TrackPointExtension>
        </extensions>
      </trkpt>
      <trkpt lat="50.64608" lon="5.37446">
        <ele>167.39999389648</ele>
        <extensions>
          <gpxtpx:TrackPointExtension xmlns:gpxtpx="http://www.garmin.com/xmlschemas/TrackPointExtension/v1">
            <gpxtpx:hr>137</gpxtpx:hr>
          </gpxtpx:TrackPointExtension>
        </extensions>
      </trkpt>
      <trkpt lat="50.64578" lon="5.37523">
        <ele>167.80000305176</ele>
        <extensions>
          <gpxtpx:TrackPointExtension xmlns:gpxtpx="http://www.garmin.com/xmlschemas/TrackPointExtension/v1">
            <gpxtpx:hr>138</gpxtpx:hr>
          </gpxtpx:TrackPointExtension>
        </extensions>
      </trkpt>
      <trkpt lat="50.64549" lon="5.37595">
        <ele>168.19999694824</ele>
        <extensions>
          <gpxtpx:TrackPointExtension xmlns:gpxtpx="http://www.garmin.com/xmlschemas/TrackPointExtension/v1">
            <gpxtpx:hr>138</gpxtpx:hr>
          </gpxtpx:TrackPointExtension>
        </extensions>
      </trkpt>
      <trkpt lat="50.64517" lon="5.37674">
        <ele>164.9</ele>
      </trkpt>
      <trkpt lat="50.64495" lon="5.37729">
        <ele>163.6</ele>
      </trkpt>
      <trkpt lat="50.64483" lon="5.37759">
        <ele>163.4</ele>
      </trkpt>
      <trkpt lat="50.64462" lon="5.37811">
        <ele>163.8</ele>
      </trkpt>
      <trkpt lat="50.64445" lon="5.37853">
        <ele>163.8</ele>
      </trkpt>
      <trkpt lat="50.64414" lon="5.3792">
        <ele>160.39999389648</ele>
        <extensions>
          <gpxtpx:TrackPointExtension xmlns:gpxtpx="http://www.garmin.com/xmlschemas/TrackPointExtension/v1">
            <gpxtpx:hr>130</gpxtpx:hr>
          </gpxtpx:TrackPointExtension>
        </extensions>
      </trkpt>
      <trkpt lat="50.64391" lon="5.37962">
        <ele>163.39999389648</ele>
        <extensions>
          <gpxtpx:TrackPointExtension xmlns:gpxtpx="http://www.garmin.com/xmlschemas/TrackPointExtension/v1">
            <gpxtpx:hr>132</gpxtpx:hr>
          </gpxtpx:TrackPointExtension>
        </extensions>
      </trkpt>
      <trkpt lat="50.64372" lon="5.37996">
        <ele>164</ele>
        <extensions>
          <gpxtpx:TrackPointExtension xmlns:gpxtpx="http://www.garmin.com/xmlschemas/TrackPointExtension/v1">
            <gpxtpx:hr>131</gpxtpx:hr>
          </gpxtpx:TrackPointExtension>
        </extensions>
      </trkpt>
      <trkpt lat="50.64334" lon="5.38064">
        <ele>164</ele>
        <extensions>
          <gpxtpx:TrackPointExtension xmlns:gpxtpx="http://www.garmin.com/xmlschemas/TrackPointExtension/v1">
            <gpxtpx:hr>131</gpxtpx:hr>
          </gpxtpx:TrackPointExtension>
        </extensions>
      </trkpt>
      <trkpt lat="50.64315" lon="5.38098">
        <ele>162.19999694824</ele>
        <extensions>
          <gpxtpx:TrackPointExtension xmlns:gpxtpx="http://www.garmin.com/xmlschemas/TrackPointExtension/v1">
            <gpxtpx:hr>131</gpxtpx:hr>
          </gpxtpx:TrackPointExtension>
        </extensions>
      </trkpt>
      <trkpt lat="50.64299" lon="5.38128">
        <ele>161.80000305176</ele>
        <extensions>
          <gpxtpx:TrackPointExtension xmlns:gpxtpx="http://www.garmin.com/xmlschemas/TrackPointExtension/v1">
            <gpxtpx:hr>131</gpxtpx:hr>
          </gpxtpx:TrackPointExtension>
        </extensions>
      </trkpt>
      <trkpt lat="50.64271" lon="5.38179">
        <ele>162</ele>
        <extensions>
          <gpxtpx:TrackPointExtension xmlns:gpxtpx="http://www.garmin.com/xmlschemas/TrackPointExtension/v1">
            <gpxtpx:hr>132</gpxtpx:hr>
          </gpxtpx:TrackPointExtension>
        </extensions>
      </trkpt>
      <trkpt lat="50.64247" lon="5.38227">
        <ele>163.60000610352</ele>
        <extensions>
          <gpxtpx:TrackPointExtension xmlns:gpxtpx="http://www.garmin.com/xmlschemas/TrackPointExtension/v1">
            <gpxtpx:hr>135</gpxtpx:hr>
          </gpxtpx:TrackPointExtension>
        </extensions>
      </trkpt>
      <trkpt lat="50.64241" lon="5.38241">
        <ele>164.80000305176</ele>
        <extensions>
          <gpxtpx:TrackPointExtension xmlns:gpxtpx="http://www.garmin.com/xmlschemas/TrackPointExtension/v1">
            <gpxtpx:hr>136</gpxtpx:hr>
          </gpxtpx:TrackPointExtension>
        </extensions>
      </trkpt>
      <trkpt lat="50.64231" lon="5.38263">
        <ele>165.80000305176</ele>
        <extensions>
          <gpxtpx:TrackPointExtension xmlns:gpxtpx="http://www.garmin.com/xmlschemas/TrackPointExtension/v1">
            <gpxtpx:hr>137</gpxtpx:hr>
          </gpxtpx:TrackPointExtension>
        </extensions>
      </trkpt>
      <trkpt lat="50.64219" lon="5.38295">
        <ele>166.60000610352</ele>
        <extensions>
          <gpxtpx:TrackPointExtension xmlns:gpxtpx="http://www.garmin.com/xmlschemas/TrackPointExtension/v1">
            <gpxtpx:hr>139</gpxtpx:hr>
          </gpxtpx:TrackPointExtension>
        </extensions>
      </trkpt>
      <trkpt lat="50.64215" lon="5.38304">
        <ele>167.19999694824</ele>
        <extensions>
          <gpxtpx:TrackPointExtension xmlns:gpxtpx="http://www.garmin.com/xmlschemas/TrackPointExtension/v1">
            <gpxtpx:hr>139</gpxtpx:hr>
          </gpxtpx:TrackPointExtension>
        </extensions>
      </trkpt>
      <trkpt lat="50.64194" lon="5.38367">
        <ele>167.80000305176</ele>
        <extensions>
          <gpxtpx:TrackPointExtension xmlns:gpxtpx="http://www.garmin.com/xmlschemas/TrackPointExtension/v1">
            <gpxtpx:hr>140</gpxtpx:hr>
          </gpxtpx:TrackPointExtension>
        </extensions>
      </trkpt>
      <trkpt lat="50.64169" lon="5.38449">
        <ele>167.39999389648</ele>
        <extensions>
          <gpxtpx:TrackPointExtension xmlns:gpxtpx="http://www.garmin.com/xmlschemas/TrackPointExtension/v1">
            <gpxtpx:hr>140</gpxtpx:hr>
          </gpxtpx:TrackPointExtension>
        </extensions>
      </trkpt>
      <trkpt lat="50.64162" lon="5.38471">
        <ele>167</ele>
        <extensions>
          <gpxtpx:TrackPointExtension xmlns:gpxtpx="http://www.garmin.com/xmlschemas/TrackPointExtension/v1">
            <gpxtpx:hr>140</gpxtpx:hr>
          </gpxtpx:TrackPointExtension>
        </extensions>
      </trkpt>
      <trkpt lat="50.64156" lon="5.38492">
        <ele>166.19999694824</ele>
        <extensions>
          <gpxtpx:TrackPointExtension xmlns:gpxtpx="http://www.garmin.com/xmlschemas/TrackPointExtension/v1">
            <gpxtpx:hr>139</gpxtpx:hr>
          </gpxtpx:TrackPointExtension>
        </extensions>
      </trkpt>
      <trkpt lat="50.64134" lon="5.38563">
        <ele>166</ele>
        <extensions>
          <gpxtpx:TrackPointExtension xmlns:gpxtpx="http://www.garmin.com/xmlschemas/TrackPointExtension/v1">
            <gpxtpx:hr>138</gpxtpx:hr>
          </gpxtpx:TrackPointExtension>
        </extensions>
      </trkpt>
      <trkpt lat="50.64111" lon="5.38634">
        <ele>165.8</ele>
      </trkpt>
      <trkpt lat="50.64088" lon="5.38707">
        <ele>166.2</ele>
      </trkpt>
      <trkpt lat="50.64078" lon="5.38739">
        <ele>167.4</ele>
      </trkpt>
      <trkpt lat="50.64055" lon="5.38811">
        <ele>168.5</ele>
      </trkpt>
      <trkpt lat="50.64046" lon="5.38842">
        <ele>169.5</ele>
      </trkpt>
      <trkpt lat="50.64027" lon="5.38898">
        <ele>170.6</ele>
      </trkpt>
      <trkpt lat="50.64011" lon="5.3894">
        <ele>171.9</ele>
      </trkpt>
      <trkpt lat="50.63993" lon="5.38983">
        <ele>172.8</ele>
      </trkpt>
      <trkpt lat="50.63972" lon="5.39028">
        <ele>173</ele>
      </trkpt>
      <trkpt lat="50.63961" lon="5.39044">
        <ele>173</ele>
      </trkpt>
      <trkpt lat="50.63917" lon="5.39102">
        <ele>170.80000305176</ele>
        <extensions>
          <gpxtpx:TrackPointExtension xmlns:gpxtpx="http://www.garmin.com/xmlschemas/TrackPointExtension/v1">
            <gpxtpx:hr>138</gpxtpx:hr>
          </gpxtpx:TrackPointExtension>
        </extensions>
      </trkpt>
      <trkpt lat="50.63901" lon="5.39122">
        <ele>169.60000610352</ele>
        <extensions>
          <gpxtpx:TrackPointExtension xmlns:gpxtpx="http://www.garmin.com/xmlschemas/TrackPointExtension/v1">
            <gpxtpx:hr>137</gpxtpx:hr>
          </gpxtpx:TrackPointExtension>
        </extensions>
      </trkpt>
      <trkpt lat="50.63874" lon="5.39155">
        <ele>169.19999694824</ele>
        <extensions>
          <gpxtpx:TrackPointExtension xmlns:gpxtpx="http://www.garmin.com/xmlschemas/TrackPointExtension/v1">
            <gpxtpx:hr>134</gpxtpx:hr>
          </gpxtpx:TrackPointExtension>
        </extensions>
      </trkpt>
      <trkpt lat="50.63858" lon="5.39176">
        <ele>168.80000305176</ele>
        <extensions>
          <gpxtpx:TrackPointExtension xmlns:gpxtpx="http://www.garmin.com/xmlschemas/TrackPointExtension/v1">
            <gpxtpx:hr>133</gpxtpx:hr>
          </gpxtpx:TrackPointExtension>
        </extensions>
      </trkpt>
      <trkpt lat="50.63836" lon="5.39204">
        <ele>167.80000305176</ele>
        <extensions>
          <gpxtpx:TrackPointExtension xmlns:gpxtpx="http://www.garmin.com/xmlschemas/TrackPointExtension/v1">
            <gpxtpx:hr>130</gpxtpx:hr>
          </gpxtpx:TrackPointExtension>
        </extensions>
      </trkpt>
      <trkpt lat="50.63804" lon="5.39247">
        <ele>165.60000610352</ele>
        <extensions>
          <gpxtpx:TrackPointExtension xmlns:gpxtpx="http://www.garmin.com/xmlschemas/TrackPointExtension/v1">
            <gpxtpx:hr>124</gpxtpx:hr>
          </gpxtpx:TrackPointExtension>
        </extensions>
      </trkpt>
      <trkpt lat="50.63777" lon="5.39281">
        <ele>165.19999694824</ele>
        <extensions>
          <gpxtpx:TrackPointExtension xmlns:gpxtpx="http://www.garmin.com/xmlschemas/TrackPointExtension/v1">
            <gpxtpx:hr>121</gpxtpx:hr>
          </gpxtpx:TrackPointExtension>
        </extensions>
      </trkpt>
      <trkpt lat="50.6375" lon="5.39316">
        <ele>165</ele>
        <extensions>
          <gpxtpx:TrackPointExtension xmlns:gpxtpx="http://www.garmin.com/xmlschemas/TrackPointExtension/v1">
            <gpxtpx:hr>120</gpxtpx:hr>
          </gpxtpx:TrackPointExtension>
        </extensions>
      </trkpt>
      <trkpt lat="50.63745" lon="5.39323">
        <ele>164.80000305176</ele>
        <extensions>
          <gpxtpx:TrackPointExtension xmlns:gpxtpx="http://www.garmin.com/xmlschemas/TrackPointExtension/v1">
            <gpxtpx:hr>119</gpxtpx:hr>
          </gpxtpx:TrackPointExtension>
        </extensions>
      </trkpt>
      <trkpt lat="50.63703" lon="5.39377">
        <ele>163.60000610352</ele>
        <extensions>
          <gpxtpx:TrackPointExtension xmlns:gpxtpx="http://www.garmin.com/xmlschemas/TrackPointExtension/v1">
            <gpxtpx:hr>118</gpxtpx:hr>
          </gpxtpx:TrackPointExtension>
        </extensions>
      </trkpt>
      <trkpt lat="50.63654" lon="5.39439">
        <ele>162.80000305176</ele>
        <extensions>
          <gpxtpx:TrackPointExtension xmlns:gpxtpx="http://www.garmin.com/xmlschemas/TrackPointExtension/v1">
            <gpxtpx:hr>118</gpxtpx:hr>
          </gpxtpx:TrackPointExtension>
        </extensions>
      </trkpt>
      <trkpt lat="50.63644" lon="5.39453">
        <ele>162.60000610352</ele>
        <extensions>
          <gpxtpx:TrackPointExtension xmlns:gpxtpx="http://www.garmin.com/xmlschemas/TrackPointExtension/v1">
            <gpxtpx:hr>117</gpxtpx:hr>
          </gpxtpx:TrackPointExtension>
        </extensions>
      </trkpt>
      <trkpt lat="50.63603" lon="5.39506">
        <ele>161.39999389648</ele>
        <extensions>
          <gpxtpx:TrackPointExtension xmlns:gpxtpx="http://www.garmin.com/xmlschemas/TrackPointExtension/v1">
            <gpxtpx:hr>117</gpxtpx:hr>
          </gpxtpx:TrackPointExtension>
        </extensions>
      </trkpt>
      <trkpt lat="50.63578" lon="5.39538">
        <ele>161</ele>
        <extensions>
          <gpxtpx:TrackPointExtension xmlns:gpxtpx="http://www.garmin.com/xmlschemas/TrackPointExtension/v1">
            <gpxtpx:hr>114</gpxtpx:hr>
          </gpxtpx:TrackPointExtension>
        </extensions>
      </trkpt>
      <trkpt lat="50.63564" lon="5.39556">
        <ele>161</ele>
        <extensions>
          <gpxtpx:TrackPointExtension xmlns:gpxtpx="http://www.garmin.com/xmlschemas/TrackPointExtension/v1">
            <gpxtpx:hr>113</gpxtpx:hr>
          </gpxtpx:TrackPointExtension>
        </extensions>
      </trkpt>
      <trkpt lat="50.63532" lon="5.39597">
        <ele>160.80000305176</ele>
        <extensions>
          <gpxtpx:TrackPointExtension xmlns:gpxtpx="http://www.garmin.com/xmlschemas/TrackPointExtension/v1">
            <gpxtpx:hr>112</gpxtpx:hr>
          </gpxtpx:TrackPointExtension>
        </extensions>
      </trkpt>
      <trkpt lat="50.63524" lon="5.39607">
        <ele>165.7</ele>
      </trkpt>
      <trkpt lat="50.63515" lon="5.39601">
        <ele>165.6</ele>
      </trkpt>
      <trkpt lat="50.63506" lon="5.3961">
        <ele>165.7</ele>
      </trkpt>
      <trkpt lat="50.63508" lon="5.39625">
        <ele>161.19999694824</ele>
        <extensions>
          <gpxtpx:TrackPointExtension xmlns:gpxtpx="http://www.garmin.com/xmlschemas/TrackPointExtension/v1">
            <gpxtpx:hr>109</gpxtpx:hr>
          </gpxtpx:TrackPointExtension>
        </extensions>
      </trkpt>
      <trkpt lat="50.63518" lon="5.39634">
        <ele>166.2</ele>
      </trkpt>
      <trkpt lat="50.6352" lon="5.3966">
        <ele>166.5</ele>
      </trkpt>
      <trkpt lat="50.63523" lon="5.39688">
        <ele>167.3</ele>
      </trkpt>
      <trkpt lat="50.63527" lon="5.39753">
        <ele>162.39999389648</ele>
        <extensions>
          <gpxtpx:TrackPointExtension xmlns:gpxtpx="http://www.garmin.com/xmlschemas/TrackPointExtension/v1">
            <gpxtpx:hr>122</gpxtpx:hr>
          </gpxtpx:TrackPointExtension>
        </extensions>
      </trkpt>
      <trkpt lat="50.63534" lon="5.39833">
        <ele>163.39999389648</ele>
        <extensions>
          <gpxtpx:TrackPointExtension xmlns:gpxtpx="http://www.garmin.com/xmlschemas/TrackPointExtension/v1">
            <gpxtpx:hr>125</gpxtpx:hr>
          </gpxtpx:TrackPointExtension>
        </extensions>
      </trkpt>
      <trkpt lat="50.63535" lon="5.39843">
        <ele>163.39999389648</ele>
        <extensions>
          <gpxtpx:TrackPointExtension xmlns:gpxtpx="http://www.garmin.com/xmlschemas/TrackPointExtension/v1">
            <gpxtpx:hr>125</gpxtpx:hr>
          </gpxtpx:TrackPointExtension>
        </extensions>
      </trkpt>
      <trkpt lat="50.63542" lon="5.39912">
        <ele>163.60000610352</ele>
        <extensions>
          <gpxtpx:TrackPointExtension xmlns:gpxtpx="http://www.garmin.com/xmlschemas/TrackPointExtension/v1">
            <gpxtpx:hr>127</gpxtpx:hr>
          </gpxtpx:TrackPointExtension>
        </extensions>
      </trkpt>
      <trkpt lat="50.6355" lon="5.40004">
        <ele>163.80000305176</ele>
        <extensions>
          <gpxtpx:TrackPointExtension xmlns:gpxtpx="http://www.garmin.com/xmlschemas/TrackPointExtension/v1">
            <gpxtpx:hr>130</gpxtpx:hr>
          </gpxtpx:TrackPointExtension>
        </extensions>
      </trkpt>
      <trkpt lat="50.63557" lon="5.40096">
        <ele>163.80000305176</ele>
        <extensions>
          <gpxtpx:TrackPointExtension xmlns:gpxtpx="http://www.garmin.com/xmlschemas/TrackPointExtension/v1">
            <gpxtpx:hr>131</gpxtpx:hr>
          </gpxtpx:TrackPointExtension>
        </extensions>
      </trkpt>
      <trkpt lat="50.63557" lon="5.40107">
        <ele>164</ele>
        <extensions>
          <gpxtpx:TrackPointExtension xmlns:gpxtpx="http://www.garmin.com/xmlschemas/TrackPointExtension/v1">
            <gpxtpx:hr>131</gpxtpx:hr>
          </gpxtpx:TrackPointExtension>
        </extensions>
      </trkpt>
      <trkpt lat="50.63565" lon="5.40201">
        <ele>163.80000305176</ele>
        <extensions>
          <gpxtpx:TrackPointExtension xmlns:gpxtpx="http://www.garmin.com/xmlschemas/TrackPointExtension/v1">
            <gpxtpx:hr>132</gpxtpx:hr>
          </gpxtpx:TrackPointExtension>
        </extensions>
      </trkpt>
      <trkpt lat="50.63567" lon="5.40223">
        <ele>164</ele>
        <extensions>
          <gpxtpx:TrackPointExtension xmlns:gpxtpx="http://www.garmin.com/xmlschemas/TrackPointExtension/v1">
            <gpxtpx:hr>131</gpxtpx:hr>
          </gpxtpx:TrackPointExtension>
        </extensions>
      </trkpt>
      <trkpt lat="50.63574" lon="5.4031">
        <ele>163.80000305176</ele>
        <extensions>
          <gpxtpx:TrackPointExtension xmlns:gpxtpx="http://www.garmin.com/xmlschemas/TrackPointExtension/v1">
            <gpxtpx:hr>131</gpxtpx:hr>
          </gpxtpx:TrackPointExtension>
        </extensions>
      </trkpt>
      <trkpt lat="50.63576" lon="5.40331">
        <ele>163.80000305176</ele>
        <extensions>
          <gpxtpx:TrackPointExtension xmlns:gpxtpx="http://www.garmin.com/xmlschemas/TrackPointExtension/v1">
            <gpxtpx:hr>130</gpxtpx:hr>
          </gpxtpx:TrackPointExtension>
        </extensions>
      </trkpt>
      <trkpt lat="50.63583" lon="5.40424">
        <ele>163.80000305176</ele>
        <extensions>
          <gpxtpx:TrackPointExtension xmlns:gpxtpx="http://www.garmin.com/xmlschemas/TrackPointExtension/v1">
            <gpxtpx:hr>129</gpxtpx:hr>
          </gpxtpx:TrackPointExtension>
        </extensions>
      </trkpt>
      <trkpt lat="50.63583" lon="5.40434">
        <ele>163.80000305176</ele>
        <extensions>
          <gpxtpx:TrackPointExtension xmlns:gpxtpx="http://www.garmin.com/xmlschemas/TrackPointExtension/v1">
            <gpxtpx:hr>129</gpxtpx:hr>
          </gpxtpx:TrackPointExtension>
        </extensions>
      </trkpt>
      <trkpt lat="50.63591" lon="5.40528">
        <ele>164</ele>
        <extensions>
          <gpxtpx:TrackPointExtension xmlns:gpxtpx="http://www.garmin.com/xmlschemas/TrackPointExtension/v1">
            <gpxtpx:hr>128</gpxtpx:hr>
          </gpxtpx:TrackPointExtension>
        </extensions>
      </trkpt>
      <trkpt lat="50.63593" lon="5.40549">
        <ele>164</ele>
        <extensions>
          <gpxtpx:TrackPointExtension xmlns:gpxtpx="http://www.garmin.com/xmlschemas/TrackPointExtension/v1">
            <gpxtpx:hr>128</gpxtpx:hr>
          </gpxtpx:TrackPointExtension>
        </extensions>
      </trkpt>
      <trkpt lat="50.63595" lon="5.4058">
        <ele>164.60000610352</ele>
        <extensions>
          <gpxtpx:TrackPointExtension xmlns:gpxtpx="http://www.garmin.com/xmlschemas/TrackPointExtension/v1">
            <gpxtpx:hr>128</gpxtpx:hr>
          </gpxtpx:TrackPointExtension>
        </extensions>
      </trkpt>
      <trkpt lat="50.636" lon="5.40643">
        <ele>165.60000610352</ele>
        <extensions>
          <gpxtpx:TrackPointExtension xmlns:gpxtpx="http://www.garmin.com/xmlschemas/TrackPointExtension/v1">
            <gpxtpx:hr>128</gpxtpx:hr>
          </gpxtpx:TrackPointExtension>
        </extensions>
      </trkpt>
      <trkpt lat="50.63603" lon="5.40673">
        <ele>166.19999694824</ele>
        <extensions>
          <gpxtpx:TrackPointExtension xmlns:gpxtpx="http://www.garmin.com/xmlschemas/TrackPointExtension/v1">
            <gpxtpx:hr>129</gpxtpx:hr>
          </gpxtpx:TrackPointExtension>
        </extensions>
      </trkpt>
      <trkpt lat="50.63608" lon="5.40733">
        <ele>166.80000305176</ele>
        <extensions>
          <gpxtpx:TrackPointExtension xmlns:gpxtpx="http://www.garmin.com/xmlschemas/TrackPointExtension/v1">
            <gpxtpx:hr>131</gpxtpx:hr>
          </gpxtpx:TrackPointExtension>
        </extensions>
      </trkpt>
      <trkpt lat="50.63613" lon="5.40802">
        <ele>168</ele>
        <extensions>
          <gpxtpx:TrackPointExtension xmlns:gpxtpx="http://www.garmin.com/xmlschemas/TrackPointExtension/v1">
            <gpxtpx:hr>132</gpxtpx:hr>
          </gpxtpx:TrackPointExtension>
        </extensions>
      </trkpt>
      <trkpt lat="50.63614" lon="5.40812">
        <ele>168</ele>
        <extensions>
          <gpxtpx:TrackPointExtension xmlns:gpxtpx="http://www.garmin.com/xmlschemas/TrackPointExtension/v1">
            <gpxtpx:hr>132</gpxtpx:hr>
          </gpxtpx:TrackPointExtension>
        </extensions>
      </trkpt>
      <trkpt lat="50.63618" lon="5.40861">
        <ele>169</ele>
        <extensions>
          <gpxtpx:TrackPointExtension xmlns:gpxtpx="http://www.garmin.com/xmlschemas/TrackPointExtension/v1">
            <gpxtpx:hr>132</gpxtpx:hr>
          </gpxtpx:TrackPointExtension>
        </extensions>
      </trkpt>
      <trkpt lat="50.63623" lon="5.40921">
        <ele>169.80000305176</ele>
        <extensions>
          <gpxtpx:TrackPointExtension xmlns:gpxtpx="http://www.garmin.com/xmlschemas/TrackPointExtension/v1">
            <gpxtpx:hr>133</gpxtpx:hr>
          </gpxtpx:TrackPointExtension>
        </extensions>
      </trkpt>
      <trkpt lat="50.63628" lon="5.40983">
        <ele>170</ele>
        <extensions>
          <gpxtpx:TrackPointExtension xmlns:gpxtpx="http://www.garmin.com/xmlschemas/TrackPointExtension/v1">
            <gpxtpx:hr>135</gpxtpx:hr>
          </gpxtpx:TrackPointExtension>
        </extensions>
      </trkpt>
      <trkpt lat="50.6363" lon="5.41014">
        <ele>170.39999389648</ele>
        <extensions>
          <gpxtpx:TrackPointExtension xmlns:gpxtpx="http://www.garmin.com/xmlschemas/TrackPointExtension/v1">
            <gpxtpx:hr>135</gpxtpx:hr>
          </gpxtpx:TrackPointExtension>
        </extensions>
      </trkpt>
      <trkpt lat="50.63637" lon="5.41107">
        <ele>171</ele>
        <extensions>
          <gpxtpx:TrackPointExtension xmlns:gpxtpx="http://www.garmin.com/xmlschemas/TrackPointExtension/v1">
            <gpxtpx:hr>136</gpxtpx:hr>
          </gpxtpx:TrackPointExtension>
        </extensions>
      </trkpt>
      <trkpt lat="50.63638" lon="5.41118">
        <ele>171</ele>
        <extensions>
          <gpxtpx:TrackPointExtension xmlns:gpxtpx="http://www.garmin.com/xmlschemas/TrackPointExtension/v1">
            <gpxtpx:hr>136</gpxtpx:hr>
          </gpxtpx:TrackPointExtension>
        </extensions>
      </trkpt>
      <trkpt lat="50.6364" lon="5.41139">
        <ele>171.19999694824</ele>
        <extensions>
          <gpxtpx:TrackPointExtension xmlns:gpxtpx="http://www.garmin.com/xmlschemas/TrackPointExtension/v1">
            <gpxtpx:hr>136</gpxtpx:hr>
          </gpxtpx:TrackPointExtension>
        </extensions>
      </trkpt>
      <trkpt lat="50.63646" lon="5.41214">
        <ele>171.19999694824</ele>
        <extensions>
          <gpxtpx:TrackPointExtension xmlns:gpxtpx="http://www.garmin.com/xmlschemas/TrackPointExtension/v1">
            <gpxtpx:hr>137</gpxtpx:hr>
          </gpxtpx:TrackPointExtension>
        </extensions>
      </trkpt>
      <trkpt lat="50.63652" lon="5.41304">
        <ele>171.8</ele>
      </trkpt>
      <trkpt lat="50.63659" lon="5.41388">
        <ele>172.2</ele>
      </trkpt>
      <trkpt lat="50.63667" lon="5.41498">
        <ele>172.9</ele>
      </trkpt>
      <trkpt lat="50.63671" lon="5.41554">
        <ele>173.6</ele>
      </trkpt>
      <trkpt lat="50.63678" lon="5.41635">
        <ele>175</ele>
      </trkpt>
      <trkpt lat="50.63682" lon="5.41689">
        <ele>176.3</ele>
      </trkpt>
      <trkpt lat="50.63684" lon="5.41733">
        <ele>176.8</ele>
      </trkpt>
      <trkpt lat="50.63688" lon="5.41783">
        <ele>178.2</ele>
      </trkpt>
      <trkpt lat="50.63692" lon="5.41836">
        <ele>180</ele>
      </trkpt>
      <trkpt lat="50.63698" lon="5.41905">
        <ele>180.3</ele>
      </trkpt>
      <trkpt lat="50.63703" lon="5.4197">
        <ele>181.4</ele>
      </trkpt>
      <trkpt lat="50.63706" lon="5.42015">
        <ele>182.5</ele>
      </trkpt>
      <trkpt lat="50.63713" lon="5.42106">
        <ele>183.7</ele>
      </trkpt>
      <trkpt lat="50.63722" lon="5.42206">
        <ele>184</ele>
      </trkpt>
      <trkpt lat="50.6373" lon="5.42301">
        <ele>184.3</ele>
      </trkpt>
      <trkpt lat="50.63735" lon="5.4236">
        <ele>184.4</ele>
      </trkpt>
      <trkpt lat="50.63737" lon="5.42373">
        <ele>185</ele>
        <extensions>
          <gpxtpx:TrackPointExtension xmlns:gpxtpx="http://www.garmin.com/xmlschemas/TrackPointExtension/v1">
            <gpxtpx:hr>133</gpxtpx:hr>
          </gpxtpx:TrackPointExtension>
        </extensions>
      </trkpt>
      <trkpt lat="50.63736" lon="5.42381">
        <ele>185</ele>
        <extensions>
          <gpxtpx:TrackPointExtension xmlns:gpxtpx="http://www.garmin.com/xmlschemas/TrackPointExtension/v1">
            <gpxtpx:hr>132</gpxtpx:hr>
          </gpxtpx:TrackPointExtension>
        </extensions>
      </trkpt>
      <trkpt lat="50.63732" lon="5.42397">
        <ele>185</ele>
        <extensions>
          <gpxtpx:TrackPointExtension xmlns:gpxtpx="http://www.garmin.com/xmlschemas/TrackPointExtension/v1">
            <gpxtpx:hr>129</gpxtpx:hr>
          </gpxtpx:TrackPointExtension>
        </extensions>
      </trkpt>
      <trkpt lat="50.6373" lon="5.42404">
        <ele>185</ele>
        <extensions>
          <gpxtpx:TrackPointExtension xmlns:gpxtpx="http://www.garmin.com/xmlschemas/TrackPointExtension/v1">
            <gpxtpx:hr>128</gpxtpx:hr>
          </gpxtpx:TrackPointExtension>
        </extensions>
      </trkpt>
      <trkpt lat="50.63723" lon="5.42418">
        <ele>185</ele>
        <extensions>
          <gpxtpx:TrackPointExtension xmlns:gpxtpx="http://www.garmin.com/xmlschemas/TrackPointExtension/v1">
            <gpxtpx:hr>125</gpxtpx:hr>
          </gpxtpx:TrackPointExtension>
        </extensions>
      </trkpt>
      <trkpt lat="50.63712" lon="5.42436">
        <ele>183.8</ele>
      </trkpt>
      <trkpt lat="50.63702" lon="5.42453">
        <ele>183.6</ele>
      </trkpt>
      <trkpt lat="50.63689" lon="5.4247">
        <ele>184.39999389648</ele>
        <extensions>
          <gpxtpx:TrackPointExtension xmlns:gpxtpx="http://www.garmin.com/xmlschemas/TrackPointExtension/v1">
            <gpxtpx:hr>121</gpxtpx:hr>
          </gpxtpx:TrackPointExtension>
        </extensions>
      </trkpt>
      <trkpt lat="50.63682" lon="5.4247">
        <ele>183.4</ele>
      </trkpt>
      <trkpt lat="50.63675" lon="5.42474">
        <ele>183.4</ele>
      </trkpt>
      <trkpt lat="50.63668" lon="5.42484">
        <ele>183.3</ele>
      </trkpt>
      <trkpt lat="50.63665" lon="5.42497">
        <ele>182.9</ele>
      </trkpt>
      <trkpt lat="50.63668" lon="5.42515">
        <ele>183.8</ele>
      </trkpt>
      <trkpt lat="50.63676" lon="5.42526">
        <ele>184.2</ele>
      </trkpt>
      <trkpt lat="50.6369" lon="5.42526">
        <ele>183.19999694824</ele>
        <extensions>
          <gpxtpx:TrackPointExtension xmlns:gpxtpx="http://www.garmin.com/xmlschemas/TrackPointExtension/v1">
            <gpxtpx:hr>117</gpxtpx:hr>
          </gpxtpx:TrackPointExtension>
        </extensions>
      </trkpt>
      <trkpt lat="50.637" lon="5.42512">
        <ele>184.4</ele>
      </trkpt>
      <trkpt lat="50.63711" lon="5.42519">
        <ele>184.6</ele>
      </trkpt>
      <trkpt lat="50.63727" lon="5.42527">
        <ele>184.8</ele>
      </trkpt>
      <trkpt lat="50.63746" lon="5.42538">
        <ele>185</ele>
      </trkpt>
      <trkpt lat="50.63762" lon="5.42547">
        <ele>184</ele>
        <extensions>
          <gpxtpx:TrackPointExtension xmlns:gpxtpx="http://www.garmin.com/xmlschemas/TrackPointExtension/v1">
            <gpxtpx:hr>126</gpxtpx:hr>
          </gpxtpx:TrackPointExtension>
        </extensions>
      </trkpt>
      <trkpt lat="50.63768" lon="5.42549">
        <ele>184</ele>
        <extensions>
          <gpxtpx:TrackPointExtension xmlns:gpxtpx="http://www.garmin.com/xmlschemas/TrackPointExtension/v1">
            <gpxtpx:hr>126</gpxtpx:hr>
          </gpxtpx:TrackPointExtension>
        </extensions>
      </trkpt>
      <trkpt lat="50.63781" lon="5.42555">
        <ele>184.60000610352</ele>
        <extensions>
          <gpxtpx:TrackPointExtension xmlns:gpxtpx="http://www.garmin.com/xmlschemas/TrackPointExtension/v1">
            <gpxtpx:hr>127</gpxtpx:hr>
          </gpxtpx:TrackPointExtension>
        </extensions>
      </trkpt>
      <trkpt lat="50.63815" lon="5.42573">
        <ele>184.80000305176</ele>
        <extensions>
          <gpxtpx:TrackPointExtension xmlns:gpxtpx="http://www.garmin.com/xmlschemas/TrackPointExtension/v1">
            <gpxtpx:hr>129</gpxtpx:hr>
          </gpxtpx:TrackPointExtension>
        </extensions>
      </trkpt>
      <trkpt lat="50.63872" lon="5.42602">
        <ele>184.39999389648</ele>
        <extensions>
          <gpxtpx:TrackPointExtension xmlns:gpxtpx="http://www.garmin.com/xmlschemas/TrackPointExtension/v1">
            <gpxtpx:hr>130</gpxtpx:hr>
          </gpxtpx:TrackPointExtension>
        </extensions>
      </trkpt>
      <trkpt lat="50.63886" lon="5.4261">
        <ele>184</ele>
        <extensions>
          <gpxtpx:TrackPointExtension xmlns:gpxtpx="http://www.garmin.com/xmlschemas/TrackPointExtension/v1">
            <gpxtpx:hr>130</gpxtpx:hr>
          </gpxtpx:TrackPointExtension>
        </extensions>
      </trkpt>
      <trkpt lat="50.63907" lon="5.42622">
        <ele>183.60000610352</ele>
        <extensions>
          <gpxtpx:TrackPointExtension xmlns:gpxtpx="http://www.garmin.com/xmlschemas/TrackPointExtension/v1">
            <gpxtpx:hr>130</gpxtpx:hr>
          </gpxtpx:TrackPointExtension>
        </extensions>
      </trkpt>
      <trkpt lat="50.63921" lon="5.42632">
        <ele>183.19999694824</ele>
        <extensions>
          <gpxtpx:TrackPointExtension xmlns:gpxtpx="http://www.garmin.com/xmlschemas/TrackPointExtension/v1">
            <gpxtpx:hr>129</gpxtpx:hr>
          </gpxtpx:TrackPointExtension>
        </extensions>
      </trkpt>
      <trkpt lat="50.63933" lon="5.42646">
        <ele>183</ele>
        <extensions>
          <gpxtpx:TrackPointExtension xmlns:gpxtpx="http://www.garmin.com/xmlschemas/TrackPointExtension/v1">
            <gpxtpx:hr>127</gpxtpx:hr>
          </gpxtpx:TrackPointExtension>
        </extensions>
      </trkpt>
      <trkpt lat="50.63943" lon="5.42662">
        <ele>182.80000305176</ele>
        <extensions>
          <gpxtpx:TrackPointExtension xmlns:gpxtpx="http://www.garmin.com/xmlschemas/TrackPointExtension/v1">
            <gpxtpx:hr>125</gpxtpx:hr>
          </gpxtpx:TrackPointExtension>
        </extensions>
      </trkpt>
      <trkpt lat="50.63961" lon="5.42692">
        <ele>184.4</ele>
      </trkpt>
      <trkpt lat="50.6399" lon="5.42743">
        <ele>184.2</ele>
      </trkpt>
      <trkpt lat="50.64005" lon="5.42769">
        <ele>182.39999389648</ele>
        <extensions>
          <gpxtpx:TrackPointExtension xmlns:gpxtpx="http://www.garmin.com/xmlschemas/TrackPointExtension/v1">
            <gpxtpx:hr>118</gpxtpx:hr>
          </gpxtpx:TrackPointExtension>
        </extensions>
      </trkpt>
      <trkpt lat="50.64011" lon="5.42775">
        <ele>182.39999389648</ele>
        <extensions>
          <gpxtpx:TrackPointExtension xmlns:gpxtpx="http://www.garmin.com/xmlschemas/TrackPointExtension/v1">
            <gpxtpx:hr>117</gpxtpx:hr>
          </gpxtpx:TrackPointExtension>
        </extensions>
      </trkpt>
      <trkpt lat="50.64024" lon="5.4278">
        <ele>183.5</ele>
      </trkpt>
      <trkpt lat="50.64029" lon="5.42802">
        <ele>182.19999694824</ele>
        <extensions>
          <gpxtpx:TrackPointExtension xmlns:gpxtpx="http://www.garmin.com/xmlschemas/TrackPointExtension/v1">
            <gpxtpx:hr>115</gpxtpx:hr>
          </gpxtpx:TrackPointExtension>
        </extensions>
      </trkpt>
      <trkpt lat="50.6404" lon="5.42825">
        <ele>182.19999694824</ele>
        <extensions>
          <gpxtpx:TrackPointExtension xmlns:gpxtpx="http://www.garmin.com/xmlschemas/TrackPointExtension/v1">
            <gpxtpx:hr>116</gpxtpx:hr>
          </gpxtpx:TrackPointExtension>
        </extensions>
      </trkpt>
      <trkpt lat="50.64048" lon="5.4284">
        <ele>182</ele>
        <extensions>
          <gpxtpx:TrackPointExtension xmlns:gpxtpx="http://www.garmin.com/xmlschemas/TrackPointExtension/v1">
            <gpxtpx:hr>117</gpxtpx:hr>
          </gpxtpx:TrackPointExtension>
        </extensions>
      </trkpt>
      <trkpt lat="50.64072" lon="5.42883">
        <ele>181.80000305176</ele>
        <extensions>
          <gpxtpx:TrackPointExtension xmlns:gpxtpx="http://www.garmin.com/xmlschemas/TrackPointExtension/v1">
            <gpxtpx:hr>120</gpxtpx:hr>
          </gpxtpx:TrackPointExtension>
        </extensions>
      </trkpt>
      <trkpt lat="50.64077" lon="5.42892">
        <ele>181.60000610352</ele>
        <extensions>
          <gpxtpx:TrackPointExtension xmlns:gpxtpx="http://www.garmin.com/xmlschemas/TrackPointExtension/v1">
            <gpxtpx:hr>120</gpxtpx:hr>
          </gpxtpx:TrackPointExtension>
        </extensions>
      </trkpt>
      <trkpt lat="50.64087" lon="5.42912">
        <ele>181.39999389648</ele>
        <extensions>
          <gpxtpx:TrackPointExtension xmlns:gpxtpx="http://www.garmin.com/xmlschemas/TrackPointExtension/v1">
            <gpxtpx:hr>122</gpxtpx:hr>
          </gpxtpx:TrackPointExtension>
        </extensions>
      </trkpt>
      <trkpt lat="50.64101" lon="5.42946">
        <ele>181</ele>
        <extensions>
          <gpxtpx:TrackPointExtension xmlns:gpxtpx="http://www.garmin.com/xmlschemas/TrackPointExtension/v1">
            <gpxtpx:hr>124</gpxtpx:hr>
          </gpxtpx:TrackPointExtension>
        </extensions>
      </trkpt>
      <trkpt lat="50.64126" lon="5.43003">
        <ele>180.39999389648</ele>
        <extensions>
          <gpxtpx:TrackPointExtension xmlns:gpxtpx="http://www.garmin.com/xmlschemas/TrackPointExtension/v1">
            <gpxtpx:hr>127</gpxtpx:hr>
          </gpxtpx:TrackPointExtension>
        </extensions>
      </trkpt>
      <trkpt lat="50.64132" lon="5.43015">
        <ele>180.19999694824</ele>
        <extensions>
          <gpxtpx:TrackPointExtension xmlns:gpxtpx="http://www.garmin.com/xmlschemas/TrackPointExtension/v1">
            <gpxtpx:hr>128</gpxtpx:hr>
          </gpxtpx:TrackPointExtension>
        </extensions>
      </trkpt>
      <trkpt lat="50.64143" lon="5.43042">
        <ele>179.80000305176</ele>
        <extensions>
          <gpxtpx:TrackPointExtension xmlns:gpxtpx="http://www.garmin.com/xmlschemas/TrackPointExtension/v1">
            <gpxtpx:hr>130</gpxtpx:hr>
          </gpxtpx:TrackPointExtension>
        </extensions>
      </trkpt>
      <trkpt lat="50.64156" lon="5.4307">
        <ele>179.80000305176</ele>
        <extensions>
          <gpxtpx:TrackPointExtension xmlns:gpxtpx="http://www.garmin.com/xmlschemas/TrackPointExtension/v1">
            <gpxtpx:hr>133</gpxtpx:hr>
          </gpxtpx:TrackPointExtension>
        </extensions>
      </trkpt>
      <trkpt lat="50.64175" lon="5.43115">
        <ele>179.19999694824</ele>
        <extensions>
          <gpxtpx:TrackPointExtension xmlns:gpxtpx="http://www.garmin.com/xmlschemas/TrackPointExtension/v1">
            <gpxtpx:hr>137</gpxtpx:hr>
          </gpxtpx:TrackPointExtension>
        </extensions>
      </trkpt>
      <trkpt lat="50.64182" lon="5.43131">
        <ele>179</ele>
        <extensions>
          <gpxtpx:TrackPointExtension xmlns:gpxtpx="http://www.garmin.com/xmlschemas/TrackPointExtension/v1">
            <gpxtpx:hr>138</gpxtpx:hr>
          </gpxtpx:TrackPointExtension>
        </extensions>
      </trkpt>
      <trkpt lat="50.64202" lon="5.43176">
        <ele>178.60000610352</ele>
        <extensions>
          <gpxtpx:TrackPointExtension xmlns:gpxtpx="http://www.garmin.com/xmlschemas/TrackPointExtension/v1">
            <gpxtpx:hr>141</gpxtpx:hr>
          </gpxtpx:TrackPointExtension>
        </extensions>
      </trkpt>
      <trkpt lat="50.64215" lon="5.43206">
        <ele>177.80000305176</ele>
        <extensions>
          <gpxtpx:TrackPointExtension xmlns:gpxtpx="http://www.garmin.com/xmlschemas/TrackPointExtension/v1">
            <gpxtpx:hr>142</gpxtpx:hr>
          </gpxtpx:TrackPointExtension>
        </extensions>
      </trkpt>
      <trkpt lat="50.64227" lon="5.43234">
        <ele>177.19999694824</ele>
        <extensions>
          <gpxtpx:TrackPointExtension xmlns:gpxtpx="http://www.garmin.com/xmlschemas/TrackPointExtension/v1">
            <gpxtpx:hr>144</gpxtpx:hr>
          </gpxtpx:TrackPointExtension>
        </extensions>
      </trkpt>
      <trkpt lat="50.64239" lon="5.43263">
        <ele>178</ele>
      </trkpt>
      <trkpt lat="50.64257" lon="5.43288">
        <ele>178</ele>
      </trkpt>
      <trkpt lat="50.6429" lon="5.43333">
        <ele>177.7</ele>
      </trkpt>
      <trkpt lat="50.6434" lon="5.43402">
        <ele>178</ele>
        <extensions>
          <gpxtpx:TrackPointExtension xmlns:gpxtpx="http://www.garmin.com/xmlschemas/TrackPointExtension/v1">
            <gpxtpx:hr>142</gpxtpx:hr>
          </gpxtpx:TrackPointExtension>
        </extensions>
      </trkpt>
      <trkpt lat="50.64353" lon="5.43419">
        <ele>178</ele>
        <extensions>
          <gpxtpx:TrackPointExtension xmlns:gpxtpx="http://www.garmin.com/xmlschemas/TrackPointExtension/v1">
            <gpxtpx:hr>141</gpxtpx:hr>
          </gpxtpx:TrackPointExtension>
        </extensions>
      </trkpt>
      <trkpt lat="50.6438" lon="5.43452">
        <ele>177.80000305176</ele>
        <extensions>
          <gpxtpx:TrackPointExtension xmlns:gpxtpx="http://www.garmin.com/xmlschemas/TrackPointExtension/v1">
            <gpxtpx:hr>138</gpxtpx:hr>
          </gpxtpx:TrackPointExtension>
        </extensions>
      </trkpt>
      <trkpt lat="50.64423" lon="5.43513">
        <ele>177.9</ele>
      </trkpt>
      <trkpt lat="50.64435" lon="5.43529">
        <ele>177.9</ele>
      </trkpt>
      <trkpt lat="50.64469" lon="5.4355">
        <ele>177.7</ele>
      </trkpt>
      <trkpt lat="50.64493" lon="5.43566">
        <ele>177.8</ele>
      </trkpt>
      <trkpt lat="50.64524" lon="5.43594">
        <ele>178</ele>
      </trkpt>
      <trkpt lat="50.64557" lon="5.43626">
        <ele>178</ele>
      </trkpt>
      <trkpt lat="50.64574" lon="5.43641">
        <ele>176.39999389648</ele>
        <extensions>
          <gpxtpx:TrackPointExtension xmlns:gpxtpx="http://www.garmin.com/xmlschemas/TrackPointExtension/v1">
            <gpxtpx:hr>137</gpxtpx:hr>
          </gpxtpx:TrackPointExtension>
        </extensions>
      </trkpt>
      <trkpt lat="50.64612" lon="5.43675">
        <ele>176.60000610352</ele>
        <extensions>
          <gpxtpx:TrackPointExtension xmlns:gpxtpx="http://www.garmin.com/xmlschemas/TrackPointExtension/v1">
            <gpxtpx:hr>140</gpxtpx:hr>
          </gpxtpx:TrackPointExtension>
        </extensions>
      </trkpt>
      <trkpt lat="50.64627" lon="5.43688">
        <ele>176.60000610352</ele>
        <extensions>
          <gpxtpx:TrackPointExtension xmlns:gpxtpx="http://www.garmin.com/xmlschemas/TrackPointExtension/v1">
            <gpxtpx:hr>140</gpxtpx:hr>
          </gpxtpx:TrackPointExtension>
        </extensions>
      </trkpt>
      <trkpt lat="50.64682" lon="5.43735">
        <ele>177</ele>
        <extensions>
          <gpxtpx:TrackPointExtension xmlns:gpxtpx="http://www.garmin.com/xmlschemas/TrackPointExtension/v1">
            <gpxtpx:hr>140</gpxtpx:hr>
          </gpxtpx:TrackPointExtension>
        </extensions>
      </trkpt>
      <trkpt lat="50.64705" lon="5.43756">
        <ele>177</ele>
        <extensions>
          <gpxtpx:TrackPointExtension xmlns:gpxtpx="http://www.garmin.com/xmlschemas/TrackPointExtension/v1">
            <gpxtpx:hr>140</gpxtpx:hr>
          </gpxtpx:TrackPointExtension>
        </extensions>
      </trkpt>
      <trkpt lat="50.64754" lon="5.43801">
        <ele>174.1</ele>
      </trkpt>
      <trkpt lat="50.64776" lon="5.43825">
        <ele>173.9</ele>
      </trkpt>
      <trkpt lat="50.64802" lon="5.43855">
        <ele>174.80000305176</ele>
        <extensions>
          <gpxtpx:TrackPointExtension xmlns:gpxtpx="http://www.garmin.com/xmlschemas/TrackPointExtension/v1">
            <gpxtpx:hr>133</gpxtpx:hr>
          </gpxtpx:TrackPointExtension>
        </extensions>
      </trkpt>
      <trkpt lat="50.64823" lon="5.43877">
        <ele>173.60000610352</ele>
        <extensions>
          <gpxtpx:TrackPointExtension xmlns:gpxtpx="http://www.garmin.com/xmlschemas/TrackPointExtension/v1">
            <gpxtpx:hr>130</gpxtpx:hr>
          </gpxtpx:TrackPointExtension>
        </extensions>
      </trkpt>
      <trkpt lat="50.64842" lon="5.43899">
        <ele>173.19999694824</ele>
        <extensions>
          <gpxtpx:TrackPointExtension xmlns:gpxtpx="http://www.garmin.com/xmlschemas/TrackPointExtension/v1">
            <gpxtpx:hr>127</gpxtpx:hr>
          </gpxtpx:TrackPointExtension>
        </extensions>
      </trkpt>
      <trkpt lat="50.6486" lon="5.43919">
        <ele>172.6</ele>
      </trkpt>
      <trkpt lat="50.64894" lon="5.43958">
        <ele>172.2</ele>
      </trkpt>
      <trkpt lat="50.64902" lon="5.43968">
        <ele>172.1</ele>
      </trkpt>
      <trkpt lat="50.64926" lon="5.44021">
        <ele>172.39999389648</ele>
        <extensions>
          <gpxtpx:TrackPointExtension xmlns:gpxtpx="http://www.garmin.com/xmlschemas/TrackPointExtension/v1">
            <gpxtpx:hr>129</gpxtpx:hr>
          </gpxtpx:TrackPointExtension>
        </extensions>
      </trkpt>
      <trkpt lat="50.64951" lon="5.44069">
        <ele>171.39999389648</ele>
        <extensions>
          <gpxtpx:TrackPointExtension xmlns:gpxtpx="http://www.garmin.com/xmlschemas/TrackPointExtension/v1">
            <gpxtpx:hr>131</gpxtpx:hr>
          </gpxtpx:TrackPointExtension>
        </extensions>
      </trkpt>
      <trkpt lat="50.64974" lon="5.44115">
        <ele>171</ele>
        <extensions>
          <gpxtpx:TrackPointExtension xmlns:gpxtpx="http://www.garmin.com/xmlschemas/TrackPointExtension/v1">
            <gpxtpx:hr>131</gpxtpx:hr>
          </gpxtpx:TrackPointExtension>
        </extensions>
      </trkpt>
      <trkpt lat="50.65008" lon="5.44181">
        <ele>170.60000610352</ele>
        <extensions>
          <gpxtpx:TrackPointExtension xmlns:gpxtpx="http://www.garmin.com/xmlschemas/TrackPointExtension/v1">
            <gpxtpx:hr>131</gpxtpx:hr>
          </gpxtpx:TrackPointExtension>
        </extensions>
      </trkpt>
      <trkpt lat="50.65014" lon="5.44191">
        <ele>170.60000610352</ele>
        <extensions>
          <gpxtpx:TrackPointExtension xmlns:gpxtpx="http://www.garmin.com/xmlschemas/TrackPointExtension/v1">
            <gpxtpx:hr>130</gpxtpx:hr>
          </gpxtpx:TrackPointExtension>
        </extensions>
      </trkpt>
      <trkpt lat="50.65046" lon="5.44245">
        <ele>170.39999389648</ele>
        <extensions>
          <gpxtpx:TrackPointExtension xmlns:gpxtpx="http://www.garmin.com/xmlschemas/TrackPointExtension/v1">
            <gpxtpx:hr>128</gpxtpx:hr>
          </gpxtpx:TrackPointExtension>
        </extensions>
      </trkpt>
      <trkpt lat="50.65053" lon="5.44256">
        <ele>170.19999694824</ele>
        <extensions>
          <gpxtpx:TrackPointExtension xmlns:gpxtpx="http://www.garmin.com/xmlschemas/TrackPointExtension/v1">
            <gpxtpx:hr>127</gpxtpx:hr>
          </gpxtpx:TrackPointExtension>
        </extensions>
      </trkpt>
      <trkpt lat="50.65073" lon="5.4429">
        <ele>169</ele>
        <extensions>
          <gpxtpx:TrackPointExtension xmlns:gpxtpx="http://www.garmin.com/xmlschemas/TrackPointExtension/v1">
            <gpxtpx:hr>124</gpxtpx:hr>
          </gpxtpx:TrackPointExtension>
        </extensions>
      </trkpt>
      <trkpt lat="50.65094" lon="5.44324">
        <ele>168.19999694824</ele>
        <extensions>
          <gpxtpx:TrackPointExtension xmlns:gpxtpx="http://www.garmin.com/xmlschemas/TrackPointExtension/v1">
            <gpxtpx:hr>121</gpxtpx:hr>
          </gpxtpx:TrackPointExtension>
        </extensions>
      </trkpt>
      <trkpt lat="50.65101" lon="5.44336">
        <ele>168</ele>
        <extensions>
          <gpxtpx:TrackPointExtension xmlns:gpxtpx="http://www.garmin.com/xmlschemas/TrackPointExtension/v1">
            <gpxtpx:hr>120</gpxtpx:hr>
          </gpxtpx:TrackPointExtension>
        </extensions>
      </trkpt>
      <trkpt lat="50.65114" lon="5.44358">
        <ele>167.39999389648</ele>
        <extensions>
          <gpxtpx:TrackPointExtension xmlns:gpxtpx="http://www.garmin.com/xmlschemas/TrackPointExtension/v1">
            <gpxtpx:hr>118</gpxtpx:hr>
          </gpxtpx:TrackPointExtension>
        </extensions>
      </trkpt>
      <trkpt lat="50.65121" lon="5.44369">
        <ele>167</ele>
        <extensions>
          <gpxtpx:TrackPointExtension xmlns:gpxtpx="http://www.garmin.com/xmlschemas/TrackPointExtension/v1">
            <gpxtpx:hr>117</gpxtpx:hr>
          </gpxtpx:TrackPointExtension>
        </extensions>
      </trkpt>
      <trkpt lat="50.6514" lon="5.444">
        <ele>166</ele>
        <extensions>
          <gpxtpx:TrackPointExtension xmlns:gpxtpx="http://www.garmin.com/xmlschemas/TrackPointExtension/v1">
            <gpxtpx:hr>116</gpxtpx:hr>
          </gpxtpx:TrackPointExtension>
        </extensions>
      </trkpt>
      <trkpt lat="50.65153" lon="5.44418">
        <ele>165.80000305176</ele>
        <extensions>
          <gpxtpx:TrackPointExtension xmlns:gpxtpx="http://www.garmin.com/xmlschemas/TrackPointExtension/v1">
            <gpxtpx:hr>115</gpxtpx:hr>
          </gpxtpx:TrackPointExtension>
        </extensions>
      </trkpt>
      <trkpt lat="50.65174" lon="5.44448">
        <ele>168</ele>
      </trkpt>
      <trkpt lat="50.65195" lon="5.44473">
        <ele>165.80000305176</ele>
        <extensions>
          <gpxtpx:TrackPointExtension xmlns:gpxtpx="http://www.garmin.com/xmlschemas/TrackPointExtension/v1">
            <gpxtpx:hr>114</gpxtpx:hr>
          </gpxtpx:TrackPointExtension>
        </extensions>
      </trkpt>
      <trkpt lat="50.65228" lon="5.44509">
        <ele>166.60000610352</ele>
        <extensions>
          <gpxtpx:TrackPointExtension xmlns:gpxtpx="http://www.garmin.com/xmlschemas/TrackPointExtension/v1">
            <gpxtpx:hr>111</gpxtpx:hr>
          </gpxtpx:TrackPointExtension>
        </extensions>
      </trkpt>
      <trkpt lat="50.65238" lon="5.44521">
        <ele>167</ele>
        <extensions>
          <gpxtpx:TrackPointExtension xmlns:gpxtpx="http://www.garmin.com/xmlschemas/TrackPointExtension/v1">
            <gpxtpx:hr>109</gpxtpx:hr>
          </gpxtpx:TrackPointExtension>
        </extensions>
      </trkpt>
      <trkpt lat="50.65257" lon="5.44545">
        <ele>167.2</ele>
      </trkpt>
      <trkpt lat="50.65274" lon="5.44568">
        <ele>167.4</ele>
      </trkpt>
      <trkpt lat="50.65293" lon="5.44593">
        <ele>167.39999389648</ele>
        <extensions>
          <gpxtpx:TrackPointExtension xmlns:gpxtpx="http://www.garmin.com/xmlschemas/TrackPointExtension/v1">
            <gpxtpx:hr>111</gpxtpx:hr>
          </gpxtpx:TrackPointExtension>
        </extensions>
      </trkpt>
      <trkpt lat="50.65301" lon="5.44603">
        <ele>168</ele>
      </trkpt>
      <trkpt lat="50.65299" lon="5.44616">
        <ele>167.19999694824</ele>
        <extensions>
          <gpxtpx:TrackPointExtension xmlns:gpxtpx="http://www.garmin.com/xmlschemas/TrackPointExtension/v1">
            <gpxtpx:hr>110</gpxtpx:hr>
          </gpxtpx:TrackPointExtension>
        </extensions>
      </trkpt>
      <trkpt lat="50.65292" lon="5.44641">
        <ele>168.3</ele>
      </trkpt>
      <trkpt lat="50.65279" lon="5.44684">
        <ele>168.8</ele>
      </trkpt>
      <trkpt lat="50.65265" lon="5.4472">
        <ele>169.1</ele>
      </trkpt>
      <trkpt lat="50.65246" lon="5.44773">
        <ele>170.8</ele>
      </trkpt>
      <trkpt lat="50.65239" lon="5.44799">
        <ele>167.39999389648</ele>
        <extensions>
          <gpxtpx:TrackPointExtension xmlns:gpxtpx="http://www.garmin.com/xmlschemas/TrackPointExtension/v1">
            <gpxtpx:hr>125</gpxtpx:hr>
          </gpxtpx:TrackPointExtension>
        </extensions>
      </trkpt>
      <trkpt lat="50.65227" lon="5.44839">
        <ele>167.60000610352</ele>
        <extensions>
          <gpxtpx:TrackPointExtension xmlns:gpxtpx="http://www.garmin.com/xmlschemas/TrackPointExtension/v1">
            <gpxtpx:hr>128</gpxtpx:hr>
          </gpxtpx:TrackPointExtension>
        </extensions>
      </trkpt>
      <trkpt lat="50.6521" lon="5.44891">
        <ele>167.80000305176</ele>
        <extensions>
          <gpxtpx:TrackPointExtension xmlns:gpxtpx="http://www.garmin.com/xmlschemas/TrackPointExtension/v1">
            <gpxtpx:hr>131</gpxtpx:hr>
          </gpxtpx:TrackPointExtension>
        </extensions>
      </trkpt>
      <trkpt lat="50.65189" lon="5.44956">
        <ele>168</ele>
        <extensions>
          <gpxtpx:TrackPointExtension xmlns:gpxtpx="http://www.garmin.com/xmlschemas/TrackPointExtension/v1">
            <gpxtpx:hr>134</gpxtpx:hr>
          </gpxtpx:TrackPointExtension>
        </extensions>
      </trkpt>
      <trkpt lat="50.65175" lon="5.44998">
        <ele>167.60000610352</ele>
        <extensions>
          <gpxtpx:TrackPointExtension xmlns:gpxtpx="http://www.garmin.com/xmlschemas/TrackPointExtension/v1">
            <gpxtpx:hr>134</gpxtpx:hr>
          </gpxtpx:TrackPointExtension>
        </extensions>
      </trkpt>
      <trkpt lat="50.65165" lon="5.4503">
        <ele>166</ele>
        <extensions>
          <gpxtpx:TrackPointExtension xmlns:gpxtpx="http://www.garmin.com/xmlschemas/TrackPointExtension/v1">
            <gpxtpx:hr>133</gpxtpx:hr>
          </gpxtpx:TrackPointExtension>
        </extensions>
      </trkpt>
      <trkpt lat="50.65152" lon="5.45073">
        <ele>165.39999389648</ele>
        <extensions>
          <gpxtpx:TrackPointExtension xmlns:gpxtpx="http://www.garmin.com/xmlschemas/TrackPointExtension/v1">
            <gpxtpx:hr>130</gpxtpx:hr>
          </gpxtpx:TrackPointExtension>
        </extensions>
      </trkpt>
      <trkpt lat="50.65138" lon="5.45122">
        <ele>166.9</ele>
      </trkpt>
      <trkpt lat="50.65125" lon="5.45158">
        <ele>165.19999694824</ele>
        <extensions>
          <gpxtpx:TrackPointExtension xmlns:gpxtpx="http://www.garmin.com/xmlschemas/TrackPointExtension/v1">
            <gpxtpx:hr>124</gpxtpx:hr>
          </gpxtpx:TrackPointExtension>
        </extensions>
      </trkpt>
      <trkpt lat="50.65122" lon="5.45168">
        <ele>165.19999694824</ele>
        <extensions>
          <gpxtpx:TrackPointExtension xmlns:gpxtpx="http://www.garmin.com/xmlschemas/TrackPointExtension/v1">
            <gpxtpx:hr>123</gpxtpx:hr>
          </gpxtpx:TrackPointExtension>
        </extensions>
      </trkpt>
      <trkpt lat="50.65102" lon="5.45225">
        <ele>165</ele>
        <extensions>
          <gpxtpx:TrackPointExtension xmlns:gpxtpx="http://www.garmin.com/xmlschemas/TrackPointExtension/v1">
            <gpxtpx:hr>121</gpxtpx:hr>
          </gpxtpx:TrackPointExtension>
        </extensions>
      </trkpt>
      <trkpt lat="50.65098" lon="5.45234">
        <ele>165</ele>
        <extensions>
          <gpxtpx:TrackPointExtension xmlns:gpxtpx="http://www.garmin.com/xmlschemas/TrackPointExtension/v1">
            <gpxtpx:hr>121</gpxtpx:hr>
          </gpxtpx:TrackPointExtension>
        </extensions>
      </trkpt>
      <trkpt lat="50.65096" lon="5.45244">
        <ele>164.80000305176</ele>
        <extensions>
          <gpxtpx:TrackPointExtension xmlns:gpxtpx="http://www.garmin.com/xmlschemas/TrackPointExtension/v1">
            <gpxtpx:hr>121</gpxtpx:hr>
          </gpxtpx:TrackPointExtension>
        </extensions>
      </trkpt>
      <trkpt lat="50.65093" lon="5.45262">
        <ele>166</ele>
      </trkpt>
      <trkpt lat="50.65094" lon="5.45278">
        <ele>164.80000305176</ele>
        <extensions>
          <gpxtpx:TrackPointExtension xmlns:gpxtpx="http://www.garmin.com/xmlschemas/TrackPointExtension/v1">
            <gpxtpx:hr>120</gpxtpx:hr>
          </gpxtpx:TrackPointExtension>
        </extensions>
      </trkpt>
      <trkpt lat="50.65101" lon="5.45307">
        <ele>166.3</ele>
      </trkpt>
      <trkpt lat="50.65105" lon="5.45325">
        <ele>164.80000305176</ele>
        <extensions>
          <gpxtpx:TrackPointExtension xmlns:gpxtpx="http://www.garmin.com/xmlschemas/TrackPointExtension/v1">
            <gpxtpx:hr>119</gpxtpx:hr>
          </gpxtpx:TrackPointExtension>
        </extensions>
      </trkpt>
      <trkpt lat="50.65108" lon="5.4534">
        <ele>166.9</ele>
      </trkpt>
      <trkpt lat="50.6511" lon="5.45375">
        <ele>165</ele>
        <extensions>
          <gpxtpx:TrackPointExtension xmlns:gpxtpx="http://www.garmin.com/xmlschemas/TrackPointExtension/v1">
            <gpxtpx:hr>121</gpxtpx:hr>
          </gpxtpx:TrackPointExtension>
        </extensions>
      </trkpt>
      <trkpt lat="50.65114" lon="5.4546">
        <ele>165</ele>
        <extensions>
          <gpxtpx:TrackPointExtension xmlns:gpxtpx="http://www.garmin.com/xmlschemas/TrackPointExtension/v1">
            <gpxtpx:hr>121</gpxtpx:hr>
          </gpxtpx:TrackPointExtension>
        </extensions>
      </trkpt>
      <trkpt lat="50.65115" lon="5.45495">
        <ele>165.19999694824</ele>
        <extensions>
          <gpxtpx:TrackPointExtension xmlns:gpxtpx="http://www.garmin.com/xmlschemas/TrackPointExtension/v1">
            <gpxtpx:hr>121</gpxtpx:hr>
          </gpxtpx:TrackPointExtension>
        </extensions>
      </trkpt>
      <trkpt lat="50.65119" lon="5.45589">
        <ele>165.60000610352</ele>
        <extensions>
          <gpxtpx:TrackPointExtension xmlns:gpxtpx="http://www.garmin.com/xmlschemas/TrackPointExtension/v1">
            <gpxtpx:hr>120</gpxtpx:hr>
          </gpxtpx:TrackPointExtension>
        </extensions>
      </trkpt>
      <trkpt lat="50.6512" lon="5.45622">
        <ele>165.80000305176</ele>
        <extensions>
          <gpxtpx:TrackPointExtension xmlns:gpxtpx="http://www.garmin.com/xmlschemas/TrackPointExtension/v1">
            <gpxtpx:hr>120</gpxtpx:hr>
          </gpxtpx:TrackPointExtension>
        </extensions>
      </trkpt>
      <trkpt lat="50.65125" lon="5.45711">
        <ele>165.80000305176</ele>
        <extensions>
          <gpxtpx:TrackPointExtension xmlns:gpxtpx="http://www.garmin.com/xmlschemas/TrackPointExtension/v1">
            <gpxtpx:hr>122</gpxtpx:hr>
          </gpxtpx:TrackPointExtension>
        </extensions>
      </trkpt>
      <trkpt lat="50.65125" lon="5.45732">
        <ele>166</ele>
        <extensions>
          <gpxtpx:TrackPointExtension xmlns:gpxtpx="http://www.garmin.com/xmlschemas/TrackPointExtension/v1">
            <gpxtpx:hr>122</gpxtpx:hr>
          </gpxtpx:TrackPointExtension>
        </extensions>
      </trkpt>
      <trkpt lat="50.65127" lon="5.45767">
        <ele>171</ele>
      </trkpt>
      <trkpt lat="50.65128" lon="5.45785">
        <ele>170.7</ele>
      </trkpt>
      <trkpt lat="50.6512" lon="5.45795">
        <ele>171</ele>
      </trkpt>
      <trkpt lat="50.65117" lon="5.45805">
        <ele>170.8</ele>
      </trkpt>
      <trkpt lat="50.65119" lon="5.45821">
        <ele>171</ele>
      </trkpt>
      <trkpt lat="50.65123" lon="5.45833">
        <ele>166.80000305176</ele>
        <extensions>
          <gpxtpx:TrackPointExtension xmlns:gpxtpx="http://www.garmin.com/xmlschemas/TrackPointExtension/v1">
            <gpxtpx:hr>123</gpxtpx:hr>
          </gpxtpx:TrackPointExtension>
        </extensions>
      </trkpt>
      <trkpt lat="50.65131" lon="5.45832">
        <ele>170.9</ele>
      </trkpt>
      <trkpt lat="50.65137" lon="5.45882">
        <ele>170.7</ele>
      </trkpt>
      <trkpt lat="50.65142" lon="5.45919">
        <ele>168.19999694824</ele>
        <extensions>
          <gpxtpx:TrackPointExtension xmlns:gpxtpx="http://www.garmin.com/xmlschemas/TrackPointExtension/v1">
            <gpxtpx:hr>127</gpxtpx:hr>
          </gpxtpx:TrackPointExtension>
        </extensions>
      </trkpt>
      <trkpt lat="50.65143" lon="5.45931">
        <ele>168.39999389648</ele>
        <extensions>
          <gpxtpx:TrackPointExtension xmlns:gpxtpx="http://www.garmin.com/xmlschemas/TrackPointExtension/v1">
            <gpxtpx:hr>127</gpxtpx:hr>
          </gpxtpx:TrackPointExtension>
        </extensions>
      </trkpt>
      <trkpt lat="50.65151" lon="5.45987">
        <ele>169.19999694824</ele>
        <extensions>
          <gpxtpx:TrackPointExtension xmlns:gpxtpx="http://www.garmin.com/xmlschemas/TrackPointExtension/v1">
            <gpxtpx:hr>130</gpxtpx:hr>
          </gpxtpx:TrackPointExtension>
        </extensions>
      </trkpt>
      <trkpt lat="50.65154" lon="5.4601">
        <ele>169.19999694824</ele>
        <extensions>
          <gpxtpx:TrackPointExtension xmlns:gpxtpx="http://www.garmin.com/xmlschemas/TrackPointExtension/v1">
            <gpxtpx:hr>130</gpxtpx:hr>
          </gpxtpx:TrackPointExtension>
        </extensions>
      </trkpt>
      <trkpt lat="50.65159" lon="5.46044">
        <ele>169.39999389648</ele>
        <extensions>
          <gpxtpx:TrackPointExtension xmlns:gpxtpx="http://www.garmin.com/xmlschemas/TrackPointExtension/v1">
            <gpxtpx:hr>130</gpxtpx:hr>
          </gpxtpx:TrackPointExtension>
        </extensions>
      </trkpt>
      <trkpt lat="50.6517" lon="5.46132">
        <ele>169</ele>
        <extensions>
          <gpxtpx:TrackPointExtension xmlns:gpxtpx="http://www.garmin.com/xmlschemas/TrackPointExtension/v1">
            <gpxtpx:hr>131</gpxtpx:hr>
          </gpxtpx:TrackPointExtension>
        </extensions>
      </trkpt>
      <trkpt lat="50.65171" lon="5.46143">
        <ele>169</ele>
        <extensions>
          <gpxtpx:TrackPointExtension xmlns:gpxtpx="http://www.garmin.com/xmlschemas/TrackPointExtension/v1">
            <gpxtpx:hr>131</gpxtpx:hr>
          </gpxtpx:TrackPointExtension>
        </extensions>
      </trkpt>
      <trkpt lat="50.65182" lon="5.46234">
        <ele>168.80000305176</ele>
        <extensions>
          <gpxtpx:TrackPointExtension xmlns:gpxtpx="http://www.garmin.com/xmlschemas/TrackPointExtension/v1">
            <gpxtpx:hr>132</gpxtpx:hr>
          </gpxtpx:TrackPointExtension>
        </extensions>
      </trkpt>
      <trkpt lat="50.65189" lon="5.46322">
        <ele>169.80000305176</ele>
        <extensions>
          <gpxtpx:TrackPointExtension xmlns:gpxtpx="http://www.garmin.com/xmlschemas/TrackPointExtension/v1">
            <gpxtpx:hr>135</gpxtpx:hr>
          </gpxtpx:TrackPointExtension>
        </extensions>
      </trkpt>
      <trkpt lat="50.65192" lon="5.46363">
        <ele>170.60000610352</ele>
        <extensions>
          <gpxtpx:TrackPointExtension xmlns:gpxtpx="http://www.garmin.com/xmlschemas/TrackPointExtension/v1">
            <gpxtpx:hr>137</gpxtpx:hr>
          </gpxtpx:TrackPointExtension>
        </extensions>
      </trkpt>
      <trkpt lat="50.65195" lon="5.46402">
        <ele>171.80000305176</ele>
        <extensions>
          <gpxtpx:TrackPointExtension xmlns:gpxtpx="http://www.garmin.com/xmlschemas/TrackPointExtension/v1">
            <gpxtpx:hr>139</gpxtpx:hr>
          </gpxtpx:TrackPointExtension>
        </extensions>
      </trkpt>
      <trkpt lat="50.65197" lon="5.46432">
        <ele>173</ele>
        <extensions>
          <gpxtpx:TrackPointExtension xmlns:gpxtpx="http://www.garmin.com/xmlschemas/TrackPointExtension/v1">
            <gpxtpx:hr>141</gpxtpx:hr>
          </gpxtpx:TrackPointExtension>
        </extensions>
      </trkpt>
      <trkpt lat="50.65199" lon="5.46462">
        <ele>174.39999389648</ele>
        <extensions>
          <gpxtpx:TrackPointExtension xmlns:gpxtpx="http://www.garmin.com/xmlschemas/TrackPointExtension/v1">
            <gpxtpx:hr>143</gpxtpx:hr>
          </gpxtpx:TrackPointExtension>
        </extensions>
      </trkpt>
      <trkpt lat="50.65202" lon="5.46492">
        <ele>175.39999389648</ele>
        <extensions>
          <gpxtpx:TrackPointExtension xmlns:gpxtpx="http://www.garmin.com/xmlschemas/TrackPointExtension/v1">
            <gpxtpx:hr>145</gpxtpx:hr>
          </gpxtpx:TrackPointExtension>
        </extensions>
      </trkpt>
      <trkpt lat="50.65204" lon="5.46523">
        <ele>176.60000610352</ele>
        <extensions>
          <gpxtpx:TrackPointExtension xmlns:gpxtpx="http://www.garmin.com/xmlschemas/TrackPointExtension/v1">
            <gpxtpx:hr>146</gpxtpx:hr>
          </gpxtpx:TrackPointExtension>
        </extensions>
      </trkpt>
      <trkpt lat="50.65207" lon="5.46555">
        <ele>177.80000305176</ele>
        <extensions>
          <gpxtpx:TrackPointExtension xmlns:gpxtpx="http://www.garmin.com/xmlschemas/TrackPointExtension/v1">
            <gpxtpx:hr>147</gpxtpx:hr>
          </gpxtpx:TrackPointExtension>
        </extensions>
      </trkpt>
      <trkpt lat="50.65209" lon="5.46604">
        <ele>176</ele>
      </trkpt>
      <trkpt lat="50.65209" lon="5.46643">
        <ele>178.60000610352</ele>
        <extensions>
          <gpxtpx:TrackPointExtension xmlns:gpxtpx="http://www.garmin.com/xmlschemas/TrackPointExtension/v1">
            <gpxtpx:hr>148</gpxtpx:hr>
          </gpxtpx:TrackPointExtension>
        </extensions>
      </trkpt>
      <trkpt lat="50.65205" lon="5.46687">
        <ele>178</ele>
      </trkpt>
      <trkpt lat="50.652" lon="5.4672">
        <ele>178.39999389648</ele>
        <extensions>
          <gpxtpx:TrackPointExtension xmlns:gpxtpx="http://www.garmin.com/xmlschemas/TrackPointExtension/v1">
            <gpxtpx:hr>148</gpxtpx:hr>
          </gpxtpx:TrackPointExtension>
        </extensions>
      </trkpt>
      <trkpt lat="50.65183" lon="5.4678">
        <ele>178.39999389648</ele>
        <extensions>
          <gpxtpx:TrackPointExtension xmlns:gpxtpx="http://www.garmin.com/xmlschemas/TrackPointExtension/v1">
            <gpxtpx:hr>148</gpxtpx:hr>
          </gpxtpx:TrackPointExtension>
        </extensions>
      </trkpt>
      <trkpt lat="50.65157" lon="5.46852">
        <ele>178.80000305176</ele>
        <extensions>
          <gpxtpx:TrackPointExtension xmlns:gpxtpx="http://www.garmin.com/xmlschemas/TrackPointExtension/v1">
            <gpxtpx:hr>148</gpxtpx:hr>
          </gpxtpx:TrackPointExtension>
        </extensions>
      </trkpt>
      <trkpt lat="50.65154" lon="5.46861">
        <ele>179.19999694824</ele>
        <extensions>
          <gpxtpx:TrackPointExtension xmlns:gpxtpx="http://www.garmin.com/xmlschemas/TrackPointExtension/v1">
            <gpxtpx:hr>148</gpxtpx:hr>
          </gpxtpx:TrackPointExtension>
        </extensions>
      </trkpt>
      <trkpt lat="50.65139" lon="5.46908">
        <ele>180</ele>
        <extensions>
          <gpxtpx:TrackPointExtension xmlns:gpxtpx="http://www.garmin.com/xmlschemas/TrackPointExtension/v1">
            <gpxtpx:hr>149</gpxtpx:hr>
          </gpxtpx:TrackPointExtension>
        </extensions>
      </trkpt>
      <trkpt lat="50.65134" lon="5.46928">
        <ele>180.19999694824</ele>
        <extensions>
          <gpxtpx:TrackPointExtension xmlns:gpxtpx="http://www.garmin.com/xmlschemas/TrackPointExtension/v1">
            <gpxtpx:hr>148</gpxtpx:hr>
          </gpxtpx:TrackPointExtension>
        </extensions>
      </trkpt>
      <trkpt lat="50.65121" lon="5.46994">
        <ele>186.6</ele>
      </trkpt>
      <trkpt lat="50.65114" lon="5.47033">
        <ele>181.60000610352</ele>
        <extensions>
          <gpxtpx:TrackPointExtension xmlns:gpxtpx="http://www.garmin.com/xmlschemas/TrackPointExtension/v1">
            <gpxtpx:hr>150</gpxtpx:hr>
          </gpxtpx:TrackPointExtension>
        </extensions>
      </trkpt>
      <trkpt lat="50.65099" lon="5.47109">
        <ele>181.80000305176</ele>
        <extensions>
          <gpxtpx:TrackPointExtension xmlns:gpxtpx="http://www.garmin.com/xmlschemas/TrackPointExtension/v1">
            <gpxtpx:hr>150</gpxtpx:hr>
          </gpxtpx:TrackPointExtension>
        </extensions>
      </trkpt>
      <trkpt lat="50.65078" lon="5.47184">
        <ele>182</ele>
        <extensions>
          <gpxtpx:TrackPointExtension xmlns:gpxtpx="http://www.garmin.com/xmlschemas/TrackPointExtension/v1">
            <gpxtpx:hr>149</gpxtpx:hr>
          </gpxtpx:TrackPointExtension>
        </extensions>
      </trkpt>
      <trkpt lat="50.65055" lon="5.47252">
        <ele>184.2</ele>
      </trkpt>
      <trkpt lat="50.65041" lon="5.4729">
        <ele>184.7</ele>
      </trkpt>
      <trkpt lat="50.65029" lon="5.47289">
        <ele>185</ele>
      </trkpt>
      <trkpt lat="50.65021" lon="5.47297">
        <ele>185.3</ele>
      </trkpt>
      <trkpt lat="50.65017" lon="5.47316">
        <ele>184.60000610352</ele>
        <extensions>
          <gpxtpx:TrackPointExtension xmlns:gpxtpx="http://www.garmin.com/xmlschemas/TrackPointExtension/v1">
            <gpxtpx:hr>141</gpxtpx:hr>
          </gpxtpx:TrackPointExtension>
        </extensions>
      </trkpt>
      <trkpt lat="50.65022" lon="5.47338">
        <ele>186.1</ele>
      </trkpt>
      <trkpt lat="50.65017" lon="5.47351">
        <ele>186.1</ele>
      </trkpt>
      <trkpt lat="50.65013" lon="5.47364">
        <ele>185.8</ele>
      </trkpt>
      <trkpt lat="50.64994" lon="5.47415">
        <ele>184.39999389648</ele>
        <extensions>
          <gpxtpx:TrackPointExtension xmlns:gpxtpx="http://www.garmin.com/xmlschemas/TrackPointExtension/v1">
            <gpxtpx:hr>138</gpxtpx:hr>
          </gpxtpx:TrackPointExtension>
        </extensions>
      </trkpt>
      <trkpt lat="50.64983" lon="5.47447">
        <ele>182.39999389648</ele>
        <extensions>
          <gpxtpx:TrackPointExtension xmlns:gpxtpx="http://www.garmin.com/xmlschemas/TrackPointExtension/v1">
            <gpxtpx:hr>138</gpxtpx:hr>
          </gpxtpx:TrackPointExtension>
        </extensions>
      </trkpt>
      <trkpt lat="50.64962" lon="5.47499">
        <ele>181.60000610352</ele>
        <extensions>
          <gpxtpx:TrackPointExtension xmlns:gpxtpx="http://www.garmin.com/xmlschemas/TrackPointExtension/v1">
            <gpxtpx:hr>138</gpxtpx:hr>
          </gpxtpx:TrackPointExtension>
        </extensions>
      </trkpt>
      <trkpt lat="50.6493" lon="5.47573">
        <ele>181.60000610352</ele>
        <extensions>
          <gpxtpx:TrackPointExtension xmlns:gpxtpx="http://www.garmin.com/xmlschemas/TrackPointExtension/v1">
            <gpxtpx:hr>139</gpxtpx:hr>
          </gpxtpx:TrackPointExtension>
        </extensions>
      </trkpt>
      <trkpt lat="50.64922" lon="5.47595">
        <ele>181.60000610352</ele>
        <extensions>
          <gpxtpx:TrackPointExtension xmlns:gpxtpx="http://www.garmin.com/xmlschemas/TrackPointExtension/v1">
            <gpxtpx:hr>140</gpxtpx:hr>
          </gpxtpx:TrackPointExtension>
        </extensions>
      </trkpt>
      <trkpt lat="50.64898" lon="5.47663">
        <ele>181.60000610352</ele>
        <extensions>
          <gpxtpx:TrackPointExtension xmlns:gpxtpx="http://www.garmin.com/xmlschemas/TrackPointExtension/v1">
            <gpxtpx:hr>141</gpxtpx:hr>
          </gpxtpx:TrackPointExtension>
        </extensions>
      </trkpt>
      <trkpt lat="50.64884" lon="5.47712">
        <ele>187.8</ele>
      </trkpt>
      <trkpt lat="50.64864" lon="5.47792">
        <ele>181.60000610352</ele>
        <extensions>
          <gpxtpx:TrackPointExtension xmlns:gpxtpx="http://www.garmin.com/xmlschemas/TrackPointExtension/v1">
            <gpxtpx:hr>145</gpxtpx:hr>
          </gpxtpx:TrackPointExtension>
        </extensions>
      </trkpt>
      <trkpt lat="50.64853" lon="5.47855">
        <ele>187.2</ele>
      </trkpt>
      <trkpt lat="50.64849" lon="5.47895">
        <ele>186.8</ele>
      </trkpt>
      <trkpt lat="50.64843" lon="5.47975">
        <ele>185.60000610352</ele>
        <extensions>
          <gpxtpx:TrackPointExtension xmlns:gpxtpx="http://www.garmin.com/xmlschemas/TrackPointExtension/v1">
            <gpxtpx:hr>149</gpxtpx:hr>
          </gpxtpx:TrackPointExtension>
        </extensions>
      </trkpt>
      <trkpt lat="50.6484" lon="5.4801">
        <ele>185.80000305176</ele>
        <extensions>
          <gpxtpx:TrackPointExtension xmlns:gpxtpx="http://www.garmin.com/xmlschemas/TrackPointExtension/v1">
            <gpxtpx:hr>148</gpxtpx:hr>
          </gpxtpx:TrackPointExtension>
        </extensions>
      </trkpt>
      <trkpt lat="50.64838" lon="5.48032">
        <ele>186</ele>
        <extensions>
          <gpxtpx:TrackPointExtension xmlns:gpxtpx="http://www.garmin.com/xmlschemas/TrackPointExtension/v1">
            <gpxtpx:hr>148</gpxtpx:hr>
          </gpxtpx:TrackPointExtension>
        </extensions>
      </trkpt>
      <trkpt lat="50.64833" lon="5.48069">
        <ele>186</ele>
        <extensions>
          <gpxtpx:TrackPointExtension xmlns:gpxtpx="http://www.garmin.com/xmlschemas/TrackPointExtension/v1">
            <gpxtpx:hr>147</gpxtpx:hr>
          </gpxtpx:TrackPointExtension>
        </extensions>
      </trkpt>
      <trkpt lat="50.64831" lon="5.4808">
        <ele>186.19999694824</ele>
        <extensions>
          <gpxtpx:TrackPointExtension xmlns:gpxtpx="http://www.garmin.com/xmlschemas/TrackPointExtension/v1">
            <gpxtpx:hr>146</gpxtpx:hr>
          </gpxtpx:TrackPointExtension>
        </extensions>
      </trkpt>
      <trkpt lat="50.64829" lon="5.48095">
        <ele>187.19999694824</ele>
        <extensions>
          <gpxtpx:TrackPointExtension xmlns:gpxtpx="http://www.garmin.com/xmlschemas/TrackPointExtension/v1">
            <gpxtpx:hr>145</gpxtpx:hr>
          </gpxtpx:TrackPointExtension>
        </extensions>
      </trkpt>
      <trkpt lat="50.64823" lon="5.48124">
        <ele>187.80000305176</ele>
        <extensions>
          <gpxtpx:TrackPointExtension xmlns:gpxtpx="http://www.garmin.com/xmlschemas/TrackPointExtension/v1">
            <gpxtpx:hr>143</gpxtpx:hr>
          </gpxtpx:TrackPointExtension>
        </extensions>
      </trkpt>
      <trkpt lat="50.64821" lon="5.48129">
        <ele>187.80000305176</ele>
        <extensions>
          <gpxtpx:TrackPointExtension xmlns:gpxtpx="http://www.garmin.com/xmlschemas/TrackPointExtension/v1">
            <gpxtpx:hr>143</gpxtpx:hr>
          </gpxtpx:TrackPointExtension>
        </extensions>
      </trkpt>
      <trkpt lat="50.64808" lon="5.48135">
        <ele>189</ele>
      </trkpt>
      <trkpt lat="50.64799" lon="5.48128">
        <ele>187.80000305176</ele>
        <extensions>
          <gpxtpx:TrackPointExtension xmlns:gpxtpx="http://www.garmin.com/xmlschemas/TrackPointExtension/v1">
            <gpxtpx:hr>140</gpxtpx:hr>
          </gpxtpx:TrackPointExtension>
        </extensions>
      </trkpt>
      <trkpt lat="50.6479" lon="5.48117">
        <ele>187.80000305176</ele>
        <extensions>
          <gpxtpx:TrackPointExtension xmlns:gpxtpx="http://www.garmin.com/xmlschemas/TrackPointExtension/v1">
            <gpxtpx:hr>140</gpxtpx:hr>
          </gpxtpx:TrackPointExtension>
        </extensions>
      </trkpt>
      <trkpt lat="50.64749" lon="5.48073">
        <ele>187.80000305176</ele>
        <extensions>
          <gpxtpx:TrackPointExtension xmlns:gpxtpx="http://www.garmin.com/xmlschemas/TrackPointExtension/v1">
            <gpxtpx:hr>140</gpxtpx:hr>
          </gpxtpx:TrackPointExtension>
        </extensions>
      </trkpt>
      <trkpt lat="50.64704" lon="5.48024">
        <ele>187.39999389648</ele>
        <extensions>
          <gpxtpx:TrackPointExtension xmlns:gpxtpx="http://www.garmin.com/xmlschemas/TrackPointExtension/v1">
            <gpxtpx:hr>140</gpxtpx:hr>
          </gpxtpx:TrackPointExtension>
        </extensions>
      </trkpt>
      <trkpt lat="50.64697" lon="5.48017">
        <ele>187.19999694824</ele>
        <extensions>
          <gpxtpx:TrackPointExtension xmlns:gpxtpx="http://www.garmin.com/xmlschemas/TrackPointExtension/v1">
            <gpxtpx:hr>140</gpxtpx:hr>
          </gpxtpx:TrackPointExtension>
        </extensions>
      </trkpt>
      <trkpt lat="50.64652" lon="5.47968">
        <ele>186.39999389648</ele>
        <extensions>
          <gpxtpx:TrackPointExtension xmlns:gpxtpx="http://www.garmin.com/xmlschemas/TrackPointExtension/v1">
            <gpxtpx:hr>139</gpxtpx:hr>
          </gpxtpx:TrackPointExtension>
        </extensions>
      </trkpt>
      <trkpt lat="50.64645" lon="5.4796">
        <ele>186.19999694824</ele>
        <extensions>
          <gpxtpx:TrackPointExtension xmlns:gpxtpx="http://www.garmin.com/xmlschemas/TrackPointExtension/v1">
            <gpxtpx:hr>140</gpxtpx:hr>
          </gpxtpx:TrackPointExtension>
        </extensions>
      </trkpt>
      <trkpt lat="50.64603" lon="5.47914">
        <ele>184.2</ele>
      </trkpt>
      <trkpt lat="50.64584" lon="5.47894">
        <ele>184.1</ele>
      </trkpt>
      <trkpt lat="50.64569" lon="5.47867">
        <ele>183.4</ele>
      </trkpt>
      <trkpt lat="50.64558" lon="5.47833">
        <ele>182.3</ele>
      </trkpt>
      <trkpt lat="50.6455" lon="5.47784">
        <ele>181.7</ele>
      </trkpt>
      <trkpt lat="50.64542" lon="5.4774">
        <ele>179.5</ele>
      </trkpt>
      <trkpt lat="50.64531" lon="5.47687">
        <ele>178.4</ele>
      </trkpt>
      <trkpt lat="50.64526" lon="5.47649">
        <ele>176.6</ele>
      </trkpt>
      <trkpt lat="50.6452" lon="5.4761">
        <ele>172.80000305176</ele>
        <extensions>
          <gpxtpx:TrackPointExtension xmlns:gpxtpx="http://www.garmin.com/xmlschemas/TrackPointExtension/v1">
            <gpxtpx:hr>125</gpxtpx:hr>
          </gpxtpx:TrackPointExtension>
        </extensions>
      </trkpt>
      <trkpt lat="50.64515" lon="5.47577">
        <ele>171.19999694824</ele>
        <extensions>
          <gpxtpx:TrackPointExtension xmlns:gpxtpx="http://www.garmin.com/xmlschemas/TrackPointExtension/v1">
            <gpxtpx:hr>123</gpxtpx:hr>
          </gpxtpx:TrackPointExtension>
        </extensions>
      </trkpt>
      <trkpt lat="50.64513" lon="5.4756">
        <ele>170.60000610352</ele>
        <extensions>
          <gpxtpx:TrackPointExtension xmlns:gpxtpx="http://www.garmin.com/xmlschemas/TrackPointExtension/v1">
            <gpxtpx:hr>122</gpxtpx:hr>
          </gpxtpx:TrackPointExtension>
        </extensions>
      </trkpt>
      <trkpt lat="50.64512" lon="5.47543">
        <ele>169.80000305176</ele>
        <extensions>
          <gpxtpx:TrackPointExtension xmlns:gpxtpx="http://www.garmin.com/xmlschemas/TrackPointExtension/v1">
            <gpxtpx:hr>121</gpxtpx:hr>
          </gpxtpx:TrackPointExtension>
        </extensions>
      </trkpt>
      <trkpt lat="50.64513" lon="5.47511">
        <ele>169.19999694824</ele>
        <extensions>
          <gpxtpx:TrackPointExtension xmlns:gpxtpx="http://www.garmin.com/xmlschemas/TrackPointExtension/v1">
            <gpxtpx:hr>120</gpxtpx:hr>
          </gpxtpx:TrackPointExtension>
        </extensions>
      </trkpt>
      <trkpt lat="50.64515" lon="5.47496">
        <ele>168.80000305176</ele>
        <extensions>
          <gpxtpx:TrackPointExtension xmlns:gpxtpx="http://www.garmin.com/xmlschemas/TrackPointExtension/v1">
            <gpxtpx:hr>119</gpxtpx:hr>
          </gpxtpx:TrackPointExtension>
        </extensions>
      </trkpt>
      <trkpt lat="50.64517" lon="5.47466">
        <ele>168.39999389648</ele>
        <extensions>
          <gpxtpx:TrackPointExtension xmlns:gpxtpx="http://www.garmin.com/xmlschemas/TrackPointExtension/v1">
            <gpxtpx:hr>117</gpxtpx:hr>
          </gpxtpx:TrackPointExtension>
        </extensions>
      </trkpt>
      <trkpt lat="50.64515" lon="5.47436">
        <ele>167.80000305176</ele>
        <extensions>
          <gpxtpx:TrackPointExtension xmlns:gpxtpx="http://www.garmin.com/xmlschemas/TrackPointExtension/v1">
            <gpxtpx:hr>116</gpxtpx:hr>
          </gpxtpx:TrackPointExtension>
        </extensions>
      </trkpt>
      <trkpt lat="50.64504" lon="5.47389">
        <ele>166.80000305176</ele>
        <extensions>
          <gpxtpx:TrackPointExtension xmlns:gpxtpx="http://www.garmin.com/xmlschemas/TrackPointExtension/v1">
            <gpxtpx:hr>119</gpxtpx:hr>
          </gpxtpx:TrackPointExtension>
        </extensions>
      </trkpt>
      <trkpt lat="50.64488" lon="5.47335">
        <ele>168.6</ele>
      </trkpt>
      <trkpt lat="50.64479" lon="5.47311">
        <ele>168.9</ele>
      </trkpt>
      <trkpt lat="50.64463" lon="5.47282">
        <ele>169.3</ele>
      </trkpt>
      <trkpt lat="50.64445" lon="5.47258">
        <ele>162.60000610352</ele>
        <extensions>
          <gpxtpx:TrackPointExtension xmlns:gpxtpx="http://www.garmin.com/xmlschemas/TrackPointExtension/v1">
            <gpxtpx:hr>122</gpxtpx:hr>
          </gpxtpx:TrackPointExtension>
        </extensions>
      </trkpt>
      <trkpt lat="50.64424" lon="5.47246">
        <ele>162.19999694824</ele>
        <extensions>
          <gpxtpx:TrackPointExtension xmlns:gpxtpx="http://www.garmin.com/xmlschemas/TrackPointExtension/v1">
            <gpxtpx:hr>123</gpxtpx:hr>
          </gpxtpx:TrackPointExtension>
        </extensions>
      </trkpt>
      <trkpt lat="50.64405" lon="5.47242">
        <ele>171.8</ele>
      </trkpt>
      <trkpt lat="50.64383" lon="5.47243">
        <ele>172</ele>
      </trkpt>
      <trkpt lat="50.64368" lon="5.47244">
        <ele>171.5</ele>
      </trkpt>
      <trkpt lat="50.64345" lon="5.47249">
        <ele>169.8</ele>
      </trkpt>
      <trkpt lat="50.64328" lon="5.47252">
        <ele>166.5</ele>
      </trkpt>
      <trkpt lat="50.64307" lon="5.47257">
        <ele>163</ele>
      </trkpt>
      <trkpt lat="50.64283" lon="5.47259">
        <ele>161.2</ele>
      </trkpt>
      <trkpt lat="50.64266" lon="5.47258">
        <ele>160.4</ele>
      </trkpt>
      <trkpt lat="50.64239" lon="5.47251">
        <ele>158.1</ele>
      </trkpt>
      <trkpt lat="50.64219" lon="5.47242">
        <ele>159.7</ele>
      </trkpt>
      <trkpt lat="50.64197" lon="5.47232">
        <ele>158.9</ele>
      </trkpt>
      <trkpt lat="50.64167" lon="5.47214">
        <ele>158.6</ele>
      </trkpt>
      <trkpt lat="50.64141" lon="5.47195">
        <ele>155.9</ele>
      </trkpt>
      <trkpt lat="50.64115" lon="5.47167">
        <ele>149.19999694824</ele>
        <extensions>
          <gpxtpx:TrackPointExtension xmlns:gpxtpx="http://www.garmin.com/xmlschemas/TrackPointExtension/v1">
            <gpxtpx:hr>163</gpxtpx:hr>
          </gpxtpx:TrackPointExtension>
        </extensions>
      </trkpt>
      <trkpt lat="50.64103" lon="5.47155">
        <ele>147.60000610352</ele>
        <extensions>
          <gpxtpx:TrackPointExtension xmlns:gpxtpx="http://www.garmin.com/xmlschemas/TrackPointExtension/v1">
            <gpxtpx:hr>164</gpxtpx:hr>
          </gpxtpx:TrackPointExtension>
        </extensions>
      </trkpt>
      <trkpt lat="50.64082" lon="5.47133">
        <ele>146.60000610352</ele>
        <extensions>
          <gpxtpx:TrackPointExtension xmlns:gpxtpx="http://www.garmin.com/xmlschemas/TrackPointExtension/v1">
            <gpxtpx:hr>166</gpxtpx:hr>
          </gpxtpx:TrackPointExtension>
        </extensions>
      </trkpt>
      <trkpt lat="50.64072" lon="5.47123">
        <ele>146.39999389648</ele>
        <extensions>
          <gpxtpx:TrackPointExtension xmlns:gpxtpx="http://www.garmin.com/xmlschemas/TrackPointExtension/v1">
            <gpxtpx:hr>166</gpxtpx:hr>
          </gpxtpx:TrackPointExtension>
        </extensions>
      </trkpt>
      <trkpt lat="50.64051" lon="5.471">
        <ele>146</ele>
        <extensions>
          <gpxtpx:TrackPointExtension xmlns:gpxtpx="http://www.garmin.com/xmlschemas/TrackPointExtension/v1">
            <gpxtpx:hr>167</gpxtpx:hr>
          </gpxtpx:TrackPointExtension>
        </extensions>
      </trkpt>
      <trkpt lat="50.64041" lon="5.47092">
        <ele>146</ele>
        <extensions>
          <gpxtpx:TrackPointExtension xmlns:gpxtpx="http://www.garmin.com/xmlschemas/TrackPointExtension/v1">
            <gpxtpx:hr>168</gpxtpx:hr>
          </gpxtpx:TrackPointExtension>
        </extensions>
      </trkpt>
      <trkpt lat="50.64033" lon="5.47084">
        <ele>158.2</ele>
      </trkpt>
      <trkpt lat="50.64025" lon="5.47129">
        <ele>157.4</ele>
      </trkpt>
      <trkpt lat="50.64022" lon="5.47155">
        <ele>156.7</ele>
      </trkpt>
      <trkpt lat="50.64014" lon="5.47189">
        <ele>155</ele>
        <extensions>
          <gpxtpx:TrackPointExtension xmlns:gpxtpx="http://www.garmin.com/xmlschemas/TrackPointExtension/v1">
            <gpxtpx:hr>164</gpxtpx:hr>
          </gpxtpx:TrackPointExtension>
        </extensions>
      </trkpt>
      <trkpt lat="50.64006" lon="5.47227">
        <ele>151</ele>
      </trkpt>
      <trkpt lat="50.63998" lon="5.47251">
        <ele>153.80000305176</ele>
        <extensions>
          <gpxtpx:TrackPointExtension xmlns:gpxtpx="http://www.garmin.com/xmlschemas/TrackPointExtension/v1">
            <gpxtpx:hr>161</gpxtpx:hr>
          </gpxtpx:TrackPointExtension>
        </extensions>
      </trkpt>
      <trkpt lat="50.63994" lon="5.47265">
        <ele>153.39999389648</ele>
        <extensions>
          <gpxtpx:TrackPointExtension xmlns:gpxtpx="http://www.garmin.com/xmlschemas/TrackPointExtension/v1">
            <gpxtpx:hr>161</gpxtpx:hr>
          </gpxtpx:TrackPointExtension>
        </extensions>
      </trkpt>
      <trkpt lat="50.63985" lon="5.47292">
        <ele>152</ele>
        <extensions>
          <gpxtpx:TrackPointExtension xmlns:gpxtpx="http://www.garmin.com/xmlschemas/TrackPointExtension/v1">
            <gpxtpx:hr>159</gpxtpx:hr>
          </gpxtpx:TrackPointExtension>
        </extensions>
      </trkpt>
      <trkpt lat="50.63974" lon="5.47319">
        <ele>150.80000305176</ele>
        <extensions>
          <gpxtpx:TrackPointExtension xmlns:gpxtpx="http://www.garmin.com/xmlschemas/TrackPointExtension/v1">
            <gpxtpx:hr>158</gpxtpx:hr>
          </gpxtpx:TrackPointExtension>
        </extensions>
      </trkpt>
      <trkpt lat="50.63967" lon="5.47332">
        <ele>150</ele>
        <extensions>
          <gpxtpx:TrackPointExtension xmlns:gpxtpx="http://www.garmin.com/xmlschemas/TrackPointExtension/v1">
            <gpxtpx:hr>157</gpxtpx:hr>
          </gpxtpx:TrackPointExtension>
        </extensions>
      </trkpt>
      <trkpt lat="50.6396" lon="5.47344">
        <ele>148.80000305176</ele>
        <extensions>
          <gpxtpx:TrackPointExtension xmlns:gpxtpx="http://www.garmin.com/xmlschemas/TrackPointExtension/v1">
            <gpxtpx:hr>156</gpxtpx:hr>
          </gpxtpx:TrackPointExtension>
        </extensions>
      </trkpt>
      <trkpt lat="50.63952" lon="5.47355">
        <ele>147.60000610352</ele>
        <extensions>
          <gpxtpx:TrackPointExtension xmlns:gpxtpx="http://www.garmin.com/xmlschemas/TrackPointExtension/v1">
            <gpxtpx:hr>156</gpxtpx:hr>
          </gpxtpx:TrackPointExtension>
        </extensions>
      </trkpt>
      <trkpt lat="50.63943" lon="5.47365">
        <ele>146.60000610352</ele>
        <extensions>
          <gpxtpx:TrackPointExtension xmlns:gpxtpx="http://www.garmin.com/xmlschemas/TrackPointExtension/v1">
            <gpxtpx:hr>155</gpxtpx:hr>
          </gpxtpx:TrackPointExtension>
        </extensions>
      </trkpt>
      <trkpt lat="50.63933" lon="5.47373">
        <ele>145.80000305176</ele>
        <extensions>
          <gpxtpx:TrackPointExtension xmlns:gpxtpx="http://www.garmin.com/xmlschemas/TrackPointExtension/v1">
            <gpxtpx:hr>154</gpxtpx:hr>
          </gpxtpx:TrackPointExtension>
        </extensions>
      </trkpt>
      <trkpt lat="50.63923" lon="5.47381">
        <ele>145</ele>
        <extensions>
          <gpxtpx:TrackPointExtension xmlns:gpxtpx="http://www.garmin.com/xmlschemas/TrackPointExtension/v1">
            <gpxtpx:hr>154</gpxtpx:hr>
          </gpxtpx:TrackPointExtension>
        </extensions>
      </trkpt>
      <trkpt lat="50.63913" lon="5.47388">
        <ele>144.19999694824</ele>
        <extensions>
          <gpxtpx:TrackPointExtension xmlns:gpxtpx="http://www.garmin.com/xmlschemas/TrackPointExtension/v1">
            <gpxtpx:hr>153</gpxtpx:hr>
          </gpxtpx:TrackPointExtension>
        </extensions>
      </trkpt>
      <trkpt lat="50.63902" lon="5.47396">
        <ele>143.19999694824</ele>
        <extensions>
          <gpxtpx:TrackPointExtension xmlns:gpxtpx="http://www.garmin.com/xmlschemas/TrackPointExtension/v1">
            <gpxtpx:hr>152</gpxtpx:hr>
          </gpxtpx:TrackPointExtension>
        </extensions>
      </trkpt>
      <trkpt lat="50.63892" lon="5.47404">
        <ele>142.60000610352</ele>
        <extensions>
          <gpxtpx:TrackPointExtension xmlns:gpxtpx="http://www.garmin.com/xmlschemas/TrackPointExtension/v1">
            <gpxtpx:hr>152</gpxtpx:hr>
          </gpxtpx:TrackPointExtension>
        </extensions>
      </trkpt>
      <trkpt lat="50.63871" lon="5.4742">
        <ele>141.39999389648</ele>
        <extensions>
          <gpxtpx:TrackPointExtension xmlns:gpxtpx="http://www.garmin.com/xmlschemas/TrackPointExtension/v1">
            <gpxtpx:hr>151</gpxtpx:hr>
          </gpxtpx:TrackPointExtension>
        </extensions>
      </trkpt>
      <trkpt lat="50.63849" lon="5.47434">
        <ele>140</ele>
        <extensions>
          <gpxtpx:TrackPointExtension xmlns:gpxtpx="http://www.garmin.com/xmlschemas/TrackPointExtension/v1">
            <gpxtpx:hr>150</gpxtpx:hr>
          </gpxtpx:TrackPointExtension>
        </extensions>
      </trkpt>
      <trkpt lat="50.63828" lon="5.47447">
        <ele>138.60000610352</ele>
        <extensions>
          <gpxtpx:TrackPointExtension xmlns:gpxtpx="http://www.garmin.com/xmlschemas/TrackPointExtension/v1">
            <gpxtpx:hr>149</gpxtpx:hr>
          </gpxtpx:TrackPointExtension>
        </extensions>
      </trkpt>
      <trkpt lat="50.63806" lon="5.47458">
        <ele>136.80000305176</ele>
        <extensions>
          <gpxtpx:TrackPointExtension xmlns:gpxtpx="http://www.garmin.com/xmlschemas/TrackPointExtension/v1">
            <gpxtpx:hr>148</gpxtpx:hr>
          </gpxtpx:TrackPointExtension>
        </extensions>
      </trkpt>
      <trkpt lat="50.63794" lon="5.47463">
        <ele>134.80000305176</ele>
        <extensions>
          <gpxtpx:TrackPointExtension xmlns:gpxtpx="http://www.garmin.com/xmlschemas/TrackPointExtension/v1">
            <gpxtpx:hr>147</gpxtpx:hr>
          </gpxtpx:TrackPointExtension>
        </extensions>
      </trkpt>
      <trkpt lat="50.63783" lon="5.47467">
        <ele>132.60000610352</ele>
        <extensions>
          <gpxtpx:TrackPointExtension xmlns:gpxtpx="http://www.garmin.com/xmlschemas/TrackPointExtension/v1">
            <gpxtpx:hr>147</gpxtpx:hr>
          </gpxtpx:TrackPointExtension>
        </extensions>
      </trkpt>
      <trkpt lat="50.63772" lon="5.47472">
        <ele>132</ele>
        <extensions>
          <gpxtpx:TrackPointExtension xmlns:gpxtpx="http://www.garmin.com/xmlschemas/TrackPointExtension/v1">
            <gpxtpx:hr>146</gpxtpx:hr>
          </gpxtpx:TrackPointExtension>
        </extensions>
      </trkpt>
      <trkpt lat="50.63749" lon="5.47479">
        <ele>131.19999694824</ele>
        <extensions>
          <gpxtpx:TrackPointExtension xmlns:gpxtpx="http://www.garmin.com/xmlschemas/TrackPointExtension/v1">
            <gpxtpx:hr>145</gpxtpx:hr>
          </gpxtpx:TrackPointExtension>
        </extensions>
      </trkpt>
      <trkpt lat="50.63701" lon="5.47494">
        <ele>129.60000610352</ele>
        <extensions>
          <gpxtpx:TrackPointExtension xmlns:gpxtpx="http://www.garmin.com/xmlschemas/TrackPointExtension/v1">
            <gpxtpx:hr>142</gpxtpx:hr>
          </gpxtpx:TrackPointExtension>
        </extensions>
      </trkpt>
      <trkpt lat="50.63689" lon="5.47498">
        <ele>128.60000610352</ele>
        <extensions>
          <gpxtpx:TrackPointExtension xmlns:gpxtpx="http://www.garmin.com/xmlschemas/TrackPointExtension/v1">
            <gpxtpx:hr>141</gpxtpx:hr>
          </gpxtpx:TrackPointExtension>
        </extensions>
      </trkpt>
      <trkpt lat="50.63676" lon="5.47502">
        <ele>127.80000305176</ele>
        <extensions>
          <gpxtpx:TrackPointExtension xmlns:gpxtpx="http://www.garmin.com/xmlschemas/TrackPointExtension/v1">
            <gpxtpx:hr>141</gpxtpx:hr>
          </gpxtpx:TrackPointExtension>
        </extensions>
      </trkpt>
      <trkpt lat="50.63652" lon="5.47508">
        <ele>126</ele>
        <extensions>
          <gpxtpx:TrackPointExtension xmlns:gpxtpx="http://www.garmin.com/xmlschemas/TrackPointExtension/v1">
            <gpxtpx:hr>139</gpxtpx:hr>
          </gpxtpx:TrackPointExtension>
        </extensions>
      </trkpt>
      <trkpt lat="50.63631" lon="5.47514">
        <ele>129.9</ele>
      </trkpt>
      <trkpt lat="50.63613" lon="5.4752">
        <ele>129</ele>
      </trkpt>
      <trkpt lat="50.63589" lon="5.47526">
        <ele>128.1</ele>
      </trkpt>
      <trkpt lat="50.63563" lon="5.47534">
        <ele>124</ele>
      </trkpt>
      <trkpt lat="50.63539" lon="5.47538">
        <ele>123.3</ele>
      </trkpt>
      <trkpt lat="50.63525" lon="5.47543">
        <ele>123.1</ele>
      </trkpt>
      <trkpt lat="50.63486" lon="5.47552">
        <ele>119.7</ele>
      </trkpt>
      <trkpt lat="50.63464" lon="5.47556">
        <ele>113.19999694824</ele>
        <extensions>
          <gpxtpx:TrackPointExtension xmlns:gpxtpx="http://www.garmin.com/xmlschemas/TrackPointExtension/v1">
            <gpxtpx:hr>129</gpxtpx:hr>
          </gpxtpx:TrackPointExtension>
        </extensions>
      </trkpt>
      <trkpt lat="50.6344" lon="5.47564">
        <ele>111</ele>
        <extensions>
          <gpxtpx:TrackPointExtension xmlns:gpxtpx="http://www.garmin.com/xmlschemas/TrackPointExtension/v1">
            <gpxtpx:hr>127</gpxtpx:hr>
          </gpxtpx:TrackPointExtension>
        </extensions>
      </trkpt>
      <trkpt lat="50.63429" lon="5.47568">
        <ele>108.80000305176</ele>
        <extensions>
          <gpxtpx:TrackPointExtension xmlns:gpxtpx="http://www.garmin.com/xmlschemas/TrackPointExtension/v1">
            <gpxtpx:hr>127</gpxtpx:hr>
          </gpxtpx:TrackPointExtension>
        </extensions>
      </trkpt>
      <trkpt lat="50.63405" lon="5.47577">
        <ele>107.19999694824</ele>
        <extensions>
          <gpxtpx:TrackPointExtension xmlns:gpxtpx="http://www.garmin.com/xmlschemas/TrackPointExtension/v1">
            <gpxtpx:hr>126</gpxtpx:hr>
          </gpxtpx:TrackPointExtension>
        </extensions>
      </trkpt>
      <trkpt lat="50.63383" lon="5.47587">
        <ele>105.59999847412</ele>
        <extensions>
          <gpxtpx:TrackPointExtension xmlns:gpxtpx="http://www.garmin.com/xmlschemas/TrackPointExtension/v1">
            <gpxtpx:hr>125</gpxtpx:hr>
          </gpxtpx:TrackPointExtension>
        </extensions>
      </trkpt>
      <trkpt lat="50.63361" lon="5.47597">
        <ele>104.40000152588</ele>
        <extensions>
          <gpxtpx:TrackPointExtension xmlns:gpxtpx="http://www.garmin.com/xmlschemas/TrackPointExtension/v1">
            <gpxtpx:hr>125</gpxtpx:hr>
          </gpxtpx:TrackPointExtension>
        </extensions>
      </trkpt>
      <trkpt lat="50.63319" lon="5.47617">
        <ele>103.19999694824</ele>
        <extensions>
          <gpxtpx:TrackPointExtension xmlns:gpxtpx="http://www.garmin.com/xmlschemas/TrackPointExtension/v1">
            <gpxtpx:hr>124</gpxtpx:hr>
          </gpxtpx:TrackPointExtension>
        </extensions>
      </trkpt>
      <trkpt lat="50.63309" lon="5.47623">
        <ele>102.40000152588</ele>
        <extensions>
          <gpxtpx:TrackPointExtension xmlns:gpxtpx="http://www.garmin.com/xmlschemas/TrackPointExtension/v1">
            <gpxtpx:hr>124</gpxtpx:hr>
          </gpxtpx:TrackPointExtension>
        </extensions>
      </trkpt>
      <trkpt lat="50.633" lon="5.4763">
        <ele>101.80000305176</ele>
        <extensions>
          <gpxtpx:TrackPointExtension xmlns:gpxtpx="http://www.garmin.com/xmlschemas/TrackPointExtension/v1">
            <gpxtpx:hr>124</gpxtpx:hr>
          </gpxtpx:TrackPointExtension>
        </extensions>
      </trkpt>
      <trkpt lat="50.6329" lon="5.47638">
        <ele>101.19999694824</ele>
        <extensions>
          <gpxtpx:TrackPointExtension xmlns:gpxtpx="http://www.garmin.com/xmlschemas/TrackPointExtension/v1">
            <gpxtpx:hr>123</gpxtpx:hr>
          </gpxtpx:TrackPointExtension>
        </extensions>
      </trkpt>
      <trkpt lat="50.63264" lon="5.47667">
        <ele>100.59999847412</ele>
        <extensions>
          <gpxtpx:TrackPointExtension xmlns:gpxtpx="http://www.garmin.com/xmlschemas/TrackPointExtension/v1">
            <gpxtpx:hr>122</gpxtpx:hr>
          </gpxtpx:TrackPointExtension>
        </extensions>
      </trkpt>
      <trkpt lat="50.63257" lon="5.4768">
        <ele>100.59999847412</ele>
        <extensions>
          <gpxtpx:TrackPointExtension xmlns:gpxtpx="http://www.garmin.com/xmlschemas/TrackPointExtension/v1">
            <gpxtpx:hr>122</gpxtpx:hr>
          </gpxtpx:TrackPointExtension>
        </extensions>
      </trkpt>
      <trkpt lat="50.63251" lon="5.47693">
        <ele>112</ele>
      </trkpt>
      <trkpt lat="50.63245" lon="5.47724">
        <ele>100</ele>
        <extensions>
          <gpxtpx:TrackPointExtension xmlns:gpxtpx="http://www.garmin.com/xmlschemas/TrackPointExtension/v1">
            <gpxtpx:hr>120</gpxtpx:hr>
          </gpxtpx:TrackPointExtension>
        </extensions>
      </trkpt>
      <trkpt lat="50.63241" lon="5.47765">
        <ele>107.9</ele>
      </trkpt>
      <trkpt lat="50.63232" lon="5.47821">
        <ele>107.2</ele>
      </trkpt>
      <trkpt lat="50.6322" lon="5.47906">
        <ele>97.199996948242</ele>
        <extensions>
          <gpxtpx:TrackPointExtension xmlns:gpxtpx="http://www.garmin.com/xmlschemas/TrackPointExtension/v1">
            <gpxtpx:hr>119</gpxtpx:hr>
          </gpxtpx:TrackPointExtension>
        </extensions>
      </trkpt>
      <trkpt lat="50.63218" lon="5.47921">
        <ele>97</ele>
        <extensions>
          <gpxtpx:TrackPointExtension xmlns:gpxtpx="http://www.garmin.com/xmlschemas/TrackPointExtension/v1">
            <gpxtpx:hr>118</gpxtpx:hr>
          </gpxtpx:TrackPointExtension>
        </extensions>
      </trkpt>
      <trkpt lat="50.63212" lon="5.47965">
        <ele>96.400001525879</ele>
        <extensions>
          <gpxtpx:TrackPointExtension xmlns:gpxtpx="http://www.garmin.com/xmlschemas/TrackPointExtension/v1">
            <gpxtpx:hr>119</gpxtpx:hr>
          </gpxtpx:TrackPointExtension>
        </extensions>
      </trkpt>
      <trkpt lat="50.6321" lon="5.47979">
        <ele>95.800003051758</ele>
        <extensions>
          <gpxtpx:TrackPointExtension xmlns:gpxtpx="http://www.garmin.com/xmlschemas/TrackPointExtension/v1">
            <gpxtpx:hr>119</gpxtpx:hr>
          </gpxtpx:TrackPointExtension>
        </extensions>
      </trkpt>
      <trkpt lat="50.63206" lon="5.48007">
        <ele>94.199996948242</ele>
        <extensions>
          <gpxtpx:TrackPointExtension xmlns:gpxtpx="http://www.garmin.com/xmlschemas/TrackPointExtension/v1">
            <gpxtpx:hr>120</gpxtpx:hr>
          </gpxtpx:TrackPointExtension>
        </extensions>
      </trkpt>
      <trkpt lat="50.632" lon="5.4805">
        <ele>92.800003051758</ele>
        <extensions>
          <gpxtpx:TrackPointExtension xmlns:gpxtpx="http://www.garmin.com/xmlschemas/TrackPointExtension/v1">
            <gpxtpx:hr>121</gpxtpx:hr>
          </gpxtpx:TrackPointExtension>
        </extensions>
      </trkpt>
      <trkpt lat="50.63186" lon="5.48119">
        <ele>91.599998474121</ele>
        <extensions>
          <gpxtpx:TrackPointExtension xmlns:gpxtpx="http://www.garmin.com/xmlschemas/TrackPointExtension/v1">
            <gpxtpx:hr>121</gpxtpx:hr>
          </gpxtpx:TrackPointExtension>
        </extensions>
      </trkpt>
      <trkpt lat="50.63167" lon="5.48185">
        <ele>90.599998474121</ele>
        <extensions>
          <gpxtpx:TrackPointExtension xmlns:gpxtpx="http://www.garmin.com/xmlschemas/TrackPointExtension/v1">
            <gpxtpx:hr>123</gpxtpx:hr>
          </gpxtpx:TrackPointExtension>
        </extensions>
      </trkpt>
      <trkpt lat="50.63158" lon="5.4821">
        <ele>90.400001525879</ele>
        <extensions>
          <gpxtpx:TrackPointExtension xmlns:gpxtpx="http://www.garmin.com/xmlschemas/TrackPointExtension/v1">
            <gpxtpx:hr>122</gpxtpx:hr>
          </gpxtpx:TrackPointExtension>
        </extensions>
      </trkpt>
      <trkpt lat="50.63132" lon="5.48267">
        <ele>89.599998474121</ele>
        <extensions>
          <gpxtpx:TrackPointExtension xmlns:gpxtpx="http://www.garmin.com/xmlschemas/TrackPointExtension/v1">
            <gpxtpx:hr>122</gpxtpx:hr>
          </gpxtpx:TrackPointExtension>
        </extensions>
      </trkpt>
      <trkpt lat="50.63126" lon="5.48277">
        <ele>89.400001525879</ele>
        <extensions>
          <gpxtpx:TrackPointExtension xmlns:gpxtpx="http://www.garmin.com/xmlschemas/TrackPointExtension/v1">
            <gpxtpx:hr>122</gpxtpx:hr>
          </gpxtpx:TrackPointExtension>
        </extensions>
      </trkpt>
      <trkpt lat="50.63101" lon="5.4831">
        <ele>99.5</ele>
      </trkpt>
      <trkpt lat="50.63084" lon="5.48335">
        <ele>97.5</ele>
      </trkpt>
      <trkpt lat="50.63041" lon="5.48378">
        <ele>87</ele>
        <extensions>
          <gpxtpx:TrackPointExtension xmlns:gpxtpx="http://www.garmin.com/xmlschemas/TrackPointExtension/v1">
            <gpxtpx:hr>125</gpxtpx:hr>
          </gpxtpx:TrackPointExtension>
        </extensions>
      </trkpt>
      <trkpt lat="50.63032" lon="5.48382">
        <ele>86.800003051758</ele>
        <extensions>
          <gpxtpx:TrackPointExtension xmlns:gpxtpx="http://www.garmin.com/xmlschemas/TrackPointExtension/v1">
            <gpxtpx:hr>125</gpxtpx:hr>
          </gpxtpx:TrackPointExtension>
        </extensions>
      </trkpt>
      <trkpt lat="50.62978" lon="5.48401">
        <ele>86.199996948242</ele>
        <extensions>
          <gpxtpx:TrackPointExtension xmlns:gpxtpx="http://www.garmin.com/xmlschemas/TrackPointExtension/v1">
            <gpxtpx:hr>127</gpxtpx:hr>
          </gpxtpx:TrackPointExtension>
        </extensions>
      </trkpt>
      <trkpt lat="50.6296" lon="5.48406">
        <ele>85.800003051758</ele>
        <extensions>
          <gpxtpx:TrackPointExtension xmlns:gpxtpx="http://www.garmin.com/xmlschemas/TrackPointExtension/v1">
            <gpxtpx:hr>127</gpxtpx:hr>
          </gpxtpx:TrackPointExtension>
        </extensions>
      </trkpt>
      <trkpt lat="50.62909" lon="5.48422">
        <ele>95.2</ele>
      </trkpt>
      <trkpt lat="50.62896" lon="5.48436">
        <ele>95.3</ele>
      </trkpt>
      <trkpt lat="50.62882" lon="5.48453">
        <ele>95.4</ele>
      </trkpt>
      <trkpt lat="50.62872" lon="5.48475">
        <ele>95.3</ele>
      </trkpt>
      <trkpt lat="50.62856" lon="5.48508">
        <ele>83.800003051758</ele>
        <extensions>
          <gpxtpx:TrackPointExtension xmlns:gpxtpx="http://www.garmin.com/xmlschemas/TrackPointExtension/v1">
            <gpxtpx:hr>127</gpxtpx:hr>
          </gpxtpx:TrackPointExtension>
        </extensions>
      </trkpt>
      <trkpt lat="50.62844" lon="5.48531">
        <ele>83.400001525879</ele>
        <extensions>
          <gpxtpx:TrackPointExtension xmlns:gpxtpx="http://www.garmin.com/xmlschemas/TrackPointExtension/v1">
            <gpxtpx:hr>126</gpxtpx:hr>
          </gpxtpx:TrackPointExtension>
        </extensions>
      </trkpt>
      <trkpt lat="50.62816" lon="5.48572">
        <ele>82.599998474121</ele>
        <extensions>
          <gpxtpx:TrackPointExtension xmlns:gpxtpx="http://www.garmin.com/xmlschemas/TrackPointExtension/v1">
            <gpxtpx:hr>126</gpxtpx:hr>
          </gpxtpx:TrackPointExtension>
        </extensions>
      </trkpt>
      <trkpt lat="50.62808" lon="5.48582">
        <ele>82.400001525879</ele>
        <extensions>
          <gpxtpx:TrackPointExtension xmlns:gpxtpx="http://www.garmin.com/xmlschemas/TrackPointExtension/v1">
            <gpxtpx:hr>126</gpxtpx:hr>
          </gpxtpx:TrackPointExtension>
        </extensions>
      </trkpt>
      <trkpt lat="50.628" lon="5.48591">
        <ele>82</ele>
        <extensions>
          <gpxtpx:TrackPointExtension xmlns:gpxtpx="http://www.garmin.com/xmlschemas/TrackPointExtension/v1">
            <gpxtpx:hr>127</gpxtpx:hr>
          </gpxtpx:TrackPointExtension>
        </extensions>
      </trkpt>
      <trkpt lat="50.62783" lon="5.48605">
        <ele>81.800003051758</ele>
        <extensions>
          <gpxtpx:TrackPointExtension xmlns:gpxtpx="http://www.garmin.com/xmlschemas/TrackPointExtension/v1">
            <gpxtpx:hr>127</gpxtpx:hr>
          </gpxtpx:TrackPointExtension>
        </extensions>
      </trkpt>
      <trkpt lat="50.62764" lon="5.48616">
        <ele>81.400001525879</ele>
        <extensions>
          <gpxtpx:TrackPointExtension xmlns:gpxtpx="http://www.garmin.com/xmlschemas/TrackPointExtension/v1">
            <gpxtpx:hr>126</gpxtpx:hr>
          </gpxtpx:TrackPointExtension>
        </extensions>
      </trkpt>
      <trkpt lat="50.62755" lon="5.48621">
        <ele>81.199996948242</ele>
        <extensions>
          <gpxtpx:TrackPointExtension xmlns:gpxtpx="http://www.garmin.com/xmlschemas/TrackPointExtension/v1">
            <gpxtpx:hr>126</gpxtpx:hr>
          </gpxtpx:TrackPointExtension>
        </extensions>
      </trkpt>
      <trkpt lat="50.62737" lon="5.4863">
        <ele>80.199996948242</ele>
        <extensions>
          <gpxtpx:TrackPointExtension xmlns:gpxtpx="http://www.garmin.com/xmlschemas/TrackPointExtension/v1">
            <gpxtpx:hr>126</gpxtpx:hr>
          </gpxtpx:TrackPointExtension>
        </extensions>
      </trkpt>
      <trkpt lat="50.62701" lon="5.4865">
        <ele>90.3</ele>
      </trkpt>
      <trkpt lat="50.62676" lon="5.48662">
        <ele>78.400001525879</ele>
        <extensions>
          <gpxtpx:TrackPointExtension xmlns:gpxtpx="http://www.garmin.com/xmlschemas/TrackPointExtension/v1">
            <gpxtpx:hr>126</gpxtpx:hr>
          </gpxtpx:TrackPointExtension>
        </extensions>
      </trkpt>
      <trkpt lat="50.62624" lon="5.48693">
        <ele>77.800003051758</ele>
        <extensions>
          <gpxtpx:TrackPointExtension xmlns:gpxtpx="http://www.garmin.com/xmlschemas/TrackPointExtension/v1">
            <gpxtpx:hr>127</gpxtpx:hr>
          </gpxtpx:TrackPointExtension>
        </extensions>
      </trkpt>
      <trkpt lat="50.62615" lon="5.48699">
        <ele>77.599998474121</ele>
        <extensions>
          <gpxtpx:TrackPointExtension xmlns:gpxtpx="http://www.garmin.com/xmlschemas/TrackPointExtension/v1">
            <gpxtpx:hr>127</gpxtpx:hr>
          </gpxtpx:TrackPointExtension>
        </extensions>
      </trkpt>
      <trkpt lat="50.62591" lon="5.48717">
        <ele>77.400001525879</ele>
        <extensions>
          <gpxtpx:TrackPointExtension xmlns:gpxtpx="http://www.garmin.com/xmlschemas/TrackPointExtension/v1">
            <gpxtpx:hr>127</gpxtpx:hr>
          </gpxtpx:TrackPointExtension>
        </extensions>
      </trkpt>
      <trkpt lat="50.62571" lon="5.48736">
        <ele>88</ele>
      </trkpt>
      <trkpt lat="50.62554" lon="5.48753">
        <ele>87.7</ele>
      </trkpt>
      <trkpt lat="50.62545" lon="5.48772">
        <ele>88.1</ele>
      </trkpt>
      <trkpt lat="50.6253" lon="5.4881">
        <ele>76.599998474121</ele>
        <extensions>
          <gpxtpx:TrackPointExtension xmlns:gpxtpx="http://www.garmin.com/xmlschemas/TrackPointExtension/v1">
            <gpxtpx:hr>132</gpxtpx:hr>
          </gpxtpx:TrackPointExtension>
        </extensions>
      </trkpt>
      <trkpt lat="50.62511" lon="5.48872">
        <ele>76.400001525879</ele>
        <extensions>
          <gpxtpx:TrackPointExtension xmlns:gpxtpx="http://www.garmin.com/xmlschemas/TrackPointExtension/v1">
            <gpxtpx:hr>135</gpxtpx:hr>
          </gpxtpx:TrackPointExtension>
        </extensions>
      </trkpt>
      <trkpt lat="50.62508" lon="5.48886">
        <ele>76.400001525879</ele>
        <extensions>
          <gpxtpx:TrackPointExtension xmlns:gpxtpx="http://www.garmin.com/xmlschemas/TrackPointExtension/v1">
            <gpxtpx:hr>135</gpxtpx:hr>
          </gpxtpx:TrackPointExtension>
        </extensions>
      </trkpt>
      <trkpt lat="50.6249" lon="5.48936">
        <ele>89</ele>
      </trkpt>
      <trkpt lat="50.62473" lon="5.48968">
        <ele>89.5</ele>
      </trkpt>
      <trkpt lat="50.6246" lon="5.48997">
        <ele>89</ele>
      </trkpt>
      <trkpt lat="50.62443" lon="5.49033">
        <ele>76.599998474121</ele>
        <extensions>
          <gpxtpx:TrackPointExtension xmlns:gpxtpx="http://www.garmin.com/xmlschemas/TrackPointExtension/v1">
            <gpxtpx:hr>139</gpxtpx:hr>
          </gpxtpx:TrackPointExtension>
        </extensions>
      </trkpt>
      <trkpt lat="50.62438" lon="5.49045">
        <ele>76.400001525879</ele>
        <extensions>
          <gpxtpx:TrackPointExtension xmlns:gpxtpx="http://www.garmin.com/xmlschemas/TrackPointExtension/v1">
            <gpxtpx:hr>139</gpxtpx:hr>
          </gpxtpx:TrackPointExtension>
        </extensions>
      </trkpt>
      <trkpt lat="50.62418" lon="5.49096">
        <ele>75.199996948242</ele>
        <extensions>
          <gpxtpx:TrackPointExtension xmlns:gpxtpx="http://www.garmin.com/xmlschemas/TrackPointExtension/v1">
            <gpxtpx:hr>140</gpxtpx:hr>
          </gpxtpx:TrackPointExtension>
        </extensions>
      </trkpt>
      <trkpt lat="50.62408" lon="5.49123">
        <ele>73.599998474121</ele>
        <extensions>
          <gpxtpx:TrackPointExtension xmlns:gpxtpx="http://www.garmin.com/xmlschemas/TrackPointExtension/v1">
            <gpxtpx:hr>140</gpxtpx:hr>
          </gpxtpx:TrackPointExtension>
        </extensions>
      </trkpt>
      <trkpt lat="50.62404" lon="5.49137">
        <ele>73</ele>
        <extensions>
          <gpxtpx:TrackPointExtension xmlns:gpxtpx="http://www.garmin.com/xmlschemas/TrackPointExtension/v1">
            <gpxtpx:hr>141</gpxtpx:hr>
          </gpxtpx:TrackPointExtension>
        </extensions>
      </trkpt>
      <trkpt lat="50.62397" lon="5.49165">
        <ele>72.400001525879</ele>
        <extensions>
          <gpxtpx:TrackPointExtension xmlns:gpxtpx="http://www.garmin.com/xmlschemas/TrackPointExtension/v1">
            <gpxtpx:hr>141</gpxtpx:hr>
          </gpxtpx:TrackPointExtension>
        </extensions>
      </trkpt>
      <trkpt lat="50.62387" lon="5.49224">
        <ele>71.800003051758</ele>
        <extensions>
          <gpxtpx:TrackPointExtension xmlns:gpxtpx="http://www.garmin.com/xmlschemas/TrackPointExtension/v1">
            <gpxtpx:hr>141</gpxtpx:hr>
          </gpxtpx:TrackPointExtension>
        </extensions>
      </trkpt>
      <trkpt lat="50.62382" lon="5.49253">
        <ele>71.400001525879</ele>
        <extensions>
          <gpxtpx:TrackPointExtension xmlns:gpxtpx="http://www.garmin.com/xmlschemas/TrackPointExtension/v1">
            <gpxtpx:hr>142</gpxtpx:hr>
          </gpxtpx:TrackPointExtension>
        </extensions>
      </trkpt>
      <trkpt lat="50.62369" lon="5.49309">
        <ele>70.800003051758</ele>
        <extensions>
          <gpxtpx:TrackPointExtension xmlns:gpxtpx="http://www.garmin.com/xmlschemas/TrackPointExtension/v1">
            <gpxtpx:hr>142</gpxtpx:hr>
          </gpxtpx:TrackPointExtension>
        </extensions>
      </trkpt>
      <trkpt lat="50.62345" lon="5.49372">
        <ele>70.400001525879</ele>
        <extensions>
          <gpxtpx:TrackPointExtension xmlns:gpxtpx="http://www.garmin.com/xmlschemas/TrackPointExtension/v1">
            <gpxtpx:hr>143</gpxtpx:hr>
          </gpxtpx:TrackPointExtension>
        </extensions>
      </trkpt>
      <trkpt lat="50.62328" lon="5.49402">
        <ele>83</ele>
      </trkpt>
      <trkpt lat="50.6231" lon="5.49424">
        <ele>82.8</ele>
      </trkpt>
      <trkpt lat="50.62273" lon="5.49465">
        <ele>82.8</ele>
      </trkpt>
      <trkpt lat="50.62234" lon="5.49516">
        <ele>80.4</ele>
      </trkpt>
      <trkpt lat="50.62201" lon="5.49546">
        <ele>79.9</ele>
      </trkpt>
      <trkpt lat="50.6219" lon="5.49557">
        <ele>79.8</ele>
      </trkpt>
      <trkpt lat="50.62168" lon="5.49569">
        <ele>70.599998474121</ele>
        <extensions>
          <gpxtpx:TrackPointExtension xmlns:gpxtpx="http://www.garmin.com/xmlschemas/TrackPointExtension/v1">
            <gpxtpx:hr>134</gpxtpx:hr>
          </gpxtpx:TrackPointExtension>
        </extensions>
      </trkpt>
      <trkpt lat="50.62161" lon="5.49571">
        <ele>70.199996948242</ele>
        <extensions>
          <gpxtpx:TrackPointExtension xmlns:gpxtpx="http://www.garmin.com/xmlschemas/TrackPointExtension/v1">
            <gpxtpx:hr>133</gpxtpx:hr>
          </gpxtpx:TrackPointExtension>
        </extensions>
      </trkpt>
      <trkpt lat="50.62154" lon="5.49574">
        <ele>70.199996948242</ele>
        <extensions>
          <gpxtpx:TrackPointExtension xmlns:gpxtpx="http://www.garmin.com/xmlschemas/TrackPointExtension/v1">
            <gpxtpx:hr>133</gpxtpx:hr>
          </gpxtpx:TrackPointExtension>
        </extensions>
      </trkpt>
      <trkpt lat="50.62122" lon="5.49587">
        <ele>80</ele>
      </trkpt>
      <trkpt lat="50.62068" lon="5.49592">
        <ele>79.1</ele>
      </trkpt>
      <trkpt lat="50.62048" lon="5.49594">
        <ele>78.9</ele>
      </trkpt>
      <trkpt lat="50.62021" lon="5.49598">
        <ele>66.599998474121</ele>
        <extensions>
          <gpxtpx:TrackPointExtension xmlns:gpxtpx="http://www.garmin.com/xmlschemas/TrackPointExtension/v1">
            <gpxtpx:hr>130</gpxtpx:hr>
          </gpxtpx:TrackPointExtension>
        </extensions>
      </trkpt>
      <trkpt lat="50.62012" lon="5.49601">
        <ele>66.199996948242</ele>
        <extensions>
          <gpxtpx:TrackPointExtension xmlns:gpxtpx="http://www.garmin.com/xmlschemas/TrackPointExtension/v1">
            <gpxtpx:hr>130</gpxtpx:hr>
          </gpxtpx:TrackPointExtension>
        </extensions>
      </trkpt>
      <trkpt lat="50.61993" lon="5.49611">
        <ele>65.199996948242</ele>
        <extensions>
          <gpxtpx:TrackPointExtension xmlns:gpxtpx="http://www.garmin.com/xmlschemas/TrackPointExtension/v1">
            <gpxtpx:hr>130</gpxtpx:hr>
          </gpxtpx:TrackPointExtension>
        </extensions>
      </trkpt>
      <trkpt lat="50.61975" lon="5.49624">
        <ele>64.400001525879</ele>
        <extensions>
          <gpxtpx:TrackPointExtension xmlns:gpxtpx="http://www.garmin.com/xmlschemas/TrackPointExtension/v1">
            <gpxtpx:hr>131</gpxtpx:hr>
          </gpxtpx:TrackPointExtension>
        </extensions>
      </trkpt>
      <trkpt lat="50.61966" lon="5.49632">
        <ele>64</ele>
        <extensions>
          <gpxtpx:TrackPointExtension xmlns:gpxtpx="http://www.garmin.com/xmlschemas/TrackPointExtension/v1">
            <gpxtpx:hr>131</gpxtpx:hr>
          </gpxtpx:TrackPointExtension>
        </extensions>
      </trkpt>
      <trkpt lat="50.61934" lon="5.4967">
        <ele>62.799999237061</ele>
        <extensions>
          <gpxtpx:TrackPointExtension xmlns:gpxtpx="http://www.garmin.com/xmlschemas/TrackPointExtension/v1">
            <gpxtpx:hr>131</gpxtpx:hr>
          </gpxtpx:TrackPointExtension>
        </extensions>
      </trkpt>
      <trkpt lat="50.61893" lon="5.49707">
        <ele>61.599998474121</ele>
        <extensions>
          <gpxtpx:TrackPointExtension xmlns:gpxtpx="http://www.garmin.com/xmlschemas/TrackPointExtension/v1">
            <gpxtpx:hr>131</gpxtpx:hr>
          </gpxtpx:TrackPointExtension>
        </extensions>
      </trkpt>
      <trkpt lat="50.6186" lon="5.49734">
        <ele>60.400001525879</ele>
        <extensions>
          <gpxtpx:TrackPointExtension xmlns:gpxtpx="http://www.garmin.com/xmlschemas/TrackPointExtension/v1">
            <gpxtpx:hr>130</gpxtpx:hr>
          </gpxtpx:TrackPointExtension>
        </extensions>
      </trkpt>
      <trkpt lat="50.61837" lon="5.49758">
        <ele>60.400001525879</ele>
        <extensions>
          <gpxtpx:TrackPointExtension xmlns:gpxtpx="http://www.garmin.com/xmlschemas/TrackPointExtension/v1">
            <gpxtpx:hr>129</gpxtpx:hr>
          </gpxtpx:TrackPointExtension>
        </extensions>
      </trkpt>
      <trkpt lat="50.61788" lon="5.49801">
        <ele>59.799999237061</ele>
        <extensions>
          <gpxtpx:TrackPointExtension xmlns:gpxtpx="http://www.garmin.com/xmlschemas/TrackPointExtension/v1">
            <gpxtpx:hr>127</gpxtpx:hr>
          </gpxtpx:TrackPointExtension>
        </extensions>
      </trkpt>
      <trkpt lat="50.61762" lon="5.49817">
        <ele>59.200000762939</ele>
        <extensions>
          <gpxtpx:TrackPointExtension xmlns:gpxtpx="http://www.garmin.com/xmlschemas/TrackPointExtension/v1">
            <gpxtpx:hr>125</gpxtpx:hr>
          </gpxtpx:TrackPointExtension>
        </extensions>
      </trkpt>
      <trkpt lat="50.61727" lon="5.49836">
        <ele>58.200000762939</ele>
        <extensions>
          <gpxtpx:TrackPointExtension xmlns:gpxtpx="http://www.garmin.com/xmlschemas/TrackPointExtension/v1">
            <gpxtpx:hr>124</gpxtpx:hr>
          </gpxtpx:TrackPointExtension>
        </extensions>
      </trkpt>
      <trkpt lat="50.61703" lon="5.4985">
        <ele>56.799999237061</ele>
        <extensions>
          <gpxtpx:TrackPointExtension xmlns:gpxtpx="http://www.garmin.com/xmlschemas/TrackPointExtension/v1">
            <gpxtpx:hr>123</gpxtpx:hr>
          </gpxtpx:TrackPointExtension>
        </extensions>
      </trkpt>
      <trkpt lat="50.61681" lon="5.49867">
        <ele>56.400001525879</ele>
        <extensions>
          <gpxtpx:TrackPointExtension xmlns:gpxtpx="http://www.garmin.com/xmlschemas/TrackPointExtension/v1">
            <gpxtpx:hr>123</gpxtpx:hr>
          </gpxtpx:TrackPointExtension>
        </extensions>
      </trkpt>
      <trkpt lat="50.6165" lon="5.49904">
        <ele>65.4</ele>
      </trkpt>
      <trkpt lat="50.6163" lon="5.4993">
        <ele>65.5</ele>
      </trkpt>
      <trkpt lat="50.616" lon="5.49965">
        <ele>57.799999237061</ele>
        <extensions>
          <gpxtpx:TrackPointExtension xmlns:gpxtpx="http://www.garmin.com/xmlschemas/TrackPointExtension/v1">
            <gpxtpx:hr>118</gpxtpx:hr>
          </gpxtpx:TrackPointExtension>
        </extensions>
      </trkpt>
      <trkpt lat="50.61595" lon="5.49971">
        <ele>57.799999237061</ele>
        <extensions>
          <gpxtpx:TrackPointExtension xmlns:gpxtpx="http://www.garmin.com/xmlschemas/TrackPointExtension/v1">
            <gpxtpx:hr>118</gpxtpx:hr>
          </gpxtpx:TrackPointExtension>
        </extensions>
      </trkpt>
      <trkpt lat="50.61575" lon="5.4999">
        <ele>57.799999237061</ele>
        <extensions>
          <gpxtpx:TrackPointExtension xmlns:gpxtpx="http://www.garmin.com/xmlschemas/TrackPointExtension/v1">
            <gpxtpx:hr>115</gpxtpx:hr>
          </gpxtpx:TrackPointExtension>
        </extensions>
      </trkpt>
      <trkpt lat="50.61565" lon="5.49999">
        <ele>57.799999237061</ele>
        <extensions>
          <gpxtpx:TrackPointExtension xmlns:gpxtpx="http://www.garmin.com/xmlschemas/TrackPointExtension/v1">
            <gpxtpx:hr>114</gpxtpx:hr>
          </gpxtpx:TrackPointExtension>
        </extensions>
      </trkpt>
      <trkpt lat="50.61546" lon="5.50014">
        <ele>56.799999237061</ele>
        <extensions>
          <gpxtpx:TrackPointExtension xmlns:gpxtpx="http://www.garmin.com/xmlschemas/TrackPointExtension/v1">
            <gpxtpx:hr>113</gpxtpx:hr>
          </gpxtpx:TrackPointExtension>
        </extensions>
      </trkpt>
      <trkpt lat="50.6153" lon="5.50028">
        <ele>56.400001525879</ele>
        <extensions>
          <gpxtpx:TrackPointExtension xmlns:gpxtpx="http://www.garmin.com/xmlschemas/TrackPointExtension/v1">
            <gpxtpx:hr>113</gpxtpx:hr>
          </gpxtpx:TrackPointExtension>
        </extensions>
      </trkpt>
      <trkpt lat="50.61509" lon="5.50046">
        <ele>56.400001525879</ele>
        <extensions>
          <gpxtpx:TrackPointExtension xmlns:gpxtpx="http://www.garmin.com/xmlschemas/TrackPointExtension/v1">
            <gpxtpx:hr>110</gpxtpx:hr>
          </gpxtpx:TrackPointExtension>
        </extensions>
      </trkpt>
      <trkpt lat="50.61498" lon="5.50056">
        <ele>56.599998474121</ele>
        <extensions>
          <gpxtpx:TrackPointExtension xmlns:gpxtpx="http://www.garmin.com/xmlschemas/TrackPointExtension/v1">
            <gpxtpx:hr>108</gpxtpx:hr>
          </gpxtpx:TrackPointExtension>
        </extensions>
      </trkpt>
      <trkpt lat="50.61486" lon="5.50068">
        <ele>56.799999237061</ele>
        <extensions>
          <gpxtpx:TrackPointExtension xmlns:gpxtpx="http://www.garmin.com/xmlschemas/TrackPointExtension/v1">
            <gpxtpx:hr>108</gpxtpx:hr>
          </gpxtpx:TrackPointExtension>
        </extensions>
      </trkpt>
      <trkpt lat="50.61465" lon="5.50091">
        <ele>63.3</ele>
      </trkpt>
      <trkpt lat="50.61385" lon="5.49952">
        <ele>62</ele>
      </trkpt>
      <trkpt lat="50.61344" lon="5.49884">
        <ele>62</ele>
      </trkpt>
      <trkpt lat="50.61301" lon="5.4981">
        <ele>61</ele>
      </trkpt>
      <trkpt lat="50.61276" lon="5.49765">
        <ele>61</ele>
      </trkpt>
      <trkpt lat="50.61253" lon="5.49727">
        <ele>64</ele>
      </trkpt>
      <trkpt lat="50.61211" lon="5.49659">
        <ele>68</ele>
      </trkpt>
      <trkpt lat="50.61145" lon="5.49562">
        <ele>66</ele>
      </trkpt>
      <trkpt lat="50.61085" lon="5.49471">
        <ele>63</ele>
      </trkpt>
      <trkpt lat="50.61025" lon="5.49378">
        <ele>64</ele>
      </trkpt>
      <trkpt lat="50.60913" lon="5.4921">
        <ele>65</ele>
      </trkpt>
      <trkpt lat="50.60859" lon="5.49125">
        <ele>65</ele>
      </trkpt>
      <trkpt lat="50.60836" lon="5.49089">
        <ele>65</ele>
      </trkpt>
      <trkpt lat="50.60812" lon="5.49045">
        <ele>66</ele>
      </trkpt>
      <trkpt lat="50.60758" lon="5.48943">
        <ele>64</ele>
      </trkpt>
      <trkpt lat="50.60705" lon="5.48839">
        <ele>64</ele>
      </trkpt>
      <trkpt lat="50.60671" lon="5.48769">
        <ele>64</ele>
      </trkpt>
      <trkpt lat="50.60634" lon="5.48689">
        <ele>64</ele>
      </trkpt>
      <trkpt lat="50.60569" lon="5.48543">
        <ele>65</ele>
      </trkpt>
      <trkpt lat="50.60506" lon="5.484">
        <ele>67</ele>
      </trkpt>
      <trkpt lat="50.605" lon="5.48368">
        <ele>67</ele>
      </trkpt>
      <trkpt lat="50.60489" lon="5.48368">
        <ele>67</ele>
      </trkpt>
      <trkpt lat="50.60486" lon="5.48379">
        <ele>67</ele>
      </trkpt>
      <trkpt lat="50.60485" lon="5.48391">
        <ele>67</ele>
      </trkpt>
      <trkpt lat="50.60462" lon="5.48419">
        <ele>66</ele>
      </trkpt>
      <trkpt lat="50.60422" lon="5.48469">
        <ele>65</ele>
      </trkpt>
      <trkpt lat="50.60406" lon="5.4844">
        <ele>65</ele>
      </trkpt>
      <trkpt lat="50.60423" lon="5.48432">
        <ele>65.2</ele>
      </trkpt>
    </trkseg>
  </trk>
</gpx>